<?xml version='1.0' encoding='UTF-8'?><gpx version="1.1" creator="JPX - https://github.com/jenetics/jpx" xmlns="http://www.topografix.com/GPX/1/1"><trk><trkseg><trkpt lat="44.327753841680995" lon="8.341791343299796"><ele>514.0</ele><time>2026-04-04T08:31:48Z</time></trkpt><trkpt lat="44.327848530456414" lon="8.341723599512584"><ele>514.0</ele><time>2026-04-04T08:31:50.001Z</time></trkpt><trkpt lat="44.32791236915538" lon="8.341697089513534"><ele>514.0</ele><time>2026-04-04T08:31:51.001Z</time></trkpt><trkpt lat="44.32801881410766" lon="8.341647300018481"><ele>514.0</ele><time>2026-04-04T08:31:53.001Z</time></trkpt><trkpt lat="44.3281160958039" lon="8.341565703797169"><ele>514.0</ele><time>2026-04-04T08:31:55.001Z</time></trkpt><trkpt lat="44.328169867817664" lon="8.34150136673628"><ele>513.6</ele><time>2026-04-04T08:31:56.001Z</time></trkpt><trkpt lat="44.32826177094113" lon="8.341405320229482"><ele>513.2</ele><time>2026-04-04T08:31:58.001Z</time></trkpt><trkpt lat="44.328392375304944" lon="8.341367481803717"><ele>512.8000000000001</ele><time>2026-04-04T08:32:00.001Z</time></trkpt><trkpt lat="44.32846633940107" lon="8.341363007159506"><ele>512.4</ele><time>2026-04-04T08:32:01.001Z</time></trkpt><trkpt lat="44.32853821690397" lon="8.341354534416274"><ele>512.0</ele><time>2026-04-04T08:32:02.001Z</time></trkpt><trkpt lat="44.32861306510972" lon="8.341313376099617"><ele>511.0</ele><time>2026-04-04T08:32:03.001Z</time></trkpt><trkpt lat="44.328671776589125" lon="8.341245646921443"><ele>510.00000000000006</ele><time>2026-04-04T08:32:04.001Z</time></trkpt><trkpt lat="44.32873782093789" lon="8.341175162127117"><ele>509.00000000000006</ele><time>2026-04-04T08:32:05.001Z</time></trkpt><trkpt lat="44.328840132233196" lon="8.341115812558366"><ele>508.0</ele><time>2026-04-04T08:32:07.001Z</time></trkpt><trkpt lat="44.32894846262662" lon="8.341137141935608"><ele>507.0</ele><time>2026-04-04T08:32:09Z</time></trkpt><trkpt lat="44.32905793265295" lon="8.34110027354652"><ele>507.0</ele><time>2026-04-04T08:32:11Z</time></trkpt><trkpt lat="44.32912544969447" lon="8.341112161074218"><ele>507.0</ele><time>2026-04-04T08:32:12Z</time></trkpt><trkpt lat="44.32924842106438" lon="8.341100076254863"><ele>507.0</ele><time>2026-04-04T08:32:14Z</time></trkpt><trkpt lat="44.32935407536347" lon="8.341083357468781"><ele>507.0</ele><time>2026-04-04T08:32:15Z</time></trkpt><trkpt lat="44.329419942830214" lon="8.341043525588761"><ele>507.0</ele><time>2026-04-04T08:32:16Z</time></trkpt><trkpt lat="44.329471327985694" lon="8.340973340967368"><ele>507.0</ele><time>2026-04-04T08:32:17Z</time></trkpt><trkpt lat="44.329546684534016" lon="8.340827198619943"><ele>507.0</ele><time>2026-04-04T08:32:19Z</time></trkpt><trkpt lat="44.329594720970334" lon="8.340731046082526"><ele>507.0</ele><time>2026-04-04T08:32:20Z</time></trkpt><trkpt lat="44.32965327707835" lon="8.340643788605554"><ele>507.0</ele><time>2026-04-04T08:32:21Z</time></trkpt><trkpt lat="44.329703194380755" lon="8.34051573082762"><ele>507.0</ele><time>2026-04-04T08:32:23Z</time></trkpt><trkpt lat="44.32974153642957" lon="8.340423168467657"><ele>507.0</ele><time>2026-04-04T08:32:26Z</time></trkpt><trkpt lat="44.32980497589022" lon="8.340428455925514"><ele>507.0</ele><time>2026-04-04T08:32:28Z</time></trkpt><trkpt lat="44.32989006167434" lon="8.340389419488831"><ele>503.6666666666667</ele><time>2026-04-04T08:32:56Z</time></trkpt><trkpt lat="44.32997439829293" lon="8.340333279946327"><ele>500.33333333333337</ele><time>2026-04-04T08:33:00Z</time></trkpt><trkpt lat="44.33004126498044" lon="8.340315452155211"><ele>497.0</ele><time>2026-04-04T08:33:10Z</time></trkpt><trkpt lat="44.33010973821205" lon="8.34032837949161"><ele>493.6666666666667</ele><time>2026-04-04T08:33:12Z</time></trkpt><trkpt lat="44.3302230187969" lon="8.340285552413032"><ele>490.33333333333337</ele><time>2026-04-04T08:33:14Z</time></trkpt><trkpt lat="44.33028975605957" lon="8.340258786662359"><ele>487.0</ele><time>2026-04-04T08:33:15Z</time></trkpt><trkpt lat="44.33034335778184" lon="8.340166551475212"><ele>487.0</ele><time>2026-04-04T08:33:17Z</time></trkpt><trkpt lat="44.33040766009486" lon="8.340139861532393"><ele>487.0</ele><time>2026-04-04T08:33:18Z</time></trkpt><trkpt lat="44.330483252346184" lon="8.340122396574008"><ele>487.0</ele><time>2026-04-04T08:33:22Z</time></trkpt><trkpt lat="44.33055760558222" lon="8.340138477195069"><ele>487.0</ele><time>2026-04-04T08:33:24Z</time></trkpt><trkpt lat="44.33061930240905" lon="8.340166715902066"><ele>487.0</ele><time>2026-04-04T08:33:26Z</time></trkpt><trkpt lat="44.3306867696321" lon="8.340188639494587"><ele>487.0</ele><time>2026-04-04T08:33:39Z</time></trkpt><trkpt lat="44.330754879517244" lon="8.340200568460642"><ele>487.0</ele><time>2026-04-04T08:33:41Z</time></trkpt><trkpt lat="44.3308453406499" lon="8.340238413598309"><ele>487.50000000000006</ele><time>2026-04-04T08:33:43Z</time></trkpt><trkpt lat="44.33090923312356" lon="8.340368352986456"><ele>488.0</ele><time>2026-04-04T08:33:45Z</time></trkpt><trkpt lat="44.330949766996454" lon="8.340454750569737"><ele>488.5</ele><time>2026-04-04T08:33:46Z</time></trkpt><trkpt lat="44.33103005072738" lon="8.340535417026734"><ele>489.0</ele><time>2026-04-04T08:33:48Z</time></trkpt><trkpt lat="44.3311049063364" lon="8.340582219082723"><ele>489.50000000000006</ele><time>2026-04-04T08:33:50Z</time></trkpt><trkpt lat="44.33117921219649" lon="8.340625434475895"><ele>490.0</ele><time>2026-04-04T08:33:52Z</time></trkpt><trkpt lat="44.331277303993" lon="8.34067187333871"><ele>489.8</ele><time>2026-04-04T08:33:54Z</time></trkpt><trkpt lat="44.33139706122628" lon="8.340799328806318"><ele>489.6</ele><time>2026-04-04T08:33:56.001Z</time></trkpt><trkpt lat="44.3314609785931" lon="8.340865341835359"><ele>489.4</ele><time>2026-04-04T08:33:57.001Z</time></trkpt><trkpt lat="44.3315379187327" lon="8.340933392412014"><ele>489.2</ele><time>2026-04-04T08:34:00.001Z</time></trkpt><trkpt lat="44.33160595465527" lon="8.340954503914848"><ele>489.0</ele><time>2026-04-04T08:34:01.001Z</time></trkpt><trkpt lat="44.331695166569965" lon="8.340943359064907"><ele>489.0</ele><time>2026-04-04T08:34:03.001Z</time></trkpt><trkpt lat="44.331780366632486" lon="8.34090482631017"><ele>489.0</ele><time>2026-04-04T08:34:06.001Z</time></trkpt><trkpt lat="44.331852321645314" lon="8.340848172329004"><ele>489.0</ele><time>2026-04-04T08:34:09.001Z</time></trkpt><trkpt lat="44.33192864995166" lon="8.340832013342663"><ele>489.0</ele><time>2026-04-04T08:34:13.001Z</time></trkpt><trkpt lat="44.332007690185684" lon="8.34081438183737"><ele>489.0</ele><time>2026-04-04T08:34:17Z</time></trkpt><trkpt lat="44.33207254005441" lon="8.340788448926709"><ele>489.0</ele><time>2026-04-04T08:34:20Z</time></trkpt><trkpt lat="44.33199219201574" lon="8.340715709386219"><ele>489.0</ele><time>2026-04-04T08:34:25Z</time></trkpt><trkpt lat="44.33187585917392" lon="8.34069954985816"><ele>489.0</ele><time>2026-04-04T08:34:28Z</time></trkpt><trkpt lat="44.331792219421864" lon="8.34069336093922"><ele>489.0</ele><time>2026-04-04T08:34:30Z</time></trkpt><trkpt lat="44.331725356247034" lon="8.340692289745595"><ele>489.0</ele><time>2026-04-04T08:34:33Z</time></trkpt><trkpt lat="44.33170316163906" lon="8.34059254207563"><ele>489.0</ele><time>2026-04-04T08:34:35Z</time></trkpt><trkpt lat="44.33169270924717" lon="8.340504660553176"><ele>489.0</ele><time>2026-04-04T08:34:40Z</time></trkpt><trkpt lat="44.331654079096865" lon="8.340419118189395"><ele>488.5714285714286</ele><time>2026-04-04T08:34:45Z</time></trkpt><trkpt lat="44.33160765294915" lon="8.340357512281946"><ele>488.1428571428572</ele><time>2026-04-04T08:34:48Z</time></trkpt><trkpt lat="44.33160608515519" lon="8.340262703723479"><ele>487.7142857142857</ele><time>2026-04-04T08:34:56Z</time></trkpt><trkpt lat="44.33167367853168" lon="8.340246670887426"><ele>487.28571428571433</ele><time>2026-04-04T08:35:03Z</time></trkpt><trkpt lat="44.33171418500153" lon="8.340327264850572"><ele>486.8571428571429</ele><time>2026-04-04T08:35:05Z</time></trkpt><trkpt lat="44.33178286088483" lon="8.340354440200368"><ele>486.42857142857144</ele><time>2026-04-04T08:35:08Z</time></trkpt><trkpt lat="44.33186248301586" lon="8.340306245611968"><ele>486.0</ele><time>2026-04-04T08:35:11Z</time></trkpt><trkpt lat="44.33193150711578" lon="8.340306861867129"><ele>486.0</ele><time>2026-04-04T08:35:14Z</time></trkpt><trkpt lat="44.33201978355255" lon="8.34026368511686"><ele>486.0</ele><time>2026-04-04T08:35:23Z</time></trkpt><trkpt lat="44.332072604902514" lon="8.340214341058653"><ele>486.0</ele><time>2026-04-04T08:35:25Z</time></trkpt><trkpt lat="44.33213238861715" lon="8.340164351390975"><ele>486.0</ele><time>2026-04-04T08:35:26Z</time></trkpt><trkpt lat="44.33225000204119" lon="8.340106273225492"><ele>486.0</ele><time>2026-04-04T08:35:28Z</time></trkpt><trkpt lat="44.33235240289499" lon="8.34004843219205"><ele>480.5</ele><time>2026-04-04T08:35:30Z</time></trkpt><trkpt lat="44.33246462988952" lon="8.339967990435957"><ele>475.0</ele><time>2026-04-04T08:35:32Z</time></trkpt><trkpt lat="44.332569863998856" lon="8.339895496834385"><ele>469.5</ele><time>2026-04-04T08:35:34Z</time></trkpt><trkpt lat="44.33264813080694" lon="8.339826927680749"><ele>464.0</ele><time>2026-04-04T08:35:36Z</time></trkpt><trkpt lat="44.33277956736879" lon="8.33980517616749"><ele>463.99999999999994</ele><time>2026-04-04T08:35:38Z</time></trkpt><trkpt lat="44.332853419247336" lon="8.339783886649036"><ele>464.0</ele><time>2026-04-04T08:35:40Z</time></trkpt><trkpt lat="44.332892691616124" lon="8.339680466128131"><ele>464.0</ele><time>2026-04-04T08:35:41Z</time></trkpt><trkpt lat="44.33295095687254" lon="8.33963309353137"><ele>464.0</ele><time>2026-04-04T08:35:42Z</time></trkpt><trkpt lat="44.333004782993854" lon="8.339577868471798"><ele>463.99999999999994</ele><time>2026-04-04T08:35:43Z</time></trkpt><trkpt lat="44.33310456833353" lon="8.339567145501684"><ele>464.0</ele><time>2026-04-04T08:35:46Z</time></trkpt><trkpt lat="44.3331523886533" lon="8.339656434175717"><ele>460.4</ele><time>2026-04-04T08:35:48Z</time></trkpt><trkpt lat="44.33323018358895" lon="8.339616329448683"><ele>456.79999999999995</ele><time>2026-04-04T08:35:51Z</time></trkpt><trkpt lat="44.3332995000415" lon="8.339609275883994"><ele>453.20000000000005</ele><time>2026-04-04T08:35:53Z</time></trkpt><trkpt lat="44.333404670981544" lon="8.339598839657112"><ele>449.6</ele><time>2026-04-04T08:35:55Z</time></trkpt><trkpt lat="44.33346407227781" lon="8.33954206380837"><ele>446.0</ele><time>2026-04-04T08:35:56Z</time></trkpt><trkpt lat="44.333580233247964" lon="8.339490228036487"><ele>445.99999999999994</ele><time>2026-04-04T08:35:58Z</time></trkpt><trkpt lat="44.33370359026478" lon="8.339494833830866"><ele>446.0</ele><time>2026-04-04T08:36:00Z</time></trkpt><trkpt lat="44.333770057905106" lon="8.339487857047208"><ele>446.0</ele><time>2026-04-04T08:36:01Z</time></trkpt><trkpt lat="44.333845742652066" lon="8.339475802377827"><ele>446.0</ele><time>2026-04-04T08:36:02Z</time></trkpt><trkpt lat="44.33391000767911" lon="8.339462202502867"><ele>445.99999999999994</ele><time>2026-04-04T08:36:03Z</time></trkpt><trkpt lat="44.33397807791306" lon="8.339423019659472"><ele>446.0</ele><time>2026-04-04T08:36:04Z</time></trkpt><trkpt lat="44.33404507107115" lon="8.339401172829662"><ele>443.16666666666663</ele><time>2026-04-04T08:36:05Z</time></trkpt><trkpt lat="44.334120687065855" lon="8.33935915754911"><ele>440.3333333333333</ele><time>2026-04-04T08:36:06Z</time></trkpt><trkpt lat="44.33421227442233" lon="8.339408459998376"><ele>437.5</ele><time>2026-04-04T08:36:07Z</time></trkpt><trkpt lat="44.33428468511877" lon="8.339373342123455"><ele>434.66666666666663</ele><time>2026-04-04T08:36:08Z</time></trkpt><trkpt lat="44.33439477980949" lon="8.339325059487921"><ele>431.8333333333333</ele><time>2026-04-04T08:36:10Z</time></trkpt><trkpt lat="44.3344715426361" lon="8.339311494588815"><ele>429.0</ele><time>2026-04-04T08:36:12Z</time></trkpt><trkpt lat="44.33461103791596" lon="8.339326671603544"><ele>429.0</ele><time>2026-04-04T08:36:14Z</time></trkpt><trkpt lat="44.33467314110929" lon="8.339373308357382"><ele>429.0</ele><time>2026-04-04T08:36:15Z</time></trkpt><trkpt lat="44.33474763640527" lon="8.339381069988876"><ele>429.0</ele><time>2026-04-04T08:36:16Z</time></trkpt><trkpt lat="44.33482613260106" lon="8.339346844846206"><ele>429.0</ele><time>2026-04-04T08:36:17Z</time></trkpt><trkpt lat="44.334906583355725" lon="8.339294852328768"><ele>429.0</ele><time>2026-04-04T08:36:18Z</time></trkpt><trkpt lat="44.33497814166059" lon="8.33925626245939"><ele>429.0</ele><time>2026-04-04T08:36:19Z</time></trkpt><trkpt lat="44.33504478861698" lon="8.339230065910916"><ele>426.8333333333333</ele><time>2026-04-04T08:36:20Z</time></trkpt><trkpt lat="44.335178526007226" lon="8.339197476700788"><ele>424.66666666666663</ele><time>2026-04-04T08:36:22Z</time></trkpt><trkpt lat="44.335244895486625" lon="8.339198494133251"><ele>422.5</ele><time>2026-04-04T08:36:23Z</time></trkpt><trkpt lat="44.33531006587836" lon="8.33919240258438"><ele>420.3333333333333</ele><time>2026-04-04T08:36:24Z</time></trkpt><trkpt lat="44.335376414442806" lon="8.33920935878591"><ele>418.16666666666663</ele><time>2026-04-04T08:36:25Z</time></trkpt><trkpt lat="44.3354641644969" lon="8.33919094043682"><ele>416.0</ele><time>2026-04-04T08:36:27Z</time></trkpt><trkpt lat="44.33553940481798" lon="8.339199291501721"><ele>414.8</ele><time>2026-04-04T08:36:29Z</time></trkpt><trkpt lat="44.33556729636622" lon="8.339332401135282"><ele>413.6</ele><time>2026-04-04T08:36:31Z</time></trkpt><trkpt lat="44.3355993131941" lon="8.339473375687371"><ele>412.4</ele><time>2026-04-04T08:36:33Z</time></trkpt><trkpt lat="44.335610494245046" lon="8.339596529125176"><ele>411.2</ele><time>2026-04-04T08:36:34Z</time></trkpt><trkpt lat="44.33562247450869" lon="8.339704357203985"><ele>410.0</ele><time>2026-04-04T08:36:35Z</time></trkpt><trkpt lat="44.33564316988528" lon="8.339856822796868"><ele>409.99999999999994</ele><time>2026-04-04T08:36:37Z</time></trkpt><trkpt lat="44.335670624525264" lon="8.339957476878885"><ele>410.0</ele><time>2026-04-04T08:36:39Z</time></trkpt><trkpt lat="44.33567637930587" lon="8.34006865300755"><ele>410.0</ele><time>2026-04-04T08:36:41Z</time></trkpt><trkpt lat="44.33573663777441" lon="8.340004010182541"><ele>410.0</ele><time>2026-04-04T08:36:47Z</time></trkpt><trkpt lat="44.33581665443291" lon="8.339925438461988"><ele>409.99999999999994</ele><time>2026-04-04T08:36:48Z</time></trkpt><trkpt lat="44.3358179168476" lon="8.339783768744711"><ele>410.0</ele><time>2026-04-04T08:36:50Z</time></trkpt><trkpt lat="44.33581683417563" lon="8.339667581447845"><ele>409.4</ele><time>2026-04-04T08:36:52Z</time></trkpt><trkpt lat="44.33576618653943" lon="8.339448651158559"><ele>408.8</ele><time>2026-04-04T08:37:17Z</time></trkpt><trkpt lat="44.335756660554864" lon="8.339315991304318"><ele>408.20000000000005</ele><time>2026-04-04T08:37:20Z</time></trkpt><trkpt lat="44.335698984963834" lon="8.339261745280295"><ele>407.6</ele><time>2026-04-04T08:37:21Z</time></trkpt><trkpt lat="44.335685950964724" lon="8.339137044482191"><ele>407.0</ele><time>2026-04-04T08:37:23Z</time></trkpt><trkpt lat="44.33580001774063" lon="8.339083653468688"><ele>406.99999999999994</ele><time>2026-04-04T08:37:24Z</time></trkpt><trkpt lat="44.335795739743354" lon="8.338992609608713"><ele>407.0</ele><time>2026-04-04T08:37:26Z</time></trkpt><trkpt lat="44.33577867387171" lon="8.338905879630449"><ele>407.0</ele><time>2026-04-04T08:37:28Z</time></trkpt><trkpt lat="44.33579275464401" lon="8.338762097786912"><ele>407.0</ele><time>2026-04-04T08:37:30Z</time></trkpt><trkpt lat="44.33579052632451" lon="8.338614940426844"><ele>406.99999999999994</ele><time>2026-04-04T08:37:32Z</time></trkpt><trkpt lat="44.33578892538658" lon="8.33851203881081"><ele>407.0</ele><time>2026-04-04T08:37:33Z</time></trkpt><trkpt lat="44.33571662159192" lon="8.338429154433705"><ele>407.0</ele><time>2026-04-04T08:37:34Z</time></trkpt><trkpt lat="44.33566832373325" lon="8.338490212236156"><ele>407.0</ele><time>2026-04-04T08:37:37Z</time></trkpt><trkpt lat="44.33570918054397" lon="8.33864327535212"><ele>407.0</ele><time>2026-04-04T08:37:39Z</time></trkpt><trkpt lat="44.33566178462149" lon="8.33880420026815"><ele>407.0</ele><time>2026-04-04T08:37:41Z</time></trkpt><trkpt lat="44.33564963203661" lon="8.338954912255726"><ele>407.0</ele><time>2026-04-04T08:37:43Z</time></trkpt><trkpt lat="44.335689550930944" lon="8.339053701649972"><ele>406.99999999999994</ele><time>2026-04-04T08:37:46Z</time></trkpt><trkpt lat="44.33563430278967" lon="8.339104405161383"><ele>407.0</ele><time>2026-04-04T08:37:50Z</time></trkpt><trkpt lat="44.3357201423552" lon="8.339046345257804"><ele>407.0</ele><time>2026-04-04T08:38:11Z</time></trkpt><trkpt lat="44.335788941217814" lon="8.338990314385477"><ele>407.0</ele><time>2026-04-04T08:38:18Z</time></trkpt><trkpt lat="44.33577323609621" lon="8.339108795041208"><ele>406.99999999999994</ele><time>2026-04-04T08:39:31Z</time></trkpt><trkpt lat="44.335836461381305" lon="8.3390534692604"><ele>407.0</ele><time>2026-04-04T08:43:33Z</time></trkpt><trkpt lat="44.335904858441324" lon="8.339069458408355"><ele>406.99999999999994</ele><time>2026-04-04T08:43:35Z</time></trkpt><trkpt lat="44.33583929745141" lon="8.339083315513694"><ele>407.0</ele><time>2026-04-04T08:43:43Z</time></trkpt><trkpt lat="44.3357715026335" lon="8.339067825225404"><ele>407.0</ele><time>2026-04-04T08:43:49Z</time></trkpt><trkpt lat="44.33580647022362" lon="8.33898035302904"><ele>407.0</ele><time>2026-04-04T08:44:29Z</time></trkpt><trkpt lat="44.33569662551748" lon="8.338931376356793"><ele>406.99999999999994</ele><time>2026-04-04T08:50:32.001Z</time></trkpt><trkpt lat="44.33569558359398" lon="8.33903253861029"><ele>407.0</ele><time>2026-04-04T08:50:36.001Z</time></trkpt><trkpt lat="44.33569984070604" lon="8.3391312992719"><ele>406.99999999999994</ele><time>2026-04-04T08:50:43Z</time></trkpt><trkpt lat="44.3356632344565" lon="8.339027639532743"><ele>407.0</ele><time>2026-04-04T08:51:59Z</time></trkpt><trkpt lat="44.335664596739" lon="8.339159451830024"><ele>407.0</ele><time>2026-04-04T08:53:12Z</time></trkpt><trkpt lat="44.33563225218884" lon="8.339060477604521"><ele>407.0</ele><time>2026-04-04T08:53:43Z</time></trkpt><trkpt lat="44.33569006643677" lon="8.33910761437311"><ele>406.99999999999994</ele><time>2026-04-04T08:55:10.999Z</time></trkpt><trkpt lat="44.33577423097396" lon="8.339099725027195"><ele>407.0</ele><time>2026-04-04T08:55:22Z</time></trkpt><trkpt lat="44.33583685624498" lon="8.339043144116715"><ele>406.99999999999994</ele><time>2026-04-04T08:55:33Z</time></trkpt><trkpt lat="44.33585189486983" lon="8.338929681426706"><ele>407.0</ele><time>2026-04-04T08:55:36Z</time></trkpt><trkpt lat="44.33583192945476" lon="8.338835641794905"><ele>407.0</ele><time>2026-04-04T08:55:38Z</time></trkpt><trkpt lat="44.33581644197565" lon="8.338749108730923"><ele>407.0</ele><time>2026-04-04T08:55:40Z</time></trkpt><trkpt lat="44.335809252472295" lon="8.338618362089163"><ele>406.99999999999994</ele><time>2026-04-04T08:55:43Z</time></trkpt><trkpt lat="44.33580589508549" lon="8.3385128903723"><ele>407.0</ele><time>2026-04-04T08:55:45Z</time></trkpt><trkpt lat="44.33576593163392" lon="8.338420452398925"><ele>406.66666666666663</ele><time>2026-04-04T08:55:47Z</time></trkpt><trkpt lat="44.33567391230267" lon="8.338393446726283"><ele>406.3333333333333</ele><time>2026-04-04T08:55:49Z</time></trkpt><trkpt lat="44.33557135330825" lon="8.338422749618376"><ele>406.0</ele><time>2026-04-04T08:55:51Z</time></trkpt><trkpt lat="44.3354956563555" lon="8.338430852711323"><ele>405.66666666666663</ele><time>2026-04-04T08:55:52Z</time></trkpt><trkpt lat="44.33540900972543" lon="8.338434361915079"><ele>405.3333333333333</ele><time>2026-04-04T08:55:53Z</time></trkpt><trkpt lat="44.33533033393792" lon="8.338447392472808"><ele>405.0</ele><time>2026-04-04T08:55:54Z</time></trkpt><trkpt lat="44.33525892350677" lon="8.338454366167438"><ele>406.6</ele><time>2026-04-04T08:55:55Z</time></trkpt><trkpt lat="44.33517954509713" lon="8.338424663159227"><ele>408.2</ele><time>2026-04-04T08:55:56Z</time></trkpt><trkpt lat="44.33512377695246" lon="8.338335334353769"><ele>409.79999999999995</ele><time>2026-04-04T08:55:57Z</time></trkpt><trkpt lat="44.33509528012363" lon="8.338223873912936"><ele>411.4</ele><time>2026-04-04T08:55:58Z</time></trkpt><trkpt lat="44.33509088733099" lon="8.338093504879069"><ele>413.0</ele><time>2026-04-04T08:55:59Z</time></trkpt><trkpt lat="44.3350998234185" lon="8.337944724508729"><ele>413.0</ele><time>2026-04-04T08:56:00Z</time></trkpt><trkpt lat="44.33510356162098" lon="8.337787337142595"><ele>413.0</ele><time>2026-04-04T08:56:01Z</time></trkpt><trkpt lat="44.335120000511765" lon="8.33761991740783"><ele>413.0</ele><time>2026-04-04T08:56:02Z</time></trkpt><trkpt lat="44.3351364174006" lon="8.337449412818993"><ele>413.0</ele><time>2026-04-04T08:56:03Z</time></trkpt><trkpt lat="44.335151520216996" lon="8.3372676811078"><ele>410.5</ele><time>2026-04-04T08:56:04Z</time></trkpt><trkpt lat="44.33514740506467" lon="8.337088715314133"><ele>408.0</ele><time>2026-04-04T08:56:05Z</time></trkpt><trkpt lat="44.335116028463624" lon="8.336913733275217"><ele>405.5</ele><time>2026-04-04T08:56:06Z</time></trkpt><trkpt lat="44.3350621166138" lon="8.336728380644407"><ele>403.0</ele><time>2026-04-04T08:56:07Z</time></trkpt><trkpt lat="44.335014676537675" lon="8.336549173511084"><ele>403.25</ele><time>2026-04-04T08:56:08Z</time></trkpt><trkpt lat="44.33499107825997" lon="8.336371449015822"><ele>403.5</ele><time>2026-04-04T08:56:09Z</time></trkpt><trkpt lat="44.33500646283554" lon="8.33618610326604"><ele>403.75</ele><time>2026-04-04T08:56:10Z</time></trkpt><trkpt lat="44.33504157858443" lon="8.336000406524574"><ele>404.0</ele><time>2026-04-04T08:56:11Z</time></trkpt><trkpt lat="44.335089973908275" lon="8.33581798130008"><ele>404.0</ele><time>2026-04-04T08:56:12Z</time></trkpt><trkpt lat="44.3351266948354" lon="8.335636826069932"><ele>404.0</ele><time>2026-04-04T08:56:13Z</time></trkpt><trkpt lat="44.33515526199634" lon="8.335448723695587"><ele>404.0</ele><time>2026-04-04T08:56:14Z</time></trkpt><trkpt lat="44.33519493776013" lon="8.335257868782072"><ele>404.0</ele><time>2026-04-04T08:56:15Z</time></trkpt><trkpt lat="44.335226574127184" lon="8.335040326188361"><ele>405.0</ele><time>2026-04-04T08:56:16Z</time></trkpt><trkpt lat="44.335263738252394" lon="8.334866148963956"><ele>406.0</ele><time>2026-04-04T08:56:17Z</time></trkpt><trkpt lat="44.33529814672133" lon="8.33467097880767"><ele>407.0</ele><time>2026-04-04T08:56:18Z</time></trkpt><trkpt lat="44.335336687224256" lon="8.334472806559207"><ele>408.0</ele><time>2026-04-04T08:56:19Z</time></trkpt><trkpt lat="44.33537542893934" lon="8.334275041231399"><ele>408.66666666666663</ele><time>2026-04-04T08:56:20Z</time></trkpt><trkpt lat="44.33541170878791" lon="8.334068678455184"><ele>409.3333333333333</ele><time>2026-04-04T08:56:21Z</time></trkpt><trkpt lat="44.335445410259766" lon="8.333846630069429"><ele>410.0</ele><time>2026-04-04T08:56:22Z</time></trkpt><trkpt lat="44.335483245624964" lon="8.333642341302111"><ele>410.66666666666663</ele><time>2026-04-04T08:56:23Z</time></trkpt><trkpt lat="44.335521499540626" lon="8.333437806695141"><ele>411.33333333333337</ele><time>2026-04-04T08:56:24Z</time></trkpt><trkpt lat="44.3355609589347" lon="8.33323195066776"><ele>412.0</ele><time>2026-04-04T08:56:25Z</time></trkpt><trkpt lat="44.33559624260773" lon="8.33303273702123"><ele>408.0</ele><time>2026-04-04T08:56:26Z</time></trkpt><trkpt lat="44.335630551081586" lon="8.332831528453433"><ele>404.0</ele><time>2026-04-04T08:56:27Z</time></trkpt><trkpt lat="44.33565882392385" lon="8.332653329564206"><ele>400.0</ele><time>2026-04-04T08:56:28Z</time></trkpt><trkpt lat="44.33567285200512" lon="8.332498409932567"><ele>396.0</ele><time>2026-04-04T08:56:29Z</time></trkpt><trkpt lat="44.33565624825141" lon="8.332379642724966"><ele>396.0</ele><time>2026-04-04T08:56:30Z</time></trkpt><trkpt lat="44.33559016400358" lon="8.332283570034054"><ele>396.0</ele><time>2026-04-04T08:56:31Z</time></trkpt><trkpt lat="44.33549036859118" lon="8.332206522665604"><ele>396.0</ele><time>2026-04-04T08:56:32Z</time></trkpt><trkpt lat="44.33536865534523" lon="8.332164522342868"><ele>396.0</ele><time>2026-04-04T08:56:33Z</time></trkpt><trkpt lat="44.335236483966824" lon="8.332163947402488"><ele>398.5</ele><time>2026-04-04T08:56:34Z</time></trkpt><trkpt lat="44.33510037789366" lon="8.332149705359226"><ele>401.0</ele><time>2026-04-04T08:56:35Z</time></trkpt><trkpt lat="44.334961767209855" lon="8.332226992496459"><ele>403.5</ele><time>2026-04-04T08:56:36Z</time></trkpt><trkpt lat="44.33481964461405" lon="8.332268174164154"><ele>406.0</ele><time>2026-04-04T08:56:37Z</time></trkpt><trkpt lat="44.334679070997254" lon="8.332303236447705"><ele>409.25</ele><time>2026-04-04T08:56:38Z</time></trkpt><trkpt lat="44.334539620145506" lon="8.332339846752454"><ele>412.5</ele><time>2026-04-04T08:56:39Z</time></trkpt><trkpt lat="44.33439689888161" lon="8.332358182287624"><ele>415.75</ele><time>2026-04-04T08:56:40Z</time></trkpt><trkpt lat="44.334256871750654" lon="8.332403328473282"><ele>419.0</ele><time>2026-04-04T08:56:41Z</time></trkpt><trkpt lat="44.33412360926266" lon="8.332470637079593"><ele>419.0</ele><time>2026-04-04T08:56:42Z</time></trkpt><trkpt lat="44.33398762845956" lon="8.332522450152505"><ele>419.0</ele><time>2026-04-04T08:56:43Z</time></trkpt><trkpt lat="44.333854881053234" lon="8.332582149319434"><ele>419.0</ele><time>2026-04-04T08:56:44Z</time></trkpt><trkpt lat="44.33372128672333" lon="8.332611220486669"><ele>419.0</ele><time>2026-04-04T08:56:45Z</time></trkpt><trkpt lat="44.33360216033487" lon="8.332676631194785"><ele>422.4</ele><time>2026-04-04T08:56:46Z</time></trkpt><trkpt lat="44.33350382083688" lon="8.332760161389755"><ele>425.79999999999995</ele><time>2026-04-04T08:56:47Z</time></trkpt><trkpt lat="44.333406831432974" lon="8.332823865260988"><ele>429.20000000000005</ele><time>2026-04-04T08:56:48Z</time></trkpt><trkpt lat="44.33330867479586" lon="8.332884623034014"><ele>432.6</ele><time>2026-04-04T08:56:49Z</time></trkpt><trkpt lat="44.333206194875444" lon="8.332923826601856"><ele>436.0</ele><time>2026-04-04T08:56:50Z</time></trkpt><trkpt lat="44.333102049512526" lon="8.332949682375135"><ele>434.8</ele><time>2026-04-04T08:56:51Z</time></trkpt><trkpt lat="44.33300182070865" lon="8.332965031327332"><ele>433.6</ele><time>2026-04-04T08:56:52Z</time></trkpt><trkpt lat="44.33290346275656" lon="8.332974696394517"><ele>432.4</ele><time>2026-04-04T08:56:53Z</time></trkpt><trkpt lat="44.33280565585383" lon="8.332970370718956"><ele>431.2</ele><time>2026-04-04T08:56:54Z</time></trkpt><trkpt lat="44.332717632731374" lon="8.332945527939046"><ele>430.0</ele><time>2026-04-04T08:56:54.999Z</time></trkpt><trkpt lat="44.33264747355689" lon="8.332875610853822"><ele>430.00000000000006</ele><time>2026-04-04T08:56:55.999Z</time></trkpt><trkpt lat="44.33257035174964" lon="8.332827922545059"><ele>430.0</ele><time>2026-04-04T08:56:56.999Z</time></trkpt><trkpt lat="44.33251149184449" lon="8.332757300604591"><ele>430.0</ele><time>2026-04-04T08:56:57.999Z</time></trkpt><trkpt lat="44.332451478734704" lon="8.332716400883964"><ele>430.0</ele><time>2026-04-04T08:56:58.999Z</time></trkpt><trkpt lat="44.332372474486135" lon="8.332711481166113"><ele>430.00000000000006</ele><time>2026-04-04T08:56:59.999Z</time></trkpt><trkpt lat="44.33228943225801" lon="8.332703569838724"><ele>430.0</ele><time>2026-04-04T08:57:00.999Z</time></trkpt><trkpt lat="44.33220985508458" lon="8.332778981745484"><ele>427.2</ele><time>2026-04-04T08:57:01.999Z</time></trkpt><trkpt lat="44.332170748253006" lon="8.33287517603778"><ele>424.4</ele><time>2026-04-04T08:57:02.999Z</time></trkpt><trkpt lat="44.33208179645047" lon="8.332981384537872"><ele>421.6</ele><time>2026-04-04T08:57:04.999Z</time></trkpt><trkpt lat="44.33200119017831" lon="8.33310289609307"><ele>418.8</ele><time>2026-04-04T08:57:06.999Z</time></trkpt><trkpt lat="44.331950226122785" lon="8.333171208208158"><ele>416.0</ele><time>2026-04-04T08:57:07.999Z</time></trkpt><trkpt lat="44.331890401933336" lon="8.333249299076565"><ele>416.0</ele><time>2026-04-04T08:57:08.999Z</time></trkpt><trkpt lat="44.331822255916" lon="8.333343178308278"><ele>416.0</ele><time>2026-04-04T08:57:09.999Z</time></trkpt><trkpt lat="44.33174703606859" lon="8.333467722667052"><ele>416.0</ele><time>2026-04-04T08:57:10.999Z</time></trkpt><trkpt lat="44.33165300689337" lon="8.333587338927394"><ele>416.0</ele><time>2026-04-04T08:57:11.999Z</time></trkpt><trkpt lat="44.33155896364949" lon="8.333717474131525"><ele>416.0</ele><time>2026-04-04T08:57:12.999Z</time></trkpt><trkpt lat="44.33146437729137" lon="8.333857780286971"><ele>416.0</ele><time>2026-04-04T08:57:13.999Z</time></trkpt><trkpt lat="44.33136333315323" lon="8.334000682446339"><ele>416.0</ele><time>2026-04-04T08:57:14.999Z</time></trkpt><trkpt lat="44.33125578521297" lon="8.334146012625602"><ele>416.0</ele><time>2026-04-04T08:57:15.999Z</time></trkpt><trkpt lat="44.331140172188725" lon="8.334290950774989"><ele>414.3333333333333</ele><time>2026-04-04T08:57:16.999Z</time></trkpt><trkpt lat="44.33101692100946" lon="8.334427407715644"><ele>412.66666666666663</ele><time>2026-04-04T08:57:18Z</time></trkpt><trkpt lat="44.33088687762846" lon="8.334555197144603"><ele>411.0</ele><time>2026-04-04T08:57:19Z</time></trkpt><trkpt lat="44.330757171737574" lon="8.33468128882969"><ele>412.33333333333337</ele><time>2026-04-04T08:57:20Z</time></trkpt><trkpt lat="44.330622009007065" lon="8.33480428828018"><ele>413.6666666666667</ele><time>2026-04-04T08:57:21Z</time></trkpt><trkpt lat="44.33047807994077" lon="8.334914645676292"><ele>415.0</ele><time>2026-04-04T08:57:22Z</time></trkpt><trkpt lat="44.33032450985118" lon="8.33500817108959"><ele>415.0</ele><time>2026-04-04T08:57:23Z</time></trkpt><trkpt lat="44.330158660785536" lon="8.335082019570347"><ele>415.0</ele><time>2026-04-04T08:57:24Z</time></trkpt><trkpt lat="44.329986575637754" lon="8.335153091784989"><ele>415.0</ele><time>2026-04-04T08:57:25Z</time></trkpt><trkpt lat="44.329815667478904" lon="8.33523015144654"><ele>412.0</ele><time>2026-04-04T08:57:26Z</time></trkpt><trkpt lat="44.329656572403984" lon="8.335308400785136"><ele>409.0</ele><time>2026-04-04T08:57:27Z</time></trkpt><trkpt lat="44.329507043664954" lon="8.33538004532528"><ele>406.0</ele><time>2026-04-04T08:57:28Z</time></trkpt><trkpt lat="44.32937199655173" lon="8.33543243313424"><ele>406.0</ele><time>2026-04-04T08:57:29Z</time></trkpt><trkpt lat="44.32924582523698" lon="8.335449073714049"><ele>406.0</ele><time>2026-04-04T08:57:30Z</time></trkpt><trkpt lat="44.329113208891066" lon="8.33542516593609"><ele>406.0</ele><time>2026-04-04T08:57:31Z</time></trkpt><trkpt lat="44.32897860322849" lon="8.33536445499174"><ele>406.0</ele><time>2026-04-04T08:57:32Z</time></trkpt><trkpt lat="44.32884447246331" lon="8.335270967155525"><ele>406.6666666666667</ele><time>2026-04-04T08:57:33Z</time></trkpt><trkpt lat="44.32870297250689" lon="8.33517635547345"><ele>407.33333333333337</ele><time>2026-04-04T08:57:34Z</time></trkpt><trkpt lat="44.32855547635223" lon="8.335087922944114"><ele>408.0</ele><time>2026-04-04T08:57:35Z</time></trkpt><trkpt lat="44.328408686732544" lon="8.334999882493813"><ele>408.0</ele><time>2026-04-04T08:57:36Z</time></trkpt><trkpt lat="44.328261449708485" lon="8.334910480093393"><ele>408.0</ele><time>2026-04-04T08:57:37Z</time></trkpt><trkpt lat="44.328114804080286" lon="8.334821163382294"><ele>408.0</ele><time>2026-04-04T08:57:38Z</time></trkpt><trkpt lat="44.3279661109468" lon="8.334727385135082"><ele>407.75</ele><time>2026-04-04T08:57:39Z</time></trkpt><trkpt lat="44.32782197614457" lon="8.334633899352092"><ele>407.5</ele><time>2026-04-04T08:57:40Z</time></trkpt><trkpt lat="44.32768562646783" lon="8.334537907333383"><ele>407.25</ele><time>2026-04-04T08:57:41Z</time></trkpt><trkpt lat="44.327575371767956" lon="8.334427302784723"><ele>407.0</ele><time>2026-04-04T08:57:42Z</time></trkpt><trkpt lat="44.32749033189155" lon="8.334284472077588"><ele>407.0</ele><time>2026-04-04T08:57:43Z</time></trkpt><trkpt lat="44.327425999049005" lon="8.334111158345257"><ele>407.0</ele><time>2026-04-04T08:57:44Z</time></trkpt><trkpt lat="44.327387622611624" lon="8.33391383029806"><ele>407.0</ele><time>2026-04-04T08:57:45Z</time></trkpt><trkpt lat="44.327397447679665" lon="8.333700311288698"><ele>407.0</ele><time>2026-04-04T08:57:46Z</time></trkpt><trkpt lat="44.32738713935747" lon="8.333482328466625"><ele>404.3333333333333</ele><time>2026-04-04T08:57:47Z</time></trkpt><trkpt lat="44.327390594311034" lon="8.333259222005477"><ele>401.66666666666663</ele><time>2026-04-04T08:57:48Z</time></trkpt><trkpt lat="44.32737450558314" lon="8.333037200200572"><ele>399.0</ele><time>2026-04-04T08:57:49Z</time></trkpt><trkpt lat="44.327343677282585" lon="8.33281777088717"><ele>398.33333333333337</ele><time>2026-04-04T08:57:50Z</time></trkpt><trkpt lat="44.327305643959015" lon="8.332607470377052"><ele>397.6666666666667</ele><time>2026-04-04T08:57:51Z</time></trkpt><trkpt lat="44.32726141620842" lon="8.332394762884531"><ele>397.0</ele><time>2026-04-04T08:57:52Z</time></trkpt><trkpt lat="44.32721737483459" lon="8.332185161182682"><ele>398.6666666666667</ele><time>2026-04-04T08:57:53Z</time></trkpt><trkpt lat="44.3271716241875" lon="8.331975712073332"><ele>400.33333333333337</ele><time>2026-04-04T08:57:54Z</time></trkpt><trkpt lat="44.327116935723375" lon="8.3317693820232"><ele>402.0</ele><time>2026-04-04T08:57:55Z</time></trkpt><trkpt lat="44.32704980967705" lon="8.331565977594941"><ele>401.66666666666663</ele><time>2026-04-04T08:57:56Z</time></trkpt><trkpt lat="44.32697057822205" lon="8.331367368717958"><ele>401.3333333333333</ele><time>2026-04-04T08:57:57Z</time></trkpt><trkpt lat="44.326889103848664" lon="8.331168393251815"><ele>401.0</ele><time>2026-04-04T08:57:58Z</time></trkpt><trkpt lat="44.32680999850553" lon="8.330968556332573"><ele>401.0</ele><time>2026-04-04T08:57:59Z</time></trkpt><trkpt lat="44.32673148361797" lon="8.33076823261411"><ele>401.0</ele><time>2026-04-04T08:58:00Z</time></trkpt><trkpt lat="44.32665830682756" lon="8.330565795383635"><ele>401.0</ele><time>2026-04-04T08:58:01Z</time></trkpt><trkpt lat="44.32659056713768" lon="8.330361109419915"><ele>400.0</ele><time>2026-04-04T08:58:02Z</time></trkpt><trkpt lat="44.32652944246366" lon="8.330155894251636"><ele>399.0</ele><time>2026-04-04T08:58:03Z</time></trkpt><trkpt lat="44.32647934025497" lon="8.329945809954065"><ele>398.0</ele><time>2026-04-04T08:58:04Z</time></trkpt><trkpt lat="44.326435464884845" lon="8.32973338409372"><ele>397.66666666666663</ele><time>2026-04-04T08:58:05Z</time></trkpt><trkpt lat="44.32639809056027" lon="8.329514660861603"><ele>397.33333333333337</ele><time>2026-04-04T08:58:06Z</time></trkpt><trkpt lat="44.32636616508474" lon="8.329295183728664"><ele>397.0</ele><time>2026-04-04T08:58:07Z</time></trkpt><trkpt lat="44.326343761019054" lon="8.329071957070093"><ele>402.0</ele><time>2026-04-04T08:58:08Z</time></trkpt><trkpt lat="44.32633153782086" lon="8.328841456748316"><ele>407.0</ele><time>2026-04-04T08:58:09Z</time></trkpt><trkpt lat="44.32632612696219" lon="8.32860953627303"><ele>412.0</ele><time>2026-04-04T08:58:10Z</time></trkpt><trkpt lat="44.32631979141879" lon="8.328381525535418"><ele>412.0</ele><time>2026-04-04T08:58:11Z</time></trkpt><trkpt lat="44.32631296070525" lon="8.328163995506134"><ele>412.0</ele><time>2026-04-04T08:58:12Z</time></trkpt><trkpt lat="44.32628898359452" lon="8.327964513553654"><ele>412.0</ele><time>2026-04-04T08:58:13Z</time></trkpt><trkpt lat="44.32623264721403" lon="8.327793968253284"><ele>412.0</ele><time>2026-04-04T08:58:14Z</time></trkpt><trkpt lat="44.32614453698616" lon="8.327642730561136"><ele>406.0</ele><time>2026-04-04T08:58:15Z</time></trkpt><trkpt lat="44.32574262574683" lon="8.327303421255362"><ele>407.33333333333337</ele><time>2026-04-04T08:58:18Z</time></trkpt><trkpt lat="44.32558907755542" lon="8.327214537466245"><ele>408.66666666666663</ele><time>2026-04-04T08:58:19Z</time></trkpt><trkpt lat="44.32543007064343" lon="8.32715123007772"><ele>410.0</ele><time>2026-04-04T08:58:20Z</time></trkpt><trkpt lat="44.325267337202334" lon="8.327112853792984"><ele>410.0</ele><time>2026-04-04T08:58:21Z</time></trkpt><trkpt lat="44.32510184022748" lon="8.327090325890168"><ele>410.0</ele><time>2026-04-04T08:58:22Z</time></trkpt><trkpt lat="44.32493772722627" lon="8.327072790938146"><ele>410.0</ele><time>2026-04-04T08:58:23Z</time></trkpt><trkpt lat="44.324776875196264" lon="8.327049846062224"><ele>413.25</ele><time>2026-04-04T08:58:24Z</time></trkpt><trkpt lat="44.3246245583464" lon="8.326999143603254"><ele>416.5</ele><time>2026-04-04T08:58:25Z</time></trkpt><trkpt lat="44.32448098163936" lon="8.326948861625931"><ele>419.75</ele><time>2026-04-04T08:58:26Z</time></trkpt><trkpt lat="44.324355942265534" lon="8.3268631777405"><ele>423.0</ele><time>2026-04-04T08:58:27Z</time></trkpt><trkpt lat="44.324248198004256" lon="8.326736723453834"><ele>423.0</ele><time>2026-04-04T08:58:28Z</time></trkpt><trkpt lat="44.32415524498761" lon="8.3265892924967"><ele>423.0</ele><time>2026-04-04T08:58:29Z</time></trkpt><trkpt lat="44.32413241962937" lon="8.326383760828108"><ele>423.0</ele><time>2026-04-04T08:58:30Z</time></trkpt><trkpt lat="44.32410357172516" lon="8.326173589872251"><ele>423.0</ele><time>2026-04-04T08:58:31Z</time></trkpt><trkpt lat="44.324061336386556" lon="8.325964457768055"><ele>418.66666666666663</ele><time>2026-04-04T08:58:32Z</time></trkpt><trkpt lat="44.32403450079787" lon="8.325743156791809"><ele>414.3333333333333</ele><time>2026-04-04T08:58:33Z</time></trkpt><trkpt lat="44.32400331022559" lon="8.325520048935086"><ele>410.0</ele><time>2026-04-04T08:58:34Z</time></trkpt><trkpt lat="44.323971287019816" lon="8.325292380383285"><ele>410.3333333333333</ele><time>2026-04-04T08:58:35Z</time></trkpt><trkpt lat="44.32393857810579" lon="8.325074859668442"><ele>410.66666666666663</ele><time>2026-04-04T08:58:36Z</time></trkpt><trkpt lat="44.32390495492932" lon="8.324857676093348"><ele>411.0</ele><time>2026-04-04T08:58:37Z</time></trkpt><trkpt lat="44.323871920908715" lon="8.324644537525248"><ele>411.0</ele><time>2026-04-04T08:58:38Z</time></trkpt><trkpt lat="44.32383089171486" lon="8.324439716503226"><ele>411.0</ele><time>2026-04-04T08:58:39.001Z</time></trkpt><trkpt lat="44.32377129906775" lon="8.324252598373944"><ele>411.0</ele><time>2026-04-04T08:58:40.001Z</time></trkpt><trkpt lat="44.32368776387652" lon="8.3240918772496"><ele>411.0</ele><time>2026-04-04T08:58:41.001Z</time></trkpt><trkpt lat="44.32358101073384" lon="8.323979828342042"><ele>411.0</ele><time>2026-04-04T08:58:42.001Z</time></trkpt><trkpt lat="44.32346373615424" lon="8.323914224318019"><ele>411.0</ele><time>2026-04-04T08:58:43.001Z</time></trkpt><trkpt lat="44.323341836527895" lon="8.323913197737989"><ele>411.0</ele><time>2026-04-04T08:58:44.001Z</time></trkpt><trkpt lat="44.32322727604291" lon="8.323968975173123"><ele>411.0</ele><time>2026-04-04T08:58:45.001Z</time></trkpt><trkpt lat="44.32311461458238" lon="8.324063311985757"><ele>411.0</ele><time>2026-04-04T08:58:46.001Z</time></trkpt><trkpt lat="44.323008619194006" lon="8.324167632417113"><ele>411.0</ele><time>2026-04-04T08:58:47.001Z</time></trkpt><trkpt lat="44.322899396535604" lon="8.324280057287172"><ele>411.0</ele><time>2026-04-04T08:58:48.001Z</time></trkpt><trkpt lat="44.322788729352055" lon="8.32438693471329"><ele>411.0</ele><time>2026-04-04T08:58:49.001Z</time></trkpt><trkpt lat="44.322672996967356" lon="8.32448387191735"><ele>411.0</ele><time>2026-04-04T08:58:50.001Z</time></trkpt><trkpt lat="44.32255575748857" lon="8.32456263344636"><ele>411.0</ele><time>2026-04-04T08:58:51.001Z</time></trkpt><trkpt lat="44.32243155583692" lon="8.32460037214563"><ele>411.0</ele><time>2026-04-04T08:58:52.001Z</time></trkpt><trkpt lat="44.322305635413336" lon="8.324573849188592"><ele>411.0</ele><time>2026-04-04T08:58:53.001Z</time></trkpt><trkpt lat="44.322186078703055" lon="8.324490889090512"><ele>410.5</ele><time>2026-04-04T08:58:54.001Z</time></trkpt><trkpt lat="44.3220811444281" lon="8.32436743898475"><ele>410.0</ele><time>2026-04-04T08:58:55.001Z</time></trkpt><trkpt lat="44.32200657443544" lon="8.324197272282905"><ele>409.5</ele><time>2026-04-04T08:58:56.001Z</time></trkpt><trkpt lat="44.32189680882211" lon="8.32406638259411"><ele>409.0</ele><time>2026-04-04T08:58:57.001Z</time></trkpt><trkpt lat="44.32178277367956" lon="8.323945791733271"><ele>409.0</ele><time>2026-04-04T08:58:58.001Z</time></trkpt><trkpt lat="44.321663721458414" lon="8.323822350741251"><ele>409.0</ele><time>2026-04-04T08:58:59.001Z</time></trkpt><trkpt lat="44.32150607056097" lon="8.323775491419346"><ele>409.0</ele><time>2026-04-04T08:59:00.001Z</time></trkpt><trkpt lat="44.32136295193849" lon="8.323677941114628"><ele>409.33333333333337</ele><time>2026-04-04T08:59:00.999Z</time></trkpt><trkpt lat="44.32120925707609" lon="8.323602190069431"><ele>409.66666666666663</ele><time>2026-04-04T08:59:01.999Z</time></trkpt><trkpt lat="44.321052415953105" lon="8.323547122000797"><ele>410.0</ele><time>2026-04-04T08:59:02.999Z</time></trkpt><trkpt lat="44.32090206058537" lon="8.323470479934475"><ele>410.0</ele><time>2026-04-04T08:59:03.999Z</time></trkpt><trkpt lat="44.320753931281196" lon="8.323393584105617"><ele>410.0</ele><time>2026-04-04T08:59:04.999Z</time></trkpt><trkpt lat="44.320607309698744" lon="8.323314978290798"><ele>410.0</ele><time>2026-04-04T08:59:05.999Z</time></trkpt><trkpt lat="44.320463472447194" lon="8.32323423702346"><ele>410.3333333333333</ele><time>2026-04-04T08:59:06.999Z</time></trkpt><trkpt lat="44.320316823755576" lon="8.323155908769564"><ele>410.66666666666663</ele><time>2026-04-04T08:59:07.999Z</time></trkpt><trkpt lat="44.32016942277083" lon="8.323081685944333"><ele>411.0</ele><time>2026-04-04T08:59:08.999Z</time></trkpt><trkpt lat="44.32002152640336" lon="8.323010445379609"><ele>411.0</ele><time>2026-04-04T08:59:09.999Z</time></trkpt><trkpt lat="44.31987556170198" lon="8.322932973333174"><ele>411.0</ele><time>2026-04-04T08:59:10.999Z</time></trkpt><trkpt lat="44.319734618367036" lon="8.322832689098364"><ele>411.0</ele><time>2026-04-04T08:59:11.999Z</time></trkpt><trkpt lat="44.319613086405084" lon="8.322681147723472"><ele>413.0</ele><time>2026-04-04T08:59:12.999Z</time></trkpt><trkpt lat="44.31949169004019" lon="8.322529437066663"><ele>415.0</ele><time>2026-04-04T08:59:13.999Z</time></trkpt><trkpt lat="44.31937064424447" lon="8.322374667849585"><ele>417.0</ele><time>2026-04-04T08:59:14.999Z</time></trkpt><trkpt lat="44.31923692552448" lon="8.322232251947435"><ele>418.0</ele><time>2026-04-04T08:59:15.999Z</time></trkpt><trkpt lat="44.31911147122468" lon="8.32207609300449"><ele>419.0</ele><time>2026-04-04T08:59:16.999Z</time></trkpt><trkpt lat="44.3189952906604" lon="8.321919245418156"><ele>420.0</ele><time>2026-04-04T08:59:17.999Z</time></trkpt><trkpt lat="44.31888811083142" lon="8.321753403526234"><ele>420.0</ele><time>2026-04-04T08:59:18.999Z</time></trkpt><trkpt lat="44.31879881864328" lon="8.321576071442651"><ele>420.0</ele><time>2026-04-04T08:59:20Z</time></trkpt><trkpt lat="44.31871759734395" lon="8.321382402779216"><ele>420.0</ele><time>2026-04-04T08:59:21Z</time></trkpt><trkpt lat="44.31864558393085" lon="8.321176575709321"><ele>419.33333333333337</ele><time>2026-04-04T08:59:22Z</time></trkpt><trkpt lat="44.31857422186406" lon="8.320974604459465"><ele>418.6666666666667</ele><time>2026-04-04T08:59:23Z</time></trkpt><trkpt lat="44.31849604818685" lon="8.32077218333822"><ele>418.0</ele><time>2026-04-04T08:59:24Z</time></trkpt><trkpt lat="44.31842063880011" lon="8.32057649213153"><ele>418.5</ele><time>2026-04-04T08:59:25Z</time></trkpt><trkpt lat="44.3183500917517" lon="8.32040108534286"><ele>419.0</ele><time>2026-04-04T08:59:26Z</time></trkpt><trkpt lat="44.31826995644181" lon="8.320270911685599"><ele>419.5</ele><time>2026-04-04T08:59:27Z</time></trkpt><trkpt lat="44.31817720590068" lon="8.320210073295968"><ele>420.0</ele><time>2026-04-04T08:59:28Z</time></trkpt><trkpt lat="44.31806343281129" lon="8.320185490474605"><ele>420.0</ele><time>2026-04-04T08:59:29Z</time></trkpt><trkpt lat="44.31793255394268" lon="8.32017477128112"><ele>420.0</ele><time>2026-04-04T08:59:30Z</time></trkpt><trkpt lat="44.31779644277857" lon="8.320133410894083"><ele>420.0</ele><time>2026-04-04T08:59:31Z</time></trkpt><trkpt lat="44.3176532624697" lon="8.320117705606197"><ele>420.0</ele><time>2026-04-04T08:59:32Z</time></trkpt><trkpt lat="44.31751778823697" lon="8.320084272538908"><ele>420.0</ele><time>2026-04-04T08:59:33Z</time></trkpt><trkpt lat="44.31738952412212" lon="8.32001503304252"><ele>420.0</ele><time>2026-04-04T08:59:34Z</time></trkpt><trkpt lat="44.31728381794689" lon="8.319895036674197"><ele>420.0</ele><time>2026-04-04T08:59:35Z</time></trkpt><trkpt lat="44.31718260970601" lon="8.319732805816116"><ele>420.0</ele><time>2026-04-04T08:59:36Z</time></trkpt><trkpt lat="44.317087337790305" lon="8.319573619052015"><ele>422.33333333333337</ele><time>2026-04-04T08:59:37Z</time></trkpt><trkpt lat="44.316987031033115" lon="8.319406034944905"><ele>424.6666666666667</ele><time>2026-04-04T08:59:38Z</time></trkpt><trkpt lat="44.3168848110447" lon="8.319236604052307"><ele>427.0</ele><time>2026-04-04T08:59:39Z</time></trkpt><trkpt lat="44.31678237659034" lon="8.319064372038175"><ele>427.0</ele><time>2026-04-04T08:59:40Z</time></trkpt><trkpt lat="44.31666742260426" lon="8.318907104955093"><ele>427.0</ele><time>2026-04-04T08:59:41Z</time></trkpt><trkpt lat="44.316563666340464" lon="8.318741231733425"><ele>427.0</ele><time>2026-04-04T08:59:42Z</time></trkpt><trkpt lat="44.31647008255441" lon="8.318583647405061"><ele>431.25</ele><time>2026-04-04T08:59:43Z</time></trkpt><trkpt lat="44.31639811868621" lon="8.318437690093191"><ele>435.5</ele><time>2026-04-04T08:59:44Z</time></trkpt><trkpt lat="44.316349961793165" lon="8.31827624805118"><ele>439.75</ele><time>2026-04-04T08:59:45Z</time></trkpt><trkpt lat="44.31634990088677" lon="8.318098990111132"><ele>444.0</ele><time>2026-04-04T08:59:46Z</time></trkpt><trkpt lat="44.31639961306578" lon="8.317920770757807"><ele>439.25</ele><time>2026-04-04T08:59:47Z</time></trkpt><trkpt lat="44.3164240172151" lon="8.317720592648739"><ele>434.5</ele><time>2026-04-04T08:59:48Z</time></trkpt><trkpt lat="44.31645976806437" lon="8.317523393366002"><ele>429.75</ele><time>2026-04-04T08:59:49Z</time></trkpt><trkpt lat="44.31649152731537" lon="8.317319953160805"><ele>425.0</ele><time>2026-04-04T08:59:50Z</time></trkpt><trkpt lat="44.31651961351681" lon="8.317108040556928"><ele>425.0</ele><time>2026-04-04T08:59:51Z</time></trkpt><trkpt lat="44.316545074301374" lon="8.316894786992172"><ele>425.0</ele><time>2026-04-04T08:59:52Z</time></trkpt><trkpt lat="44.31656926454819" lon="8.316683442939183"><ele>425.0</ele><time>2026-04-04T08:59:53Z</time></trkpt><trkpt lat="44.31658511060448" lon="8.316470182738462"><ele>426.3333333333333</ele><time>2026-04-04T08:59:54Z</time></trkpt><trkpt lat="44.31659108531998" lon="8.3162585195892"><ele>427.66666666666663</ele><time>2026-04-04T08:59:55Z</time></trkpt><trkpt lat="44.316587784418225" lon="8.316042176122929"><ele>429.0</ele><time>2026-04-04T08:59:56Z</time></trkpt><trkpt lat="44.316582731568225" lon="8.315826636601217"><ele>429.0</ele><time>2026-04-04T08:59:57Z</time></trkpt><trkpt lat="44.31658329214236" lon="8.31560976751058"><ele>429.0</ele><time>2026-04-04T08:59:58Z</time></trkpt><trkpt lat="44.31658283986996" lon="8.31539270768023"><ele>429.0</ele><time>2026-04-04T08:59:59Z</time></trkpt><trkpt lat="44.3165799887758" lon="8.315173733951768"><ele>429.0</ele><time>2026-04-04T09:00:00Z</time></trkpt><trkpt lat="44.31657192829095" lon="8.314954170631621"><ele>429.0</ele><time>2026-04-04T09:00:01Z</time></trkpt><trkpt lat="44.316557262315" lon="8.314735668919083"><ele>429.0</ele><time>2026-04-04T09:00:02Z</time></trkpt><trkpt lat="44.31653585472176" lon="8.31452414287107"><ele>429.0</ele><time>2026-04-04T09:00:03Z</time></trkpt><trkpt lat="44.31650017122587" lon="8.314320440227755"><ele>429.0</ele><time>2026-04-04T09:00:04Z</time></trkpt><trkpt lat="44.31645629094751" lon="8.31412243468881"><ele>429.0</ele><time>2026-04-04T09:00:05Z</time></trkpt><trkpt lat="44.31640982580906" lon="8.313948032310416"><ele>429.0</ele><time>2026-04-04T09:00:06Z</time></trkpt><trkpt lat="44.316363730207094" lon="8.313806415651968"><ele>428.75</ele><time>2026-04-04T09:00:07Z</time></trkpt><trkpt lat="44.316276282273186" lon="8.313713545678695"><ele>428.5</ele><time>2026-04-04T09:00:08Z</time></trkpt><trkpt lat="44.31615044623251" lon="8.313672636773681"><ele>428.25</ele><time>2026-04-04T09:00:09Z</time></trkpt><trkpt lat="44.316016691725046" lon="8.313675365972541"><ele>428.0</ele><time>2026-04-04T09:00:10Z</time></trkpt><trkpt lat="44.31587937417239" lon="8.313678731631578"><ele>428.0</ele><time>2026-04-04T09:00:11Z</time></trkpt><trkpt lat="44.31573348486063" lon="8.31369321934318"><ele>428.0</ele><time>2026-04-04T09:00:12Z</time></trkpt><trkpt lat="44.31558111115857" lon="8.313710223987176"><ele>428.0</ele><time>2026-04-04T09:00:13Z</time></trkpt><trkpt lat="44.31542407091634" lon="8.31372878621342"><ele>427.0</ele><time>2026-04-04T09:00:14Z</time></trkpt><trkpt lat="44.315269568866505" lon="8.313765749122483"><ele>426.0</ele><time>2026-04-04T09:00:15Z</time></trkpt><trkpt lat="44.31511639669511" lon="8.313823491730183"><ele>425.0</ele><time>2026-04-04T09:00:16Z</time></trkpt><trkpt lat="44.3149669640517" lon="8.31388513478457"><ele>424.25</ele><time>2026-04-04T09:00:17.001Z</time></trkpt><trkpt lat="44.314815526056975" lon="8.313924825876528"><ele>423.5</ele><time>2026-04-04T09:00:18.001Z</time></trkpt><trkpt lat="44.31466504289902" lon="8.313906772123628"><ele>422.75</ele><time>2026-04-04T09:00:19.001Z</time></trkpt><trkpt lat="44.31453543333644" lon="8.313832284965669"><ele>422.0</ele><time>2026-04-04T09:00:20.001Z</time></trkpt><trkpt lat="44.31440475369942" lon="8.31376733516883"><ele>422.0</ele><time>2026-04-04T09:00:21.001Z</time></trkpt><trkpt lat="44.31426633272359" lon="8.31376387828142"><ele>422.0</ele><time>2026-04-04T09:00:22.001Z</time></trkpt><trkpt lat="44.31412137261573" lon="8.313797376159828"><ele>422.0</ele><time>2026-04-04T09:00:23.001Z</time></trkpt><trkpt lat="44.313974775552666" lon="8.313816448516338"><ele>422.0</ele><time>2026-04-04T09:00:24.001Z</time></trkpt><trkpt lat="44.31382824448292" lon="8.313837593248776"><ele>425.75</ele><time>2026-04-04T09:00:25.001Z</time></trkpt><trkpt lat="44.3136921804593" lon="8.313767232425732"><ele>429.5</ele><time>2026-04-04T09:00:26.001Z</time></trkpt><trkpt lat="44.31357289923005" lon="8.313668847832329"><ele>433.25</ele><time>2026-04-04T09:00:27.001Z</time></trkpt><trkpt lat="44.31347418216244" lon="8.313534856660244"><ele>437.0</ele><time>2026-04-04T09:00:28.001Z</time></trkpt><trkpt lat="44.313380461215885" lon="8.313376670740864"><ele>437.0</ele><time>2026-04-04T09:00:29.001Z</time></trkpt><trkpt lat="44.3132733049579" lon="8.31322185303524"><ele>437.0</ele><time>2026-04-04T09:00:30.001Z</time></trkpt><trkpt lat="44.31318256186429" lon="8.313052358000554"><ele>437.0</ele><time>2026-04-04T09:00:31.001Z</time></trkpt><trkpt lat="44.31308787824162" lon="8.312886080214472"><ele>434.75</ele><time>2026-04-04T09:00:32.001Z</time></trkpt><trkpt lat="44.3129924984769" lon="8.312738016229991"><ele>432.5</ele><time>2026-04-04T09:00:33.001Z</time></trkpt><trkpt lat="44.31290658559446" lon="8.312605317869574"><ele>430.25</ele><time>2026-04-04T09:00:34.001Z</time></trkpt><trkpt lat="44.31283777094169" lon="8.312486931642749"><ele>428.0</ele><time>2026-04-04T09:00:35.001Z</time></trkpt><trkpt lat="44.312726918738385" lon="8.312421460850945"><ele>428.0</ele><time>2026-04-04T09:00:36.001Z</time></trkpt><trkpt lat="44.31260128896144" lon="8.31239381087814"><ele>428.0</ele><time>2026-04-04T09:00:37.001Z</time></trkpt><trkpt lat="44.31247080872019" lon="8.312455238705397"><ele>428.0</ele><time>2026-04-04T09:00:38.001Z</time></trkpt><trkpt lat="44.31234350035086" lon="8.312530273739588"><ele>428.0</ele><time>2026-04-04T09:00:39.001Z</time></trkpt><trkpt lat="44.31222550186682" lon="8.312649845525877"><ele>426.75</ele><time>2026-04-04T09:00:40.001Z</time></trkpt><trkpt lat="44.31210755495273" lon="8.31277346068968"><ele>425.5</ele><time>2026-04-04T09:00:41.001Z</time></trkpt><trkpt lat="44.31198611092496" lon="8.312898314960027"><ele>424.25</ele><time>2026-04-04T09:00:42.001Z</time></trkpt><trkpt lat="44.31186331408029" lon="8.313015708998241"><ele>423.0</ele><time>2026-04-04T09:00:43.001Z</time></trkpt><trkpt lat="44.31174062624906" lon="8.313132528306632"><ele>425.0</ele><time>2026-04-04T09:00:44.001Z</time></trkpt><trkpt lat="44.311615766733446" lon="8.313240421544938"><ele>427.0</ele><time>2026-04-04T09:00:45.001Z</time></trkpt><trkpt lat="44.31148308987272" lon="8.313329147434644"><ele>429.0</ele><time>2026-04-04T09:00:46.001Z</time></trkpt><trkpt lat="44.31133588503015" lon="8.313380243288343"><ele>431.0</ele><time>2026-04-04T09:00:47.001Z</time></trkpt><trkpt lat="44.31117983829648" lon="8.313379511161063"><ele>431.0</ele><time>2026-04-04T09:00:48.001Z</time></trkpt><trkpt lat="44.31102449065683" lon="8.313374671121165"><ele>431.0</ele><time>2026-04-04T09:00:49.001Z</time></trkpt><trkpt lat="44.31086983191669" lon="8.313371655366408"><ele>431.0</ele><time>2026-04-04T09:00:50.001Z</time></trkpt><trkpt lat="44.3107190417266" lon="8.313368715047192"><ele>432.3333333333333</ele><time>2026-04-04T09:00:51.001Z</time></trkpt><trkpt lat="44.31056587808133" lon="8.313365728446826"><ele>433.66666666666663</ele><time>2026-04-04T09:00:52.001Z</time></trkpt><trkpt lat="44.31041222804287" lon="8.313362732361544"><ele>435.0</ele><time>2026-04-04T09:00:53.001Z</time></trkpt><trkpt lat="44.310266490421625" lon="8.313355160853748"><ele>435.0</ele><time>2026-04-04T09:00:54.001Z</time></trkpt><trkpt lat="44.31013644980308" lon="8.313315504984494"><ele>435.0</ele><time>2026-04-04T09:00:55.001Z</time></trkpt><trkpt lat="44.31001242249304" lon="8.313230162671331"><ele>435.0</ele><time>2026-04-04T09:00:56.001Z</time></trkpt><trkpt lat="44.30990619413944" lon="8.313096448770622"><ele>435.0</ele><time>2026-04-04T09:00:57.001Z</time></trkpt><trkpt lat="44.30982978785821" lon="8.312923033170172"><ele>433.66666666666663</ele><time>2026-04-04T09:00:58.001Z</time></trkpt><trkpt lat="44.309763298863714" lon="8.3127323915381"><ele>432.3333333333333</ele><time>2026-04-04T09:00:59.001Z</time></trkpt><trkpt lat="44.30970180970743" lon="8.312537997892132"><ele>431.0</ele><time>2026-04-04T09:01:00.001Z</time></trkpt><trkpt lat="44.309648083919534" lon="8.312348395551092"><ele>433.0</ele><time>2026-04-04T09:01:01.001Z</time></trkpt><trkpt lat="44.30965210059822" lon="8.312141622742715"><ele>435.0</ele><time>2026-04-04T09:01:02.001Z</time></trkpt><trkpt lat="44.3096984651796" lon="8.311939736841778"><ele>437.0</ele><time>2026-04-04T09:01:03.001Z</time></trkpt><trkpt lat="44.30976098566714" lon="8.311745359047531"><ele>437.0</ele><time>2026-04-04T09:01:04.001Z</time></trkpt><trkpt lat="44.30980779563786" lon="8.311556427655205"><ele>437.0</ele><time>2026-04-04T09:01:05.001Z</time></trkpt><trkpt lat="44.30982188921162" lon="8.31138396822959"><ele>437.0</ele><time>2026-04-04T09:01:06.001Z</time></trkpt><trkpt lat="44.30981006384841" lon="8.311209139748865"><ele>437.0</ele><time>2026-04-04T09:01:07Z</time></trkpt><trkpt lat="44.30975702518146" lon="8.311044378330768"><ele>437.25</ele><time>2026-04-04T09:01:08Z</time></trkpt><trkpt lat="44.30967060827077" lon="8.310888666701196"><ele>437.5</ele><time>2026-04-04T09:01:09Z</time></trkpt><trkpt lat="44.309566685573124" lon="8.310746997899418"><ele>437.75</ele><time>2026-04-04T09:01:10Z</time></trkpt><trkpt lat="44.3094593236149" lon="8.310587466835296"><ele>438.0</ele><time>2026-04-04T09:01:11Z</time></trkpt><trkpt lat="44.309362043803176" lon="8.310415231834211"><ele>438.0</ele><time>2026-04-04T09:01:12Z</time></trkpt><trkpt lat="44.309246803639105" lon="8.31026065514449"><ele>438.0</ele><time>2026-04-04T09:01:13Z</time></trkpt><trkpt lat="44.30911163844582" lon="8.310128549199788"><ele>438.0</ele><time>2026-04-04T09:01:14Z</time></trkpt><trkpt lat="44.30898662278382" lon="8.309978694964109"><ele>439.66666666666663</ele><time>2026-04-04T09:01:15Z</time></trkpt><trkpt lat="44.30886256127169" lon="8.3098217755209"><ele>441.3333333333333</ele><time>2026-04-04T09:01:16Z</time></trkpt><trkpt lat="44.308742538866014" lon="8.309661810493639"><ele>443.0</ele><time>2026-04-04T09:01:17Z</time></trkpt><trkpt lat="44.30861729452794" lon="8.309505096350225"><ele>443.0</ele><time>2026-04-04T09:01:18Z</time></trkpt><trkpt lat="44.30847685838377" lon="8.309374995079505"><ele>443.0</ele><time>2026-04-04T09:01:19Z</time></trkpt><trkpt lat="44.30832357946141" lon="8.30927117028795"><ele>443.0</ele><time>2026-04-04T09:01:20Z</time></trkpt><trkpt lat="44.3081624866962" lon="8.30918245960376"><ele>441.0</ele><time>2026-04-04T09:01:21Z</time></trkpt><trkpt lat="44.30800533744583" lon="8.309089993491535"><ele>439.0</ele><time>2026-04-04T09:01:22Z</time></trkpt><trkpt lat="44.30784947838551" lon="8.30899250725532"><ele>437.0</ele><time>2026-04-04T09:01:23Z</time></trkpt><trkpt lat="44.30769653624883" lon="8.308886476851736"><ele>437.0</ele><time>2026-04-04T09:01:24Z</time></trkpt><trkpt lat="44.30754630893546" lon="8.308779379335524"><ele>437.0</ele><time>2026-04-04T09:01:25Z</time></trkpt><trkpt lat="44.307396749980796" lon="8.30867266590701"><ele>437.0</ele><time>2026-04-04T09:01:26Z</time></trkpt><trkpt lat="44.30724600564262" lon="8.30857181769719"><ele>444.0</ele><time>2026-04-04T09:01:27Z</time></trkpt><trkpt lat="44.30709232871632" lon="8.308485998048228"><ele>451.0</ele><time>2026-04-04T09:01:28Z</time></trkpt><trkpt lat="44.3069379164449" lon="8.308419368394087"><ele>458.0</ele><time>2026-04-04T09:01:29Z</time></trkpt><trkpt lat="44.30678903412467" lon="8.308360090540633"><ele>458.0</ele><time>2026-04-04T09:01:30Z</time></trkpt><trkpt lat="44.30666016491719" lon="8.308291085472224"><ele>458.0</ele><time>2026-04-04T09:01:31Z</time></trkpt><trkpt lat="44.3065587760049" lon="8.308188211786398"><ele>458.0</ele><time>2026-04-04T09:01:32Z</time></trkpt><trkpt lat="44.30647730851575" lon="8.308053837212146"><ele>458.0</ele><time>2026-04-04T09:01:33Z</time></trkpt><trkpt lat="44.306420876245475" lon="8.307885386906447"><ele>466.3333333333333</ele><time>2026-04-04T09:01:34Z</time></trkpt><trkpt lat="44.30638966038423" lon="8.307684990420945"><ele>474.66666666666663</ele><time>2026-04-04T09:01:35Z</time></trkpt><trkpt lat="44.30637871803717" lon="8.307471367495461"><ele>483.0</ele><time>2026-04-04T09:01:36Z</time></trkpt><trkpt lat="44.306378641413176" lon="8.30724696796461"><ele>483.33333333333337</ele><time>2026-04-04T09:01:37Z</time></trkpt><trkpt lat="44.306376927632584" lon="8.307016641096379"><ele>483.6666666666667</ele><time>2026-04-04T09:01:38Z</time></trkpt><trkpt lat="44.30637332528635" lon="8.306781102901319"><ele>484.0</ele><time>2026-04-04T09:01:39Z</time></trkpt><trkpt lat="44.30636993261107" lon="8.306541675275286"><ele>484.0</ele><time>2026-04-04T09:01:40Z</time></trkpt><trkpt lat="44.306365867252566" lon="8.306304057384958"><ele>484.0</ele><time>2026-04-04T09:01:41Z</time></trkpt><trkpt lat="44.30636265038273" lon="8.306059496106643"><ele>484.0</ele><time>2026-04-04T09:01:42Z</time></trkpt><trkpt lat="44.30636126243135" lon="8.305820242242653"><ele>483.6666666666667</ele><time>2026-04-04T09:01:43Z</time></trkpt><trkpt lat="44.306356730675475" lon="8.305576065759192"><ele>483.33333333333337</ele><time>2026-04-04T09:01:44Z</time></trkpt><trkpt lat="44.30634878074896" lon="8.305336779950549"><ele>483.0</ele><time>2026-04-04T09:01:45Z</time></trkpt><trkpt lat="44.30633457597425" lon="8.305102542935265"><ele>483.0</ele><time>2026-04-04T09:01:46Z</time></trkpt><trkpt lat="44.30630974164425" lon="8.30487041587161"><ele>483.0</ele><time>2026-04-04T09:01:47Z</time></trkpt><trkpt lat="44.306276583329236" lon="8.304644833774095"><ele>483.0</ele><time>2026-04-04T09:01:48Z</time></trkpt><trkpt lat="44.306225667956944" lon="8.304423313683216"><ele>480.0</ele><time>2026-04-04T09:01:49Z</time></trkpt><trkpt lat="44.306149856243195" lon="8.304209721937044"><ele>477.0</ele><time>2026-04-04T09:01:50Z</time></trkpt><trkpt lat="44.30606187333585" lon="8.304011024009766"><ele>474.0</ele><time>2026-04-04T09:01:51Z</time></trkpt><trkpt lat="44.305958273582064" lon="8.303820284816245"><ele>467.33333333333337</ele><time>2026-04-04T09:01:52Z</time></trkpt><trkpt lat="44.3058388885545" lon="8.303640186899873"><ele>460.6666666666667</ele><time>2026-04-04T09:01:53Z</time></trkpt><trkpt lat="44.30571002270512" lon="8.303471849433265"><ele>454.0</ele><time>2026-04-04T09:01:54Z</time></trkpt><trkpt lat="44.30558105444059" lon="8.303306439125862"><ele>454.33333333333337</ele><time>2026-04-04T09:01:55Z</time></trkpt><trkpt lat="44.30544979463768" lon="8.303145166346633"><ele>454.66666666666663</ele><time>2026-04-04T09:01:56Z</time></trkpt><trkpt lat="44.305320318541426" lon="8.302982954119239"><ele>455.0</ele><time>2026-04-04T09:01:57Z</time></trkpt><trkpt lat="44.305194741967526" lon="8.30281660141393"><ele>455.0</ele><time>2026-04-04T09:01:58Z</time></trkpt><trkpt lat="44.30507192480789" lon="8.302644407738434"><ele>455.0</ele><time>2026-04-04T09:01:59Z</time></trkpt><trkpt lat="44.30495278476281" lon="8.302474158939063"><ele>455.0</ele><time>2026-04-04T09:02:00Z</time></trkpt><trkpt lat="44.30484286105828" lon="8.302295253593995"><ele>456.0</ele><time>2026-04-04T09:02:01Z</time></trkpt><trkpt lat="44.30475566024804" lon="8.30211477190348"><ele>457.0</ele><time>2026-04-04T09:02:02Z</time></trkpt><trkpt lat="44.30468011261485" lon="8.301944043984482"><ele>458.0</ele><time>2026-04-04T09:02:03Z</time></trkpt><trkpt lat="44.30460916998817" lon="8.301797168765363"><ele>459.0</ele><time>2026-04-04T09:02:04Z</time></trkpt><trkpt lat="44.304526463682585" lon="8.301682563683988"><ele>459.0</ele><time>2026-04-04T09:02:05Z</time></trkpt><trkpt lat="44.30441590574007" lon="8.301596915193533"><ele>459.0</ele><time>2026-04-04T09:02:06Z</time></trkpt><trkpt lat="44.304281188310384" lon="8.301555436048748"><ele>459.0</ele><time>2026-04-04T09:02:07Z</time></trkpt><trkpt lat="44.3041273498234" lon="8.301506183742653"><ele>459.0</ele><time>2026-04-04T09:02:08Z</time></trkpt><trkpt lat="44.303966731466424" lon="8.301483722210314"><ele>457.33333333333337</ele><time>2026-04-04T09:02:09Z</time></trkpt><trkpt lat="44.30380622214762" lon="8.301472223581397"><ele>455.6666666666667</ele><time>2026-04-04T09:02:10Z</time></trkpt><trkpt lat="44.30365256640344" lon="8.301420288438603"><ele>454.0</ele><time>2026-04-04T09:02:11Z</time></trkpt><trkpt lat="44.30351463875014" lon="8.301364083639417"><ele>454.0</ele><time>2026-04-04T09:02:12.001Z</time></trkpt><trkpt lat="44.30339704532281" lon="8.301314692091715"><ele>454.0</ele><time>2026-04-04T09:02:13.001Z</time></trkpt><trkpt lat="44.30329326694213" lon="8.30130181455711"><ele>454.0</ele><time>2026-04-04T09:02:14.001Z</time></trkpt><trkpt lat="44.30319328794304" lon="8.301326227323846"><ele>454.0</ele><time>2026-04-04T09:02:15.001Z</time></trkpt><trkpt lat="44.30312483926889" lon="8.301451140867929"><ele>454.0</ele><time>2026-04-04T09:02:16.001Z</time></trkpt><trkpt lat="44.30307137100423" lon="8.301602814741814"><ele>452.5</ele><time>2026-04-04T09:02:17.001Z</time></trkpt><trkpt lat="44.30303893294608" lon="8.301784877727021"><ele>451.0</ele><time>2026-04-04T09:02:18.001Z</time></trkpt><trkpt lat="44.302997481524464" lon="8.301968072203994"><ele>449.5</ele><time>2026-04-04T09:02:19.001Z</time></trkpt><trkpt lat="44.30292368249493" lon="8.302130389161555"><ele>448.0</ele><time>2026-04-04T09:02:20.001Z</time></trkpt><trkpt lat="44.30285861159184" lon="8.302313401883145"><ele>447.5</ele><time>2026-04-04T09:02:21.001Z</time></trkpt><trkpt lat="44.30279477203187" lon="8.302506273519406"><ele>447.0</ele><time>2026-04-04T09:02:22.001Z</time></trkpt><trkpt lat="44.302747521206655" lon="8.30270021981483"><ele>446.5</ele><time>2026-04-04T09:02:23.001Z</time></trkpt><trkpt lat="44.30268130752771" lon="8.302878364363426"><ele>446.0</ele><time>2026-04-04T09:02:24.001Z</time></trkpt><trkpt lat="44.30258991823176" lon="8.303038815952604"><ele>446.75</ele><time>2026-04-04T09:02:25.001Z</time></trkpt><trkpt lat="44.30248384859925" lon="8.303182267879269"><ele>447.5</ele><time>2026-04-04T09:02:26.001Z</time></trkpt><trkpt lat="44.302368398154655" lon="8.303315575845327"><ele>448.25</ele><time>2026-04-04T09:02:27.001Z</time></trkpt><trkpt lat="44.302257503529155" lon="8.303421444339024"><ele>449.0</ele><time>2026-04-04T09:02:28.001Z</time></trkpt><trkpt lat="44.30214944098218" lon="8.303497793375346"><ele>449.0</ele><time>2026-04-04T09:02:29.001Z</time></trkpt><trkpt lat="44.30202855269663" lon="8.303549320261288"><ele>449.0</ele><time>2026-04-04T09:02:30.001Z</time></trkpt><trkpt lat="44.30189632572873" lon="8.30353577694365"><ele>449.0</ele><time>2026-04-04T09:02:31.001Z</time></trkpt><trkpt lat="44.301756485036236" lon="8.303503722647212"><ele>449.0</ele><time>2026-04-04T09:02:32.001Z</time></trkpt><trkpt lat="44.30161215091667" lon="8.303463397935477"><ele>449.0</ele><time>2026-04-04T09:02:33.001Z</time></trkpt><trkpt lat="44.30146381394436" lon="8.303438373389932"><ele>449.0</ele><time>2026-04-04T09:02:34.001Z</time></trkpt><trkpt lat="44.30131859392033" lon="8.303411701993037"><ele>449.0</ele><time>2026-04-04T09:02:35.001Z</time></trkpt><trkpt lat="44.30117216154744" lon="8.303480393190513"><ele>448.75</ele><time>2026-04-04T09:02:36.001Z</time></trkpt><trkpt lat="44.301044444707735" lon="8.303574701457496"><ele>448.5</ele><time>2026-04-04T09:02:37.001Z</time></trkpt><trkpt lat="44.300921180019216" lon="8.303684822272277"><ele>448.25</ele><time>2026-04-04T09:02:38.001Z</time></trkpt><trkpt lat="44.30079718994095" lon="8.303755310174832"><ele>448.0</ele><time>2026-04-04T09:02:39.001Z</time></trkpt><trkpt lat="44.30066051615501" lon="8.303812686522313"><ele>447.25</ele><time>2026-04-04T09:02:40.001Z</time></trkpt><trkpt lat="44.30051866475671" lon="8.303849642623838"><ele>446.5</ele><time>2026-04-04T09:02:41.001Z</time></trkpt><trkpt lat="44.30037284336056" lon="8.303861638253727"><ele>445.75</ele><time>2026-04-04T09:02:42.001Z</time></trkpt><trkpt lat="44.300233054173006" lon="8.303815476415721"><ele>445.0</ele><time>2026-04-04T09:02:43.001Z</time></trkpt><trkpt lat="44.30008788960525" lon="8.303785860620946"><ele>445.0</ele><time>2026-04-04T09:02:44.001Z</time></trkpt><trkpt lat="44.29994836373359" lon="8.303774566541545"><ele>445.0</ele><time>2026-04-04T09:02:45.001Z</time></trkpt><trkpt lat="44.29982400669618" lon="8.30374177538065"><ele>445.0</ele><time>2026-04-04T09:02:46.001Z</time></trkpt><trkpt lat="44.29970240460216" lon="8.303720983745686"><ele>445.0</ele><time>2026-04-04T09:02:47.001Z</time></trkpt><trkpt lat="44.29957218422067" lon="8.30375207494119"><ele>445.5</ele><time>2026-04-04T09:02:48.001Z</time></trkpt><trkpt lat="44.2994445727982" lon="8.303831778463326"><ele>446.0</ele><time>2026-04-04T09:02:49.001Z</time></trkpt><trkpt lat="44.29930978309924" lon="8.303917571613653"><ele>446.5</ele><time>2026-04-04T09:02:50.001Z</time></trkpt><trkpt lat="44.29916488305315" lon="8.303975928731111"><ele>447.0</ele><time>2026-04-04T09:02:51.001Z</time></trkpt><trkpt lat="44.29900833764964" lon="8.303972642055191"><ele>450.0</ele><time>2026-04-04T09:02:52.001Z</time></trkpt><trkpt lat="44.298850544234256" lon="8.303998351237247"><ele>453.0</ele><time>2026-04-04T09:02:53.001Z</time></trkpt><trkpt lat="44.29869084339319" lon="8.303996225689124"><ele>456.0</ele><time>2026-04-04T09:02:54.001Z</time></trkpt><trkpt lat="44.29852772068006" lon="8.303981709699451"><ele>456.0</ele><time>2026-04-04T09:02:55.001Z</time></trkpt><trkpt lat="44.29836924649687" lon="8.303996855196342"><ele>456.0</ele><time>2026-04-04T09:02:56.001Z</time></trkpt><trkpt lat="44.29822427244327" lon="8.304059089030982"><ele>456.0</ele><time>2026-04-04T09:02:57.001Z</time></trkpt><trkpt lat="44.298098995567486" lon="8.304107662993577"><ele>456.0</ele><time>2026-04-04T09:02:58.001Z</time></trkpt><trkpt lat="44.29797498115912" lon="8.304135762498799"><ele>456.25</ele><time>2026-04-04T09:02:59.001Z</time></trkpt><trkpt lat="44.2978476829168" lon="8.304116638300655"><ele>456.5</ele><time>2026-04-04T09:03:00.001Z</time></trkpt><trkpt lat="44.29771956583096" lon="8.304044192940351"><ele>456.75</ele><time>2026-04-04T09:03:01.001Z</time></trkpt><trkpt lat="44.297592310031554" lon="8.303949497953424"><ele>457.0</ele><time>2026-04-04T09:03:02.001Z</time></trkpt><trkpt lat="44.297466062326286" lon="8.30383830056036"><ele>457.0</ele><time>2026-04-04T09:03:03.001Z</time></trkpt><trkpt lat="44.29734109853651" lon="8.303722935996136"><ele>457.0</ele><time>2026-04-04T09:03:04.001Z</time></trkpt><trkpt lat="44.2972134463779" lon="8.303604065397305"><ele>457.0</ele><time>2026-04-04T09:03:05.001Z</time></trkpt><trkpt lat="44.29709541743414" lon="8.303463761376637"><ele>457.0</ele><time>2026-04-04T09:03:06.001Z</time></trkpt><trkpt lat="44.29696772387954" lon="8.303341604140739"><ele>457.0</ele><time>2026-04-04T09:03:07.001Z</time></trkpt><trkpt lat="44.29683954353274" lon="8.303219234237112"><ele>457.0</ele><time>2026-04-04T09:03:08.001Z</time></trkpt><trkpt lat="44.29671065513544" lon="8.303097773309766"><ele>457.0</ele><time>2026-04-04T09:03:09.001Z</time></trkpt><trkpt lat="44.2965833448714" lon="8.302977799586937"><ele>457.0</ele><time>2026-04-04T09:03:10.001Z</time></trkpt><trkpt lat="44.296456458558254" lon="8.30285804661848"><ele>457.0</ele><time>2026-04-04T09:03:11.001Z</time></trkpt><trkpt lat="44.296322235028335" lon="8.302753441718314"><ele>457.0</ele><time>2026-04-04T09:03:12.001Z</time></trkpt><trkpt lat="44.296197452890475" lon="8.302624812555864"><ele>457.0</ele><time>2026-04-04T09:03:13Z</time></trkpt><trkpt lat="44.29607155044553" lon="8.302502804849919"><ele>457.0</ele><time>2026-04-04T09:03:14Z</time></trkpt><trkpt lat="44.29594274565406" lon="8.3023940600338"><ele>457.0</ele><time>2026-04-04T09:03:15Z</time></trkpt><trkpt lat="44.29580515513494" lon="8.302312030394809"><ele>457.0</ele><time>2026-04-04T09:03:16Z</time></trkpt><trkpt lat="44.29565750415283" lon="8.30227669528362"><ele>457.0</ele><time>2026-04-04T09:03:17Z</time></trkpt><trkpt lat="44.295502447840775" lon="8.302265437144586"><ele>456.5</ele><time>2026-04-04T09:03:18Z</time></trkpt><trkpt lat="44.29535117398683" lon="8.302248735988274"><ele>456.0</ele><time>2026-04-04T09:03:19Z</time></trkpt><trkpt lat="44.29520528090768" lon="8.302203406259618"><ele>455.5</ele><time>2026-04-04T09:03:20Z</time></trkpt><trkpt lat="44.29506656482153" lon="8.302132740567226"><ele>455.0</ele><time>2026-04-04T09:03:21Z</time></trkpt><trkpt lat="44.294947250516756" lon="8.302009427497431"><ele>455.0</ele><time>2026-04-04T09:03:22Z</time></trkpt><trkpt lat="44.29483686836477" lon="8.301871258378736"><ele>455.0</ele><time>2026-04-04T09:03:23Z</time></trkpt><trkpt lat="44.29471449894389" lon="8.301738621999386"><ele>455.0</ele><time>2026-04-04T09:03:24Z</time></trkpt><trkpt lat="44.29458202819686" lon="8.301636416060905"><ele>455.0</ele><time>2026-04-04T09:03:25Z</time></trkpt><trkpt lat="44.294458242827424" lon="8.301522401224426"><ele>455.0</ele><time>2026-04-04T09:03:26Z</time></trkpt><trkpt lat="44.29432355312617" lon="8.301439003381313"><ele>455.0</ele><time>2026-04-04T09:03:27Z</time></trkpt><trkpt lat="44.294188855392655" lon="8.301366762883802"><ele>455.0</ele><time>2026-04-04T09:03:28Z</time></trkpt><trkpt lat="44.294089424274105" lon="8.30121670519518"><ele>455.0</ele><time>2026-04-04T09:03:29Z</time></trkpt><trkpt lat="44.29399779633028" lon="8.301055065787857"><ele>455.0</ele><time>2026-04-04T09:03:30Z</time></trkpt><trkpt lat="44.29389572531131" lon="8.300898444691573"><ele>455.0</ele><time>2026-04-04T09:03:31Z</time></trkpt><trkpt lat="44.29380320080363" lon="8.300728785146221"><ele>456.3333333333333</ele><time>2026-04-04T09:03:32Z</time></trkpt><trkpt lat="44.29371142801968" lon="8.300557462055668"><ele>457.66666666666663</ele><time>2026-04-04T09:03:33Z</time></trkpt><trkpt lat="44.29362221115951" lon="8.300383942707846"><ele>459.0</ele><time>2026-04-04T09:03:34Z</time></trkpt><trkpt lat="44.29352860168142" lon="8.300207637508123"><ele>459.0</ele><time>2026-04-04T09:03:35Z</time></trkpt><trkpt lat="44.293440268406655" lon="8.300031178593615"><ele>459.0</ele><time>2026-04-04T09:03:36Z</time></trkpt><trkpt lat="44.29335157572594" lon="8.299861559301474"><ele>459.0</ele><time>2026-04-04T09:03:37Z</time></trkpt><trkpt lat="44.293267764580115" lon="8.29972192398758"><ele>459.0</ele><time>2026-04-04T09:03:38Z</time></trkpt><trkpt lat="44.293170009742475" lon="8.29960408628643"><ele>459.0</ele><time>2026-04-04T09:03:39Z</time></trkpt><trkpt lat="44.293067536381606" lon="8.299486975952243"><ele>459.0</ele><time>2026-04-04T09:03:40Z</time></trkpt><trkpt lat="44.292933625486526" lon="8.299415080131526"><ele>459.0</ele><time>2026-04-04T09:03:41Z</time></trkpt><trkpt lat="44.2927962533344" lon="8.299366343233972"><ele>459.0</ele><time>2026-04-04T09:03:42Z</time></trkpt><trkpt lat="44.29264406046309" lon="8.299344234352896"><ele>459.0</ele><time>2026-04-04T09:03:43Z</time></trkpt><trkpt lat="44.29249503881444" lon="8.299339035752599"><ele>459.0</ele><time>2026-04-04T09:03:44Z</time></trkpt><trkpt lat="44.29234641600803" lon="8.299340070203106"><ele>459.0</ele><time>2026-04-04T09:03:45Z</time></trkpt><trkpt lat="44.292196139446695" lon="8.299345171307431"><ele>459.0</ele><time>2026-04-04T09:03:46Z</time></trkpt><trkpt lat="44.29205010132987" lon="8.29935012853537"><ele>459.5</ele><time>2026-04-04T09:03:47Z</time></trkpt><trkpt lat="44.2919032096745" lon="8.299355114766776"><ele>460.0</ele><time>2026-04-04T09:03:48Z</time></trkpt><trkpt lat="44.291759375354566" lon="8.299355565004502"><ele>460.5</ele><time>2026-04-04T09:03:49Z</time></trkpt><trkpt lat="44.291615992510806" lon="8.299352610232779"><ele>461.0</ele><time>2026-04-04T09:03:50Z</time></trkpt><trkpt lat="44.291484973266314" lon="8.299299122669835"><ele>461.0</ele><time>2026-04-04T09:03:51Z</time></trkpt><trkpt lat="44.29137267763584" lon="8.299233893518535"><ele>461.0</ele><time>2026-04-04T09:03:52Z</time></trkpt><trkpt lat="44.29126797438385" lon="8.299144638547755"><ele>461.0</ele><time>2026-04-04T09:03:53Z</time></trkpt><trkpt lat="44.29116784124687" lon="8.299015366487435"><ele>461.0</ele><time>2026-04-04T09:03:54Z</time></trkpt><trkpt lat="44.29107022258997" lon="8.298876217405013"><ele>460.0</ele><time>2026-04-04T09:03:55Z</time></trkpt><trkpt lat="44.29097983693455" lon="8.298728225818165"><ele>459.0</ele><time>2026-04-04T09:03:56Z</time></trkpt><trkpt lat="44.2909032442645" lon="8.29856415264079"><ele>458.0</ele><time>2026-04-04T09:03:57Z</time></trkpt><trkpt lat="44.29085110898917" lon="8.298394215646066"><ele>457.0</ele><time>2026-04-04T09:03:58Z</time></trkpt><trkpt lat="44.290810228807246" lon="8.298245370740519"><ele>457.0</ele><time>2026-04-04T09:03:59Z</time></trkpt><trkpt lat="44.29077031646616" lon="8.298095906992007"><ele>457.0</ele><time>2026-04-04T09:04:00Z</time></trkpt><trkpt lat="44.29073372175712" lon="8.297946358727165"><ele>457.0</ele><time>2026-04-04T09:04:01Z</time></trkpt><trkpt lat="44.290692230317504" lon="8.297796928293401"><ele>457.0</ele><time>2026-04-04T09:04:02Z</time></trkpt><trkpt lat="44.29064539087549" lon="8.297644286612112"><ele>457.5</ele><time>2026-04-04T09:04:03Z</time></trkpt><trkpt lat="44.29060624639659" lon="8.297486933285096"><ele>458.0</ele><time>2026-04-04T09:04:04Z</time></trkpt><trkpt lat="44.29056634811393" lon="8.297329397844885"><ele>458.5</ele><time>2026-04-04T09:04:05.001Z</time></trkpt><trkpt lat="44.29053101782169" lon="8.297186029034533"><ele>459.0</ele><time>2026-04-04T09:04:06.001Z</time></trkpt><trkpt lat="44.29049093602747" lon="8.297047159836517"><ele>460.0</ele><time>2026-04-04T09:04:07.001Z</time></trkpt><trkpt lat="44.290449968470966" lon="8.296889786623773"><ele>461.0</ele><time>2026-04-04T09:04:08.001Z</time></trkpt><trkpt lat="44.290407106507814" lon="8.296738370196817"><ele>462.0</ele><time>2026-04-04T09:04:09.001Z</time></trkpt><trkpt lat="44.29036357569645" lon="8.29657459212888"><ele>463.0</ele><time>2026-04-04T09:04:10.001Z</time></trkpt><trkpt lat="44.29032554003733" lon="8.296412349633677"><ele>463.79999999999995</ele><time>2026-04-04T09:04:11.001Z</time></trkpt><trkpt lat="44.29028851341608" lon="8.296252748199237"><ele>464.59999999999997</ele><time>2026-04-04T09:04:12.001Z</time></trkpt><trkpt lat="44.290254527367125" lon="8.29609416870817"><ele>465.40000000000003</ele><time>2026-04-04T09:04:13.001Z</time></trkpt><trkpt lat="44.29022165071763" lon="8.295945421595963"><ele>466.20000000000005</ele><time>2026-04-04T09:04:14.001Z</time></trkpt><trkpt lat="44.29019585711553" lon="8.295818950905604"><ele>467.0</ele><time>2026-04-04T09:04:15.001Z</time></trkpt><trkpt lat="44.290178183502256" lon="8.295686368261379"><ele>467.0</ele><time>2026-04-04T09:04:17.001Z</time></trkpt><trkpt lat="44.29028839273141" lon="8.295625848747337"><ele>467.00000000000006</ele><time>2026-04-04T09:04:19.001Z</time></trkpt><trkpt lat="44.29036065120134" lon="8.295594363986138"><ele>467.00000000000006</ele><time>2026-04-04T09:04:20.001Z</time></trkpt><trkpt lat="44.29045825959102" lon="8.295566792078494"><ele>467.0</ele><time>2026-04-04T09:04:21.001Z</time></trkpt><trkpt lat="44.29055162279715" lon="8.295537659587929"><ele>467.0</ele><time>2026-04-04T09:04:22.001Z</time></trkpt><trkpt lat="44.29062934404166" lon="8.295500971001518"><ele>467.0</ele><time>2026-04-04T09:04:23.001Z</time></trkpt><trkpt lat="44.29070651237045" lon="8.295454600263234"><ele>467.00000000000006</ele><time>2026-04-04T09:04:24.001Z</time></trkpt><trkpt lat="44.29076269444439" lon="8.295351105200321"><ele>467.00000000000006</ele><time>2026-04-04T09:04:25.001Z</time></trkpt><trkpt lat="44.29082423853809" lon="8.295247417969916"><ele>467.0</ele><time>2026-04-04T09:04:26.001Z</time></trkpt><trkpt lat="44.29090500265319" lon="8.295161247621218"><ele>467.0</ele><time>2026-04-04T09:04:27.001Z</time></trkpt><trkpt lat="44.2909992141244" lon="8.295068705468049"><ele>467.0</ele><time>2026-04-04T09:04:28.001Z</time></trkpt><trkpt lat="44.291089156452635" lon="8.29495933885955"><ele>467.0</ele><time>2026-04-04T09:04:29.001Z</time></trkpt><trkpt lat="44.29118482865967" lon="8.294845170882668"><ele>467.0</ele><time>2026-04-04T09:04:30.001Z</time></trkpt><trkpt lat="44.29127643733631" lon="8.294732147677216"><ele>467.0</ele><time>2026-04-04T09:04:31.001Z</time></trkpt><trkpt lat="44.291363259170254" lon="8.294617887268357"><ele>464.25</ele><time>2026-04-04T09:04:32.001Z</time></trkpt><trkpt lat="44.29144347259502" lon="8.294495877607464"><ele>461.5</ele><time>2026-04-04T09:04:33.001Z</time></trkpt><trkpt lat="44.291520073892755" lon="8.29436334589342"><ele>458.75</ele><time>2026-04-04T09:04:34.001Z</time></trkpt><trkpt lat="44.29157852731735" lon="8.294220098653872"><ele>456.0</ele><time>2026-04-04T09:04:35.001Z</time></trkpt><trkpt lat="44.29161124021832" lon="8.294052252598455"><ele>456.25</ele><time>2026-04-04T09:04:36.001Z</time></trkpt><trkpt lat="44.291629401496714" lon="8.293872276672033"><ele>456.5</ele><time>2026-04-04T09:04:37.001Z</time></trkpt><trkpt lat="44.291634396488874" lon="8.293690438457668"><ele>456.75</ele><time>2026-04-04T09:04:38.001Z</time></trkpt><trkpt lat="44.29165376973663" lon="8.293510081134528"><ele>457.0</ele><time>2026-04-04T09:04:39.001Z</time></trkpt><trkpt lat="44.29168508063294" lon="8.293327929230221"><ele>457.0</ele><time>2026-04-04T09:04:40.001Z</time></trkpt><trkpt lat="44.291728116415875" lon="8.293150258786213"><ele>457.0</ele><time>2026-04-04T09:04:41.001Z</time></trkpt><trkpt lat="44.291783886403124" lon="8.292980434814977"><ele>457.0</ele><time>2026-04-04T09:04:42.001Z</time></trkpt><trkpt lat="44.29184540263145" lon="8.29282020793489"><ele>457.0</ele><time>2026-04-04T09:04:43.001Z</time></trkpt><trkpt lat="44.29191233533803" lon="8.292661495666648"><ele>457.25</ele><time>2026-04-04T09:04:44.001Z</time></trkpt><trkpt lat="44.29197975696704" lon="8.292498573108954"><ele>457.5</ele><time>2026-04-04T09:04:45.001Z</time></trkpt><trkpt lat="44.29204681858814" lon="8.292336607686835"><ele>457.75</ele><time>2026-04-04T09:04:46.001Z</time></trkpt><trkpt lat="44.29211196544893" lon="8.29217401707465"><ele>458.0</ele><time>2026-04-04T09:04:47.001Z</time></trkpt><trkpt lat="44.29217625361556" lon="8.292009751004331"><ele>458.5</ele><time>2026-04-04T09:04:48.001Z</time></trkpt><trkpt lat="44.292243960280985" lon="8.291844170371075"><ele>459.0</ele><time>2026-04-04T09:04:49.001Z</time></trkpt><trkpt lat="44.29231603007142" lon="8.291681574075637"><ele>459.5</ele><time>2026-04-04T09:04:50.001Z</time></trkpt><trkpt lat="44.292385541920794" lon="8.291522233617108"><ele>460.0</ele><time>2026-04-04T09:04:51.001Z</time></trkpt><trkpt lat="44.29244418300756" lon="8.291362512060129"><ele>461.0</ele><time>2026-04-04T09:04:52.001Z</time></trkpt><trkpt lat="44.29248613103558" lon="8.291193880725533"><ele>462.0</ele><time>2026-04-04T09:04:53.001Z</time></trkpt><trkpt lat="44.292513275982245" lon="8.291013406052755"><ele>463.0</ele><time>2026-04-04T09:04:54.001Z</time></trkpt><trkpt lat="44.29253037100138" lon="8.290821410010173"><ele>464.0</ele><time>2026-04-04T09:04:55.001Z</time></trkpt><trkpt lat="44.29253785038205" lon="8.290625929174"><ele>464.25</ele><time>2026-04-04T09:04:56.001Z</time></trkpt><trkpt lat="44.29254379150825" lon="8.290423911241009"><ele>464.5</ele><time>2026-04-04T09:04:57.001Z</time></trkpt><trkpt lat="44.29255277424466" lon="8.29021808022726"><ele>464.75</ele><time>2026-04-04T09:04:58.001Z</time></trkpt><trkpt lat="44.292563005642336" lon="8.290016990671559"><ele>465.0</ele><time>2026-04-04T09:04:59.001Z</time></trkpt><trkpt lat="44.292573420927866" lon="8.28981236687242"><ele>465.5</ele><time>2026-04-04T09:05:00.001Z</time></trkpt><trkpt lat="44.292582395496915" lon="8.289609644447664"><ele>466.0</ele><time>2026-04-04T09:05:01.001Z</time></trkpt><trkpt lat="44.29259383390481" lon="8.289408346127408"><ele>466.5</ele><time>2026-04-04T09:05:02.001Z</time></trkpt><trkpt lat="44.29260484257058" lon="8.289210535391588"><ele>467.0</ele><time>2026-04-04T09:05:03.001Z</time></trkpt><trkpt lat="44.29261740829977" lon="8.289014776458533"><ele>466.5</ele><time>2026-04-04T09:05:04.001Z</time></trkpt><trkpt lat="44.292637296347216" lon="8.288819433554007"><ele>466.0</ele><time>2026-04-04T09:05:05.001Z</time></trkpt><trkpt lat="44.2926718664401" lon="8.28862503403285"><ele>465.5</ele><time>2026-04-04T09:05:06.001Z</time></trkpt><trkpt lat="44.29272945094942" lon="8.288444360616408"><ele>465.0</ele><time>2026-04-04T09:05:07.001Z</time></trkpt><trkpt lat="44.2927938075307" lon="8.28826616152444"><ele>464.75</ele><time>2026-04-04T09:05:08.001Z</time></trkpt><trkpt lat="44.29287160864165" lon="8.28809210160986"><ele>464.5</ele><time>2026-04-04T09:05:09.001Z</time></trkpt><trkpt lat="44.29294985675714" lon="8.287914840237953"><ele>464.25</ele><time>2026-04-04T09:05:10.001Z</time></trkpt><trkpt lat="44.293026747654366" lon="8.287734272703322"><ele>464.0</ele><time>2026-04-04T09:05:11.001Z</time></trkpt><trkpt lat="44.293105858645255" lon="8.287557920732517"><ele>466.5</ele><time>2026-04-04T09:05:12.001Z</time></trkpt><trkpt lat="44.293182967649386" lon="8.287379118223392"><ele>469.0</ele><time>2026-04-04T09:05:13.001Z</time></trkpt><trkpt lat="44.293247463082025" lon="8.287204649843124"><ele>471.5</ele><time>2026-04-04T09:05:14.001Z</time></trkpt><trkpt lat="44.29329993328937" lon="8.287009063964323"><ele>474.0</ele><time>2026-04-04T09:05:15.001Z</time></trkpt><trkpt lat="44.29332925552328" lon="8.286802010234508"><ele>475.0</ele><time>2026-04-04T09:05:16.001Z</time></trkpt><trkpt lat="44.29334002699127" lon="8.286587679696456"><ele>476.0</ele><time>2026-04-04T09:05:17.002Z</time></trkpt><trkpt lat="44.29333372960671" lon="8.28636933103735"><ele>477.0</ele><time>2026-04-04T09:05:18.002Z</time></trkpt><trkpt lat="44.29331728534859" lon="8.28615656401564"><ele>475.33333333333337</ele><time>2026-04-04T09:05:19Z</time></trkpt><trkpt lat="44.293284539530255" lon="8.285948408867942"><ele>473.6666666666667</ele><time>2026-04-04T09:05:20Z</time></trkpt><trkpt lat="44.29323015445751" lon="8.28575195333828"><ele>472.0</ele><time>2026-04-04T09:05:21Z</time></trkpt><trkpt lat="44.2930597111844" lon="8.285410635009935"><ele>472.0</ele><time>2026-04-04T09:05:23Z</time></trkpt><trkpt lat="44.29296336217589" lon="8.285252405988361"><ele>472.0</ele><time>2026-04-04T09:05:24Z</time></trkpt><trkpt lat="44.292867749185085" lon="8.285079432590551"><ele>472.0</ele><time>2026-04-04T09:05:25Z</time></trkpt><trkpt lat="44.29277101365402" lon="8.284909858328202"><ele>473.33333333333337</ele><time>2026-04-04T09:05:26Z</time></trkpt><trkpt lat="44.29267143654082" lon="8.284744797346557"><ele>474.66666666666663</ele><time>2026-04-04T09:05:27Z</time></trkpt><trkpt lat="44.29256991300799" lon="8.284579665619045"><ele>476.0</ele><time>2026-04-04T09:05:28Z</time></trkpt><trkpt lat="44.292467947026694" lon="8.284414208928988"><ele>476.0</ele><time>2026-04-04T09:05:29Z</time></trkpt><trkpt lat="44.292364948985" lon="8.284253869916974"><ele>476.0</ele><time>2026-04-04T09:05:30Z</time></trkpt><trkpt lat="44.292259903733154" lon="8.28409610972332"><ele>476.0</ele><time>2026-04-04T09:05:31Z</time></trkpt><trkpt lat="44.29214907447874" lon="8.28394290070483"><ele>477.0</ele><time>2026-04-04T09:05:32Z</time></trkpt><trkpt lat="44.29202972918371" lon="8.283800673872962"><ele>478.0</ele><time>2026-04-04T09:05:33Z</time></trkpt><trkpt lat="44.291906517306494" lon="8.28365801498548"><ele>479.0</ele><time>2026-04-04T09:05:34Z</time></trkpt><trkpt lat="44.2917808084743" lon="8.283516437692867"><ele>479.0</ele><time>2026-04-04T09:05:35Z</time></trkpt><trkpt lat="44.29165332561748" lon="8.28338000235159"><ele>479.0</ele><time>2026-04-04T09:05:36Z</time></trkpt><trkpt lat="44.291516047387695" lon="8.283254552361957"><ele>479.0</ele><time>2026-04-04T09:05:37Z</time></trkpt><trkpt lat="44.291376616764914" lon="8.283140967182561"><ele>480.3333333333333</ele><time>2026-04-04T09:05:38Z</time></trkpt><trkpt lat="44.2912323931195" lon="8.283024114474559"><ele>481.66666666666663</ele><time>2026-04-04T09:05:39Z</time></trkpt><trkpt lat="44.29108963123774" lon="8.282896520857216"><ele>483.0</ele><time>2026-04-04T09:05:40Z</time></trkpt><trkpt lat="44.29095796291078" lon="8.282764465358252"><ele>483.0</ele><time>2026-04-04T09:05:41Z</time></trkpt><trkpt lat="44.29082283740344" lon="8.282630943553576"><ele>483.0</ele><time>2026-04-04T09:05:42Z</time></trkpt><trkpt lat="44.29069085753804" lon="8.282494200901452"><ele>483.0</ele><time>2026-04-04T09:05:43Z</time></trkpt><trkpt lat="44.29055922366473" lon="8.28235916377786"><ele>483.0</ele><time>2026-04-04T09:05:44Z</time></trkpt><trkpt lat="44.29043109480229" lon="8.282219583272898"><ele>483.0</ele><time>2026-04-04T09:05:45Z</time></trkpt><trkpt lat="44.29029663317451" lon="8.282087849234713"><ele>483.0</ele><time>2026-04-04T09:05:46Z</time></trkpt><trkpt lat="44.29015491571368" lon="8.281972507637839"><ele>483.0</ele><time>2026-04-04T09:05:47Z</time></trkpt><trkpt lat="44.29001493452325" lon="8.28186218030681"><ele>483.0</ele><time>2026-04-04T09:05:48Z</time></trkpt><trkpt lat="44.28988463114232" lon="8.281741596246707"><ele>483.0</ele><time>2026-04-04T09:05:49Z</time></trkpt><trkpt lat="44.28976370929968" lon="8.281604570640273"><ele>485.0</ele><time>2026-04-04T09:05:50Z</time></trkpt><trkpt lat="44.28964291891374" lon="8.281454661727146"><ele>487.0</ele><time>2026-04-04T09:05:51Z</time></trkpt><trkpt lat="44.28951641655231" lon="8.281313544169304"><ele>489.0</ele><time>2026-04-04T09:05:52Z</time></trkpt><trkpt lat="44.28939497540331" lon="8.281176887290336"><ele>489.0</ele><time>2026-04-04T09:05:53Z</time></trkpt><trkpt lat="44.28925667842865" lon="8.281067710603578"><ele>489.0</ele><time>2026-04-04T09:05:54Z</time></trkpt><trkpt lat="44.28911035776756" lon="8.28099531200708"><ele>489.0</ele><time>2026-04-04T09:05:55Z</time></trkpt><trkpt lat="44.2889691915783" lon="8.28092520494605"><ele>485.66666666666663</ele><time>2026-04-04T09:05:56Z</time></trkpt><trkpt lat="44.28882346873668" lon="8.280873736580965"><ele>482.3333333333333</ele><time>2026-04-04T09:05:57Z</time></trkpt><trkpt lat="44.28867362617547" lon="8.28081981855938"><ele>479.0</ele><time>2026-04-04T09:05:58Z</time></trkpt><trkpt lat="44.2885282912017" lon="8.280743937853941"><ele>479.0</ele><time>2026-04-04T09:05:59Z</time></trkpt><trkpt lat="44.28838058035032" lon="8.280651422353118"><ele>479.0</ele><time>2026-04-04T09:06:00Z</time></trkpt><trkpt lat="44.288232559521575" lon="8.280557787275976"><ele>479.0</ele><time>2026-04-04T09:06:01Z</time></trkpt><trkpt lat="44.28808189966415" lon="8.28046986939728"><ele>480.3333333333333</ele><time>2026-04-04T09:06:02Z</time></trkpt><trkpt lat="44.28793375012054" lon="8.280376616660604"><ele>481.66666666666663</ele><time>2026-04-04T09:06:03Z</time></trkpt><trkpt lat="44.28778568655431" lon="8.28028353870595"><ele>483.0</ele><time>2026-04-04T09:06:04Z</time></trkpt><trkpt lat="44.287637014820696" lon="8.280197621877777"><ele>483.0</ele><time>2026-04-04T09:06:05Z</time></trkpt><trkpt lat="44.28748915725252" lon="8.280113436661033"><ele>483.0</ele><time>2026-04-04T09:06:06Z</time></trkpt><trkpt lat="44.287360356760935" lon="8.280024974884657"><ele>483.0</ele><time>2026-04-04T09:06:07Z</time></trkpt><trkpt lat="44.28724007167755" lon="8.279938605036227"><ele>483.0</ele><time>2026-04-04T09:06:08Z</time></trkpt><trkpt lat="44.2871444496805" lon="8.279845941261085"><ele>483.0</ele><time>2026-04-04T09:06:09Z</time></trkpt><trkpt lat="44.287074340576496" lon="8.279735643389051"><ele>483.0</ele><time>2026-04-04T09:06:10.001Z</time></trkpt><trkpt lat="44.28702066218815" lon="8.279586239652772"><ele>483.0</ele><time>2026-04-04T09:06:11.001Z</time></trkpt><trkpt lat="44.28697261647568" lon="8.279408454726122"><ele>483.0</ele><time>2026-04-04T09:06:12.001Z</time></trkpt><trkpt lat="44.286917215613656" lon="8.27923226596597"><ele>483.0</ele><time>2026-04-04T09:06:13.001Z</time></trkpt><trkpt lat="44.286853758291834" lon="8.279052030983097"><ele>483.0</ele><time>2026-04-04T09:06:14.001Z</time></trkpt><trkpt lat="44.28679318190304" lon="8.278863136759838"><ele>483.0</ele><time>2026-04-04T09:06:15.001Z</time></trkpt><trkpt lat="44.28673566766071" lon="8.27867672719725"><ele>483.0</ele><time>2026-04-04T09:06:16.001Z</time></trkpt><trkpt lat="44.28667380799606" lon="8.278483758760864"><ele>484.75</ele><time>2026-04-04T09:06:17.001Z</time></trkpt><trkpt lat="44.28661246052618" lon="8.278295889582662"><ele>486.5</ele><time>2026-04-04T09:06:18.001Z</time></trkpt><trkpt lat="44.28655154571757" lon="8.278114082173262"><ele>488.25</ele><time>2026-04-04T09:06:19.001Z</time></trkpt><trkpt lat="44.286489134835755" lon="8.277936985639457"><ele>490.0</ele><time>2026-04-04T09:06:20.001Z</time></trkpt><trkpt lat="44.28642962066446" lon="8.277751667594133"><ele>489.6666666666667</ele><time>2026-04-04T09:06:21.001Z</time></trkpt><trkpt lat="44.28637755003051" lon="8.277555086252194"><ele>489.33333333333337</ele><time>2026-04-04T09:06:22.001Z</time></trkpt><trkpt lat="44.28633418164925" lon="8.277353951774813"><ele>489.0</ele><time>2026-04-04T09:06:23.001Z</time></trkpt><trkpt lat="44.286289994650204" lon="8.277153258823498"><ele>489.0</ele><time>2026-04-04T09:06:24.001Z</time></trkpt><trkpt lat="44.28624622564743" lon="8.27695373831653"><ele>489.0</ele><time>2026-04-04T09:06:25.001Z</time></trkpt><trkpt lat="44.286193685685745" lon="8.276762656176373"><ele>489.0</ele><time>2026-04-04T09:06:26.001Z</time></trkpt><trkpt lat="44.28613395476853" lon="8.27656362416844"><ele>490.0</ele><time>2026-04-04T09:06:27.001Z</time></trkpt><trkpt lat="44.286080213228324" lon="8.276360072574608"><ele>491.0</ele><time>2026-04-04T09:06:28.001Z</time></trkpt><trkpt lat="44.2860303709347" lon="8.276153585863822"><ele>492.0</ele><time>2026-04-04T09:06:29.001Z</time></trkpt><trkpt lat="44.28598657684008" lon="8.275946143864315"><ele>492.0</ele><time>2026-04-04T09:06:30.001Z</time></trkpt><trkpt lat="44.285961831740785" lon="8.275735604806176"><ele>492.0</ele><time>2026-04-04T09:06:31.001Z</time></trkpt><trkpt lat="44.28595527185406" lon="8.275515639665665"><ele>492.0</ele><time>2026-04-04T09:06:32.001Z</time></trkpt><trkpt lat="44.28595389869145" lon="8.275291034837775"><ele>493.33333333333337</ele><time>2026-04-04T09:06:33.001Z</time></trkpt><trkpt lat="44.28595195791799" lon="8.275063214951064"><ele>494.6666666666667</ele><time>2026-04-04T09:06:34.001Z</time></trkpt><trkpt lat="44.28594982313567" lon="8.274833389641893"><ele>496.0</ele><time>2026-04-04T09:06:35.001Z</time></trkpt><trkpt lat="44.28595124755827" lon="8.274607778451095"><ele>497.5</ele><time>2026-04-04T09:06:36.001Z</time></trkpt><trkpt lat="44.28594920470936" lon="8.27439454848436"><ele>499.0</ele><time>2026-04-04T09:06:37.001Z</time></trkpt><trkpt lat="44.28593961391365" lon="8.274190447879153"><ele>500.5</ele><time>2026-04-04T09:06:38.001Z</time></trkpt><trkpt lat="44.28591246424856" lon="8.273990461316972"><ele>502.0</ele><time>2026-04-04T09:06:39.001Z</time></trkpt><trkpt lat="44.28586750026205" lon="8.273825515249237"><ele>503.0</ele><time>2026-04-04T09:06:40.001Z</time></trkpt><trkpt lat="44.2857924328105" lon="8.273669704376358"><ele>504.0</ele><time>2026-04-04T09:06:41.001Z</time></trkpt><trkpt lat="44.28568731735252" lon="8.273551151817944"><ele>505.0</ele><time>2026-04-04T09:06:42.001Z</time></trkpt><trkpt lat="44.285561541987036" lon="8.27346556938982"><ele>506.0</ele><time>2026-04-04T09:06:43.001Z</time></trkpt><trkpt lat="44.285427822756645" lon="8.27339095628721"><ele>506.0</ele><time>2026-04-04T09:06:44.001Z</time></trkpt><trkpt lat="44.28528920810208" lon="8.273318731163274"><ele>506.0</ele><time>2026-04-04T09:06:45.001Z</time></trkpt><trkpt lat="44.28514729259751" lon="8.27324514967136"><ele>506.0</ele><time>2026-04-04T09:06:46.001Z</time></trkpt><trkpt lat="44.28500802450524" lon="8.273177829864562"><ele>506.0</ele><time>2026-04-04T09:06:47.001Z</time></trkpt><trkpt lat="44.284867513616454" lon="8.273104122627169"><ele>507.75</ele><time>2026-04-04T09:06:48.001Z</time></trkpt><trkpt lat="44.28472921248351" lon="8.273027562043943"><ele>509.5</ele><time>2026-04-04T09:06:49.001Z</time></trkpt><trkpt lat="44.284592206363655" lon="8.272950557837396"><ele>511.25</ele><time>2026-04-04T09:06:50.001Z</time></trkpt><trkpt lat="44.28445678740669" lon="8.272866202495399"><ele>513.0</ele><time>2026-04-04T09:06:51.001Z</time></trkpt><trkpt lat="44.28432941902274" lon="8.27278983311487"><ele>513.0</ele><time>2026-04-04T09:06:52.001Z</time></trkpt><trkpt lat="44.28421643293722" lon="8.272723927099351"><ele>513.0</ele><time>2026-04-04T09:06:53.001Z</time></trkpt><trkpt lat="44.284125437855344" lon="8.272654694605187"><ele>513.0</ele><time>2026-04-04T09:06:54.001Z</time></trkpt><trkpt lat="44.284055321066" lon="8.272568307839242"><ele>513.0</ele><time>2026-04-04T09:06:55.001Z</time></trkpt><trkpt lat="44.28401571156716" lon="8.272442504205673"><ele>513.0</ele><time>2026-04-04T09:06:56.001Z</time></trkpt><trkpt lat="44.28395819493617" lon="8.272310962414592"><ele>513.75</ele><time>2026-04-04T09:06:57.001Z</time></trkpt><trkpt lat="44.283925642466784" lon="8.272155521690124"><ele>514.5</ele><time>2026-04-04T09:06:58.001Z</time></trkpt><trkpt lat="44.283886377180465" lon="8.271994292850975"><ele>515.25</ele><time>2026-04-04T09:06:59.001Z</time></trkpt><trkpt lat="44.283827446717076" lon="8.271834896211665"><ele>516.0</ele><time>2026-04-04T09:07:00.001Z</time></trkpt><trkpt lat="44.2837507042757" lon="8.27168253752023"><ele>516.0</ele><time>2026-04-04T09:07:01.001Z</time></trkpt><trkpt lat="44.28366043467282" lon="8.27155257160217"><ele>516.0</ele><time>2026-04-04T09:07:02.001Z</time></trkpt><trkpt lat="44.28354981760769" lon="8.271432483675609"><ele>516.0</ele><time>2026-04-04T09:07:03.001Z</time></trkpt><trkpt lat="44.28342663076459" lon="8.271329857064286"><ele>516.0</ele><time>2026-04-04T09:07:04.001Z</time></trkpt><trkpt lat="44.283291723301" lon="8.271241836226595"><ele>518.0</ele><time>2026-04-04T09:07:05.001Z</time></trkpt><trkpt lat="44.28315180116928" lon="8.27117594961672"><ele>520.0</ele><time>2026-04-04T09:07:06.001Z</time></trkpt><trkpt lat="44.2830142655064" lon="8.271127947549969"><ele>522.0</ele><time>2026-04-04T09:07:07.001Z</time></trkpt><trkpt lat="44.28288513471157" lon="8.271087375908323"><ele>524.0</ele><time>2026-04-04T09:07:08.001Z</time></trkpt><trkpt lat="44.28279459277162" lon="8.27100723064389"><ele>524.0</ele><time>2026-04-04T09:07:09.001Z</time></trkpt><trkpt lat="44.282755166196864" lon="8.270908030902651"><ele>524.0</ele><time>2026-04-04T09:07:10.001Z</time></trkpt><trkpt lat="44.28276433564161" lon="8.270804044144016"><ele>524.0</ele><time>2026-04-04T09:07:11.001Z</time></trkpt><trkpt lat="44.28281524731081" lon="8.270682873386042"><ele>524.0</ele><time>2026-04-04T09:07:12.001Z</time></trkpt><trkpt lat="44.28287823067836" lon="8.270556340175267"><ele>524.0</ele><time>2026-04-04T09:07:13.001Z</time></trkpt><trkpt lat="44.28293378079264" lon="8.270409446670275"><ele>523.25</ele><time>2026-04-04T09:07:14.001Z</time></trkpt><trkpt lat="44.28297765289395" lon="8.270241106087488"><ele>522.5</ele><time>2026-04-04T09:07:15.001Z</time></trkpt><trkpt lat="44.283024392047565" lon="8.270074296371465"><ele>521.75</ele><time>2026-04-04T09:07:16.001Z</time></trkpt><trkpt lat="44.28307338278406" lon="8.269905509367875"><ele>521.0</ele><time>2026-04-04T09:07:17.001Z</time></trkpt><trkpt lat="44.28312445823824" lon="8.269732782711124"><ele>527.0</ele><time>2026-04-04T09:07:18.001Z</time></trkpt><trkpt lat="44.283175612192395" lon="8.269564119216067"><ele>533.0</ele><time>2026-04-04T09:07:19.001Z</time></trkpt><trkpt lat="44.28324349702877" lon="8.269414934623681"><ele>539.0</ele><time>2026-04-04T09:07:20.001Z</time></trkpt><trkpt lat="44.283337055038956" lon="8.269286784825809"><ele>545.0</ele><time>2026-04-04T09:07:21.001Z</time></trkpt><trkpt lat="44.28344414592165" lon="8.269180558400059"><ele>545.0</ele><time>2026-04-04T09:07:22.001Z</time></trkpt><trkpt lat="44.28352577027553" lon="8.269044220542016"><ele>545.0</ele><time>2026-04-04T09:07:23.002Z</time></trkpt><trkpt lat="44.28357622062565" lon="8.268879973088499"><ele>545.0</ele><time>2026-04-04T09:07:24.002Z</time></trkpt><trkpt lat="44.28360343972196" lon="8.268699002829903"><ele>545.0</ele><time>2026-04-04T09:07:25Z</time></trkpt><trkpt lat="44.283617469816114" lon="8.268499418274146"><ele>545.25</ele><time>2026-04-04T09:07:26Z</time></trkpt><trkpt lat="44.28362576284279" lon="8.268300256115774"><ele>545.5</ele><time>2026-04-04T09:07:27Z</time></trkpt><trkpt lat="44.283624741341455" lon="8.268099395653774"><ele>545.75</ele><time>2026-04-04T09:07:28Z</time></trkpt><trkpt lat="44.28360735346506" lon="8.267894877468853"><ele>546.0</ele><time>2026-04-04T09:07:29Z</time></trkpt><trkpt lat="44.28357444525609" lon="8.26767723578301"><ele>548.3333333333334</ele><time>2026-04-04T09:07:30Z</time></trkpt><trkpt lat="44.283546491254306" lon="8.26746522799808"><ele>550.6666666666667</ele><time>2026-04-04T09:07:31Z</time></trkpt><trkpt lat="44.28351676896619" lon="8.267254310219665"><ele>553.0</ele><time>2026-04-04T09:07:32Z</time></trkpt><trkpt lat="44.283487253090286" lon="8.267053164397797"><ele>555.3333333333334</ele><time>2026-04-04T09:07:33Z</time></trkpt><trkpt lat="44.283458384401136" lon="8.266841054319599"><ele>557.6666666666666</ele><time>2026-04-04T09:07:34Z</time></trkpt><trkpt lat="44.28343898548933" lon="8.26663095671577"><ele>560.0</ele><time>2026-04-04T09:07:35Z</time></trkpt><trkpt lat="44.28342569833308" lon="8.266419011989658"><ele>560.6666666666666</ele><time>2026-04-04T09:07:36Z</time></trkpt><trkpt lat="44.283416573598515" lon="8.266205978633597"><ele>561.3333333333334</ele><time>2026-04-04T09:07:37Z</time></trkpt><trkpt lat="44.28340742227168" lon="8.265994523972187"><ele>562.0</ele><time>2026-04-04T09:07:38Z</time></trkpt><trkpt lat="44.28340579537943" lon="8.265786162244517"><ele>563.6666666666667</ele><time>2026-04-04T09:07:39Z</time></trkpt><trkpt lat="44.28341551263764" lon="8.265573729451818"><ele>565.3333333333334</ele><time>2026-04-04T09:07:40Z</time></trkpt><trkpt lat="44.28344352706538" lon="8.265364497358542"><ele>567.0</ele><time>2026-04-04T09:07:41Z</time></trkpt><trkpt lat="44.28347773942065" lon="8.265157386757922"><ele>567.0</ele><time>2026-04-04T09:07:42Z</time></trkpt><trkpt lat="44.28350307566846" lon="8.26494822353668"><ele>567.0</ele><time>2026-04-04T09:07:43Z</time></trkpt><trkpt lat="44.28350559367454" lon="8.264738396056797"><ele>567.0</ele><time>2026-04-04T09:07:44Z</time></trkpt><trkpt lat="44.28348390585966" lon="8.264530749878721"><ele>569.5</ele><time>2026-04-04T09:07:45Z</time></trkpt><trkpt lat="44.28345750708816" lon="8.2643273801837"><ele>572.0</ele><time>2026-04-04T09:07:46Z</time></trkpt><trkpt lat="44.283435558299416" lon="8.264123719709835"><ele>574.5</ele><time>2026-04-04T09:07:47Z</time></trkpt><trkpt lat="44.28341411403927" lon="8.263929780737678"><ele>577.0</ele><time>2026-04-04T09:07:48Z</time></trkpt><trkpt lat="44.2833871684698" lon="8.2637475990591"><ele>580.5</ele><time>2026-04-04T09:07:49Z</time></trkpt><trkpt lat="44.283345882848366" lon="8.263580934585534"><ele>584.0</ele><time>2026-04-04T09:07:50Z</time></trkpt><trkpt lat="44.283278297794745" lon="8.263428863969592"><ele>587.5</ele><time>2026-04-04T09:07:51Z</time></trkpt><trkpt lat="44.283206962379566" lon="8.26329863103182"><ele>591.0</ele><time>2026-04-04T09:07:52Z</time></trkpt><trkpt lat="44.283145092996044" lon="8.26319222113319"><ele>591.2</ele><time>2026-04-04T09:07:53Z</time></trkpt><trkpt lat="44.28309678827752" lon="8.263099508878605"><ele>591.4000000000001</ele><time>2026-04-04T09:07:54Z</time></trkpt><trkpt lat="44.28309398842567" lon="8.262967420844765"><ele>591.6</ele><time>2026-04-04T09:07:56Z</time></trkpt><trkpt lat="44.28309231422125" lon="8.26287659735978"><ele>591.8000000000001</ele><time>2026-04-04T09:07:58Z</time></trkpt><trkpt lat="44.28297012078588" lon="8.262782549644102"><ele>592.0</ele><time>2026-04-04T09:07:59Z</time></trkpt><trkpt lat="44.282930067146296" lon="8.262684304198592"><ele>592.0</ele><time>2026-04-04T09:08:00Z</time></trkpt><trkpt lat="44.282878993804744" lon="8.262577447829118"><ele>592.0</ele><time>2026-04-04T09:08:01Z</time></trkpt><trkpt lat="44.282817442919125" lon="8.262484939647388"><ele>592.0</ele><time>2026-04-04T09:08:02Z</time></trkpt><trkpt lat="44.2827491011653" lon="8.26239419042793"><ele>592.0</ele><time>2026-04-04T09:08:03Z</time></trkpt><trkpt lat="44.28268894750268" lon="8.262309274952797"><ele>592.0</ele><time>2026-04-04T09:08:04Z</time></trkpt><trkpt lat="44.28262685945443" lon="8.262215940757006"><ele>594.4</ele><time>2026-04-04T09:08:05Z</time></trkpt><trkpt lat="44.28256454350911" lon="8.262122263619924"><ele>596.8000000000001</ele><time>2026-04-04T09:08:06Z</time></trkpt><trkpt lat="44.282517248159245" lon="8.262015425189887"><ele>599.2</ele><time>2026-04-04T09:08:07Z</time></trkpt><trkpt lat="44.28245929393623" lon="8.261915232495555"><ele>601.6</ele><time>2026-04-04T09:08:08Z</time></trkpt><trkpt lat="44.28238854359702" lon="8.261865009089922"><ele>604.0</ele><time>2026-04-04T09:08:09Z</time></trkpt><trkpt lat="44.28229811771161" lon="8.26178612167543"><ele>603.8</ele><time>2026-04-04T09:08:10Z</time></trkpt><trkpt lat="44.28221320938901" lon="8.261712053449074"><ele>603.5999999999999</ele><time>2026-04-04T09:08:11Z</time></trkpt><trkpt lat="44.282139865780664" lon="8.261611442680792"><ele>603.4</ele><time>2026-04-04T09:08:12.001Z</time></trkpt><trkpt lat="44.28205516644937" lon="8.261528186238001"><ele>603.1999999999999</ele><time>2026-04-04T09:08:13.001Z</time></trkpt><trkpt lat="44.28196134250326" lon="8.261468033821597"><ele>603.0</ele><time>2026-04-04T09:08:14.001Z</time></trkpt><trkpt lat="44.2818730986574" lon="8.26142508756338"><ele>606.1999999999999</ele><time>2026-04-04T09:08:15.001Z</time></trkpt><trkpt lat="44.28177788551971" lon="8.261387257063827"><ele>609.4</ele><time>2026-04-04T09:08:16.001Z</time></trkpt><trkpt lat="44.28168797323673" lon="8.261355478730856"><ele>612.5999999999999</ele><time>2026-04-04T09:08:17.001Z</time></trkpt><trkpt lat="44.28159499092986" lon="8.261348638892672"><ele>615.8</ele><time>2026-04-04T09:08:18.001Z</time></trkpt><trkpt lat="44.28150900568154" lon="8.261311190301292"><ele>619.0</ele><time>2026-04-04T09:08:19.001Z</time></trkpt><trkpt lat="44.28141863809639" lon="8.26135948398267"><ele>620.8333333333334</ele><time>2026-04-04T09:08:20.001Z</time></trkpt><trkpt lat="44.28132887269186" lon="8.261258315612908"><ele>622.6666666666667</ele><time>2026-04-04T09:08:21.001Z</time></trkpt><trkpt lat="44.281259935646126" lon="8.261254381313462"><ele>624.5</ele><time>2026-04-04T09:08:22.001Z</time></trkpt><trkpt lat="44.28118808365226" lon="8.261295210609758"><ele>626.3333333333334</ele><time>2026-04-04T09:08:23.001Z</time></trkpt><trkpt lat="44.28112114167281" lon="8.26131906616527"><ele>628.1666666666666</ele><time>2026-04-04T09:08:24.001Z</time></trkpt><trkpt lat="44.281022182130954" lon="8.261285959752287"><ele>630.0</ele><time>2026-04-04T09:08:26.001Z</time></trkpt><trkpt lat="44.28095829089123" lon="8.261172448680188"><ele>630.0</ele><time>2026-04-04T09:08:28.001Z</time></trkpt><trkpt lat="44.28098906708896" lon="8.26102490323489"><ele>630.0</ele><time>2026-04-04T09:08:30.001Z</time></trkpt><trkpt lat="44.28104290929067" lon="8.26094248354168"><ele>630.0</ele><time>2026-04-04T09:08:31.001Z</time></trkpt><trkpt lat="44.28110212281069" lon="8.260883510591121"><ele>630.0</ele><time>2026-04-04T09:08:32.001Z</time></trkpt><trkpt lat="44.28117943115231" lon="8.2608513124714"><ele>630.0</ele><time>2026-04-04T09:08:33.001Z</time></trkpt><trkpt lat="44.28125705422873" lon="8.260833522217842"><ele>630.0</ele><time>2026-04-04T09:08:34.001Z</time></trkpt><trkpt lat="44.281338459402726" lon="8.260810808125886"><ele>628.75</ele><time>2026-04-04T09:08:35.001Z</time></trkpt><trkpt lat="44.28149526321875" lon="8.260737306797735"><ele>627.5</ele><time>2026-04-04T09:08:37.001Z</time></trkpt><trkpt lat="44.2815654778522" lon="8.260699120389003"><ele>626.25</ele><time>2026-04-04T09:08:38.001Z</time></trkpt><trkpt lat="44.281640562552894" lon="8.260560659341195"><ele>625.0</ele><time>2026-04-04T09:08:40.001Z</time></trkpt><trkpt lat="44.281640789653295" lon="8.260378835853244"><ele>625.0</ele><time>2026-04-04T09:08:42.001Z</time></trkpt><trkpt lat="44.28163817042444" lon="8.260260458786597"><ele>625.0</ele><time>2026-04-04T09:08:43.001Z</time></trkpt><trkpt lat="44.28161124532375" lon="8.260151078498263"><ele>625.0</ele><time>2026-04-04T09:08:44.001Z</time></trkpt><trkpt lat="44.28156382702473" lon="8.260026252562998"><ele>625.0</ele><time>2026-04-04T09:08:45.001Z</time></trkpt><trkpt lat="44.281531888038366" lon="8.259912360903787"><ele>625.0</ele><time>2026-04-04T09:08:46.001Z</time></trkpt><trkpt lat="44.28151492435568" lon="8.259769803314786"><ele>625.4</ele><time>2026-04-04T09:08:47.001Z</time></trkpt><trkpt lat="44.28151004071767" lon="8.259612672047604"><ele>625.8</ele><time>2026-04-04T09:08:48.001Z</time></trkpt><trkpt lat="44.281514370188916" lon="8.259501241599793"><ele>626.2</ele><time>2026-04-04T09:08:49.001Z</time></trkpt><trkpt lat="44.28150894646415" lon="8.259372231617997"><ele>626.6</ele><time>2026-04-04T09:08:50.001Z</time></trkpt><trkpt lat="44.28146574229809" lon="8.259210180657922"><ele>627.0</ele><time>2026-04-04T09:08:52.001Z</time></trkpt><trkpt lat="44.28135792071183" lon="8.259110886201636"><ele>630.3333333333334</ele><time>2026-04-04T09:08:54.001Z</time></trkpt><trkpt lat="44.281275244830496" lon="8.25906854721911"><ele>633.6666666666666</ele><time>2026-04-04T09:08:55.001Z</time></trkpt><trkpt lat="44.28119376938356" lon="8.259011649345144"><ele>637.0</ele><time>2026-04-04T09:08:56.001Z</time></trkpt><trkpt lat="44.28113519707556" lon="8.258933299987023"><ele>640.3333333333333</ele><time>2026-04-04T09:08:57.001Z</time></trkpt><trkpt lat="44.28109642540823" lon="8.258849517029446"><ele>643.6666666666666</ele><time>2026-04-04T09:08:58.001Z</time></trkpt><trkpt lat="44.28107079655557" lon="8.258743095536955"><ele>647.0</ele><time>2026-04-04T09:08:59.001Z</time></trkpt><trkpt lat="44.28105244351636" lon="8.258647720111897"><ele>647.0</ele><time>2026-04-04T09:09:00.001Z</time></trkpt><trkpt lat="44.28098116032225" lon="8.258517826278846"><ele>647.0</ele><time>2026-04-04T09:09:02.001Z</time></trkpt><trkpt lat="44.28092384879149" lon="8.258594451822411"><ele>647.0</ele><time>2026-04-04T09:09:13.001Z</time></trkpt><trkpt lat="44.28092064648187" lon="8.258705812454687"><ele>647.0</ele><time>2026-04-04T09:09:15.001Z</time></trkpt><trkpt lat="44.28090888779789" lon="8.258898707730598"><ele>647.0</ele><time>2026-04-04T09:09:17.001Z</time></trkpt><trkpt lat="44.28090861348254" lon="8.259036066080885"><ele>647.0</ele><time>2026-04-04T09:09:18.001Z</time></trkpt><trkpt lat="44.28088723108255" lon="8.259145175535972"><ele>647.0</ele><time>2026-04-04T09:09:19.001Z</time></trkpt><trkpt lat="44.280866744469954" lon="8.259266068991765"><ele>647.0</ele><time>2026-04-04T09:09:21.001Z</time></trkpt><trkpt lat="44.28079118580316" lon="8.259257619701721"><ele>647.0</ele><time>2026-04-04T09:09:23.001Z</time></trkpt><trkpt lat="44.280727402392586" lon="8.259133409439531"><ele>647.0</ele><time>2026-04-04T09:09:25.002Z</time></trkpt><trkpt lat="44.280718792342704" lon="8.259012927950208"><ele>647.0</ele><time>2026-04-04T09:09:26.002Z</time></trkpt><trkpt lat="44.28070091808094" lon="8.258885445661424"><ele>647.0</ele><time>2026-04-04T09:09:27.002Z</time></trkpt><trkpt lat="44.28066914854605" lon="8.25877707725594"><ele>647.0</ele><time>2026-04-04T09:09:28.002Z</time></trkpt><trkpt lat="44.28063618804521" lon="8.258698230141585"><ele>647.0</ele><time>2026-04-04T09:09:29.002Z</time></trkpt><trkpt lat="44.28057363767222" lon="8.258543910138018"><ele>647.0</ele><time>2026-04-04T09:09:31Z</time></trkpt><trkpt lat="44.28052237898622" lon="8.258490904215408"><ele>647.0</ele><time>2026-04-04T09:09:32Z</time></trkpt><trkpt lat="44.28043509425459" lon="8.258455390174737"><ele>647.0</ele><time>2026-04-04T09:09:34Z</time></trkpt><trkpt lat="44.28039026972838" lon="8.258273913217893"><ele>651.8</ele><time>2026-04-04T09:09:36Z</time></trkpt><trkpt lat="44.28037482072018" lon="8.258140840926648"><ele>656.6</ele><time>2026-04-04T09:09:37Z</time></trkpt><trkpt lat="44.28032871786608" lon="8.258046203313473"><ele>661.4</ele><time>2026-04-04T09:09:38Z</time></trkpt><trkpt lat="44.280272064161906" lon="8.257953259614712"><ele>666.1999999999999</ele><time>2026-04-04T09:09:39Z</time></trkpt><trkpt lat="44.280204402132455" lon="8.257824862305757"><ele>671.0</ele><time>2026-04-04T09:09:40Z</time></trkpt><trkpt lat="44.2801455337632" lon="8.257728001227287"><ele>671.0</ele><time>2026-04-04T09:09:41Z</time></trkpt><trkpt lat="44.28008863679822" lon="8.257624540107097"><ele>671.0</ele><time>2026-04-04T09:09:42Z</time></trkpt><trkpt lat="44.28004532514308" lon="8.257520243045281"><ele>671.0</ele><time>2026-04-04T09:09:43Z</time></trkpt><trkpt lat="44.27999561503319" lon="8.257376817442138"><ele>671.0</ele><time>2026-04-04T09:09:44Z</time></trkpt><trkpt lat="44.2799482004802" lon="8.257227098407775"><ele>671.0</ele><time>2026-04-04T09:09:45Z</time></trkpt><trkpt lat="44.279911052117086" lon="8.257105528645953"><ele>670.0</ele><time>2026-04-04T09:09:47Z</time></trkpt><trkpt lat="44.27980930756352" lon="8.257000683750736"><ele>669.0</ele><time>2026-04-04T09:09:49Z</time></trkpt><trkpt lat="44.279733021787266" lon="8.256924633581065"><ele>668.0</ele><time>2026-04-04T09:09:50Z</time></trkpt><trkpt lat="44.27966822946797" lon="8.25682618033663"><ele>667.0</ele><time>2026-04-04T09:09:51Z</time></trkpt><trkpt lat="44.27958223503308" lon="8.256729172395083"><ele>666.0</ele><time>2026-04-04T09:09:53Z</time></trkpt><trkpt lat="44.27952493276425" lon="8.256644848814462"><ele>669.1666666666666</ele><time>2026-04-04T09:09:54Z</time></trkpt><trkpt lat="44.27945112368776" lon="8.256598785211143"><ele>672.3333333333334</ele><time>2026-04-04T09:09:55Z</time></trkpt><trkpt lat="44.27938110687275" lon="8.256634865620219"><ele>675.5</ele><time>2026-04-04T09:09:56Z</time></trkpt><trkpt lat="44.27930994439856" lon="8.256627698016036"><ele>678.6666666666667</ele><time>2026-04-04T09:09:57Z</time></trkpt><trkpt lat="44.27923568336843" lon="8.25659806349618"><ele>681.8333333333334</ele><time>2026-04-04T09:09:58Z</time></trkpt><trkpt lat="44.27917053056713" lon="8.256548520571961"><ele>685.0</ele><time>2026-04-04T09:09:59Z</time></trkpt><trkpt lat="44.27908643539827" lon="8.256478609979297"><ele>686.2</ele><time>2026-04-04T09:10:00Z</time></trkpt><trkpt lat="44.27900904524463" lon="8.256418231848427"><ele>687.4</ele><time>2026-04-04T09:10:01Z</time></trkpt><trkpt lat="44.27888740354166" lon="8.256334583457077"><ele>688.5999999999999</ele><time>2026-04-04T09:10:03Z</time></trkpt><trkpt lat="44.27882235910035" lon="8.256301256539174"><ele>689.8</ele><time>2026-04-04T09:10:04Z</time></trkpt><trkpt lat="44.27873636498882" lon="8.25629822236578"><ele>691.0</ele><time>2026-04-04T09:10:05Z</time></trkpt><trkpt lat="44.278632072055345" lon="8.256276842273335"><ele>691.0</ele><time>2026-04-04T09:10:06Z</time></trkpt><trkpt lat="44.27854044489139" lon="8.256280962935111"><ele>691.0</ele><time>2026-04-04T09:10:07Z</time></trkpt><trkpt lat="44.278416073222196" lon="8.25630038402933"><ele>691.0</ele><time>2026-04-04T09:10:09Z</time></trkpt><trkpt lat="44.27833280519241" lon="8.256296507765194"><ele>691.0</ele><time>2026-04-04T09:10:10Z</time></trkpt><trkpt lat="44.278262371778105" lon="8.256225094246775"><ele>691.0</ele><time>2026-04-04T09:10:12Z</time></trkpt><trkpt lat="44.278178665638855" lon="8.256121324097165"><ele>691.0</ele><time>2026-04-04T09:10:54.001Z</time></trkpt><trkpt lat="44.278229570364" lon="8.256058761918876"><ele>691.0</ele><time>2026-04-04T09:10:58.001Z</time></trkpt><trkpt lat="44.2781243425497" lon="8.256121662829472"><ele>691.0</ele><time>2026-04-04T09:11:04.001Z</time></trkpt><trkpt lat="44.2780521083282" lon="8.25614931352867"><ele>691.0</ele><time>2026-04-04T09:11:07.001Z</time></trkpt><trkpt lat="44.27798206348142" lon="8.256214052085651"><ele>691.0</ele><time>2026-04-04T09:11:18.001Z</time></trkpt><trkpt lat="44.27793113334013" lon="8.256349790123261"><ele>693.4</ele><time>2026-04-04T09:11:21.001Z</time></trkpt><trkpt lat="44.27782709156123" lon="8.256457781982084"><ele>695.8</ele><time>2026-04-04T09:11:23.001Z</time></trkpt><trkpt lat="44.277738824590365" lon="8.256476696887331"><ele>698.1999999999999</ele><time>2026-04-04T09:11:25.001Z</time></trkpt><trkpt lat="44.27767249041306" lon="8.256404827116919"><ele>700.5999999999999</ele><time>2026-04-04T09:11:28.001Z</time></trkpt><trkpt lat="44.277602271219344" lon="8.256295994619055"><ele>703.0</ele><time>2026-04-04T09:11:30.001Z</time></trkpt><trkpt lat="44.27754494380819" lon="8.256246111028814"><ele>705.8</ele><time>2026-04-04T09:11:32.002Z</time></trkpt><trkpt lat="44.27746086567054" lon="8.256106125969488"><ele>708.5999999999999</ele><time>2026-04-04T09:11:34.002Z</time></trkpt><trkpt lat="44.27738324408713" lon="8.256023375073974"><ele>711.4000000000001</ele><time>2026-04-04T09:11:36.002Z</time></trkpt><trkpt lat="44.27730700827602" lon="8.255953764828439"><ele>714.2</ele><time>2026-04-04T09:11:38Z</time></trkpt><trkpt lat="44.27724527087795" lon="8.255925131248006"><ele>717.0</ele><time>2026-04-04T09:11:40Z</time></trkpt><trkpt lat="44.277155216317325" lon="8.255894972775991"><ele>717.5</ele><time>2026-04-04T09:11:43Z</time></trkpt><trkpt lat="44.277075262687845" lon="8.255897288208708"><ele>718.0</ele><time>2026-04-04T09:11:44Z</time></trkpt><trkpt lat="44.27699529226931" lon="8.25590416976002"><ele>718.5</ele><time>2026-04-04T09:11:45Z</time></trkpt><trkpt lat="44.276887060078955" lon="8.255891927996279"><ele>719.0</ele><time>2026-04-04T09:11:47Z</time></trkpt><trkpt lat="44.276824804364246" lon="8.255867769059476"><ele>719.5</ele><time>2026-04-04T09:11:48Z</time></trkpt><trkpt lat="44.27674987862062" lon="8.255919340946525"><ele>720.0</ele><time>2026-04-04T09:11:49Z</time></trkpt><trkpt lat="44.276693362717516" lon="8.255849861518023"><ele>720.0</ele><time>2026-04-04T09:11:51Z</time></trkpt><trkpt lat="44.276632514275576" lon="8.25580917521382"><ele>720.0</ele><time>2026-04-04T09:11:52Z</time></trkpt><trkpt lat="44.27655348779439" lon="8.255771197445533"><ele>720.0</ele><time>2026-04-04T09:11:53Z</time></trkpt><trkpt lat="44.276439044347015" lon="8.255738679892804"><ele>720.0</ele><time>2026-04-04T09:11:55Z</time></trkpt><trkpt lat="44.276348180467615" lon="8.25572922622848"><ele>720.0</ele><time>2026-04-04T09:11:56Z</time></trkpt><trkpt lat="44.276272978433994" lon="8.255701090490641"><ele>720.0</ele><time>2026-04-04T09:11:57Z</time></trkpt><trkpt lat="44.27621367468878" lon="8.255662531059606"><ele>724.0</ele><time>2026-04-04T09:11:58Z</time></trkpt><trkpt lat="44.276144513410834" lon="8.255604049722905"><ele>728.0</ele><time>2026-04-04T09:11:59Z</time></trkpt><trkpt lat="44.276074562201934" lon="8.255575547888855"><ele>732.0</ele><time>2026-04-04T09:12:00Z</time></trkpt><trkpt lat="44.27600610911558" lon="8.25554217051594"><ele>736.0</ele><time>2026-04-04T09:12:01Z</time></trkpt><trkpt lat="44.27593406528729" lon="8.255530917351834"><ele>740.0</ele><time>2026-04-04T09:12:02Z</time></trkpt><trkpt lat="44.275844509708485" lon="8.25551108206744"><ele>744.0</ele><time>2026-04-04T09:12:03Z</time></trkpt><trkpt lat="44.275763509985524" lon="8.255498514038987"><ele>744.0</ele><time>2026-04-04T09:12:04Z</time></trkpt><trkpt lat="44.275674314367016" lon="8.255492389302697"><ele>744.0</ele><time>2026-04-04T09:12:05Z</time></trkpt><trkpt lat="44.27559642911812" lon="8.255486405951325"><ele>744.0</ele><time>2026-04-04T09:12:06Z</time></trkpt><trkpt lat="44.2754672638356" lon="8.255402529810125"><ele>744.0</ele><time>2026-04-04T09:12:08Z</time></trkpt><trkpt lat="44.2754012990175" lon="8.25529597919037"><ele>744.0</ele><time>2026-04-04T09:12:09Z</time></trkpt><trkpt lat="44.27532328451256" lon="8.255243847752626"><ele>745.1666666666666</ele><time>2026-04-04T09:12:10Z</time></trkpt><trkpt lat="44.275266677681586" lon="8.255171790634723"><ele>746.3333333333334</ele><time>2026-04-04T09:12:11Z</time></trkpt><trkpt lat="44.27520067021631" lon="8.255108656404138"><ele>747.5</ele><time>2026-04-04T09:12:12Z</time></trkpt><trkpt lat="44.27515311334605" lon="8.255044926419187"><ele>748.6666666666667</ele><time>2026-04-04T09:12:13Z</time></trkpt><trkpt lat="44.27513115349011" lon="8.254953253229868"><ele>749.8333333333334</ele><time>2026-04-04T09:12:14Z</time></trkpt><trkpt lat="44.27508007353984" lon="8.254763079621362"><ele>751.0</ele><time>2026-04-04T09:12:16Z</time></trkpt><trkpt lat="44.275050570559905" lon="8.254665108233484"><ele>751.0</ele><time>2026-04-04T09:12:17.001Z</time></trkpt><trkpt lat="44.27499646038195" lon="8.254500086886178"><ele>751.0</ele><time>2026-04-04T09:12:19.001Z</time></trkpt><trkpt lat="44.27492506883925" lon="8.254358835061057"><ele>751.0</ele><time>2026-04-04T09:12:21.001Z</time></trkpt><trkpt lat="44.27485900709256" lon="8.254338726676233"><ele>751.0</ele><time>2026-04-04T09:12:22.001Z</time></trkpt><trkpt lat="44.27479965685292" lon="8.254300429875258"><ele>751.0</ele><time>2026-04-04T09:12:23.001Z</time></trkpt><trkpt lat="44.27469553283218" lon="8.254241625252902"><ele>753.25</ele><time>2026-04-04T09:12:25.001Z</time></trkpt><trkpt lat="44.27456573562828" lon="8.25413841497688"><ele>755.5</ele><time>2026-04-04T09:12:26.001Z</time></trkpt><trkpt lat="44.27448571525849" lon="8.254081528724754"><ele>757.75</ele><time>2026-04-04T09:12:27.001Z</time></trkpt><trkpt lat="44.27439932480557" lon="8.25402492406946"><ele>760.0</ele><time>2026-04-04T09:12:28.001Z</time></trkpt><trkpt lat="44.27428248986165" lon="8.253894503009526"><ele>760.0</ele><time>2026-04-04T09:12:30.001Z</time></trkpt><trkpt lat="44.2742265060377" lon="8.253805617635683"><ele>760.0</ele><time>2026-04-04T09:12:31.001Z</time></trkpt><trkpt lat="44.274171875795" lon="8.253707078774783"><ele>760.0</ele><time>2026-04-04T09:12:32.001Z</time></trkpt><trkpt lat="44.274114596991225" lon="8.253611100992616"><ele>760.0</ele><time>2026-04-04T09:12:33.001Z</time></trkpt><trkpt lat="44.274054753541414" lon="8.253504257474999"><ele>760.0</ele><time>2026-04-04T09:12:34.001Z</time></trkpt><trkpt lat="44.27399232201877" lon="8.253394982838307"><ele>760.3333333333334</ele><time>2026-04-04T09:12:35.001Z</time></trkpt><trkpt lat="44.27393040745185" lon="8.253313770295383"><ele>760.6666666666667</ele><time>2026-04-04T09:12:36.001Z</time></trkpt><trkpt lat="44.27385175866783" lon="8.253268029287709"><ele>761.0</ele><time>2026-04-04T09:12:37.001Z</time></trkpt><trkpt lat="44.27378905397096" lon="8.253210989851382"><ele>761.3333333333334</ele><time>2026-04-04T09:12:38.001Z</time></trkpt><trkpt lat="44.27372507273169" lon="8.253155331188522"><ele>761.6666666666666</ele><time>2026-04-04T09:12:39.001Z</time></trkpt><trkpt lat="44.27366022091363" lon="8.253100965973124"><ele>762.0</ele><time>2026-04-04T09:12:40.001Z</time></trkpt><trkpt lat="44.27356640078817" lon="8.252998756795764"><ele>762.0</ele><time>2026-04-04T09:12:42.001Z</time></trkpt><trkpt lat="44.27349697161068" lon="8.252841213350468"><ele>762.0</ele><time>2026-04-04T09:12:43.001Z</time></trkpt><trkpt lat="44.2734339810225" lon="8.252740566241751"><ele>762.0</ele><time>2026-04-04T09:12:44.001Z</time></trkpt><trkpt lat="44.27337360399369" lon="8.252642596471834"><ele>762.0</ele><time>2026-04-04T09:12:45.001Z</time></trkpt><trkpt lat="44.273316935156835" lon="8.252540381539857"><ele>762.0</ele><time>2026-04-04T09:12:46.001Z</time></trkpt><trkpt lat="44.27326146106787" lon="8.25246759931558"><ele>762.0</ele><time>2026-04-04T09:12:47.001Z</time></trkpt><trkpt lat="44.27326063038907" lon="8.252329716014367"><ele>762.0</ele><time>2026-04-04T09:12:49.001Z</time></trkpt><trkpt lat="44.273174206265665" lon="8.252276666793328"><ele>762.0</ele><time>2026-04-04T09:12:51.001Z</time></trkpt><trkpt lat="44.27309283985693" lon="8.252309267207696"><ele>762.0</ele><time>2026-04-04T09:12:52.001Z</time></trkpt><trkpt lat="44.27302502600174" lon="8.252310742406198"><ele>762.0</ele><time>2026-04-04T09:12:53.001Z</time></trkpt><trkpt lat="44.27294992662553" lon="8.252326617601245"><ele>762.0</ele><time>2026-04-04T09:12:54.001Z</time></trkpt><trkpt lat="44.27287457533721" lon="8.252360924593487"><ele>760.5</ele><time>2026-04-04T09:12:55.001Z</time></trkpt><trkpt lat="44.272802585007284" lon="8.252408203466587"><ele>759.0</ele><time>2026-04-04T09:12:56.001Z</time></trkpt><trkpt lat="44.27273213628901" lon="8.252427023252517"><ele>757.5</ele><time>2026-04-04T09:12:57.001Z</time></trkpt><trkpt lat="44.272654353414524" lon="8.252426011750252"><ele>756.0</ele><time>2026-04-04T09:12:58.001Z</time></trkpt><trkpt lat="44.27258013360063" lon="8.25242237231526"><ele>754.5</ele><time>2026-04-04T09:12:59.001Z</time></trkpt><trkpt lat="44.272486296343125" lon="8.252430416490874"><ele>753.0</ele><time>2026-04-04T09:13:01.001Z</time></trkpt><trkpt lat="44.27239254016781" lon="8.252474751004556"><ele>753.0</ele><time>2026-04-04T09:13:03.001Z</time></trkpt><trkpt lat="44.272321084925984" lon="8.252482992296802"><ele>753.0</ele><time>2026-04-04T09:13:04.001Z</time></trkpt><trkpt lat="44.27225451023711" lon="8.252499808479778"><ele>753.0</ele><time>2026-04-04T09:13:05.001Z</time></trkpt><trkpt lat="44.27217368315885" lon="8.252495029870621"><ele>753.0</ele><time>2026-04-04T09:13:07.001Z</time></trkpt><trkpt lat="44.27211346854454" lon="8.252468134141964"><ele>753.0</ele><time>2026-04-04T09:13:08.001Z</time></trkpt><trkpt lat="44.272027869579176" lon="8.252443412105603"><ele>753.0</ele><time>2026-04-04T09:13:09.001Z</time></trkpt><trkpt lat="44.27194261157362" lon="8.252424225762633"><ele>754.4</ele><time>2026-04-04T09:13:10.001Z</time></trkpt><trkpt lat="44.27181661026914" lon="8.252441518508366"><ele>755.8</ele><time>2026-04-04T09:13:12.001Z</time></trkpt><trkpt lat="44.2717534415695" lon="8.252459147772464"><ele>757.2</ele><time>2026-04-04T09:13:13.001Z</time></trkpt><trkpt lat="44.271627361874245" lon="8.25253217101499"><ele>758.6</ele><time>2026-04-04T09:13:15.001Z</time></trkpt><trkpt lat="44.271507469849716" lon="8.252555087840737"><ele>760.0</ele><time>2026-04-04T09:13:16.001Z</time></trkpt><trkpt lat="44.27144533458499" lon="8.252579925347721"><ele>760.4</ele><time>2026-04-04T09:13:17.001Z</time></trkpt><trkpt lat="44.27136789493784" lon="8.25247362067711"><ele>760.8</ele><time>2026-04-04T09:13:19.001Z</time></trkpt><trkpt lat="44.27128839729959" lon="8.252422913262468"><ele>761.2</ele><time>2026-04-04T09:13:20.001Z</time></trkpt><trkpt lat="44.27120067054753" lon="8.25238438560912"><ele>761.6</ele><time>2026-04-04T09:13:21.001Z</time></trkpt><trkpt lat="44.27110919540459" lon="8.252384801475857"><ele>762.0</ele><time>2026-04-04T09:13:22.001Z</time></trkpt><trkpt lat="44.271046157606655" lon="8.252453411714777"><ele>762.0</ele><time>2026-04-04T09:13:24.001Z</time></trkpt><trkpt lat="44.27099980468425" lon="8.25254807730998"><ele>762.0</ele><time>2026-04-04T09:13:25.001Z</time></trkpt><trkpt lat="44.270950766997245" lon="8.252644850276093"><ele>762.0</ele><time>2026-04-04T09:13:26.001Z</time></trkpt><trkpt lat="44.27084580657654" lon="8.252690774514155"><ele>762.0</ele><time>2026-04-04T09:13:28.001Z</time></trkpt><trkpt lat="44.27071831908248" lon="8.252668821651557"><ele>762.0</ele><time>2026-04-04T09:13:30.001Z</time></trkpt><trkpt lat="44.27062627769674" lon="8.252657156410294"><ele>763.4000000000001</ele><time>2026-04-04T09:13:31.001Z</time></trkpt><trkpt lat="44.27055010888558" lon="8.252616718000413"><ele>764.8000000000001</ele><time>2026-04-04T09:13:32.001Z</time></trkpt><trkpt lat="44.27045476623154" lon="8.252494398353264"><ele>766.2</ele><time>2026-04-04T09:13:35.001Z</time></trkpt><trkpt lat="44.27036116522135" lon="8.252404416335471"><ele>767.6</ele><time>2026-04-04T09:13:36.002Z</time></trkpt><trkpt lat="44.27027485873335" lon="8.25235499932974"><ele>769.0</ele><time>2026-04-04T09:13:37.002Z</time></trkpt><trkpt lat="44.27020018713547" lon="8.252289330791502"><ele>769.0</ele><time>2026-04-04T09:13:38.002Z</time></trkpt><trkpt lat="44.27012731386079" lon="8.2522222678999"><ele>769.0</ele><time>2026-04-04T09:13:39.002Z</time></trkpt><trkpt lat="44.27006144268585" lon="8.252145247182515"><ele>769.0</ele><time>2026-04-04T09:13:40.002Z</time></trkpt><trkpt lat="44.27000273687998" lon="8.252096421308613"><ele>769.0</ele><time>2026-04-04T09:13:41.002Z</time></trkpt><trkpt lat="44.26989124824208" lon="8.252006647326825"><ele>769.0</ele><time>2026-04-04T09:13:43Z</time></trkpt><trkpt lat="44.2698916622543" lon="8.251866273599134"><ele>768.9999999999999</ele><time>2026-04-04T09:13:46Z</time></trkpt><trkpt lat="44.26997315013631" lon="8.251793130111063"><ele>769.0</ele><time>2026-04-04T09:13:48Z</time></trkpt><trkpt lat="44.26997058852591" lon="8.251684118715723"><ele>769.0</ele><time>2026-04-04T09:13:49Z</time></trkpt><trkpt lat="44.269927555496785" lon="8.251596227276243"><ele>769.0</ele><time>2026-04-04T09:13:50Z</time></trkpt><trkpt lat="44.26990539807268" lon="8.25150478394393"><ele>768.9999999999999</ele><time>2026-04-04T09:13:51Z</time></trkpt><trkpt lat="44.26989532891493" lon="8.251399838616138"><ele>769.0</ele><time>2026-04-04T09:13:52Z</time></trkpt><trkpt lat="44.269854029028465" lon="8.251222889161305"><ele>766.3333333333333</ele><time>2026-04-04T09:13:55Z</time></trkpt><trkpt lat="44.26981214091125" lon="8.25114554611947"><ele>763.6666666666666</ele><time>2026-04-04T09:13:57Z</time></trkpt><trkpt lat="44.26974993093583" lon="8.251179280058127"><ele>761.0</ele><time>2026-04-04T09:14:00Z</time></trkpt><trkpt lat="44.26968018772596" lon="8.251124154370425"><ele>758.3333333333333</ele><time>2026-04-04T09:14:02Z</time></trkpt><trkpt lat="44.26957848490327" lon="8.25106353710647"><ele>755.6666666666666</ele><time>2026-04-04T09:14:04Z</time></trkpt><trkpt lat="44.26952021621484" lon="8.251028110612152"><ele>753.0</ele><time>2026-04-04T09:14:05Z</time></trkpt><trkpt lat="44.269448492090575" lon="8.250991880925378"><ele>753.0</ele><time>2026-04-04T09:14:06Z</time></trkpt><trkpt lat="44.269387664778804" lon="8.251016890295569"><ele>753.0</ele><time>2026-04-04T09:14:07Z</time></trkpt><trkpt lat="44.26932215926131" lon="8.25102684593233"><ele>753.0</ele><time>2026-04-04T09:14:08Z</time></trkpt><trkpt lat="44.26921844023611" lon="8.250997736691879"><ele>753.0</ele><time>2026-04-04T09:14:10Z</time></trkpt><trkpt lat="44.26913693184776" lon="8.250965608690136"><ele>753.0</ele><time>2026-04-04T09:14:11Z</time></trkpt><trkpt lat="44.269051937995556" lon="8.250959864217519"><ele>753.0</ele><time>2026-04-04T09:14:12Z</time></trkpt><trkpt lat="44.269037466030355" lon="8.250860071749024"><ele>753.0</ele><time>2026-04-04T09:14:13Z</time></trkpt><trkpt lat="44.268975573408945" lon="8.250761919996473"><ele>753.0</ele><time>2026-04-04T09:14:15Z</time></trkpt><trkpt lat="44.26894458644333" lon="8.25066654255685"><ele>753.0</ele><time>2026-04-04T09:14:17Z</time></trkpt><trkpt lat="44.26894015825863" lon="8.250532730395724"><ele>753.0</ele><time>2026-04-04T09:14:19Z</time></trkpt><trkpt lat="44.268894469554006" lon="8.250413557394"><ele>753.0</ele><time>2026-04-04T09:14:21Z</time></trkpt><trkpt lat="44.268759496141556" lon="8.250382361557072"><ele>754.2</ele><time>2026-04-04T09:14:23Z</time></trkpt><trkpt lat="44.268655273061015" lon="8.250372647473368"><ele>755.4</ele><time>2026-04-04T09:14:25Z</time></trkpt><trkpt lat="44.26859979274486" lon="8.250275285523541"><ele>756.6</ele><time>2026-04-04T09:14:27.001Z</time></trkpt><trkpt lat="44.268532750461006" lon="8.250203593202212"><ele>757.8000000000001</ele><time>2026-04-04T09:14:28.001Z</time></trkpt><trkpt lat="44.26847194215443" lon="8.250070224418469"><ele>759.0</ele><time>2026-04-04T09:14:30.001Z</time></trkpt><trkpt lat="44.268433280721936" lon="8.249942182633093"><ele>759.0</ele><time>2026-04-04T09:14:32.001Z</time></trkpt><trkpt lat="44.2684145477429" lon="8.249830566496286"><ele>759.0</ele><time>2026-04-04T09:14:33.001Z</time></trkpt><trkpt lat="44.26837801341284" lon="8.249674034144139"><ele>759.0</ele><time>2026-04-04T09:14:35.001Z</time></trkpt><trkpt lat="44.26827258765229" lon="8.249521504904383"><ele>759.0</ele><time>2026-04-04T09:14:37.001Z</time></trkpt><trkpt lat="44.268286943295124" lon="8.249387842134057"><ele>759.0</ele><time>2026-04-04T09:14:38.001Z</time></trkpt><trkpt lat="44.268265116533115" lon="8.249289548847095"><ele>761.4000000000001</ele><time>2026-04-04T09:14:39.001Z</time></trkpt><trkpt lat="44.26824367764077" lon="8.249176966324548"><ele>763.8</ele><time>2026-04-04T09:14:40.001Z</time></trkpt><trkpt lat="44.26822620653433" lon="8.249084591229373"><ele>766.2</ele><time>2026-04-04T09:14:41.001Z</time></trkpt><trkpt lat="44.26810690968185" lon="8.249032228197963"><ele>768.5999999999999</ele><time>2026-04-04T09:14:43.001Z</time></trkpt><trkpt lat="44.26803197097638" lon="8.249032192398763"><ele>771.0</ele><time>2026-04-04T09:14:44.001Z</time></trkpt><trkpt lat="44.26792415954118" lon="8.249099374919501"><ele>771.0</ele><time>2026-04-04T09:14:46.001Z</time></trkpt><trkpt lat="44.26782127993536" lon="8.249057179978516"><ele>771.0</ele><time>2026-04-04T09:14:47.001Z</time></trkpt><trkpt lat="44.2677231270075" lon="8.249035618603793"><ele>771.0</ele><time>2026-04-04T09:14:48.001Z</time></trkpt><trkpt lat="44.26764800636353" lon="8.24905415173257"><ele>771.0</ele><time>2026-04-04T09:14:49.001Z</time></trkpt><trkpt lat="44.26758275638684" lon="8.249076957669338"><ele>771.0</ele><time>2026-04-04T09:14:50.001Z</time></trkpt><trkpt lat="44.2674572153346" lon="8.249092641952036"><ele>771.0</ele><time>2026-04-04T09:14:52.001Z</time></trkpt><trkpt lat="44.26736340621733" lon="8.249095598973385"><ele>771.0</ele><time>2026-04-04T09:14:54.001Z</time></trkpt><trkpt lat="44.26724548011762" lon="8.249067175044472"><ele>771.0</ele><time>2026-04-04T09:14:56.001Z</time></trkpt><trkpt lat="44.26718543441742" lon="8.249020795595381"><ele>771.0</ele><time>2026-04-04T09:14:57.001Z</time></trkpt><trkpt lat="44.267132005118086" lon="8.248960968545248"><ele>771.0</ele><time>2026-04-04T09:14:58.001Z</time></trkpt><trkpt lat="44.26706350425961" lon="8.248858945227093"><ele>773.0</ele><time>2026-04-04T09:15:00.001Z</time></trkpt><trkpt lat="44.26698503147491" lon="8.248776887387516"><ele>775.0</ele><time>2026-04-04T09:15:02.001Z</time></trkpt><trkpt lat="44.266904498336885" lon="8.248683224488415"><ele>777.0</ele><time>2026-04-04T09:15:04.001Z</time></trkpt><trkpt lat="44.266870737606965" lon="8.248603523170804"><ele>779.0</ele><time>2026-04-04T09:15:05.001Z</time></trkpt><trkpt lat="44.26684314172272" lon="8.24852342525067"><ele>781.0</ele><time>2026-04-04T09:15:06.001Z</time></trkpt><trkpt lat="44.26684336063545" lon="8.248433401451802"><ele>783.0</ele><time>2026-04-04T09:15:07.001Z</time></trkpt><trkpt lat="44.26675791140632" lon="8.248310314445003"><ele>783.0</ele><time>2026-04-04T09:15:09.001Z</time></trkpt><trkpt lat="44.26665819789756" lon="8.24823249876789"><ele>783.0</ele><time>2026-04-04T09:15:11.001Z</time></trkpt><trkpt lat="44.26653440297628" lon="8.248253332900259"><ele>783.0</ele><time>2026-04-04T09:15:13.001Z</time></trkpt><trkpt lat="44.26646405357167" lon="8.248269966173181"><ele>783.0</ele><time>2026-04-04T09:15:14.001Z</time></trkpt><trkpt lat="44.26639779367032" lon="8.248274788449608"><ele>783.0</ele><time>2026-04-04T09:15:15.001Z</time></trkpt><trkpt lat="44.26632537746815" lon="8.24828724018463"><ele>782.4</ele><time>2026-04-04T09:15:17.001Z</time></trkpt><trkpt lat="44.26623969479052" lon="8.248207849627384"><ele>781.8</ele><time>2026-04-04T09:15:19.001Z</time></trkpt><trkpt lat="44.2661540007097" lon="8.24822537453089"><ele>781.2</ele><time>2026-04-04T09:15:20.001Z</time></trkpt><trkpt lat="44.26610084834431" lon="8.24814530961955"><ele>780.6</ele><time>2026-04-04T09:15:21.001Z</time></trkpt><trkpt lat="44.26606184834222" lon="8.24804016904601"><ele>780.0</ele><time>2026-04-04T09:15:23.001Z</time></trkpt><trkpt lat="44.26602124067265" lon="8.24790808493502"><ele>780.0</ele><time>2026-04-04T09:15:25.001Z</time></trkpt><trkpt lat="44.26598861812731" lon="8.247823815361274"><ele>780.0</ele><time>2026-04-04T09:15:27.001Z</time></trkpt><trkpt lat="44.26594229488452" lon="8.247748902656406"><ele>780.0</ele><time>2026-04-04T09:15:28.001Z</time></trkpt><trkpt lat="44.265873185313815" lon="8.247707175945534"><ele>780.0</ele><time>2026-04-04T09:15:30.001Z</time></trkpt><trkpt lat="44.26580382314221" lon="8.247646053333025"><ele>780.0</ele><time>2026-04-04T09:15:31.001Z</time></trkpt><trkpt lat="44.26572397021405" lon="8.247559453153745"><ele>780.0</ele><time>2026-04-04T09:15:33.001Z</time></trkpt><trkpt lat="44.26565910731379" lon="8.247512964249985"><ele>777.4</ele><time>2026-04-04T09:15:35.001Z</time></trkpt><trkpt lat="44.26557725748963" lon="8.247497847510674"><ele>774.8</ele><time>2026-04-04T09:15:37.001Z</time></trkpt><trkpt lat="44.26548689674231" lon="8.247501928919865"><ele>772.2</ele><time>2026-04-04T09:15:39.001Z</time></trkpt><trkpt lat="44.265423398690125" lon="8.247551539886835"><ele>769.6</ele><time>2026-04-04T09:15:41.001Z</time></trkpt><trkpt lat="44.265315600091164" lon="8.247553712033664"><ele>767.0</ele><time>2026-04-04T09:15:43.001Z</time></trkpt><trkpt lat="44.265192852765" lon="8.247469547589514"><ele>767.0</ele><time>2026-04-04T09:15:45.001Z</time></trkpt><trkpt lat="44.2651251860294" lon="8.2474185639243"><ele>767.0</ele><time>2026-04-04T09:15:46.002Z</time></trkpt><trkpt lat="44.26501744681767" lon="8.247332211872797"><ele>767.0</ele><time>2026-04-04T09:15:48.002Z</time></trkpt><trkpt lat="44.264936995809485" lon="8.24715493893391"><ele>767.0</ele><time>2026-04-04T09:15:50Z</time></trkpt><trkpt lat="44.264881551032296" lon="8.247034261883098"><ele>770.8</ele><time>2026-04-04T09:15:51Z</time></trkpt><trkpt lat="44.264811069426116" lon="8.246969303498608"><ele>774.6</ele><time>2026-04-04T09:15:52Z</time></trkpt><trkpt lat="44.26469868263513" lon="8.246845886240434"><ele>778.4</ele><time>2026-04-04T09:15:54Z</time></trkpt><trkpt lat="44.264612810220534" lon="8.246815077767321"><ele>782.1999999999999</ele><time>2026-04-04T09:15:55Z</time></trkpt><trkpt lat="44.26451555569032" lon="8.246760314302245"><ele>786.0</ele><time>2026-04-04T09:15:56Z</time></trkpt><trkpt lat="44.26440381961885" lon="8.24669373433288"><ele>786.0</ele><time>2026-04-04T09:15:57Z</time></trkpt><trkpt lat="44.26429300144488" lon="8.246610050067616"><ele>786.0</ele><time>2026-04-04T09:15:58Z</time></trkpt><trkpt lat="44.26422222273255" lon="8.246558288787735"><ele>786.0</ele><time>2026-04-04T09:15:59Z</time></trkpt><trkpt lat="44.264169547888606" lon="8.246502551946294"><ele>786.0</ele><time>2026-04-04T09:16:00Z</time></trkpt><trkpt lat="44.26409508137925" lon="8.246469353409948"><ele>786.0</ele><time>2026-04-04T09:16:02Z</time></trkpt><trkpt lat="44.264007080239935" lon="8.246500370631443"><ele>786.0</ele><time>2026-04-04T09:16:04Z</time></trkpt><trkpt lat="44.26394676030578" lon="8.246597178026462"><ele>788.5</ele><time>2026-04-04T09:16:13Z</time></trkpt><trkpt lat="44.263887351124986" lon="8.246695144738844"><ele>791.0</ele><time>2026-04-04T09:16:15Z</time></trkpt><trkpt lat="44.263814678439125" lon="8.246780641083514"><ele>793.5</ele><time>2026-04-04T09:16:17Z</time></trkpt><trkpt lat="44.2637406322545" lon="8.246853964003378"><ele>796.0</ele><time>2026-04-04T09:16:18Z</time></trkpt><trkpt lat="44.263681913988506" lon="8.246921829027896"><ele>798.5</ele><time>2026-04-04T09:16:19Z</time></trkpt><trkpt lat="44.26362288448886" lon="8.24699589744574"><ele>801.0</ele><time>2026-04-04T09:16:20Z</time></trkpt><trkpt lat="44.263571295457474" lon="8.247064742960905"><ele>801.0</ele><time>2026-04-04T09:16:21Z</time></trkpt><trkpt lat="44.26353239455227" lon="8.247160618150883"><ele>801.0</ele><time>2026-04-04T09:16:22Z</time></trkpt><trkpt lat="44.263436774687" lon="8.247277668416174"><ele>801.0</ele><time>2026-04-04T09:16:24Z</time></trkpt><trkpt lat="44.26332777842953" lon="8.24730101705924"><ele>801.0</ele><time>2026-04-04T09:16:25Z</time></trkpt><trkpt lat="44.263247817417934" lon="8.247361099890096"><ele>801.0</ele><time>2026-04-04T09:16:26Z</time></trkpt><trkpt lat="44.26316922490111" lon="8.247425251680154"><ele>797.0</ele><time>2026-04-04T09:16:27Z</time></trkpt><trkpt lat="44.26311260197801" lon="8.247509591486802"><ele>793.0</ele><time>2026-04-04T09:16:28Z</time></trkpt><trkpt lat="44.2630014282306" lon="8.247648883940453"><ele>789.0</ele><time>2026-04-04T09:16:30Z</time></trkpt><trkpt lat="44.26288592347543" lon="8.247742403317446"><ele>785.0</ele><time>2026-04-04T09:16:32Z</time></trkpt><trkpt lat="44.26277039529747" lon="8.247754279819288"><ele>785.0</ele><time>2026-04-04T09:16:34Z</time></trkpt><trkpt lat="44.26267438995471" lon="8.247743440536073"><ele>785.0</ele><time>2026-04-04T09:16:36Z</time></trkpt><trkpt lat="44.26259482643076" lon="8.247711549254166"><ele>785.0</ele><time>2026-04-04T09:16:37.001Z</time></trkpt><trkpt lat="44.26245021635083" lon="8.247542005052845"><ele>785.0</ele><time>2026-04-04T09:16:38.001Z</time></trkpt><trkpt lat="44.262356103413374" lon="8.247511506745386"><ele>784.2</ele><time>2026-04-04T09:16:39.001Z</time></trkpt><trkpt lat="44.262241182799734" lon="8.247453160262916"><ele>783.4</ele><time>2026-04-04T09:16:40.001Z</time></trkpt><trkpt lat="44.26210162410473" lon="8.247420163324232"><ele>782.5999999999999</ele><time>2026-04-04T09:16:42.001Z</time></trkpt><trkpt lat="44.26204341663441" lon="8.24734065853893"><ele>781.8</ele><time>2026-04-04T09:16:43.001Z</time></trkpt><trkpt lat="44.2619636449085" lon="8.247306530572528"><ele>781.0</ele><time>2026-04-04T09:16:44.001Z</time></trkpt><trkpt lat="44.26186115664872" lon="8.247303050796612"><ele>784.5999999999999</ele><time>2026-04-04T09:16:45.001Z</time></trkpt><trkpt lat="44.261761183002086" lon="8.247264550516164"><ele>788.2</ele><time>2026-04-04T09:16:46.001Z</time></trkpt><trkpt lat="44.26167320682686" lon="8.247210306217182"><ele>791.8</ele><time>2026-04-04T09:16:47.001Z</time></trkpt><trkpt lat="44.26159886254421" lon="8.24714617133821"><ele>795.4000000000001</ele><time>2026-04-04T09:16:48.001Z</time></trkpt><trkpt lat="44.2615231481862" lon="8.247090722722994"><ele>799.0</ele><time>2026-04-04T09:16:49.001Z</time></trkpt><trkpt lat="44.2614423261334" lon="8.247051483730205"><ele>798.9999999999999</ele><time>2026-04-04T09:16:50.001Z</time></trkpt><trkpt lat="44.261381417558084" lon="8.246988721419623"><ele>799.0</ele><time>2026-04-04T09:16:51.001Z</time></trkpt><trkpt lat="44.261302765459746" lon="8.246981169606524"><ele>799.0</ele><time>2026-04-04T09:16:52.001Z</time></trkpt><trkpt lat="44.26122642768424" lon="8.246983993923287"><ele>799.0</ele><time>2026-04-04T09:16:53.001Z</time></trkpt><trkpt lat="44.26115834663968" lon="8.247005685114557"><ele>798.9999999999999</ele><time>2026-04-04T09:16:54.001Z</time></trkpt><trkpt lat="44.26104916256113" lon="8.247017142845293"><ele>799.0</ele><time>2026-04-04T09:16:56.001Z</time></trkpt><trkpt lat="44.2609661160664" lon="8.247007843160098"><ele>799.0</ele><time>2026-04-04T09:16:57.001Z</time></trkpt><trkpt lat="44.260882458382994" lon="8.246971130488445"><ele>799.0</ele><time>2026-04-04T09:16:58.001Z</time></trkpt><trkpt lat="44.260805533991764" lon="8.246968892164245"><ele>799.0</ele><time>2026-04-04T09:16:59.001Z</time></trkpt><trkpt lat="44.2607057299584" lon="8.246984309861542"><ele>799.0</ele><time>2026-04-04T09:17:00.001Z</time></trkpt><trkpt lat="44.26060383108861" lon="8.24699396340869"><ele>799.0</ele><time>2026-04-04T09:17:01.001Z</time></trkpt><trkpt lat="44.260509032028054" lon="8.247010508789883"><ele>797.4999999999999</ele><time>2026-04-04T09:17:02.001Z</time></trkpt><trkpt lat="44.26041314269202" lon="8.247040601939872"><ele>796.0</ele><time>2026-04-04T09:17:03.001Z</time></trkpt><trkpt lat="44.260345306265464" lon="8.247041284656088"><ele>794.5</ele><time>2026-04-04T09:17:04.001Z</time></trkpt><trkpt lat="44.26027146110732" lon="8.247044760508148"><ele>793.0</ele><time>2026-04-04T09:17:05.001Z</time></trkpt><trkpt lat="44.26016575385221" lon="8.2470333528939"><ele>791.4999999999999</ele><time>2026-04-04T09:17:07.001Z</time></trkpt><trkpt lat="44.2600859338489" lon="8.247016038697993"><ele>790.0</ele><time>2026-04-04T09:17:09.001Z</time></trkpt><trkpt lat="44.260009727904354" lon="8.247020514526312"><ele>790.0</ele><time>2026-04-04T09:17:10.001Z</time></trkpt><trkpt lat="44.25990574996102" lon="8.24696235034993"><ele>790.0</ele><time>2026-04-04T09:17:11.001Z</time></trkpt><trkpt lat="44.259841555878275" lon="8.246928555500725"><ele>790.0</ele><time>2026-04-04T09:17:12.001Z</time></trkpt><trkpt lat="44.25977249205174" lon="8.246872021786084"><ele>790.0</ele><time>2026-04-04T09:17:13.001Z</time></trkpt><trkpt lat="44.25970188095374" lon="8.246834828707641"><ele>790.0</ele><time>2026-04-04T09:17:14.001Z</time></trkpt><trkpt lat="44.25958521711661" lon="8.246729998815233"><ele>792.6</ele><time>2026-04-04T09:17:15.001Z</time></trkpt><trkpt lat="44.25948866537844" lon="8.246647749130242"><ele>795.2</ele><time>2026-04-04T09:17:16.001Z</time></trkpt><trkpt lat="44.25939140600148" lon="8.246585821904693"><ele>797.8</ele><time>2026-04-04T09:17:17.001Z</time></trkpt><trkpt lat="44.259332989944525" lon="8.246487094782196"><ele>800.4</ele><time>2026-04-04T09:17:18.001Z</time></trkpt><trkpt lat="44.25926556066744" lon="8.24638670639485"><ele>803.0</ele><time>2026-04-04T09:17:19.001Z</time></trkpt><trkpt lat="44.25920675762751" lon="8.246313522999774"><ele>803.0000000000001</ele><time>2026-04-04T09:17:20.001Z</time></trkpt><trkpt lat="44.2591393055151" lon="8.246244359674439"><ele>803.0</ele><time>2026-04-04T09:17:21.001Z</time></trkpt><trkpt lat="44.259047365328136" lon="8.246210849628655"><ele>803.0</ele><time>2026-04-04T09:17:22.001Z</time></trkpt><trkpt lat="44.25898457338148" lon="8.246151690935248"><ele>803.0</ele><time>2026-04-04T09:17:23.001Z</time></trkpt><trkpt lat="44.25895873250148" lon="8.24605015753134"><ele>803.0000000000001</ele><time>2026-04-04T09:17:24.001Z</time></trkpt><trkpt lat="44.258907238503554" lon="8.24598761561202"><ele>803.0</ele><time>2026-04-04T09:17:25.001Z</time></trkpt><trkpt lat="44.258844163022474" lon="8.24593454433647"><ele>803.3333333333334</ele><time>2026-04-04T09:17:26.001Z</time></trkpt><trkpt lat="44.258792605552586" lon="8.245863775627209"><ele>803.6666666666667</ele><time>2026-04-04T09:17:27.001Z</time></trkpt><trkpt lat="44.25873742195617" lon="8.245762342660393"><ele>804.0</ele><time>2026-04-04T09:17:29.001Z</time></trkpt><trkpt lat="44.25868701969891" lon="8.245689209677337"><ele>804.3333333333333</ele><time>2026-04-04T09:17:30.001Z</time></trkpt><trkpt lat="44.2586626896379" lon="8.245581480168894"><ele>804.6666666666666</ele><time>2026-04-04T09:17:31.001Z</time></trkpt><trkpt lat="44.25862957189795" lon="8.245484523162489"><ele>805.0</ele><time>2026-04-04T09:17:32.001Z</time></trkpt><trkpt lat="44.25855674335594" lon="8.245370167072588"><ele>805.0</ele><time>2026-04-04T09:17:33.001Z</time></trkpt><trkpt lat="44.25846222908259" lon="8.245284011621607"><ele>805.0</ele><time>2026-04-04T09:17:34.001Z</time></trkpt><trkpt lat="44.25839369930218" lon="8.245174995195173"><ele>805.0</ele><time>2026-04-04T09:17:35.001Z</time></trkpt><trkpt lat="44.25835397320728" lon="8.2450693716475"><ele>805.0</ele><time>2026-04-04T09:17:36.001Z</time></trkpt><trkpt lat="44.25828354514859" lon="8.244982549314479"><ele>805.0</ele><time>2026-04-04T09:17:37.001Z</time></trkpt><trkpt lat="44.2582293366167" lon="8.244909356206831"><ele>803.2</ele><time>2026-04-04T09:17:38.001Z</time></trkpt><trkpt lat="44.2581255737339" lon="8.244782680621347"><ele>801.4</ele><time>2026-04-04T09:17:40.001Z</time></trkpt><trkpt lat="44.258020184053265" lon="8.244702021364667"><ele>799.5999999999999</ele><time>2026-04-04T09:17:42.001Z</time></trkpt><trkpt lat="44.25795502316274" lon="8.244660802915902"><ele>797.8</ele><time>2026-04-04T09:17:43.001Z</time></trkpt><trkpt lat="44.257878209277976" lon="8.244571290411578"><ele>796.0</ele><time>2026-04-04T09:17:44.001Z</time></trkpt><trkpt lat="44.257811200818935" lon="8.244478371185222"><ele>795.9999999999999</ele><time>2026-04-04T09:17:45.001Z</time></trkpt><trkpt lat="44.25775945541099" lon="8.244418557027224"><ele>796.0</ele><time>2026-04-04T09:17:46.001Z</time></trkpt><trkpt lat="44.2577013866099" lon="8.244324819210657"><ele>796.0</ele><time>2026-04-04T09:17:48.001Z</time></trkpt><trkpt lat="44.25771772284088" lon="8.244196597009005"><ele>796.0</ele><time>2026-04-04T09:17:50.001Z</time></trkpt><trkpt lat="44.257770864531665" lon="8.244123371975776"><ele>795.9999999999999</ele><time>2026-04-04T09:17:51.001Z</time></trkpt><trkpt lat="44.257817779411155" lon="8.244016524572269"><ele>796.0</ele><time>2026-04-04T09:17:52.001Z</time></trkpt><trkpt lat="44.25783092180688" lon="8.243820878922271"><ele>795.6666666666666</ele><time>2026-04-04T09:17:54.001Z</time></trkpt><trkpt lat="44.25784624038213" lon="8.2437303136268"><ele>795.3333333333333</ele><time>2026-04-04T09:17:55Z</time></trkpt><trkpt lat="44.257935294238195" lon="8.2435897798522"><ele>795.0</ele><time>2026-04-04T09:17:57Z</time></trkpt><trkpt lat="44.257968351222154" lon="8.243492877681902"><ele>794.6666666666667</ele><time>2026-04-04T09:17:58Z</time></trkpt><trkpt lat="44.25797021461354" lon="8.243387445900813"><ele>794.3333333333334</ele><time>2026-04-04T09:18:01Z</time></trkpt><trkpt lat="44.257946359357256" lon="8.243301441298971"><ele>794.0</ele><time>2026-04-04T09:18:03Z</time></trkpt><trkpt lat="44.25795660911219" lon="8.243169179500567"><ele>794.6666666666667</ele><time>2026-04-04T09:18:05Z</time></trkpt><trkpt lat="44.257914195237944" lon="8.243074772623793"><ele>795.3333333333334</ele><time>2026-04-04T09:18:08Z</time></trkpt><trkpt lat="44.25787140072257" lon="8.242929829265258"><ele>796.0</ele><time>2026-04-04T09:18:11Z</time></trkpt><trkpt lat="44.25783952564743" lon="8.242835196109176"><ele>796.6666666666667</ele><time>2026-04-04T09:18:12Z</time></trkpt><trkpt lat="44.257808350293985" lon="8.24274678293758"><ele>797.3333333333334</ele><time>2026-04-04T09:18:13Z</time></trkpt><trkpt lat="44.25785605544637" lon="8.24267939401438"><ele>798.0</ele><time>2026-04-04T09:18:14Z</time></trkpt><trkpt lat="44.25789091921651" lon="8.242580591629022"><ele>798.0</ele><time>2026-04-04T09:18:16Z</time></trkpt><trkpt lat="44.25790662407905" lon="8.242489621328922"><ele>798.0</ele><time>2026-04-04T09:18:29Z</time></trkpt><trkpt lat="44.257896259162706" lon="8.24239667678252"><ele>798.0</ele><time>2026-04-04T09:18:33Z</time></trkpt><trkpt lat="44.257855526851856" lon="8.242325051270731"><ele>798.0</ele><time>2026-04-04T09:18:36Z</time></trkpt><trkpt lat="44.257786712874605" lon="8.242289005555161"><ele>798.0</ele><time>2026-04-04T09:18:38Z</time></trkpt><trkpt lat="44.25774060755501" lon="8.242216910024982"><ele>798.0</ele><time>2026-04-04T09:18:41Z</time></trkpt><trkpt lat="44.25768082352255" lon="8.242182730279566"><ele>798.0</ele><time>2026-04-04T09:18:46Z</time></trkpt><trkpt lat="44.25760280443535" lon="8.242112577311657"><ele>798.5999999999999</ele><time>2026-04-04T09:18:52.001Z</time></trkpt><trkpt lat="44.25753802199491" lon="8.242071129356509"><ele>799.1999999999999</ele><time>2026-04-04T09:18:55.001Z</time></trkpt><trkpt lat="44.25750611400547" lon="8.24197448195892"><ele>799.8</ele><time>2026-04-04T09:18:57.001Z</time></trkpt><trkpt lat="44.25747128151471" lon="8.241877664226275"><ele>800.4</ele><time>2026-04-04T09:18:59.001Z</time></trkpt><trkpt lat="44.257388810406916" lon="8.241725838468193"><ele>801.0</ele><time>2026-04-04T09:19:00.001Z</time></trkpt><trkpt lat="44.25732329647107" lon="8.24160855243174"><ele>802.4</ele><time>2026-04-04T09:19:01.001Z</time></trkpt><trkpt lat="44.25725918981956" lon="8.241515981908067"><ele>803.8</ele><time>2026-04-04T09:19:02.001Z</time></trkpt><trkpt lat="44.257203034605546" lon="8.241419823690785"><ele>805.1999999999999</ele><time>2026-04-04T09:19:03.001Z</time></trkpt><trkpt lat="44.25716557084619" lon="8.241312085775728"><ele>806.5999999999999</ele><time>2026-04-04T09:19:04.001Z</time></trkpt><trkpt lat="44.257121377469375" lon="8.241189666790083"><ele>808.0</ele><time>2026-04-04T09:19:05.001Z</time></trkpt><trkpt lat="44.25708090000803" lon="8.241075558073124"><ele>810.1666666666666</ele><time>2026-04-04T09:19:06.001Z</time></trkpt><trkpt lat="44.25703726532868" lon="8.24098829171373"><ele>812.3333333333333</ele><time>2026-04-04T09:19:07.001Z</time></trkpt><trkpt lat="44.256996991914875" lon="8.24090669929787"><ele>814.5</ele><time>2026-04-04T09:19:08.001Z</time></trkpt><trkpt lat="44.256946852098984" lon="8.240816308799229"><ele>816.6666666666667</ele><time>2026-04-04T09:19:09.001Z</time></trkpt><trkpt lat="44.2568778463144" lon="8.240737014713757"><ele>818.8333333333334</ele><time>2026-04-04T09:19:10.001Z</time></trkpt><trkpt lat="44.25681255728302" lon="8.24066590383208"><ele>821.0</ele><time>2026-04-04T09:19:11.001Z</time></trkpt><trkpt lat="44.25675224112092" lon="8.240593640197345"><ele>821.0</ele><time>2026-04-04T09:19:12.001Z</time></trkpt><trkpt lat="44.25669309050383" lon="8.240544375217192"><ele>821.0</ele><time>2026-04-04T09:19:13.001Z</time></trkpt><trkpt lat="44.25663015447112" lon="8.240499302202428"><ele>821.0</ele><time>2026-04-04T09:19:14.001Z</time></trkpt><trkpt lat="44.256527015517264" lon="8.24044118306916"><ele>821.0</ele><time>2026-04-04T09:19:16.001Z</time></trkpt><trkpt lat="44.25651038930773" lon="8.24032452762222"><ele>821.0</ele><time>2026-04-04T09:19:18.001Z</time></trkpt><trkpt lat="44.256515802506776" lon="8.240147108643166"><ele>821.0000000000001</ele><time>2026-04-04T09:19:20.001Z</time></trkpt><trkpt lat="44.25650685913737" lon="8.24005922400411"><ele>821.0</ele><time>2026-04-04T09:19:21.001Z</time></trkpt><trkpt lat="44.256456179267154" lon="8.239919656945771"><ele>821.0</ele><time>2026-04-04T09:19:23.001Z</time></trkpt><trkpt lat="44.25643339570315" lon="8.239829891968814"><ele>821.0</ele><time>2026-04-04T09:19:24.001Z</time></trkpt><trkpt lat="44.2563921583839" lon="8.239741149841153"><ele>821.0000000000001</ele><time>2026-04-04T09:19:25.001Z</time></trkpt><trkpt lat="44.256355303154045" lon="8.239594412784593"><ele>821.0</ele><time>2026-04-04T09:19:27.001Z</time></trkpt><trkpt lat="44.256357732096525" lon="8.239408032595033"><ele>820.0000000000001</ele><time>2026-04-04T09:19:29.001Z</time></trkpt><trkpt lat="44.256368634488226" lon="8.239284306430108"><ele>819.0</ele><time>2026-04-04T09:19:30.001Z</time></trkpt><trkpt lat="44.25637740153031" lon="8.239193171196266"><ele>818.0</ele><time>2026-04-04T09:19:31.001Z</time></trkpt><trkpt lat="44.25636046875976" lon="8.239037780769804"><ele>817.0</ele><time>2026-04-04T09:19:33.001Z</time></trkpt><trkpt lat="44.256334134246515" lon="8.23895346661286"><ele>816.0000000000001</ele><time>2026-04-04T09:19:36.001Z</time></trkpt><trkpt lat="44.25628785203222" lon="8.2388412152787"><ele>815.0</ele><time>2026-04-04T09:19:47.001Z</time></trkpt><trkpt lat="44.25625555951236" lon="8.238735744748492"><ele>817.6</ele><time>2026-04-04T09:19:49.001Z</time></trkpt><trkpt lat="44.25615951941381" lon="8.238569212410157"><ele>820.2</ele><time>2026-04-04T09:19:51.001Z</time></trkpt><trkpt lat="44.25609789301477" lon="8.238486688441698"><ele>822.8</ele><time>2026-04-04T09:19:52.001Z</time></trkpt><trkpt lat="44.256125077598625" lon="8.238392630391324"><ele>825.4</ele><time>2026-04-04T09:19:55.001Z</time></trkpt><trkpt lat="44.25612146786396" lon="8.238272308694887"><ele>828.0</ele><time>2026-04-04T09:19:58.001Z</time></trkpt><trkpt lat="44.25610168555571" lon="8.23818318525806"><ele>830.8333333333334</ele><time>2026-04-04T09:20:00.001Z</time></trkpt><trkpt lat="44.256075591265784" lon="8.238065693387771"><ele>833.6666666666667</ele><time>2026-04-04T09:20:04Z</time></trkpt><trkpt lat="44.25613565767165" lon="8.238117063416857"><ele>836.5</ele><time>2026-04-04T09:20:07Z</time></trkpt><trkpt lat="44.25609990641554" lon="8.238038005776861"><ele>839.3333333333334</ele><time>2026-04-04T09:20:10Z</time></trkpt><trkpt lat="44.256075019708796" lon="8.237941606278904"><ele>842.1666666666667</ele><time>2026-04-04T09:20:17Z</time></trkpt><trkpt lat="44.25599876977808" lon="8.237958178857053"><ele>845.0</ele><time>2026-04-04T09:21:06.001Z</time></trkpt><trkpt lat="44.25605918806732" lon="8.238076776067363"><ele>845.0000000000001</ele><time>2026-04-04T09:22:19Z</time></trkpt><trkpt lat="44.25602618235923" lon="8.23797164678815"><ele>845.0</ele><time>2026-04-04T09:22:49Z</time></trkpt><trkpt lat="44.25605360778634" lon="8.237892088765156"><ele>845.0</ele><time>2026-04-04T09:23:27.001Z</time></trkpt><trkpt lat="44.25606406578384" lon="8.23799180603131"><ele>845.0</ele><time>2026-04-04T09:23:43.001Z</time></trkpt><trkpt lat="44.25605208025032" lon="8.237857428694511"><ele>845.0000000000001</ele><time>2026-04-04T09:24:17Z</time></trkpt><trkpt lat="44.25600928257168" lon="8.237778258608037"><ele>845.0</ele><time>2026-04-04T09:24:20Z</time></trkpt><trkpt lat="44.2559539106251" lon="8.237722595894182"><ele>845.0000000000001</ele><time>2026-04-04T09:24:22Z</time></trkpt><trkpt lat="44.25587932541171" lon="8.237657140179145"><ele>845.0</ele><time>2026-04-04T09:24:26Z</time></trkpt><trkpt lat="44.255830746022696" lon="8.237548754934483"><ele>845.0</ele><time>2026-04-04T09:24:28Z</time></trkpt><trkpt lat="44.2557860779768" lon="8.237474421424764"><ele>845.0</ele><time>2026-04-04T09:24:30Z</time></trkpt><trkpt lat="44.25573124648134" lon="8.237400091761094"><ele>845.0000000000001</ele><time>2026-04-04T09:24:33Z</time></trkpt><trkpt lat="44.2556535195541" lon="8.237348569621684"><ele>845.0</ele><time>2026-04-04T09:24:38Z</time></trkpt><trkpt lat="44.255596893793715" lon="8.237236771084284"><ele>845.0000000000001</ele><time>2026-04-04T09:24:45Z</time></trkpt><trkpt lat="44.255626439481986" lon="8.23712424786877"><ele>845.0</ele><time>2026-04-04T09:24:47Z</time></trkpt><trkpt lat="44.25561923896647" lon="8.237023763282236"><ele>845.0</ele><time>2026-04-04T09:24:49Z</time></trkpt><trkpt lat="44.25561060183511" lon="8.236916515627803"><ele>845.0</ele><time>2026-04-04T09:24:51Z</time></trkpt><trkpt lat="44.25559013828405" lon="8.23681921734565"><ele>845.0000000000001</ele><time>2026-04-04T09:24:53Z</time></trkpt><trkpt lat="44.2555403301157" lon="8.236740041759477"><ele>845.0</ele><time>2026-04-04T09:24:55Z</time></trkpt><trkpt lat="44.25549937835725" lon="8.236654923452503"><ele>844.9999999999999</ele><time>2026-04-04T09:24:56Z</time></trkpt><trkpt lat="44.25545022402732" lon="8.236599396074512"><ele>845.0</ele><time>2026-04-04T09:24:57Z</time></trkpt><trkpt lat="44.25539775720212" lon="8.2365304958999"><ele>845.0</ele><time>2026-04-04T09:25:04Z</time></trkpt><trkpt lat="44.25537972445172" lon="8.236416932140157"><ele>845.0</ele><time>2026-04-04T09:28:10.001Z</time></trkpt><trkpt lat="44.25533144380648" lon="8.236347351426057"><ele>845.0</ele><time>2026-04-04T09:28:15.001Z</time></trkpt><trkpt lat="44.255247626842305" lon="8.236334996863992"><ele>844.9999999999999</ele><time>2026-04-04T09:28:17.001Z</time></trkpt><trkpt lat="44.255187955538524" lon="8.236270964486144"><ele>845.0</ele><time>2026-04-04T09:28:18.001Z</time></trkpt><trkpt lat="44.255134045274225" lon="8.23621211474925"><ele>848.5000000000001</ele><time>2026-04-04T09:28:19.001Z</time></trkpt><trkpt lat="44.2550354503376" lon="8.236093054250885"><ele>852.0</ele><time>2026-04-04T09:28:21.002Z</time></trkpt><trkpt lat="44.25497424680736" lon="8.236008542614034"><ele>855.5</ele><time>2026-04-04T09:28:23.002Z</time></trkpt><trkpt lat="44.25490100350864" lon="8.235962028409334"><ele>859.0</ele><time>2026-04-04T09:28:24.002Z</time></trkpt><trkpt lat="44.254834328854294" lon="8.23594330600494"><ele>862.5000000000001</ele><time>2026-04-04T09:28:25Z</time></trkpt><trkpt lat="44.25476114711004" lon="8.235947109283593"><ele>866.0</ele><time>2026-04-04T09:28:26Z</time></trkpt><trkpt lat="44.25466236012186" lon="8.235869646664348"><ele>867.0</ele><time>2026-04-04T09:28:28Z</time></trkpt><trkpt lat="44.254543469468466" lon="8.235796674041511"><ele>867.9999999999999</ele><time>2026-04-04T09:28:30Z</time></trkpt><trkpt lat="44.254431906494894" lon="8.235712430969384"><ele>868.9999999999999</ele><time>2026-04-04T09:28:32Z</time></trkpt><trkpt lat="44.25437582366947" lon="8.235661576142142"><ele>870.0</ele><time>2026-04-04T09:28:34Z</time></trkpt><trkpt lat="44.25426906953123" lon="8.235659295180518"><ele>871.0</ele><time>2026-04-04T09:28:36Z</time></trkpt><trkpt lat="44.25417522605071" lon="8.235655294873618"><ele>870.9999999999999</ele><time>2026-04-04T09:28:38Z</time></trkpt><trkpt lat="44.254112976515465" lon="8.235669836862105"><ele>871.0</ele><time>2026-04-04T09:28:39Z</time></trkpt><trkpt lat="44.25400442981267" lon="8.235687674872416"><ele>871.0</ele><time>2026-04-04T09:28:41Z</time></trkpt><trkpt lat="44.2539186362758" lon="8.235682802999797"><ele>871.0</ele><time>2026-04-04T09:28:44Z</time></trkpt><trkpt lat="44.2538409543364" lon="8.23569250537291"><ele>870.9999999999999</ele><time>2026-04-04T09:28:46Z</time></trkpt><trkpt lat="44.25377293961264" lon="8.235723348546427"><ele>871.0</ele><time>2026-04-04T09:28:47Z</time></trkpt><trkpt lat="44.25367344848292" lon="8.235693342301207"><ele>872.0</ele><time>2026-04-04T09:28:49Z</time></trkpt><trkpt lat="44.25358067479934" lon="8.235640202661834"><ele>872.9999999999999</ele><time>2026-04-04T09:28:51Z</time></trkpt><trkpt lat="44.253469695667796" lon="8.235570908747711"><ele>873.9999999999999</ele><time>2026-04-04T09:28:53Z</time></trkpt><trkpt lat="44.253381629509825" lon="8.235572963332949"><ele>875.0</ele><time>2026-04-04T09:28:55Z</time></trkpt><trkpt lat="44.253309008087754" lon="8.235584850945612"><ele>876.0</ele><time>2026-04-04T09:28:58Z</time></trkpt><trkpt lat="44.253238692600036" lon="8.235606072979277"><ele>876.0</ele><time>2026-04-04T09:29:00Z</time></trkpt><trkpt lat="44.2531426945298" lon="8.23562125438396"><ele>876.0</ele><time>2026-04-04T09:29:02Z</time></trkpt><trkpt lat="44.25307475343365" lon="8.235611540042022"><ele>876.0</ele><time>2026-04-04T09:29:04Z</time></trkpt><trkpt lat="44.25301143698501" lon="8.235586724637907"><ele>876.0</ele><time>2026-04-04T09:29:06Z</time></trkpt><trkpt lat="44.25294069515591" lon="8.235661594787523"><ele>876.0</ele><time>2026-04-04T09:29:09Z</time></trkpt><trkpt lat="44.252837779466766" lon="8.235752119948812"><ele>876.0</ele><time>2026-04-04T09:29:11Z</time></trkpt><trkpt lat="44.25277716165269" lon="8.235829454601179"><ele>877.5</ele><time>2026-04-04T09:29:12Z</time></trkpt><trkpt lat="44.252713690564654" lon="8.235858033470278"><ele>879.0</ele><time>2026-04-04T09:29:13Z</time></trkpt><trkpt lat="44.25266340309533" lon="8.235960761328615"><ele>880.5</ele><time>2026-04-04T09:29:14Z</time></trkpt><trkpt lat="44.25253874673267" lon="8.236005452592439"><ele>882.0</ele><time>2026-04-04T09:29:16.001Z</time></trkpt><trkpt lat="44.2524697805161" lon="8.23600948638935"><ele>883.5</ele><time>2026-04-04T09:29:17.001Z</time></trkpt><trkpt lat="44.252415815182296" lon="8.23611261796457"><ele>885.0</ele><time>2026-04-04T09:29:21.001Z</time></trkpt><trkpt lat="44.25235063523117" lon="8.23609211276274"><ele>885.3333333333334</ele><time>2026-04-04T09:29:35.001Z</time></trkpt><trkpt lat="44.252271170343555" lon="8.236122908267335"><ele>885.6666666666667</ele><time>2026-04-04T09:29:46.001Z</time></trkpt><trkpt lat="44.25219276204846" lon="8.236143412947122"><ele>886.0</ele><time>2026-04-04T09:29:48.001Z</time></trkpt><trkpt lat="44.25212805434019" lon="8.236145223088029"><ele>886.3333333333334</ele><time>2026-04-04T09:29:50.001Z</time></trkpt><trkpt lat="44.25200858518024" lon="8.236204371003312"><ele>886.6666666666667</ele><time>2026-04-04T09:29:52.001Z</time></trkpt><trkpt lat="44.251933165434245" lon="8.236265112686047"><ele>887.0</ele><time>2026-04-04T09:29:54.001Z</time></trkpt><trkpt lat="44.25189055508839" lon="8.236188431476704"><ele>887.0</ele><time>2026-04-04T09:30:01.001Z</time></trkpt><trkpt lat="44.251806750087596" lon="8.236168561917166"><ele>887.0</ele><time>2026-04-04T09:30:06.001Z</time></trkpt><trkpt lat="44.25173884339397" lon="8.236230620444132"><ele>887.0</ele><time>2026-04-04T09:30:11.001Z</time></trkpt><trkpt lat="44.25162869114222" lon="8.236260176738284"><ele>887.0</ele><time>2026-04-04T09:30:14.001Z</time></trkpt><trkpt lat="44.25152830858481" lon="8.236305085247844"><ele>887.0</ele><time>2026-04-04T09:30:16.001Z</time></trkpt><trkpt lat="44.25142649907876" lon="8.23633457361674"><ele>887.6</ele><time>2026-04-04T09:30:18.001Z</time></trkpt><trkpt lat="44.2513459991361" lon="8.236298619216067"><ele>888.2</ele><time>2026-04-04T09:30:19.001Z</time></trkpt><trkpt lat="44.251273381232494" lon="8.23639103100479"><ele>888.8</ele><time>2026-04-04T09:30:21.001Z</time></trkpt><trkpt lat="44.2511818966456" lon="8.236406031376278"><ele>889.4</ele><time>2026-04-04T09:30:23.001Z</time></trkpt><trkpt lat="44.25109091161915" lon="8.236453083067929"><ele>890.0</ele><time>2026-04-04T09:30:25.002Z</time></trkpt><trkpt lat="44.25098961038245" lon="8.236492244133792"><ele>892.6666666666667</ele><time>2026-04-04T09:30:27.002Z</time></trkpt><trkpt lat="44.25089847829831" lon="8.236479792431426"><ele>895.3333333333334</ele><time>2026-04-04T09:30:31Z</time></trkpt><trkpt lat="44.2508501188545" lon="8.236554701939225"><ele>898.0</ele><time>2026-04-04T09:30:33Z</time></trkpt><trkpt lat="44.250795267795255" lon="8.236624442772543"><ele>900.6666666666667</ele><time>2026-04-04T09:30:36Z</time></trkpt><trkpt lat="44.250696509030355" lon="8.236696890407151"><ele>903.3333333333334</ele><time>2026-04-04T09:30:38Z</time></trkpt><trkpt lat="44.250620319224105" lon="8.236704276613343"><ele>906.0</ele><time>2026-04-04T09:30:39Z</time></trkpt><trkpt lat="44.25051742314382" lon="8.236757040533815"><ele>906.1999999999999</ele><time>2026-04-04T09:30:41Z</time></trkpt><trkpt lat="44.250441078779616" lon="8.236778309557183"><ele>906.3999999999999</ele><time>2026-04-04T09:30:43Z</time></trkpt><trkpt lat="44.250377423504574" lon="8.236826226349235"><ele>906.6</ele><time>2026-04-04T09:30:44Z</time></trkpt><trkpt lat="44.25027204832928" lon="8.236919333586622"><ele>906.8</ele><time>2026-04-04T09:30:46Z</time></trkpt><trkpt lat="44.25023433586764" lon="8.23706164744186"><ele>907.0</ele><time>2026-04-04T09:30:48Z</time></trkpt><trkpt lat="44.25019388958149" lon="8.237211502086636"><ele>909.4000000000001</ele><time>2026-04-04T09:30:50Z</time></trkpt><trkpt lat="44.250129171228316" lon="8.23733546290754"><ele>911.8000000000001</ele><time>2026-04-04T09:30:52Z</time></trkpt><trkpt lat="44.25005097656309" lon="8.237415884472721"><ele>914.2</ele><time>2026-04-04T09:30:54Z</time></trkpt><trkpt lat="44.250006080366724" lon="8.237496280776423"><ele>916.6</ele><time>2026-04-04T09:30:55Z</time></trkpt><trkpt lat="44.24994224493895" lon="8.23761536709797"><ele>919.0</ele><time>2026-04-04T09:30:57Z</time></trkpt><trkpt lat="44.2499023675227" lon="8.23771744344216"><ele>919.0</ele><time>2026-04-04T09:31:00Z</time></trkpt><trkpt lat="44.24986930554046" lon="8.23781538233969"><ele>919.0000000000001</ele><time>2026-04-04T09:31:02Z</time></trkpt><trkpt lat="44.24980238305585" lon="8.237982483189842"><ele>919.0000000000001</ele><time>2026-04-04T09:31:04Z</time></trkpt><trkpt lat="44.249769171369856" lon="8.238077014641728"><ele>919.0</ele><time>2026-04-04T09:31:05Z</time></trkpt><trkpt lat="44.24974278806617" lon="8.238190556338829"><ele>919.0</ele><time>2026-04-04T09:31:06Z</time></trkpt><trkpt lat="44.24971116960614" lon="8.238284040018389"><ele>922.0</ele><time>2026-04-04T09:31:07Z</time></trkpt><trkpt lat="44.24963687099273" lon="8.23846850900115"><ele>925.0000000000001</ele><time>2026-04-04T09:31:09Z</time></trkpt><trkpt lat="44.249570919135685" lon="8.238507613682492"><ele>928.0000000000001</ele><time>2026-04-04T09:31:11Z</time></trkpt><trkpt lat="44.24947927986707" lon="8.238592118303396"><ele>931.0</ele><time>2026-04-04T09:31:13Z</time></trkpt><trkpt lat="44.24941688127498" lon="8.238632606840909"><ele>934.0</ele><time>2026-04-04T09:31:15Z</time></trkpt><trkpt lat="44.24935567077544" lon="8.23856979190886"><ele>934.0</ele><time>2026-04-04T09:31:18Z</time></trkpt><trkpt lat="44.24923922818932" lon="8.23862131951658"><ele>934.0000000000001</ele><time>2026-04-04T09:31:20Z</time></trkpt><trkpt lat="44.24909825820458" lon="8.238658438368262"><ele>934.0000000000001</ele><time>2026-04-04T09:31:22Z</time></trkpt><trkpt lat="44.2490242977659" lon="8.238709431949667"><ele>934.0</ele><time>2026-04-04T09:31:23Z</time></trkpt><trkpt lat="44.248959422825266" lon="8.238737235430213"><ele>934.0</ele><time>2026-04-04T09:31:24.001Z</time></trkpt><trkpt lat="44.24888200493893" lon="8.238717277124112"><ele>933.1666666666666</ele><time>2026-04-04T09:31:25.001Z</time></trkpt><trkpt lat="44.24875944277236" lon="8.238701522432944"><ele>932.3333333333333</ele><time>2026-04-04T09:31:27.001Z</time></trkpt><trkpt lat="44.24869431886543" lon="8.238638382575658"><ele>931.5</ele><time>2026-04-04T09:31:29.001Z</time></trkpt><trkpt lat="44.248628061660966" lon="8.238643532042557"><ele>930.6666666666667</ele><time>2026-04-04T09:31:30.001Z</time></trkpt><trkpt lat="44.2485406226998" lon="8.238630867920662"><ele>929.8333333333334</ele><time>2026-04-04T09:31:31.001Z</time></trkpt><trkpt lat="44.24847737814825" lon="8.238578361264397"><ele>929.0</ele><time>2026-04-04T09:31:32.001Z</time></trkpt><trkpt lat="44.248354388820495" lon="8.238501966191544"><ele>929.0</ele><time>2026-04-04T09:31:34.001Z</time></trkpt><trkpt lat="44.24827903457501" lon="8.238456480766178"><ele>929.0000000000001</ele><time>2026-04-04T09:31:35.001Z</time></trkpt><trkpt lat="44.2482163288927" lon="8.238358155594588"><ele>929.0000000000001</ele><time>2026-04-04T09:31:37.001Z</time></trkpt><trkpt lat="44.24816479323834" lon="8.238258561582892"><ele>929.0</ele><time>2026-04-04T09:31:39.001Z</time></trkpt><trkpt lat="44.24806504339134" lon="8.238177199831672"><ele>929.0</ele><time>2026-04-04T09:31:42.001Z</time></trkpt><trkpt lat="44.248061179568964" lon="8.238026877639744"><ele>929.6</ele><time>2026-04-04T09:31:45.001Z</time></trkpt><trkpt lat="44.248000181376256" lon="8.237863022052624"><ele>930.2</ele><time>2026-04-04T09:31:47.001Z</time></trkpt><trkpt lat="44.24796623572766" lon="8.237746999615931"><ele>930.8000000000001</ele><time>2026-04-04T09:31:48.001Z</time></trkpt><trkpt lat="44.24790206151455" lon="8.237633731974418"><ele>931.4000000000001</ele><time>2026-04-04T09:31:50.001Z</time></trkpt><trkpt lat="44.24787682104389" lon="8.237533051277886"><ele>932.0</ele><time>2026-04-04T09:31:53.001Z</time></trkpt><trkpt lat="44.24784031283314" lon="8.237436939017686"><ele>932.0000000000001</ele><time>2026-04-04T09:31:54.001Z</time></trkpt><trkpt lat="44.24781748676262" lon="8.237353020631945"><ele>932.0</ele><time>2026-04-04T09:31:56.001Z</time></trkpt><trkpt lat="44.247782896751914" lon="8.237265116806299"><ele>932.0</ele><time>2026-04-04T09:31:58.001Z</time></trkpt><trkpt lat="44.247708144632526" lon="8.237212852448037"><ele>932.0</ele><time>2026-04-04T09:32:00.001Z</time></trkpt><trkpt lat="44.24763184992147" lon="8.23723593410795"><ele>932.0000000000001</ele><time>2026-04-04T09:32:03.001Z</time></trkpt><trkpt lat="44.24756673567236" lon="8.237317490365587"><ele>932.0</ele><time>2026-04-04T09:32:07.001Z</time></trkpt><trkpt lat="44.24751525792935" lon="8.237377904611076"><ele>932.0</ele><time>2026-04-04T09:32:10.001Z</time></trkpt><trkpt lat="44.24746218959482" lon="8.23745710699563"><ele>932.0</ele><time>2026-04-04T09:32:13.001Z</time></trkpt><trkpt lat="44.247401259212864" lon="8.237493215160502"><ele>932.0</ele><time>2026-04-04T09:32:16.001Z</time></trkpt><trkpt lat="44.24722004777853" lon="8.237554125357583"><ele>932.0</ele><time>2026-04-04T09:32:18.001Z</time></trkpt><trkpt lat="44.247139745190346" lon="8.23763954076528"><ele>932.0</ele><time>2026-04-04T09:32:23.001Z</time></trkpt><trkpt lat="44.24707227552102" lon="8.23772925570171"><ele>931.1666666666667</ele><time>2026-04-04T09:32:25.001Z</time></trkpt><trkpt lat="44.24702436965731" lon="8.237830099337835"><ele>930.3333333333334</ele><time>2026-04-04T09:32:27.001Z</time></trkpt><trkpt lat="44.24697093031386" lon="8.237925360950829"><ele>929.5</ele><time>2026-04-04T09:32:28.001Z</time></trkpt><trkpt lat="44.2468873652183" lon="8.237958649558587"><ele>928.6666666666667</ele><time>2026-04-04T09:32:31.002Z</time></trkpt><trkpt lat="44.24682410975293" lon="8.238037322537572"><ele>927.8333333333334</ele><time>2026-04-04T09:32:33.002Z</time></trkpt><trkpt lat="44.246793803383525" lon="8.23814148681959"><ele>927.0</ele><time>2026-04-04T09:32:35.002Z</time></trkpt><trkpt lat="44.24677295445126" lon="8.238266773882374"><ele>927.0</ele><time>2026-04-04T09:32:37Z</time></trkpt><trkpt lat="44.24672897376395" lon="8.238390918204976"><ele>927.0</ele><time>2026-04-04T09:32:38Z</time></trkpt><trkpt lat="44.24672342300699" lon="8.238503076837409"><ele>927.0</ele><time>2026-04-04T09:32:39Z</time></trkpt><trkpt lat="44.246663526142974" lon="8.238653024104167"><ele>927.0</ele><time>2026-04-04T09:32:41Z</time></trkpt><trkpt lat="44.24663502000123" lon="8.238736381280779"><ele>927.0</ele><time>2026-04-04T09:32:42Z</time></trkpt><trkpt lat="44.2465736204535" lon="8.23880289843631"><ele>927.0</ele><time>2026-04-04T09:32:44Z</time></trkpt><trkpt lat="44.24650772459669" lon="8.238888148651215"><ele>928.4000000000001</ele><time>2026-04-04T09:32:46Z</time></trkpt><trkpt lat="44.24644725256233" lon="8.238968199035428"><ele>929.8000000000001</ele><time>2026-04-04T09:32:48Z</time></trkpt><trkpt lat="44.246402379335606" lon="8.239034560222711"><ele>931.2</ele><time>2026-04-04T09:32:50Z</time></trkpt><trkpt lat="44.24633534778012" lon="8.239174627648554"><ele>932.6</ele><time>2026-04-04T09:32:53Z</time></trkpt><trkpt lat="44.24627752176509" lon="8.23927418036238"><ele>934.0</ele><time>2026-04-04T09:32:54Z</time></trkpt><trkpt lat="44.246208144007085" lon="8.239409393172911"><ele>933.9999999999999</ele><time>2026-04-04T09:32:56Z</time></trkpt><trkpt lat="44.24613702545224" lon="8.239495182380525"><ele>934.0</ele><time>2026-04-04T09:32:58Z</time></trkpt><trkpt lat="44.24607028837625" lon="8.23956248841353"><ele>934.0</ele><time>2026-04-04T09:33:00Z</time></trkpt><trkpt lat="44.24600456733919" lon="8.239649591554052"><ele>934.0</ele><time>2026-04-04T09:33:01Z</time></trkpt><trkpt lat="44.24595254535925" lon="8.239710278588058"><ele>933.9999999999999</ele><time>2026-04-04T09:33:02Z</time></trkpt><trkpt lat="44.24590627657582" lon="8.239781063260295"><ele>934.0</ele><time>2026-04-04T09:33:03Z</time></trkpt><trkpt lat="44.24585167144463" lon="8.23988189789679"><ele>934.4000000000001</ele><time>2026-04-04T09:33:04Z</time></trkpt><trkpt lat="44.245751594039554" lon="8.239987704195148"><ele>934.8000000000001</ele><time>2026-04-04T09:33:06Z</time></trkpt><trkpt lat="44.24565361375891" lon="8.24002428892977"><ele>935.1999999999999</ele><time>2026-04-04T09:33:07Z</time></trkpt><trkpt lat="44.24557068237785" lon="8.240059588046433"><ele>935.5999999999999</ele><time>2026-04-04T09:33:08Z</time></trkpt><trkpt lat="44.24547005563589" lon="8.240165538726982"><ele>936.0</ele><time>2026-04-04T09:33:09Z</time></trkpt><trkpt lat="44.24539893043179" lon="8.240229659513748"><ele>936.0</ele><time>2026-04-04T09:33:10Z</time></trkpt><trkpt lat="44.24532114754073" lon="8.240306816389227"><ele>936.0</ele><time>2026-04-04T09:33:11Z</time></trkpt><trkpt lat="44.24526100553225" lon="8.240376428333558"><ele>936.0</ele><time>2026-04-04T09:33:12Z</time></trkpt><trkpt lat="44.24523671255068" lon="8.240489293191294"><ele>936.0</ele><time>2026-04-04T09:33:13Z</time></trkpt><trkpt lat="44.24521646044151" lon="8.24058141920548"><ele>936.0</ele><time>2026-04-04T09:33:14Z</time></trkpt><trkpt lat="44.245171513195196" lon="8.240646318699685"><ele>936.0</ele><time>2026-04-04T09:33:15Z</time></trkpt><trkpt lat="44.24502561207633" lon="8.240636445193596"><ele>935.0</ele><time>2026-04-04T09:33:17Z</time></trkpt><trkpt lat="44.244945527103106" lon="8.240684600028617"><ele>934.0</ele><time>2026-04-04T09:33:18Z</time></trkpt><trkpt lat="44.24487954356592" lon="8.240709542714969"><ele>933.0</ele><time>2026-04-04T09:33:19Z</time></trkpt><trkpt lat="44.24480789216781" lon="8.240720109962915"><ele>932.0</ele><time>2026-04-04T09:33:20Z</time></trkpt><trkpt lat="44.244711262269924" lon="8.240858915137162"><ele>931.0</ele><time>2026-04-04T09:33:22Z</time></trkpt><trkpt lat="44.244640973459575" lon="8.240918635374141"><ele>930.0</ele><time>2026-04-04T09:33:23Z</time></trkpt><trkpt lat="44.24456549527027" lon="8.240938910262063"><ele>930.0</ele><time>2026-04-04T09:33:25Z</time></trkpt><trkpt lat="44.244478550848115" lon="8.240931955423365"><ele>930.0</ele><time>2026-04-04T09:33:27Z</time></trkpt><trkpt lat="44.2444051531882" lon="8.240904540781509"><ele>930.0</ele><time>2026-04-04T09:33:29.001Z</time></trkpt><trkpt lat="44.244351192475094" lon="8.240959450141247"><ele>930.0</ele><time>2026-04-04T09:33:32.001Z</time></trkpt><trkpt lat="44.24429349772258" lon="8.24102248059643"><ele>930.0</ele><time>2026-04-04T09:34:56Z</time></trkpt><trkpt lat="44.244357772907044" lon="8.241028637700897"><ele>930.0</ele><time>2026-04-04T09:35:25Z</time></trkpt><trkpt lat="44.2444078589307" lon="8.240959870675331"><ele>930.0</ele><time>2026-04-04T09:39:14Z</time></trkpt><trkpt lat="44.24434643677233" lon="8.240935063983738"><ele>930.0</ele><time>2026-04-04T09:41:59.001Z</time></trkpt><trkpt lat="44.24427756473554" lon="8.240979958268012"><ele>930.0</ele><time>2026-04-04T09:46:58.002Z</time></trkpt><trkpt lat="44.24433938532333" lon="8.241008796275848"><ele>930.0</ele><time>2026-04-04T09:47:27.999Z</time></trkpt><trkpt lat="44.24434847632587" lon="8.240869525798168"><ele>930.0</ele><time>2026-04-04T09:49:13.002Z</time></trkpt><trkpt lat="44.24433699041954" lon="8.240968546970267"><ele>930.0</ele><time>2026-04-04T09:49:30.999Z</time></trkpt><trkpt lat="44.24438297506007" lon="8.24108036469823"><ele>930.0</ele><time>2026-04-04T09:50:57.001Z</time></trkpt><trkpt lat="44.24441880151159" lon="8.241156794065175"><ele>930.0</ele><time>2026-04-04T09:50:59.002Z</time></trkpt><trkpt lat="44.24442406844713" lon="8.241333956219078"><ele>930.0</ele><time>2026-04-04T09:51:01.002Z</time></trkpt><trkpt lat="44.24439986494022" lon="8.241484426519337"><ele>930.0</ele><time>2026-04-04T09:51:02.002Z</time></trkpt><trkpt lat="44.244356416729865" lon="8.24167057862027"><ele>930.0</ele><time>2026-04-04T09:51:03.002Z</time></trkpt><trkpt lat="44.24429809092857" lon="8.241910683345216"><ele>930.3333333333333</ele><time>2026-04-04T09:51:04.002Z</time></trkpt><trkpt lat="44.244220791192646" lon="8.242164219084234"><ele>930.6666666666666</ele><time>2026-04-04T09:51:05.002Z</time></trkpt><trkpt lat="44.244138056668" lon="8.242466040608965"><ele>931.0</ele><time>2026-04-04T09:51:06.002Z</time></trkpt><trkpt lat="44.2440776285008" lon="8.242767365231233"><ele>933.0</ele><time>2026-04-04T09:51:07.002Z</time></trkpt><trkpt lat="44.244016385637195" lon="8.243021932037454"><ele>935.0</ele><time>2026-04-04T09:51:08.002Z</time></trkpt><trkpt lat="44.24399306107155" lon="8.243224515205386"><ele>937.0</ele><time>2026-04-04T09:51:09.002Z</time></trkpt><trkpt lat="44.24397565102747" lon="8.243423106666535"><ele>932.75</ele><time>2026-04-04T09:51:10.002Z</time></trkpt><trkpt lat="44.243924775165254" lon="8.243616968104227"><ele>928.5</ele><time>2026-04-04T09:51:11.002Z</time></trkpt><trkpt lat="44.24391714591074" lon="8.243817531296695"><ele>924.25</ele><time>2026-04-04T09:51:12.002Z</time></trkpt><trkpt lat="44.243913657725734" lon="8.24401369248529"><ele>920.0</ele><time>2026-04-04T09:51:13.002Z</time></trkpt><trkpt lat="44.24391136605538" lon="8.244225025696512"><ele>920.0</ele><time>2026-04-04T09:51:14.002Z</time></trkpt><trkpt lat="44.243909295839984" lon="8.244441308809863"><ele>920.0</ele><time>2026-04-04T09:51:15.002Z</time></trkpt><trkpt lat="44.243911386342624" lon="8.244649374913541"><ele>920.0</ele><time>2026-04-04T09:51:16.002Z</time></trkpt><trkpt lat="44.24393402640432" lon="8.244854123605743"><ele>920.25</ele><time>2026-04-04T09:51:17.002Z</time></trkpt><trkpt lat="44.24395234359135" lon="8.245059581928087"><ele>920.5</ele><time>2026-04-04T09:51:18.002Z</time></trkpt><trkpt lat="44.24397907057604" lon="8.245258582656849"><ele>920.75</ele><time>2026-04-04T09:51:19.002Z</time></trkpt><trkpt lat="44.244013401810264" lon="8.24545996987405"><ele>921.0</ele><time>2026-04-04T09:51:20.002Z</time></trkpt><trkpt lat="44.24405189100126" lon="8.245670319002809"><ele>931.0</ele><time>2026-04-04T09:51:21.002Z</time></trkpt><trkpt lat="44.24408353552451" lon="8.245885713192868"><ele>941.0</ele><time>2026-04-04T09:51:22.002Z</time></trkpt><trkpt lat="44.24410205921452" lon="8.246097855576732"><ele>951.0</ele><time>2026-04-04T09:51:23.002Z</time></trkpt><trkpt lat="44.24410769091693" lon="8.246315911434232"><ele>950.6666666666667</ele><time>2026-04-04T09:51:24.002Z</time></trkpt><trkpt lat="44.24411165988773" lon="8.246525482892482"><ele>950.3333333333334</ele><time>2026-04-04T09:51:25.002Z</time></trkpt><trkpt lat="44.24411930627583" lon="8.24673574135896"><ele>950.0</ele><time>2026-04-04T09:51:26.002Z</time></trkpt><trkpt lat="44.24414683019596" lon="8.246948231065122"><ele>950.0</ele><time>2026-04-04T09:51:27.002Z</time></trkpt><trkpt lat="44.24418211488697" lon="8.247161436285863"><ele>950.0</ele><time>2026-04-04T09:51:28.002Z</time></trkpt><trkpt lat="44.24421351497337" lon="8.247373922125483"><ele>950.0</ele><time>2026-04-04T09:51:29.002Z</time></trkpt><trkpt lat="44.244242138777565" lon="8.247582016798333"><ele>950.25</ele><time>2026-04-04T09:51:30.002Z</time></trkpt><trkpt lat="44.24427592840246" lon="8.247785616445404"><ele>950.5</ele><time>2026-04-04T09:51:30.999Z</time></trkpt><trkpt lat="44.24431882844582" lon="8.247984177242795"><ele>950.75</ele><time>2026-04-04T09:51:31.999Z</time></trkpt><trkpt lat="44.24437427848231" lon="8.248173003203462"><ele>951.0</ele><time>2026-04-04T09:51:32.999Z</time></trkpt><trkpt lat="44.244442523238945" lon="8.248336419313056"><ele>951.3333333333333</ele><time>2026-04-04T09:51:33.999Z</time></trkpt><trkpt lat="44.24454089682248" lon="8.24848200508893"><ele>951.6666666666666</ele><time>2026-04-04T09:51:34.999Z</time></trkpt><trkpt lat="44.24466693456834" lon="8.248597876658645"><ele>952.0</ele><time>2026-04-04T09:51:35.999Z</time></trkpt><trkpt lat="44.244809074819514" lon="8.24870879353217"><ele>952.0</ele><time>2026-04-04T09:51:36.999Z</time></trkpt><trkpt lat="44.24495327839217" lon="8.248822034990638"><ele>952.0</ele><time>2026-04-04T09:51:37.999Z</time></trkpt><trkpt lat="44.24507580491455" lon="8.248967183704591"><ele>952.0</ele><time>2026-04-04T09:51:38.999Z</time></trkpt><trkpt lat="44.245181656986794" lon="8.24914787392109"><ele>951.6666666666666</ele><time>2026-04-04T09:51:39.999Z</time></trkpt><trkpt lat="44.245284648281064" lon="8.249338585623548"><ele>951.3333333333333</ele><time>2026-04-04T09:51:40.999Z</time></trkpt><trkpt lat="44.245386612897434" lon="8.24953120678551"><ele>951.0</ele><time>2026-04-04T09:51:41.999Z</time></trkpt><trkpt lat="44.24548744345383" lon="8.249723686078285"><ele>948.6666666666667</ele><time>2026-04-04T09:51:42.999Z</time></trkpt><trkpt lat="44.24558818238329" lon="8.249917258765064"><ele>946.3333333333334</ele><time>2026-04-04T09:51:43.999Z</time></trkpt><trkpt lat="44.245691589479556" lon="8.250105335405454"><ele>944.0</ele><time>2026-04-04T09:51:44.999Z</time></trkpt><trkpt lat="44.24578935706058" lon="8.25028278633863"><ele>946.0</ele><time>2026-04-04T09:51:45.999Z</time></trkpt><trkpt lat="44.24588087325974" lon="8.250451175298625"><ele>948.0</ele><time>2026-04-04T09:51:46.999Z</time></trkpt><trkpt lat="44.245953920327715" lon="8.250626210986546"><ele>950.0</ele><time>2026-04-04T09:51:47.999Z</time></trkpt><trkpt lat="44.24601916403091" lon="8.250804383365601"><ele>952.0</ele><time>2026-04-04T09:51:49Z</time></trkpt><trkpt lat="44.246074772936474" lon="8.250989361703988"><ele>952.0</ele><time>2026-04-04T09:51:50Z</time></trkpt><trkpt lat="44.246112276304274" lon="8.251174448314789"><ele>952.0</ele><time>2026-04-04T09:51:51Z</time></trkpt><trkpt lat="44.24614903987423" lon="8.251365374703232"><ele>952.0</ele><time>2026-04-04T09:51:52Z</time></trkpt><trkpt lat="44.246185898691024" lon="8.25153947196476"><ele>952.0</ele><time>2026-04-04T09:51:53Z</time></trkpt><trkpt lat="44.246235214123125" lon="8.251686126452071"><ele>952.5</ele><time>2026-04-04T09:51:54Z</time></trkpt><trkpt lat="44.24631132539653" lon="8.251820657005709"><ele>953.0</ele><time>2026-04-04T09:51:55Z</time></trkpt><trkpt lat="44.246408636984086" lon="8.251955989284735"><ele>953.5</ele><time>2026-04-04T09:51:56Z</time></trkpt><trkpt lat="44.24651047647936" lon="8.252094801626194"><ele>954.0</ele><time>2026-04-04T09:51:57Z</time></trkpt><trkpt lat="44.24661466916269" lon="8.252243762686218"><ele>953.5</ele><time>2026-04-04T09:51:58Z</time></trkpt><trkpt lat="44.24672018650982" lon="8.252395897513122"><ele>953.0</ele><time>2026-04-04T09:51:59Z</time></trkpt><trkpt lat="44.24681309841961" lon="8.252536700241377"><ele>952.5</ele><time>2026-04-04T09:52:00Z</time></trkpt><trkpt lat="44.24688398231107" lon="8.252675561120302"><ele>952.0</ele><time>2026-04-04T09:52:01Z</time></trkpt><trkpt lat="44.24692515671044" lon="8.25283721876767"><ele>952.0</ele><time>2026-04-04T09:52:02Z</time></trkpt><trkpt lat="44.246931484120644" lon="8.253014436631096"><ele>952.0</ele><time>2026-04-04T09:52:03Z</time></trkpt><trkpt lat="44.2469047473244" lon="8.253221939097283"><ele>952.0</ele><time>2026-04-04T09:52:04Z</time></trkpt><trkpt lat="44.24687843290248" lon="8.253434406101263"><ele>952.0</ele><time>2026-04-04T09:52:05Z</time></trkpt><trkpt lat="44.246849587464276" lon="8.253655288507481"><ele>950.6666666666666</ele><time>2026-04-04T09:52:06Z</time></trkpt><trkpt lat="44.24682533400902" lon="8.253887930883147"><ele>949.3333333333333</ele><time>2026-04-04T09:52:07Z</time></trkpt><trkpt lat="44.24680549889276" lon="8.254113843280756"><ele>948.0</ele><time>2026-04-04T09:52:08Z</time></trkpt><trkpt lat="44.24678816177122" lon="8.254304946325524"><ele>948.0</ele><time>2026-04-04T09:52:09Z</time></trkpt><trkpt lat="44.246784400000735" lon="8.254455526412867"><ele>948.0</ele><time>2026-04-04T09:52:10Z</time></trkpt><trkpt lat="44.24682332835009" lon="8.254582282721811"><ele>948.0</ele><time>2026-04-04T09:52:11Z</time></trkpt><trkpt lat="44.246903823687816" lon="8.254693781956266"><ele>948.0</ele><time>2026-04-04T09:52:12Z</time></trkpt><trkpt lat="44.24699200223227" lon="8.254808957140574"><ele>948.0</ele><time>2026-04-04T09:52:13Z</time></trkpt><trkpt lat="44.247057721445984" lon="8.25493680576124"><ele>947.0</ele><time>2026-04-04T09:52:14Z</time></trkpt><trkpt lat="44.247113268752756" lon="8.255086929222465"><ele>946.0</ele><time>2026-04-04T09:52:15Z</time></trkpt><trkpt lat="44.24708784167372" lon="8.255266898582983"><ele>945.0</ele><time>2026-04-04T09:52:16Z</time></trkpt><trkpt lat="44.247071953916326" lon="8.25544996071134"><ele>944.0</ele><time>2026-04-04T09:52:17Z</time></trkpt><trkpt lat="44.24702677281912" lon="8.25562791882293"><ele>943.5</ele><time>2026-04-04T09:52:18Z</time></trkpt><trkpt lat="44.24697735131547" lon="8.255805691914436"><ele>943.0</ele><time>2026-04-04T09:52:19Z</time></trkpt><trkpt lat="44.24692912046324" lon="8.255980238603039"><ele>942.5</ele><time>2026-04-04T09:52:20Z</time></trkpt><trkpt lat="44.2468993366981" lon="8.256150077193926"><ele>942.0</ele><time>2026-04-04T09:52:21Z</time></trkpt><trkpt lat="44.246857213779585" lon="8.256325463916507"><ele>942.0</ele><time>2026-04-04T09:52:22Z</time></trkpt><trkpt lat="44.24685122565237" lon="8.256507757709723"><ele>942.0</ele><time>2026-04-04T09:52:23.001Z</time></trkpt><trkpt lat="44.24685541938764" lon="8.256687849211625"><ele>942.0</ele><time>2026-04-04T09:52:24.001Z</time></trkpt><trkpt lat="44.246862801748044" lon="8.256872411997655"><ele>942.0</ele><time>2026-04-04T09:52:25.001Z</time></trkpt><trkpt lat="44.2468733977909" lon="8.257070511850706"><ele>942.0</ele><time>2026-04-04T09:52:26.001Z</time></trkpt><trkpt lat="44.246878588615175" lon="8.257270655939498"><ele>942.0</ele><time>2026-04-04T09:52:27.001Z</time></trkpt><trkpt lat="44.24689342931687" lon="8.257479925703882"><ele>942.0</ele><time>2026-04-04T09:52:28.001Z</time></trkpt><trkpt lat="44.24691140358927" lon="8.25768682283628"><ele>942.0</ele><time>2026-04-04T09:52:29.001Z</time></trkpt><trkpt lat="44.2469365248802" lon="8.257893679196183"><ele>941.0</ele><time>2026-04-04T09:52:30.001Z</time></trkpt><trkpt lat="44.2469855441065" lon="8.258109187304175"><ele>940.0</ele><time>2026-04-04T09:52:31.001Z</time></trkpt><trkpt lat="44.2470440826849" lon="8.258326263232671"><ele>939.0</ele><time>2026-04-04T09:52:32.001Z</time></trkpt><trkpt lat="44.2471060690808" lon="8.258550014754784"><ele>937.0</ele><time>2026-04-04T09:52:33.001Z</time></trkpt><trkpt lat="44.24714724905702" lon="8.258778598020621"><ele>935.0</ele><time>2026-04-04T09:52:34.001Z</time></trkpt><trkpt lat="44.24719747495223" lon="8.259002818437406"><ele>933.0</ele><time>2026-04-04T09:52:35.001Z</time></trkpt><trkpt lat="44.247238862894164" lon="8.259223021486667"><ele>931.0</ele><time>2026-04-04T09:52:36.001Z</time></trkpt><trkpt lat="44.247256780040914" lon="8.259453099300465"><ele>929.0</ele><time>2026-04-04T09:52:37.001Z</time></trkpt><trkpt lat="44.24726802546125" lon="8.259699014727781"><ele>927.0</ele><time>2026-04-04T09:52:38.001Z</time></trkpt><trkpt lat="44.247282317836365" lon="8.259936087146945"><ele>934.0</ele><time>2026-04-04T09:52:39.001Z</time></trkpt><trkpt lat="44.247310732417745" lon="8.260171978329481"><ele>941.0</ele><time>2026-04-04T09:52:40.001Z</time></trkpt><trkpt lat="44.24733531163835" lon="8.260397413113935"><ele>948.0</ele><time>2026-04-04T09:52:41.001Z</time></trkpt><trkpt lat="44.247387466220516" lon="8.260596042289992"><ele>947.0</ele><time>2026-04-04T09:52:42.001Z</time></trkpt><trkpt lat="44.247422688476284" lon="8.260788544596677"><ele>946.0</ele><time>2026-04-04T09:52:43.001Z</time></trkpt><trkpt lat="44.24744248919531" lon="8.260962225790047"><ele>945.0</ele><time>2026-04-04T09:52:44.001Z</time></trkpt><trkpt lat="44.24744650078754" lon="8.261124674737566"><ele>944.0</ele><time>2026-04-04T09:52:45.001Z</time></trkpt><trkpt lat="44.24741510436142" lon="8.261300301216682"><ele>943.75</ele><time>2026-04-04T09:52:46.001Z</time></trkpt><trkpt lat="44.24736152436549" lon="8.261475950128562"><ele>943.5</ele><time>2026-04-04T09:52:47.001Z</time></trkpt><trkpt lat="44.24731839545359" lon="8.261657302608937"><ele>943.25</ele><time>2026-04-04T09:52:48.001Z</time></trkpt><trkpt lat="44.24727489245705" lon="8.2618430051693"><ele>943.0</ele><time>2026-04-04T09:52:49.001Z</time></trkpt><trkpt lat="44.24722318720098" lon="8.262030125378228"><ele>939.75</ele><time>2026-04-04T09:52:50.001Z</time></trkpt><trkpt lat="44.24715308670156" lon="8.262198582430266"><ele>936.5</ele><time>2026-04-04T09:52:51.001Z</time></trkpt><trkpt lat="44.247053834441466" lon="8.262344759468423"><ele>933.25</ele><time>2026-04-04T09:52:52.001Z</time></trkpt><trkpt lat="44.246979692835254" lon="8.262501010502394"><ele>930.0</ele><time>2026-04-04T09:52:53.001Z</time></trkpt><trkpt lat="44.24689112969336" lon="8.26263572895787"><ele>930.0</ele><time>2026-04-04T09:52:54.001Z</time></trkpt><trkpt lat="44.24680973610321" lon="8.262769765032271"><ele>930.0</ele><time>2026-04-04T09:52:55.001Z</time></trkpt><trkpt lat="44.24672322427659" lon="8.26291589614943"><ele>930.0</ele><time>2026-04-04T09:52:56.001Z</time></trkpt><trkpt lat="44.2466360446222" lon="8.263058408137782"><ele>930.0</ele><time>2026-04-04T09:52:57.001Z</time></trkpt><trkpt lat="44.24655165315637" lon="8.263207415924223"><ele>933.25</ele><time>2026-04-04T09:52:58.001Z</time></trkpt><trkpt lat="44.246464564682796" lon="8.263348108347108"><ele>936.5</ele><time>2026-04-04T09:52:59.001Z</time></trkpt><trkpt lat="44.24639499966023" lon="8.26351580465597"><ele>939.75</ele><time>2026-04-04T09:53:00.001Z</time></trkpt><trkpt lat="44.246328475997736" lon="8.263686037012771"><ele>943.0</ele><time>2026-04-04T09:53:01.001Z</time></trkpt><trkpt lat="44.246278009307005" lon="8.263864537537865"><ele>938.75</ele><time>2026-04-04T09:53:02.001Z</time></trkpt><trkpt lat="44.246217089528855" lon="8.264026681894013"><ele>934.5</ele><time>2026-04-04T09:53:03.002Z</time></trkpt><trkpt lat="44.24615119537917" lon="8.264175510921989"><ele>930.25</ele><time>2026-04-04T09:53:04.002Z</time></trkpt><trkpt lat="44.24607949484647" lon="8.264344065437744"><ele>926.0</ele><time>2026-04-04T09:53:05.002Z</time></trkpt><trkpt lat="44.24601350826106" lon="8.264494932012107"><ele>926.0</ele><time>2026-04-04T09:53:06.002Z</time></trkpt><trkpt lat="44.24594949968233" lon="8.264670045048556"><ele>926.0</ele><time>2026-04-04T09:53:07.002Z</time></trkpt><trkpt lat="44.24588140349316" lon="8.26483449064235"><ele>926.0</ele><time>2026-04-04T09:53:08.002Z</time></trkpt><trkpt lat="44.245818179506934" lon="8.264999258056402"><ele>926.0</ele><time>2026-04-04T09:53:09.002Z</time></trkpt><trkpt lat="44.24574700316235" lon="8.26515251275428"><ele>928.25</ele><time>2026-04-04T09:53:10.002Z</time></trkpt><trkpt lat="44.24567461910968" lon="8.265294342487264"><ele>930.5</ele><time>2026-04-04T09:53:11.002Z</time></trkpt><trkpt lat="44.245606762144504" lon="8.26543530456719"><ele>932.75</ele><time>2026-04-04T09:53:12.002Z</time></trkpt><trkpt lat="44.24554803918501" lon="8.265562243025368"><ele>935.0</ele><time>2026-04-04T09:53:13.002Z</time></trkpt><trkpt lat="44.24550190412892" lon="8.265690202936206"><ele>927.0</ele><time>2026-04-04T09:53:14.002Z</time></trkpt><trkpt lat="44.245506548543396" lon="8.26586225371143"><ele>919.0</ele><time>2026-04-04T09:53:15.002Z</time></trkpt><trkpt lat="44.24550275237552" lon="8.266036389707596"><ele>911.0</ele><time>2026-04-04T09:53:16.002Z</time></trkpt><trkpt lat="44.24550948023125" lon="8.26621616199257"><ele>903.0</ele><time>2026-04-04T09:53:17.002Z</time></trkpt><trkpt lat="44.24550116153315" lon="8.26639433654428"><ele>905.5</ele><time>2026-04-04T09:53:18.002Z</time></trkpt><trkpt lat="44.24544929406572" lon="8.266551138772837"><ele>908.0</ele><time>2026-04-04T09:53:19.002Z</time></trkpt><trkpt lat="44.245389616742834" lon="8.266701723358015"><ele>910.5</ele><time>2026-04-04T09:53:20.002Z</time></trkpt><trkpt lat="44.24532151165753" lon="8.266851176649656"><ele>913.0</ele><time>2026-04-04T09:53:21.002Z</time></trkpt><trkpt lat="44.24525889120824" lon="8.267005634066981"><ele>913.0</ele><time>2026-04-04T09:53:22.002Z</time></trkpt><trkpt lat="44.24519119439568" lon="8.267173177108749"><ele>913.0</ele><time>2026-04-04T09:53:23.002Z</time></trkpt><trkpt lat="44.24514078812628" lon="8.267320752451587"><ele>913.0</ele><time>2026-04-04T09:53:24.002Z</time></trkpt><trkpt lat="44.24507577773896" lon="8.26745014977165"><ele>913.0</ele><time>2026-04-04T09:53:25.002Z</time></trkpt><trkpt lat="44.244990299290585" lon="8.267565591053643"><ele>914.0</ele><time>2026-04-04T09:53:26.002Z</time></trkpt><trkpt lat="44.244888551264644" lon="8.267650193320604"><ele>915.0</ele><time>2026-04-04T09:53:27.002Z</time></trkpt><trkpt lat="44.24477257142565" lon="8.267666628692622"><ele>916.0</ele><time>2026-04-04T09:53:28.002Z</time></trkpt><trkpt lat="44.244665232434336" lon="8.267702520774899"><ele>917.0</ele><time>2026-04-04T09:53:29.002Z</time></trkpt><trkpt lat="44.244569729965946" lon="8.267742985789374"><ele>918.0</ele><time>2026-04-04T09:53:30.002Z</time></trkpt><trkpt lat="44.24447514566469" lon="8.267824668598177"><ele>914.0</ele><time>2026-04-04T09:53:31.002Z</time></trkpt><trkpt lat="44.244389491333514" lon="8.26793626684574"><ele>910.0</ele><time>2026-04-04T09:53:32.002Z</time></trkpt><trkpt lat="44.2443030747527" lon="8.268057406076537"><ele>906.0</ele><time>2026-04-04T09:53:33.002Z</time></trkpt><trkpt lat="44.244229466787665" lon="8.268190588551832"><ele>902.0</ele><time>2026-04-04T09:53:34.002Z</time></trkpt><trkpt lat="44.244172350107846" lon="8.268340436424849"><ele>902.0</ele><time>2026-04-04T09:53:35.002Z</time></trkpt><trkpt lat="44.24412941531034" lon="8.268509075496334"><ele>902.0</ele><time>2026-04-04T09:53:36.002Z</time></trkpt><trkpt lat="44.24407241615105" lon="8.268668804926927"><ele>902.0</ele><time>2026-04-04T09:53:36.999Z</time></trkpt><trkpt lat="44.24400404823695" lon="8.268827084703869"><ele>902.0</ele><time>2026-04-04T09:53:37.999Z</time></trkpt><trkpt lat="44.243925795189035" lon="8.2689809046083"><ele>895.25</ele><time>2026-04-04T09:53:38.999Z</time></trkpt><trkpt lat="44.243835496247684" lon="8.26913616134092"><ele>888.5</ele><time>2026-04-04T09:53:39.999Z</time></trkpt><trkpt lat="44.24376777896104" lon="8.269290965425588"><ele>881.75</ele><time>2026-04-04T09:53:40.999Z</time></trkpt><trkpt lat="44.24370365326307" lon="8.269438724769808"><ele>875.0</ele><time>2026-04-04T09:53:41.999Z</time></trkpt><trkpt lat="44.24362027421413" lon="8.269566162526283"><ele>875.0</ele><time>2026-04-04T09:53:42.999Z</time></trkpt><trkpt lat="44.24351876548922" lon="8.269679670783328"><ele>875.0</ele><time>2026-04-04T09:53:43.999Z</time></trkpt><trkpt lat="44.24340772510723" lon="8.269785039640968"><ele>875.0</ele><time>2026-04-04T09:53:44.999Z</time></trkpt><trkpt lat="44.243305607484984" lon="8.2698857533648"><ele>875.0</ele><time>2026-04-04T09:53:45.999Z</time></trkpt><trkpt lat="44.24318409929219" lon="8.270008696387197"><ele>873.25</ele><time>2026-04-04T09:53:46.999Z</time></trkpt><trkpt lat="44.2430727923726" lon="8.27013685968997"><ele>871.5</ele><time>2026-04-04T09:53:47.999Z</time></trkpt><trkpt lat="44.242966032452806" lon="8.27027882644459"><ele>869.75</ele><time>2026-04-04T09:53:48.999Z</time></trkpt><trkpt lat="44.242882518042286" lon="8.27039459201913"><ele>868.0</ele><time>2026-04-04T09:53:50Z</time></trkpt><trkpt lat="44.2427874622566" lon="8.270520182508648"><ele>873.0</ele><time>2026-04-04T09:53:51Z</time></trkpt><trkpt lat="44.24269135760245" lon="8.270644456149697"><ele>878.0</ele><time>2026-04-04T09:53:52Z</time></trkpt><trkpt lat="44.242594834499805" lon="8.270754752492325"><ele>883.0</ele><time>2026-04-04T09:53:53Z</time></trkpt><trkpt lat="44.24249998466937" lon="8.270838785507268"><ele>888.0</ele><time>2026-04-04T09:53:54Z</time></trkpt><trkpt lat="44.24238506996219" lon="8.270863116125268"><ele>884.25</ele><time>2026-04-04T09:53:55Z</time></trkpt><trkpt lat="44.24227070215819" lon="8.270905950543083"><ele>880.5</ele><time>2026-04-04T09:53:56Z</time></trkpt><trkpt lat="44.24215324697543" lon="8.270922615845512"><ele>876.75</ele><time>2026-04-04T09:53:57Z</time></trkpt><trkpt lat="44.24204035252417" lon="8.270947358520525"><ele>873.0</ele><time>2026-04-04T09:53:58Z</time></trkpt><trkpt lat="44.241930931166245" lon="8.270982213355659"><ele>873.0</ele><time>2026-04-04T09:53:59Z</time></trkpt><trkpt lat="44.24182101968803" lon="8.271034039556621"><ele>873.0</ele><time>2026-04-04T09:54:00Z</time></trkpt><trkpt lat="44.24171387115961" lon="8.271108640998118"><ele>873.0</ele><time>2026-04-04T09:54:01Z</time></trkpt><trkpt lat="44.24161831508055" lon="8.271227082142206"><ele>873.0</ele><time>2026-04-04T09:54:02Z</time></trkpt><trkpt lat="44.241537174985204" lon="8.271358445092606"><ele>871.25</ele><time>2026-04-04T09:54:03Z</time></trkpt><trkpt lat="44.241440178322094" lon="8.271427517658548"><ele>869.5</ele><time>2026-04-04T09:54:04Z</time></trkpt><trkpt lat="44.2413333348963" lon="8.271517655805964"><ele>867.75</ele><time>2026-04-04T09:54:05Z</time></trkpt><trkpt lat="44.24124205316328" lon="8.271645558856715"><ele>866.0</ele><time>2026-04-04T09:54:06Z</time></trkpt><trkpt lat="44.24115276990812" lon="8.271781707255748"><ele>866.0</ele><time>2026-04-04T09:54:07Z</time></trkpt><trkpt lat="44.24106786930059" lon="8.271918057775755"><ele>866.0</ele><time>2026-04-04T09:54:08Z</time></trkpt><trkpt lat="44.240981136165736" lon="8.272058588768086"><ele>866.0</ele><time>2026-04-04T09:54:09Z</time></trkpt><trkpt lat="44.240888626487695" lon="8.272201833001942"><ele>866.0</ele><time>2026-04-04T09:54:10Z</time></trkpt><trkpt lat="44.24078006037075" lon="8.272312876175627"><ele>864.0</ele><time>2026-04-04T09:54:11Z</time></trkpt><trkpt lat="44.2406732034277" lon="8.272426306873678"><ele>862.0</ele><time>2026-04-04T09:54:12Z</time></trkpt><trkpt lat="44.24056932290689" lon="8.272537135620809"><ele>860.0</ele><time>2026-04-04T09:54:13Z</time></trkpt><trkpt lat="44.240472230846535" lon="8.27264560662902"><ele>858.0</ele><time>2026-04-04T09:54:14Z</time></trkpt><trkpt lat="44.24037135267908" lon="8.272756628640645"><ele>858.0</ele><time>2026-04-04T09:54:15Z</time></trkpt><trkpt lat="44.24027525730918" lon="8.272869634416171"><ele>858.0</ele><time>2026-04-04T09:54:16Z</time></trkpt><trkpt lat="44.24017472406911" lon="8.272956491371598"><ele>858.0</ele><time>2026-04-04T09:54:17Z</time></trkpt><trkpt lat="44.24008825995031" lon="8.273048981230113"><ele>858.0</ele><time>2026-04-04T09:54:18Z</time></trkpt><trkpt lat="44.24000847535187" lon="8.273142318608627"><ele>860.5999999999999</ele><time>2026-04-04T09:54:19.001Z</time></trkpt><trkpt lat="44.23993424211989" lon="8.273229693689432"><ele>863.1999999999999</ele><time>2026-04-04T09:54:20.001Z</time></trkpt><trkpt lat="44.23986397858656" lon="8.27332191245874"><ele>865.8</ele><time>2026-04-04T09:54:21.001Z</time></trkpt><trkpt lat="44.2397829486044" lon="8.273430561793413"><ele>868.4</ele><time>2026-04-04T09:54:22.001Z</time></trkpt><trkpt lat="44.239726123745164" lon="8.273564584342607"><ele>871.0</ele><time>2026-04-04T09:54:23.001Z</time></trkpt><trkpt lat="44.239662352223036" lon="8.273705758743386"><ele>866.25</ele><time>2026-04-04T09:54:24.001Z</time></trkpt><trkpt lat="44.23958585310526" lon="8.273841294303612"><ele>861.5</ele><time>2026-04-04T09:54:25.001Z</time></trkpt><trkpt lat="44.239504132329316" lon="8.273967177794102"><ele>856.75</ele><time>2026-04-04T09:54:26.001Z</time></trkpt><trkpt lat="44.23942048853589" lon="8.274091553557831"><ele>852.0</ele><time>2026-04-04T09:54:27.001Z</time></trkpt><trkpt lat="44.23934226929849" lon="8.274218340856612"><ele>852.0</ele><time>2026-04-04T09:54:28.001Z</time></trkpt><trkpt lat="44.23924563617072" lon="8.274354729484857"><ele>852.0</ele><time>2026-04-04T09:54:29.001Z</time></trkpt><trkpt lat="44.23917801841026" lon="8.274476354726971"><ele>852.0</ele><time>2026-04-04T09:54:30.001Z</time></trkpt><trkpt lat="44.23911750079133" lon="8.27459023816978"><ele>852.0</ele><time>2026-04-04T09:54:31.001Z</time></trkpt><trkpt lat="44.23905440663368" lon="8.274698816957695"><ele>852.0</ele><time>2026-04-04T09:54:32.001Z</time></trkpt><trkpt lat="44.23899805109271" lon="8.274808389393423"><ele>849.1666666666666</ele><time>2026-04-04T09:54:33.001Z</time></trkpt><trkpt lat="44.238941975834344" lon="8.274901802855089"><ele>846.3333333333333</ele><time>2026-04-04T09:54:34.001Z</time></trkpt><trkpt lat="44.23888431748993" lon="8.274993846684675"><ele>843.5</ele><time>2026-04-04T09:54:35.001Z</time></trkpt><trkpt lat="44.23882059157146" lon="8.27507902617582"><ele>840.6666666666666</ele><time>2026-04-04T09:54:36.001Z</time></trkpt><trkpt lat="44.23875397716466" lon="8.27515257387231"><ele>837.8333333333333</ele><time>2026-04-04T09:54:37.001Z</time></trkpt><trkpt lat="44.23868778890345" lon="8.275214347542574"><ele>835.0</ele><time>2026-04-04T09:54:38.001Z</time></trkpt><trkpt lat="44.238623888096" lon="8.275294425962125"><ele>835.0</ele><time>2026-04-04T09:54:39.001Z</time></trkpt><trkpt lat="44.23856427912129" lon="8.275360618934357"><ele>835.0</ele><time>2026-04-04T09:54:40.001Z</time></trkpt><trkpt lat="44.23849836247326" lon="8.275451207008897"><ele>835.0</ele><time>2026-04-04T09:54:42.001Z</time></trkpt><trkpt lat="44.238441308544125" lon="8.275516912519329"><ele>835.0</ele><time>2026-04-04T09:54:45.001Z</time></trkpt><trkpt lat="44.23840955943885" lon="8.2756504160071"><ele>835.0</ele><time>2026-04-04T09:55:17.002Z</time></trkpt><trkpt lat="44.23832117404803" lon="8.275801060140909"><ele>836.4</ele><time>2026-04-04T09:55:19.002Z</time></trkpt><trkpt lat="44.238243648534294" lon="8.275929159551968"><ele>837.8</ele><time>2026-04-04T09:55:20.002Z</time></trkpt><trkpt lat="44.238215588182065" lon="8.276089592817929"><ele>839.2</ele><time>2026-04-04T09:55:21.002Z</time></trkpt><trkpt lat="44.23816342096946" lon="8.276195232711016"><ele>840.6</ele><time>2026-04-04T09:55:22.002Z</time></trkpt><trkpt lat="44.23813694963322" lon="8.276290659450252"><ele>842.0</ele><time>2026-04-04T09:55:23.002Z</time></trkpt><trkpt lat="44.238140163201294" lon="8.27639256400522"><ele>839.6</ele><time>2026-04-04T09:55:24.002Z</time></trkpt><trkpt lat="44.23818741616571" lon="8.276478391194402"><ele>837.2</ele><time>2026-04-04T09:55:25.002Z</time></trkpt><trkpt lat="44.23827505405377" lon="8.276529123307695"><ele>834.8</ele><time>2026-04-04T09:55:26.002Z</time></trkpt><trkpt lat="44.238382056080276" lon="8.276543022092302"><ele>832.4</ele><time>2026-04-04T09:55:27.002Z</time></trkpt><trkpt lat="44.23851254224764" lon="8.276533147591287"><ele>830.0</ele><time>2026-04-04T09:55:28.002Z</time></trkpt><trkpt lat="44.23867287253609" lon="8.276541949738961"><ele>830.0</ele><time>2026-04-04T09:55:29.002Z</time></trkpt><trkpt lat="44.23880112981399" lon="8.276545579390024"><ele>830.0</ele><time>2026-04-04T09:55:30.002Z</time></trkpt><trkpt lat="44.23892135963106" lon="8.27654507777953"><ele>830.0</ele><time>2026-04-04T09:55:31.002Z</time></trkpt><trkpt lat="44.23904395011917" lon="8.276534159373828"><ele>830.0</ele><time>2026-04-04T09:55:32.003Z</time></trkpt><trkpt lat="44.23916922494479" lon="8.276549293625282"><ele>831.75</ele><time>2026-04-04T09:55:33.003Z</time></trkpt><trkpt lat="44.2392810931378" lon="8.276591999388126"><ele>833.5</ele><time>2026-04-04T09:55:34.003Z</time></trkpt><trkpt lat="44.23938595587509" lon="8.276637285993091"><ele>835.25</ele><time>2026-04-04T09:55:35.003Z</time></trkpt><trkpt lat="44.23949583038759" lon="8.276735687091012"><ele>837.0</ele><time>2026-04-04T09:55:36.003Z</time></trkpt><trkpt lat="44.239638975348285" lon="8.276847815049122"><ele>837.0</ele><time>2026-04-04T09:55:37.003Z</time></trkpt><trkpt lat="44.23973242597476" lon="8.276957176294346"><ele>837.0</ele><time>2026-04-04T09:55:38.003Z</time></trkpt><trkpt lat="44.23980611731095" lon="8.277078957077997"><ele>837.0</ele><time>2026-04-04T09:55:39.003Z</time></trkpt><trkpt lat="44.2398676059128" lon="8.277268084037326"><ele>837.0</ele><time>2026-04-04T09:55:40.003Z</time></trkpt><trkpt lat="44.23989547049165" lon="8.277469987997815"><ele>835.0</ele><time>2026-04-04T09:55:41.003Z</time></trkpt><trkpt lat="44.24002263445059" lon="8.277604220298274"><ele>833.0</ele><time>2026-04-04T09:55:42.003Z</time></trkpt><trkpt lat="44.240111100031626" lon="8.277706199941301"><ele>831.0</ele><time>2026-04-04T09:55:43Z</time></trkpt><trkpt lat="44.2401653293691" lon="8.277785622806041"><ele>829.0</ele><time>2026-04-04T09:55:44Z</time></trkpt><trkpt lat="44.240206636954845" lon="8.27787192497648"><ele>827.0</ele><time>2026-04-04T09:55:46Z</time></trkpt><trkpt lat="44.240343801608056" lon="8.277902405352304"><ele>827.0</ele><time>2026-04-04T09:56:52.002Z</time></trkpt><trkpt lat="44.24027071805628" lon="8.27790597800707"><ele>827.0</ele><time>2026-04-04T09:57:21.002Z</time></trkpt><trkpt lat="44.240300550180855" lon="8.278010969610882"><ele>827.0</ele><time>2026-04-04T09:57:37.003Z</time></trkpt><trkpt lat="44.24035442098118" lon="8.278156838362891"><ele>827.0</ele><time>2026-04-04T09:57:38.003Z</time></trkpt><trkpt lat="44.24046247694914" lon="8.27824348315286"><ele>827.0</ele><time>2026-04-04T09:57:39.003Z</time></trkpt><trkpt lat="44.240606607570356" lon="8.278362070728358"><ele>827.6666666666667</ele><time>2026-04-04T09:57:40.003Z</time></trkpt><trkpt lat="44.24069750227582" lon="8.278532859305578"><ele>828.3333333333333</ele><time>2026-04-04T09:57:41.003Z</time></trkpt><trkpt lat="44.24079896547786" lon="8.27872502161197"><ele>829.0</ele><time>2026-04-04T09:57:42.003Z</time></trkpt><trkpt lat="44.24088909949574" lon="8.278878628883415"><ele>824.75</ele><time>2026-04-04T09:57:43.003Z</time></trkpt><trkpt lat="44.24097728008359" lon="8.27902824742661"><ele>820.5</ele><time>2026-04-04T09:57:44.003Z</time></trkpt><trkpt lat="44.24103000644497" lon="8.279142794121853"><ele>816.25</ele><time>2026-04-04T09:57:45.003Z</time></trkpt><trkpt lat="44.24099056590939" lon="8.27928522767981"><ele>812.0</ele><time>2026-04-04T09:57:46.003Z</time></trkpt><trkpt lat="44.24096112994273" lon="8.279443739178875"><ele>812.0</ele><time>2026-04-04T09:57:47.003Z</time></trkpt><trkpt lat="44.24094066726797" lon="8.279599460829182"><ele>812.0</ele><time>2026-04-04T09:57:48.003Z</time></trkpt><trkpt lat="44.240905418159244" lon="8.279785231239774"><ele>812.0</ele><time>2026-04-04T09:57:49.001Z</time></trkpt><trkpt lat="44.240829707989384" lon="8.279994522912128"><ele>812.0</ele><time>2026-04-04T09:57:50.001Z</time></trkpt><trkpt lat="44.240806741191555" lon="8.280152680314714"><ele>810.4000000000001</ele><time>2026-04-04T09:57:51.001Z</time></trkpt><trkpt lat="44.240771540313304" lon="8.280261233904673"><ele>808.8000000000001</ele><time>2026-04-04T09:57:52.001Z</time></trkpt><trkpt lat="44.24076685632326" lon="8.280371029141266"><ele>807.2</ele><time>2026-04-04T09:57:53.001Z</time></trkpt><trkpt lat="44.24081018362724" lon="8.280459630026778"><ele>805.6</ele><time>2026-04-04T09:57:54.001Z</time></trkpt><trkpt lat="44.24092139930416" lon="8.280492889950782"><ele>804.0</ele><time>2026-04-04T09:57:55.001Z</time></trkpt><trkpt lat="44.24107365660494" lon="8.28051889836696"><ele>804.0</ele><time>2026-04-04T09:57:56.001Z</time></trkpt><trkpt lat="44.241229777436686" lon="8.280552538333092"><ele>804.0</ele><time>2026-04-04T09:57:57.001Z</time></trkpt><trkpt lat="44.2413803122063" lon="8.28061522486585"><ele>804.0</ele><time>2026-04-04T09:57:58.001Z</time></trkpt><trkpt lat="44.24151820497435" lon="8.2807394215346"><ele>802.75</ele><time>2026-04-04T09:57:59.001Z</time></trkpt><trkpt lat="44.24162752174482" lon="8.280887147884412"><ele>801.5</ele><time>2026-04-04T09:58:00.001Z</time></trkpt><trkpt lat="44.24174862903698" lon="8.28094571326564"><ele>800.25</ele><time>2026-04-04T09:58:01.001Z</time></trkpt><trkpt lat="44.24190390238838" lon="8.281002650944876"><ele>799.0</ele><time>2026-04-04T09:58:02.001Z</time></trkpt><trkpt lat="44.24200086636574" lon="8.28104073108076"><ele>799.0</ele><time>2026-04-04T09:58:03.001Z</time></trkpt><trkpt lat="44.24214294191574" lon="8.281080847433497"><ele>799.0</ele><time>2026-04-04T09:58:04.001Z</time></trkpt><trkpt lat="44.24224009004441" lon="8.281085999662723"><ele>799.0</ele><time>2026-04-04T09:58:05.001Z</time></trkpt><trkpt lat="44.242358195704504" lon="8.2810708670341"><ele>799.0</ele><time>2026-04-04T09:58:06.001Z</time></trkpt><trkpt lat="44.24245968521915" lon="8.281105622095255"><ele>799.8000000000001</ele><time>2026-04-04T09:58:08.001Z</time></trkpt><trkpt lat="44.2424962720319" lon="8.281207504774606"><ele>800.6</ele><time>2026-04-04T09:58:10.001Z</time></trkpt><trkpt lat="44.24246863719648" lon="8.281295997410002"><ele>801.4</ele><time>2026-04-04T09:58:11.001Z</time></trkpt><trkpt lat="44.24238501499582" lon="8.281407129475681"><ele>802.2</ele><time>2026-04-04T09:58:12.001Z</time></trkpt><trkpt lat="44.24228331025648" lon="8.281502767329767"><ele>803.0</ele><time>2026-04-04T09:58:13.001Z</time></trkpt><trkpt lat="44.242179955122005" lon="8.281572032341924"><ele>795.25</ele><time>2026-04-04T09:58:14.001Z</time></trkpt><trkpt lat="44.24207080140594" lon="8.281670707344134"><ele>787.5</ele><time>2026-04-04T09:58:15.001Z</time></trkpt><trkpt lat="44.24193403651282" lon="8.281732926099837"><ele>779.75</ele><time>2026-04-04T09:58:16.001Z</time></trkpt><trkpt lat="44.24182806850064" lon="8.281819284708137"><ele>772.0</ele><time>2026-04-04T09:58:17.001Z</time></trkpt><trkpt lat="44.24171925838363" lon="8.281916734063106"><ele>772.0</ele><time>2026-04-04T09:58:18.001Z</time></trkpt><trkpt lat="44.24162138256812" lon="8.282016575469205"><ele>772.0</ele><time>2026-04-04T09:58:19.001Z</time></trkpt><trkpt lat="44.241531393700086" lon="8.28208861826309"><ele>772.0</ele><time>2026-04-04T09:58:20.001Z</time></trkpt><trkpt lat="44.241440027424936" lon="8.282182500533013"><ele>772.0</ele><time>2026-04-04T09:58:21.001Z</time></trkpt><trkpt lat="44.24136078820231" lon="8.282299692529596"><ele>766.25</ele><time>2026-04-04T09:58:22.001Z</time></trkpt><trkpt lat="44.241280729048" lon="8.28242420824711"><ele>760.5</ele><time>2026-04-04T09:58:23.001Z</time></trkpt><trkpt lat="44.24120858047697" lon="8.282570081749977"><ele>754.75</ele><time>2026-04-04T09:58:24.001Z</time></trkpt><trkpt lat="44.24116721374947" lon="8.282734986084018"><ele>749.0</ele><time>2026-04-04T09:58:25.001Z</time></trkpt><trkpt lat="44.24109410917077" lon="8.282898858917289"><ele>749.0</ele><time>2026-04-04T09:58:26.001Z</time></trkpt><trkpt lat="44.24100806760508" lon="8.28304289041141"><ele>749.0</ele><time>2026-04-04T09:58:27.001Z</time></trkpt><trkpt lat="44.24091482950555" lon="8.283183075841489"><ele>749.0</ele><time>2026-04-04T09:58:28.001Z</time></trkpt><trkpt lat="44.24085135483323" lon="8.283325651523475"><ele>749.0</ele><time>2026-04-04T09:58:29.001Z</time></trkpt><trkpt lat="44.24078846056148" lon="8.28345797635278"><ele>751.5</ele><time>2026-04-04T09:58:30.001Z</time></trkpt><trkpt lat="44.240694776361316" lon="8.283552391215627"><ele>754.0</ele><time>2026-04-04T09:58:31.001Z</time></trkpt><trkpt lat="44.240587320594585" lon="8.283616147618337"><ele>756.5</ele><time>2026-04-04T09:58:32.001Z</time></trkpt><trkpt lat="44.24050187013957" lon="8.28371590253715"><ele>759.0</ele><time>2026-04-04T09:58:33.001Z</time></trkpt><trkpt lat="44.24043349363713" lon="8.283829498041817"><ele>756.1666666666666</ele><time>2026-04-04T09:58:34.001Z</time></trkpt><trkpt lat="44.2403701638673" lon="8.283918234473594"><ele>753.3333333333334</ele><time>2026-04-04T09:58:35.001Z</time></trkpt><trkpt lat="44.240317720485" lon="8.284001363124672"><ele>750.5</ele><time>2026-04-04T09:58:36.001Z</time></trkpt><trkpt lat="44.24027464811702" lon="8.284091327796594"><ele>747.6666666666667</ele><time>2026-04-04T09:58:37.001Z</time></trkpt><trkpt lat="44.24021933276795" lon="8.284141196404969"><ele>744.8333333333334</ele><time>2026-04-04T09:58:38.001Z</time></trkpt><trkpt lat="44.24013192087719" lon="8.28424048150733"><ele>742.0</ele><time>2026-04-04T09:58:40.001Z</time></trkpt><trkpt lat="44.24005164494891" lon="8.284327223906313"><ele>742.0</ele><time>2026-04-04T09:58:42.001Z</time></trkpt><trkpt lat="44.24006744061398" lon="8.284464295332564"><ele>742.0</ele><time>2026-04-04T09:58:43.001Z</time></trkpt><trkpt lat="44.240002969959164" lon="8.284551737265124"><ele>742.0</ele><time>2026-04-04T09:58:45.001Z</time></trkpt><trkpt lat="44.23995906142016" lon="8.284623714922507"><ele>742.0</ele><time>2026-04-04T09:58:47.002Z</time></trkpt><trkpt lat="44.23991947727436" lon="8.284699030979255"><ele>742.0</ele><time>2026-04-04T09:58:50.002Z</time></trkpt><trkpt lat="44.23989248238615" lon="8.284798790752077"><ele>742.0</ele><time>2026-04-04T09:58:53.002Z</time></trkpt><trkpt lat="44.23985136615281" lon="8.284965566396552"><ele>740.3333333333334</ele><time>2026-04-04T09:58:55.002Z</time></trkpt><trkpt lat="44.23982249266378" lon="8.285062922142712"><ele>738.6666666666667</ele><time>2026-04-04T09:58:56.002Z</time></trkpt><trkpt lat="44.23976930816231" lon="8.285167922926032"><ele>737.0</ele><time>2026-04-04T09:58:57.002Z</time></trkpt><trkpt lat="44.23971901986717" lon="8.285278995614235"><ele>735.3333333333334</ele><time>2026-04-04T09:58:58.002Z</time></trkpt><trkpt lat="44.23967130113207" lon="8.285397061677447"><ele>733.6666666666666</ele><time>2026-04-04T09:58:59.002Z</time></trkpt><trkpt lat="44.2396363532178" lon="8.285512358434584"><ele>732.0</ele><time>2026-04-04T09:59:00.002Z</time></trkpt><trkpt lat="44.23964654198364" lon="8.285665345996813"><ele>732.0</ele><time>2026-04-04T09:59:01.002Z</time></trkpt><trkpt lat="44.23966808110222" lon="8.285815185444774"><ele>732.0</ele><time>2026-04-04T09:59:03.002Z</time></trkpt><trkpt lat="44.239707222869" lon="8.285901438321494"><ele>732.0</ele><time>2026-04-04T09:59:04.002Z</time></trkpt><trkpt lat="44.23975808656632" lon="8.28600871210774"><ele>732.0</ele><time>2026-04-04T09:59:05.002Z</time></trkpt><trkpt lat="44.23981183911204" lon="8.286154125837513"><ele>732.0</ele><time>2026-04-04T09:59:06.002Z</time></trkpt><trkpt lat="44.23985120650221" lon="8.286302593518426"><ele>743.0</ele><time>2026-04-04T09:59:07.002Z</time></trkpt><trkpt lat="44.23987454350981" lon="8.286469363696384"><ele>754.0</ele><time>2026-04-04T09:59:08.002Z</time></trkpt><trkpt lat="44.23990389229182" lon="8.286683505843941"><ele>765.0</ele><time>2026-04-04T09:59:09.002Z</time></trkpt><trkpt lat="44.23993599541796" lon="8.28693511096197"><ele>765.0</ele><time>2026-04-04T09:59:10.002Z</time></trkpt><trkpt lat="44.23996731818458" lon="8.287210171454252"><ele>765.0</ele><time>2026-04-04T09:59:11.002Z</time></trkpt><trkpt lat="44.240005349022354" lon="8.28747335997429"><ele>765.0</ele><time>2026-04-04T09:59:12.002Z</time></trkpt><trkpt lat="44.24002557279035" lon="8.287657904986702"><ele>764.8</ele><time>2026-04-04T09:59:13.002Z</time></trkpt><trkpt lat="44.240056613310514" lon="8.287808873627883"><ele>764.6</ele><time>2026-04-04T09:59:14.002Z</time></trkpt><trkpt lat="44.240082493225515" lon="8.287962635028366"><ele>764.4000000000001</ele><time>2026-04-04T09:59:15.002Z</time></trkpt><trkpt lat="44.24008360952894" lon="8.288108982262719"><ele>764.2</ele><time>2026-04-04T09:59:16.002Z</time></trkpt><trkpt lat="44.24007342872983" lon="8.288236641726606"><ele>764.0</ele><time>2026-04-04T09:59:17.002Z</time></trkpt><trkpt lat="44.24004573023562" lon="8.288382590304462"><ele>764.0</ele><time>2026-04-04T09:59:18.002Z</time></trkpt><trkpt lat="44.24001823179842" lon="8.288513727976634"><ele>764.0</ele><time>2026-04-04T09:59:19.002Z</time></trkpt><trkpt lat="44.239998754041046" lon="8.288662384142379"><ele>764.0</ele><time>2026-04-04T09:59:20.002Z</time></trkpt><trkpt lat="44.239980436634724" lon="8.288808433916675"><ele>764.0</ele><time>2026-04-04T09:59:21.002Z</time></trkpt><trkpt lat="44.23995176172384" lon="8.288964107599936"><ele>764.0</ele><time>2026-04-04T09:59:22.002Z</time></trkpt><trkpt lat="44.23993052621002" lon="8.289110715730232"><ele>764.8000000000001</ele><time>2026-04-04T09:59:23.002Z</time></trkpt><trkpt lat="44.239918732627046" lon="8.289249292868492"><ele>765.6</ele><time>2026-04-04T09:59:24.002Z</time></trkpt><trkpt lat="44.23991963443704" lon="8.289371010002275"><ele>766.4</ele><time>2026-04-04T09:59:25.002Z</time></trkpt><trkpt lat="44.23996467636936" lon="8.289496721083623"><ele>767.2</ele><time>2026-04-04T09:59:26.002Z</time></trkpt><trkpt lat="44.24001082856357" lon="8.289624039997124"><ele>768.0</ele><time>2026-04-04T09:59:27.002Z</time></trkpt><trkpt lat="44.240067952380926" lon="8.289743312509051"><ele>767.2</ele><time>2026-04-04T09:59:28.002Z</time></trkpt><trkpt lat="44.240130154287584" lon="8.289863012045139"><ele>766.4</ele><time>2026-04-04T09:59:29.002Z</time></trkpt><trkpt lat="44.24017550636303" lon="8.289996760251269"><ele>765.6</ele><time>2026-04-04T09:59:30.002Z</time></trkpt><trkpt lat="44.24018457053525" lon="8.29014636566378"><ele>764.8000000000001</ele><time>2026-04-04T09:59:31.003Z</time></trkpt><trkpt lat="44.2402106618297" lon="8.290290978706455"><ele>764.0</ele><time>2026-04-04T09:59:32.003Z</time></trkpt><trkpt lat="44.24023669937617" lon="8.290435565956587"><ele>764.0</ele><time>2026-04-04T09:59:33.003Z</time></trkpt><trkpt lat="44.2402700426772" lon="8.290568285708394"><ele>764.0</ele><time>2026-04-04T09:59:34.003Z</time></trkpt><trkpt lat="44.24030125427194" lon="8.290701967865738"><ele>764.0</ele><time>2026-04-04T09:59:35.003Z</time></trkpt><trkpt lat="44.24033164033169" lon="8.29080665196976"><ele>764.0</ele><time>2026-04-04T09:59:36.003Z</time></trkpt><trkpt lat="44.240365703963214" lon="8.290885808651623"><ele>764.0</ele><time>2026-04-04T09:59:37.003Z</time></trkpt><trkpt lat="44.24041167800785" lon="8.290964421463801"><ele>764.0</ele><time>2026-04-04T09:59:38.003Z</time></trkpt><trkpt lat="44.2404663795689" lon="8.291052547706812"><ele>763.6666666666666</ele><time>2026-04-04T09:59:39.003Z</time></trkpt><trkpt lat="44.240527666398734" lon="8.29112745491389"><ele>763.3333333333333</ele><time>2026-04-04T09:59:40.003Z</time></trkpt><trkpt lat="44.240594639403355" lon="8.291198973074172"><ele>763.0</ele><time>2026-04-04T09:59:41.003Z</time></trkpt><trkpt lat="44.240677018721875" lon="8.29124656138382"><ele>762.6666666666666</ele><time>2026-04-04T09:59:42.003Z</time></trkpt><trkpt lat="44.24076127005183" lon="8.291277999385024"><ele>762.3333333333334</ele><time>2026-04-04T09:59:43.003Z</time></trkpt><trkpt lat="44.24085247144416" lon="8.29129056952064"><ele>762.0</ele><time>2026-04-04T09:59:44.003Z</time></trkpt><trkpt lat="44.240945271531494" lon="8.29125453750396"><ele>764.8333333333334</ele><time>2026-04-04T09:59:45.003Z</time></trkpt><trkpt lat="44.24103058842607" lon="8.291178432538864"><ele>767.6666666666667</ele><time>2026-04-04T09:59:46.003Z</time></trkpt><trkpt lat="44.24110212043462" lon="8.291116051997358"><ele>770.5</ele><time>2026-04-04T09:59:47.003Z</time></trkpt><trkpt lat="44.24116394215646" lon="8.291047920011016"><ele>773.3333333333334</ele><time>2026-04-04T09:59:48.003Z</time></trkpt><trkpt lat="44.24123313735292" lon="8.29097533143021"><ele>776.1666666666667</ele><time>2026-04-04T09:59:49.003Z</time></trkpt><trkpt lat="44.241303054148844" lon="8.290903666293795"><ele>779.0</ele><time>2026-04-04T09:59:50.003Z</time></trkpt><trkpt lat="44.241414711428206" lon="8.290850486276014"><ele>777.3333333333334</ele><time>2026-04-04T09:59:51.003Z</time></trkpt><trkpt lat="44.24155132471171" lon="8.290786781299879"><ele>775.6666666666667</ele><time>2026-04-04T09:59:52.003Z</time></trkpt><trkpt lat="44.24169575280878" lon="8.2907316498822"><ele>774.0</ele><time>2026-04-04T09:59:53.003Z</time></trkpt><trkpt lat="44.24185125084862" lon="8.290708043112682"><ele>774.0</ele><time>2026-04-04T09:59:54.003Z</time></trkpt><trkpt lat="44.2419966269801" lon="8.290684159341978"><ele>774.0</ele><time>2026-04-04T09:59:55.001Z</time></trkpt><trkpt lat="44.242115001198" lon="8.290706154729492"><ele>774.0</ele><time>2026-04-04T09:59:56.001Z</time></trkpt><trkpt lat="44.242217916873926" lon="8.290670023443724"><ele>774.0</ele><time>2026-04-04T09:59:57.001Z</time></trkpt><trkpt lat="44.242314493529435" lon="8.290626130898193"><ele>779.2</ele><time>2026-04-04T09:59:58.001Z</time></trkpt><trkpt lat="44.2423928760235" lon="8.290568839418219"><ele>784.4000000000001</ele><time>2026-04-04T09:59:59.001Z</time></trkpt><trkpt lat="44.2424685732304" lon="8.290500968866674"><ele>789.6</ele><time>2026-04-04T10:00:00.001Z</time></trkpt><trkpt lat="44.24255544080025" lon="8.29041724657246"><ele>794.8</ele><time>2026-04-04T10:00:01.001Z</time></trkpt><trkpt lat="44.242605922724124" lon="8.290349573856583"><ele>800.0</ele><time>2026-04-04T10:00:02.001Z</time></trkpt><trkpt lat="44.24269945388292" lon="8.290223009458114"><ele>800.0</ele><time>2026-04-04T10:00:03.001Z</time></trkpt><trkpt lat="44.24276367694575" lon="8.29013244731572"><ele>800.0</ele><time>2026-04-04T10:00:04.001Z</time></trkpt><trkpt lat="44.242844718897615" lon="8.290059365131896"><ele>800.0</ele><time>2026-04-04T10:00:05.001Z</time></trkpt><trkpt lat="44.24292226938768" lon="8.289992102233253"><ele>800.0</ele><time>2026-04-04T10:00:06.001Z</time></trkpt><trkpt lat="44.24298775306409" lon="8.28992558056125"><ele>800.0</ele><time>2026-04-04T10:00:07.001Z</time></trkpt><trkpt lat="44.243048715499896" lon="8.289829311191184"><ele>800.4</ele><time>2026-04-04T10:00:08.001Z</time></trkpt><trkpt lat="44.24313499630585" lon="8.289740619385773"><ele>800.8</ele><time>2026-04-04T10:00:09.001Z</time></trkpt><trkpt lat="44.24321567600957" lon="8.289641382255185"><ele>801.2</ele><time>2026-04-04T10:00:10.001Z</time></trkpt><trkpt lat="44.243297040296746" lon="8.289530226676547"><ele>801.6</ele><time>2026-04-04T10:00:11.001Z</time></trkpt><trkpt lat="44.243394380786235" lon="8.289434528573114"><ele>802.0</ele><time>2026-04-04T10:00:12.001Z</time></trkpt><trkpt lat="44.24350769379377" lon="8.289283177023373"><ele>802.0</ele><time>2026-04-04T10:00:13.001Z</time></trkpt><trkpt lat="44.24361758235393" lon="8.289154768381243"><ele>802.0</ele><time>2026-04-04T10:00:14.001Z</time></trkpt><trkpt lat="44.243714139159934" lon="8.289049923153723"><ele>802.0</ele><time>2026-04-04T10:00:15.001Z</time></trkpt><trkpt lat="44.24383203394492" lon="8.288921909932013"><ele>802.0</ele><time>2026-04-04T10:00:16.001Z</time></trkpt><trkpt lat="44.24393787605603" lon="8.288806982383935"><ele>803.3333333333333</ele><time>2026-04-04T10:00:17.001Z</time></trkpt><trkpt lat="44.244069175371486" lon="8.288687989550564"><ele>804.6666666666667</ele><time>2026-04-04T10:00:18.001Z</time></trkpt><trkpt lat="44.24421813384955" lon="8.288557200961392"><ele>806.0</ele><time>2026-04-04T10:00:19.001Z</time></trkpt><trkpt lat="44.24434827394832" lon="8.288417705044258"><ele>806.0</ele><time>2026-04-04T10:00:20.001Z</time></trkpt><trkpt lat="44.2444904666898" lon="8.288303792621708"><ele>806.0</ele><time>2026-04-04T10:00:21.001Z</time></trkpt><trkpt lat="44.24462143470025" lon="8.288213261969597"><ele>806.0</ele><time>2026-04-04T10:00:22.001Z</time></trkpt><trkpt lat="44.24476503649752" lon="8.288155978683767"><ele>809.25</ele><time>2026-04-04T10:00:23.001Z</time></trkpt><trkpt lat="44.24488128602418" lon="8.288078824093743"><ele>812.5</ele><time>2026-04-04T10:00:24.001Z</time></trkpt><trkpt lat="44.245013958026256" lon="8.288013147277578"><ele>815.75</ele><time>2026-04-04T10:00:25.001Z</time></trkpt><trkpt lat="44.245140789613934" lon="8.287966412068586"><ele>819.0</ele><time>2026-04-04T10:00:26.001Z</time></trkpt><trkpt lat="44.245271441175845" lon="8.287906123731197"><ele>819.0</ele><time>2026-04-04T10:00:27.001Z</time></trkpt><trkpt lat="44.245350657344304" lon="8.287809953494572"><ele>819.0</ele><time>2026-04-04T10:00:28.001Z</time></trkpt><trkpt lat="44.2455491381104" lon="8.287669021329895"><ele>819.0</ele><time>2026-04-04T10:00:29.001Z</time></trkpt><trkpt lat="44.24565920962711" lon="8.287571731008622"><ele>821.0</ele><time>2026-04-04T10:00:30.001Z</time></trkpt><trkpt lat="44.24579927612724" lon="8.287508690067256"><ele>823.0</ele><time>2026-04-04T10:00:31.001Z</time></trkpt><trkpt lat="44.24587488080268" lon="8.287509216559277"><ele>825.0</ele><time>2026-04-04T10:00:32.001Z</time></trkpt><trkpt lat="44.245938808252255" lon="8.28742691337119"><ele>827.0</ele><time>2026-04-04T10:00:33.001Z</time></trkpt><trkpt lat="44.246021794257764" lon="8.287317251378461"><ele>829.0</ele><time>2026-04-04T10:00:34.001Z</time></trkpt><trkpt lat="44.24610891840864" lon="8.287195989882989"><ele>828.9999999999999</ele><time>2026-04-04T10:00:35.001Z</time></trkpt><trkpt lat="44.246186597218625" lon="8.28712103048464"><ele>829.0</ele><time>2026-04-04T10:00:36.001Z</time></trkpt><trkpt lat="44.24626408499326" lon="8.28708938068095"><ele>829.0</ele><time>2026-04-04T10:00:37.001Z</time></trkpt><trkpt lat="44.24634847892551" lon="8.287068780989392"><ele>829.0</ele><time>2026-04-04T10:00:38.001Z</time></trkpt><trkpt lat="44.24642343495983" lon="8.28710774532187"><ele>828.9999999999999</ele><time>2026-04-04T10:00:39.001Z</time></trkpt><trkpt lat="44.24649176663463" lon="8.28716979016561"><ele>829.0</ele><time>2026-04-04T10:00:40.001Z</time></trkpt><trkpt lat="44.24662577100726" lon="8.28727917394351"><ele>828.4999999999999</ele><time>2026-04-04T10:00:42.001Z</time></trkpt><trkpt lat="44.246709325183765" lon="8.287271277028974"><ele>828.0</ele><time>2026-04-04T10:00:43.001Z</time></trkpt><trkpt lat="44.24678635545216" lon="8.287261336219174"><ele>827.5</ele><time>2026-04-04T10:00:44.001Z</time></trkpt><trkpt lat="44.246866646993794" lon="8.287191365876772"><ele>827.0</ele><time>2026-04-04T10:00:45.001Z</time></trkpt><trkpt lat="44.24695182794113" lon="8.28718136072619"><ele>826.4999999999999</ele><time>2026-04-04T10:00:46.001Z</time></trkpt><trkpt lat="44.24702623009393" lon="8.287168118275394"><ele>826.0</ele><time>2026-04-04T10:00:47.001Z</time></trkpt><trkpt lat="44.24711851679868" lon="8.287145593718476"><ele>826.0</ele><time>2026-04-04T10:00:48.001Z</time></trkpt><trkpt lat="44.24721751956269" lon="8.287122487726245"><ele>826.0</ele><time>2026-04-04T10:00:49.001Z</time></trkpt><trkpt lat="44.24733294700807" lon="8.28710941350748"><ele>826.0</ele><time>2026-04-04T10:00:50.001Z</time></trkpt><trkpt lat="44.247443844414114" lon="8.287111259718538"><ele>826.0</ele><time>2026-04-04T10:00:51.001Z</time></trkpt><trkpt lat="44.24753346188612" lon="8.287104668168585"><ele>826.0</ele><time>2026-04-04T10:00:52.001Z</time></trkpt><trkpt lat="44.24762242269871" lon="8.287069572968951"><ele>823.0</ele><time>2026-04-04T10:00:53.001Z</time></trkpt><trkpt lat="44.2477038705375" lon="8.28697541877156"><ele>820.0</ele><time>2026-04-04T10:00:54.001Z</time></trkpt><trkpt lat="44.24774874726639" lon="8.28687619755731"><ele>817.0</ele><time>2026-04-04T10:00:55.001Z</time></trkpt><trkpt lat="44.24781867699496" lon="8.286761816630232"><ele>814.0</ele><time>2026-04-04T10:00:56.001Z</time></trkpt><trkpt lat="44.24790552740838" lon="8.286630159397138"><ele>811.0</ele><time>2026-04-04T10:00:57.001Z</time></trkpt><trkpt lat="44.24798455892099" lon="8.286507096329794"><ele>810.75</ele><time>2026-04-04T10:00:58.001Z</time></trkpt><trkpt lat="44.2480396754681" lon="8.28642352985348"><ele>810.5</ele><time>2026-04-04T10:00:59.001Z</time></trkpt><trkpt lat="44.24813853923513" lon="8.286285056465607"><ele>810.25</ele><time>2026-04-04T10:01:00.001Z</time></trkpt><trkpt lat="44.24824053260725" lon="8.286193201982387"><ele>810.0</ele><time>2026-04-04T10:01:01.001Z</time></trkpt><trkpt lat="44.24835698105413" lon="8.286110610311942"><ele>810.0</ele><time>2026-04-04T10:01:02.001Z</time></trkpt><trkpt lat="44.248464909838326" lon="8.286026445084657"><ele>810.0</ele><time>2026-04-04T10:01:03.001Z</time></trkpt><trkpt lat="44.2485652379923" lon="8.286070424016392"><ele>810.0</ele><time>2026-04-04T10:01:04.001Z</time></trkpt><trkpt lat="44.24862217487117" lon="8.286023866642678"><ele>810.0</ele><time>2026-04-04T10:01:05.001Z</time></trkpt><trkpt lat="44.24869039911207" lon="8.285936263538579"><ele>810.0</ele><time>2026-04-04T10:01:06.001Z</time></trkpt><trkpt lat="44.24873925963738" lon="8.285848319792033"><ele>810.0</ele><time>2026-04-04T10:01:07.002Z</time></trkpt><trkpt lat="44.24876317042045" lon="8.285723505322471"><ele>810.0</ele><time>2026-04-04T10:01:08.002Z</time></trkpt><trkpt lat="44.24880722507782" lon="8.285594095067504"><ele>810.0</ele><time>2026-04-04T10:01:09.002Z</time></trkpt><trkpt lat="44.24883628533704" lon="8.285478490856372"><ele>810.0</ele><time>2026-04-04T10:01:10.002Z</time></trkpt><trkpt lat="44.24887268681817" lon="8.285365311317163"><ele>810.0</ele><time>2026-04-04T10:01:11.002Z</time></trkpt><trkpt lat="44.24888314422041" lon="8.285229929278715"><ele>811.8</ele><time>2026-04-04T10:01:12.002Z</time></trkpt><trkpt lat="44.248976322520555" lon="8.285084616152613"><ele>813.6</ele><time>2026-04-04T10:01:14.002Z</time></trkpt><trkpt lat="44.2490559728296" lon="8.285043532273372"><ele>815.4000000000001</ele><time>2026-04-04T10:01:15.002Z</time></trkpt><trkpt lat="44.24913267032909" lon="8.285065465060045"><ele>817.2</ele><time>2026-04-04T10:01:16.002Z</time></trkpt><trkpt lat="44.249235309778335" lon="8.285131553535209"><ele>819.0</ele><time>2026-04-04T10:01:17.002Z</time></trkpt><trkpt lat="44.249315932278755" lon="8.285208081211957"><ele>819.0</ele><time>2026-04-04T10:01:18.002Z</time></trkpt><trkpt lat="44.24937356026385" lon="8.285310870056618"><ele>819.0</ele><time>2026-04-04T10:01:19.002Z</time></trkpt><trkpt lat="44.249323406940114" lon="8.285534670881233"><ele>819.0</ele><time>2026-04-04T10:01:20.002Z</time></trkpt><trkpt lat="44.2493517185833" lon="8.285676298795543"><ele>819.0</ele><time>2026-04-04T10:01:21.002Z</time></trkpt><trkpt lat="44.24942253088191" lon="8.285808189078509"><ele>817.4000000000001</ele><time>2026-04-04T10:01:22.002Z</time></trkpt><trkpt lat="44.249509241325526" lon="8.28590346917723"><ele>815.8</ele><time>2026-04-04T10:01:23.002Z</time></trkpt><trkpt lat="44.24960720919377" lon="8.285945369868102"><ele>814.2</ele><time>2026-04-04T10:01:24.002Z</time></trkpt><trkpt lat="44.24969274123484" lon="8.286020743586754"><ele>812.5999999999999</ele><time>2026-04-04T10:01:25.002Z</time></trkpt><trkpt lat="44.24977059091252" lon="8.286058175551887"><ele>811.0</ele><time>2026-04-04T10:01:26.002Z</time></trkpt><trkpt lat="44.24985443740342" lon="8.286038083550936"><ele>811.0</ele><time>2026-04-04T10:01:27.002Z</time></trkpt><trkpt lat="44.24995434351753" lon="8.286006039641117"><ele>811.0</ele><time>2026-04-04T10:01:28.002Z</time></trkpt><trkpt lat="44.250112605833415" lon="8.285932569763311"><ele>811.0</ele><time>2026-04-04T10:01:29.002Z</time></trkpt><trkpt lat="44.25024197370329" lon="8.285938662866785"><ele>811.0</ele><time>2026-04-04T10:01:30.002Z</time></trkpt><trkpt lat="44.250349405902206" lon="8.285943406466913"><ele>811.0</ele><time>2026-04-04T10:01:31.002Z</time></trkpt><trkpt lat="44.25046529976155" lon="8.285997346322803"><ele>811.0</ele><time>2026-04-04T10:01:33.002Z</time></trkpt><trkpt lat="44.2505148475088" lon="8.286131725622294"><ele>811.0</ele><time>2026-04-04T10:01:34.002Z</time></trkpt><trkpt lat="44.250585844951964" lon="8.286267688445339"><ele>811.0</ele><time>2026-04-04T10:01:35.002Z</time></trkpt><trkpt lat="44.25066840294158" lon="8.2863875455773"><ele>808.8</ele><time>2026-04-04T10:01:36.002Z</time></trkpt><trkpt lat="44.250746304946084" lon="8.28647453663636"><ele>806.5999999999999</ele><time>2026-04-04T10:01:37.002Z</time></trkpt><trkpt lat="44.250831744160955" lon="8.28653775689702"><ele>804.4</ele><time>2026-04-04T10:01:38.002Z</time></trkpt><trkpt lat="44.25092571863945" lon="8.286540151216789"><ele>802.2</ele><time>2026-04-04T10:01:39.002Z</time></trkpt><trkpt lat="44.251024359061425" lon="8.286559094592477"><ele>800.0</ele><time>2026-04-04T10:01:40.002Z</time></trkpt><trkpt lat="44.25113178447096" lon="8.286529964653718"><ele>800.0</ele><time>2026-04-04T10:01:41.002Z</time></trkpt><trkpt lat="44.25127295155023" lon="8.286443699037031"><ele>800.0</ele><time>2026-04-04T10:01:42.002Z</time></trkpt><trkpt lat="44.251365370016565" lon="8.286444204624157"><ele>800.0</ele><time>2026-04-04T10:01:43.002Z</time></trkpt><trkpt lat="44.251437535327675" lon="8.286494976517583"><ele>800.0</ele><time>2026-04-04T10:01:44.002Z</time></trkpt><trkpt lat="44.25151586962024" lon="8.286541176677757"><ele>800.0</ele><time>2026-04-04T10:01:45.002Z</time></trkpt><trkpt lat="44.251602897025215" lon="8.28660923644463"><ele>802.8</ele><time>2026-04-04T10:01:46.002Z</time></trkpt><trkpt lat="44.2516906628582" lon="8.286733696205802"><ele>805.6</ele><time>2026-04-04T10:01:47.002Z</time></trkpt><trkpt lat="44.25178305197342" lon="8.286833999139343"><ele>808.4000000000001</ele><time>2026-04-04T10:01:48.002Z</time></trkpt><trkpt lat="44.25187164966806" lon="8.286901174260919"><ele>811.2</ele><time>2026-04-04T10:01:49.002Z</time></trkpt><trkpt lat="44.25195843572195" lon="8.286982714288039"><ele>814.0</ele><time>2026-04-04T10:01:50.002Z</time></trkpt><trkpt lat="44.25204607060887" lon="8.287047081390059"><ele>814.0</ele><time>2026-04-04T10:01:51.002Z</time></trkpt><trkpt lat="44.252123407320155" lon="8.287096951910922"><ele>814.0</ele><time>2026-04-04T10:01:52.002Z</time></trkpt><trkpt lat="44.25224464510788" lon="8.28719936138744"><ele>814.0</ele><time>2026-04-04T10:01:54.003Z</time></trkpt><trkpt lat="44.2523336165047" lon="8.287266839455365"><ele>814.0</ele><time>2026-04-04T10:01:55.003Z</time></trkpt><trkpt lat="44.25241266701233" lon="8.287355974044031"><ele>814.0</ele><time>2026-04-04T10:01:56.003Z</time></trkpt><trkpt lat="44.25246342750445" lon="8.287485026171595"><ele>814.0</ele><time>2026-04-04T10:01:57.003Z</time></trkpt><trkpt lat="44.25251962081039" lon="8.287605676955518"><ele>814.0</ele><time>2026-04-04T10:01:58.003Z</time></trkpt><trkpt lat="44.252571531975455" lon="8.287700713492997"><ele>814.0</ele><time>2026-04-04T10:01:59.003Z</time></trkpt><trkpt lat="44.252645081583395" lon="8.287821140032516"><ele>814.0</ele><time>2026-04-04T10:02:00.003Z</time></trkpt><trkpt lat="44.252708418751844" lon="8.287924314248665"><ele>814.0</ele><time>2026-04-04T10:02:01.001Z</time></trkpt><trkpt lat="44.25278289024243" lon="8.287993484333724"><ele>814.0</ele><time>2026-04-04T10:02:02.001Z</time></trkpt><trkpt lat="44.252880232338214" lon="8.288033592051944"><ele>814.0</ele><time>2026-04-04T10:02:03.001Z</time></trkpt><trkpt lat="44.252953709380805" lon="8.288079429104886"><ele>814.0</ele><time>2026-04-04T10:02:04.001Z</time></trkpt><trkpt lat="44.25301592844951" lon="8.288137659313115"><ele>814.0</ele><time>2026-04-04T10:02:05.001Z</time></trkpt><trkpt lat="44.253123247145275" lon="8.288210654242668"><ele>814.0</ele><time>2026-04-04T10:02:07.001Z</time></trkpt><trkpt lat="44.25319963284336" lon="8.288267922161532"><ele>813.6666666666666</ele><time>2026-04-04T10:02:09.001Z</time></trkpt><trkpt lat="44.25326598704982" lon="8.288296384929499"><ele>813.3333333333333</ele><time>2026-04-04T10:02:11.001Z</time></trkpt><trkpt lat="44.253363867275624" lon="8.288311176295217"><ele>813.0</ele><time>2026-04-04T10:02:14Z</time></trkpt><trkpt lat="44.2534411442841" lon="8.288336247235002"><ele>812.6666666666667</ele><time>2026-04-04T10:02:16Z</time></trkpt><trkpt lat="44.25350557477344" lon="8.288371431007585"><ele>812.3333333333334</ele><time>2026-04-04T10:02:18.001Z</time></trkpt><trkpt lat="44.25357500377267" lon="8.288421260821325"><ele>812.0</ele><time>2026-04-04T10:02:20.001Z</time></trkpt><trkpt lat="44.25364549892619" lon="8.288459379917967"><ele>812.0</ele><time>2026-04-04T10:02:22.001Z</time></trkpt><trkpt lat="44.25375660440067" lon="8.288492576656026"><ele>812.0</ele><time>2026-04-04T10:02:24.001Z</time></trkpt><trkpt lat="44.25388393775923" lon="8.288509182086662"><ele>812.0</ele><time>2026-04-04T10:02:26.001Z</time></trkpt><trkpt lat="44.25397289425142" lon="8.288456626500276"><ele>812.0</ele><time>2026-04-04T10:02:27.001Z</time></trkpt><trkpt lat="44.25403562665751" lon="8.288423122596107"><ele>812.0</ele><time>2026-04-04T10:02:28.001Z</time></trkpt><trkpt lat="44.25409871705163" lon="8.288425332842438"><ele>811.4285714285714</ele><time>2026-04-04T10:02:29.001Z</time></trkpt><trkpt lat="44.25416498859598" lon="8.288404596894381"><ele>810.8571428571429</ele><time>2026-04-04T10:02:30.001Z</time></trkpt><trkpt lat="44.25422853430978" lon="8.288441168391829"><ele>810.2857142857142</ele><time>2026-04-04T10:02:31.001Z</time></trkpt><trkpt lat="44.254275289526035" lon="8.28853624316807"><ele>809.7142857142858</ele><time>2026-04-04T10:02:32.001Z</time></trkpt><trkpt lat="44.25430757869681" lon="8.288618274780552"><ele>809.1428571428571</ele><time>2026-04-04T10:02:33.001Z</time></trkpt><trkpt lat="44.25432722248139" lon="8.288719221904676"><ele>808.5714285714286</ele><time>2026-04-04T10:02:34.001Z</time></trkpt><trkpt lat="44.25432686889146" lon="8.288832462202"><ele>808.0</ele><time>2026-04-04T10:02:35.001Z</time></trkpt><trkpt lat="44.25433645273805" lon="8.288937981929758"><ele>808.0</ele><time>2026-04-04T10:02:36.001Z</time></trkpt><trkpt lat="44.254350745730775" lon="8.289029338125893"><ele>808.0</ele><time>2026-04-04T10:02:37.001Z</time></trkpt><trkpt lat="44.25438246898549" lon="8.289225525900617"><ele>808.0</ele><time>2026-04-04T10:02:39.001Z</time></trkpt><trkpt lat="44.25442872131618" lon="8.289297785421846"><ele>808.0</ele><time>2026-04-04T10:02:40.001Z</time></trkpt><trkpt lat="44.2544999554431" lon="8.289384276997437"><ele>808.0</ele><time>2026-04-04T10:02:41.001Z</time></trkpt><trkpt lat="44.25457258605638" lon="8.289515336799282"><ele>808.0</ele><time>2026-04-04T10:02:42.001Z</time></trkpt><trkpt lat="44.25458231970212" lon="8.289686478124285"><ele>808.0</ele><time>2026-04-04T10:02:43.001Z</time></trkpt><trkpt lat="44.254614960664505" lon="8.28989022143552"><ele>808.0</ele><time>2026-04-04T10:02:44.001Z</time></trkpt><trkpt lat="44.25464057332398" lon="8.290039000739933"><ele>808.0</ele><time>2026-04-04T10:02:45.001Z</time></trkpt><trkpt lat="44.25466767793351" lon="8.290165884290731"><ele>806.2</ele><time>2026-04-04T10:02:46.001Z</time></trkpt><trkpt lat="44.25475912639234" lon="8.290284267489403"><ele>804.4</ele><time>2026-04-04T10:02:47.001Z</time></trkpt><trkpt lat="44.25480814047197" lon="8.290405099511304"><ele>802.6</ele><time>2026-04-04T10:02:48.001Z</time></trkpt><trkpt lat="44.254809434449236" lon="8.290527216695427"><ele>800.8000000000001</ele><time>2026-04-04T10:02:49.001Z</time></trkpt><trkpt lat="44.25478488599236" lon="8.290683674609328"><ele>799.0</ele><time>2026-04-04T10:02:50.001Z</time></trkpt><trkpt lat="44.254752669991944" lon="8.290864126962246"><ele>797.6666666666666</ele><time>2026-04-04T10:02:51.001Z</time></trkpt><trkpt lat="44.25472797018178" lon="8.291083240569572"><ele>796.3333333333333</ele><time>2026-04-04T10:02:52.001Z</time></trkpt><trkpt lat="44.25472494714559" lon="8.291302709930441"><ele>795.0</ele><time>2026-04-04T10:02:53.001Z</time></trkpt><trkpt lat="44.25473450705771" lon="8.291539907187788"><ele>795.0</ele><time>2026-04-04T10:02:54.001Z</time></trkpt><trkpt lat="44.25471218571256" lon="8.291765167609327"><ele>795.0</ele><time>2026-04-04T10:02:55.001Z</time></trkpt><trkpt lat="44.25470475721339" lon="8.291960062698521"><ele>795.0</ele><time>2026-04-04T10:02:56.001Z</time></trkpt><trkpt lat="44.2547068611006" lon="8.292145122144749"><ele>795.0</ele><time>2026-04-04T10:02:57.001Z</time></trkpt><trkpt lat="44.254752876457886" lon="8.29226541965499"><ele>795.0</ele><time>2026-04-04T10:02:58.001Z</time></trkpt><trkpt lat="44.254767081736276" lon="8.292403541774846"><ele>795.0</ele><time>2026-04-04T10:02:59.001Z</time></trkpt><trkpt lat="44.254783769742346" lon="8.2925278404456"><ele>795.0</ele><time>2026-04-04T10:03:00.001Z</time></trkpt><trkpt lat="44.25480165263515" lon="8.292639757753316"><ele>795.0</ele><time>2026-04-04T10:03:01.001Z</time></trkpt><trkpt lat="44.25482305931623" lon="8.292782643744369"><ele>795.0</ele><time>2026-04-04T10:03:02.001Z</time></trkpt><trkpt lat="44.25488499120587" lon="8.292891047143325"><ele>799.0</ele><time>2026-04-04T10:03:03.001Z</time></trkpt><trkpt lat="44.25491748267996" lon="8.293020443691661"><ele>803.0</ele><time>2026-04-04T10:03:04.001Z</time></trkpt><trkpt lat="44.25494416699519" lon="8.293165128574822"><ele>807.0</ele><time>2026-04-04T10:03:05.001Z</time></trkpt><trkpt lat="44.25489465443069" lon="8.29332270260306"><ele>811.0</ele><time>2026-04-04T10:03:06.001Z</time></trkpt><trkpt lat="44.2548874614955" lon="8.293455679861813"><ele>815.0</ele><time>2026-04-04T10:03:07.001Z</time></trkpt><trkpt lat="44.254909370852445" lon="8.293572888387535"><ele>815.0</ele><time>2026-04-04T10:03:08.001Z</time></trkpt><trkpt lat="44.25497133168267" lon="8.293651155422749"><ele>815.0</ele><time>2026-04-04T10:03:09.001Z</time></trkpt><trkpt lat="44.255118381047616" lon="8.293697470520959"><ele>815.0</ele><time>2026-04-04T10:03:11.001Z</time></trkpt><trkpt lat="44.255262849607576" lon="8.293670569376559"><ele>815.0</ele><time>2026-04-04T10:03:12.001Z</time></trkpt><trkpt lat="44.25538733851732" lon="8.293660143707413"><ele>815.0000000000001</ele><time>2026-04-04T10:03:13.001Z</time></trkpt><trkpt lat="44.25548363466106" lon="8.293672523054553"><ele>815.0</ele><time>2026-04-04T10:03:14.001Z</time></trkpt><trkpt lat="44.25556524187805" lon="8.29372568602497"><ele>815.0</ele><time>2026-04-04T10:03:15.001Z</time></trkpt><trkpt lat="44.255628091445104" lon="8.293769647360405"><ele>815.0</ele><time>2026-04-04T10:03:16.002Z</time></trkpt><trkpt lat="44.25561583569305" lon="8.293856113048406"><ele>815.0000000000001</ele><time>2026-04-04T10:03:17.002Z</time></trkpt><trkpt lat="44.255606356948626" lon="8.293965235555959"><ele>815.0</ele><time>2026-04-04T10:03:18.002Z</time></trkpt><trkpt lat="44.25550504249706" lon="8.294009344773674"><ele>813.25</ele><time>2026-04-04T10:03:19.002Z</time></trkpt><trkpt lat="44.25542555779719" lon="8.294102058296149"><ele>811.5</ele><time>2026-04-04T10:03:20.002Z</time></trkpt><trkpt lat="44.255344552354735" lon="8.294316131123153"><ele>809.75</ele><time>2026-04-04T10:03:21.002Z</time></trkpt><trkpt lat="44.25534824942109" lon="8.294541545686663"><ele>808.0</ele><time>2026-04-04T10:03:22.002Z</time></trkpt><trkpt lat="44.25531320044668" lon="8.294695475083685"><ele>806.75</ele><time>2026-04-04T10:03:23.002Z</time></trkpt><trkpt lat="44.255295194005996" lon="8.294859989184976"><ele>805.5</ele><time>2026-04-04T10:03:24.002Z</time></trkpt><trkpt lat="44.255318575384514" lon="8.295058719932692"><ele>804.25</ele><time>2026-04-04T10:03:25.002Z</time></trkpt><trkpt lat="44.25534565262029" lon="8.295314932593795"><ele>803.0</ele><time>2026-04-04T10:03:26.002Z</time></trkpt><trkpt lat="44.25533374803575" lon="8.295507994097214"><ele>801.75</ele><time>2026-04-04T10:03:27.002Z</time></trkpt><trkpt lat="44.25533613406366" lon="8.295672735969115"><ele>800.5</ele><time>2026-04-04T10:03:28.002Z</time></trkpt><trkpt lat="44.25534315736227" lon="8.295833949749845"><ele>799.25</ele><time>2026-04-04T10:03:29.002Z</time></trkpt><trkpt lat="44.25538597874521" lon="8.295994905883243"><ele>798.0</ele><time>2026-04-04T10:03:30.002Z</time></trkpt><trkpt lat="44.25543920919525" lon="8.296132616103808"><ele>798.0</ele><time>2026-04-04T10:03:31.002Z</time></trkpt><trkpt lat="44.25551619681232" lon="8.296304553806483"><ele>798.0</ele><time>2026-04-04T10:03:32.002Z</time></trkpt><trkpt lat="44.25562885667274" lon="8.29651203450989"><ele>798.0</ele><time>2026-04-04T10:03:33.002Z</time></trkpt><trkpt lat="44.255726595225646" lon="8.2967402228398"><ele>802.0</ele><time>2026-04-04T10:03:34.002Z</time></trkpt><trkpt lat="44.25581420702454" lon="8.296918916395198"><ele>806.0</ele><time>2026-04-04T10:03:35.002Z</time></trkpt><trkpt lat="44.255903398619196" lon="8.297064694000326"><ele>810.0</ele><time>2026-04-04T10:03:36.002Z</time></trkpt><trkpt lat="44.25599147398404" lon="8.297189539233878"><ele>814.0</ele><time>2026-04-04T10:03:37.002Z</time></trkpt><trkpt lat="44.25607541635003" lon="8.297286956943486"><ele>814.0</ele><time>2026-04-04T10:03:38.002Z</time></trkpt><trkpt lat="44.2561222861599" lon="8.29739100439937"><ele>814.0</ele><time>2026-04-04T10:03:39.002Z</time></trkpt><trkpt lat="44.25614042244703" lon="8.297578205503969"><ele>814.0</ele><time>2026-04-04T10:03:40.002Z</time></trkpt><trkpt lat="44.25611291876794" lon="8.297793630468442"><ele>814.0</ele><time>2026-04-04T10:03:41.002Z</time></trkpt><trkpt lat="44.25618351901662" lon="8.297978085482386"><ele>812.75</ele><time>2026-04-04T10:03:42.002Z</time></trkpt><trkpt lat="44.25623192136714" lon="8.298152160146977"><ele>811.5</ele><time>2026-04-04T10:03:43.002Z</time></trkpt><trkpt lat="44.25628545048587" lon="8.298317604945717"><ele>810.25</ele><time>2026-04-04T10:03:44.002Z</time></trkpt><trkpt lat="44.256333696216934" lon="8.298471424488456"><ele>809.0</ele><time>2026-04-04T10:03:45.002Z</time></trkpt><trkpt lat="44.25637211436857" lon="8.298612775604644"><ele>809.0</ele><time>2026-04-04T10:03:46.002Z</time></trkpt><trkpt lat="44.256394996953844" lon="8.298767485785866"><ele>809.0</ele><time>2026-04-04T10:03:47.002Z</time></trkpt><trkpt lat="44.2563948016417" lon="8.298889019310327"><ele>809.0</ele><time>2026-04-04T10:03:48.002Z</time></trkpt><trkpt lat="44.25634584267079" lon="8.299172768308663"><ele>809.0</ele><time>2026-04-04T10:03:50.002Z</time></trkpt><trkpt lat="44.25631329347696" lon="8.299289923650948"><ele>808.25</ele><time>2026-04-04T10:03:51.002Z</time></trkpt><trkpt lat="44.256255767379706" lon="8.299474389588438"><ele>807.5</ele><time>2026-04-04T10:03:52.002Z</time></trkpt><trkpt lat="44.256181175492095" lon="8.299675180938737"><ele>806.75</ele><time>2026-04-04T10:03:53.002Z</time></trkpt><trkpt lat="44.25611497508233" lon="8.299837476699265"><ele>806.0</ele><time>2026-04-04T10:03:54.002Z</time></trkpt><trkpt lat="44.25604858996158" lon="8.299988410302074"><ele>808.0</ele><time>2026-04-04T10:03:55.002Z</time></trkpt><trkpt lat="44.25597267999401" lon="8.300200583871169"><ele>810.0</ele><time>2026-04-04T10:03:56.002Z</time></trkpt><trkpt lat="44.25588936926294" lon="8.300308979407095"><ele>812.0</ele><time>2026-04-04T10:03:57.002Z</time></trkpt><trkpt lat="44.25582366032804" lon="8.300438968537405"><ele>814.0</ele><time>2026-04-04T10:03:58.002Z</time></trkpt><trkpt lat="44.255746220781546" lon="8.3005322621597"><ele>816.2</ele><time>2026-04-04T10:03:59.002Z</time></trkpt><trkpt lat="44.25567019865522" lon="8.300629471828554"><ele>818.4000000000001</ele><time>2026-04-04T10:04:00.002Z</time></trkpt><trkpt lat="44.25558784208547" lon="8.30073548610393"><ele>820.6</ele><time>2026-04-04T10:04:01.002Z</time></trkpt><trkpt lat="44.25552233841127" lon="8.300884655927943"><ele>822.8</ele><time>2026-04-04T10:04:02.002Z</time></trkpt><trkpt lat="44.25548537358481" lon="8.301017561889433"><ele>825.0</ele><time>2026-04-04T10:04:03.002Z</time></trkpt><trkpt lat="44.25543275009895" lon="8.301186865026908"><ele>821.75</ele><time>2026-04-04T10:04:04.002Z</time></trkpt><trkpt lat="44.25535798234964" lon="8.30135442766038"><ele>818.5</ele><time>2026-04-04T10:04:05.002Z</time></trkpt><trkpt lat="44.25533999614279" lon="8.301508388394609"><ele>815.25</ele><time>2026-04-04T10:04:06.002Z</time></trkpt><trkpt lat="44.25525678997693" lon="8.301643644776759"><ele>812.0</ele><time>2026-04-04T10:04:07.001Z</time></trkpt><trkpt lat="44.255188803521854" lon="8.301800011654889"><ele>812.0</ele><time>2026-04-04T10:04:08.001Z</time></trkpt><trkpt lat="44.25512192828144" lon="8.301926749229288"><ele>812.0</ele><time>2026-04-04T10:04:09.001Z</time></trkpt><trkpt lat="44.255063453240105" lon="8.302051389731172"><ele>812.0</ele><time>2026-04-04T10:04:10.001Z</time></trkpt><trkpt lat="44.25501822277282" lon="8.302120195544965"><ele>812.0</ele><time>2026-04-04T10:04:11Z</time></trkpt><trkpt lat="44.25490293604519" lon="8.30222059226509"><ele>812.0</ele><time>2026-04-04T10:04:13Z</time></trkpt><trkpt lat="44.25486225101395" lon="8.302311297147554"><ele>808.6</ele><time>2026-04-04T10:04:14Z</time></trkpt><trkpt lat="44.25476507439333" lon="8.302448526067957"><ele>805.2</ele><time>2026-04-04T10:04:15Z</time></trkpt><trkpt lat="44.25466686385979" lon="8.302517242751549"><ele>801.8</ele><time>2026-04-04T10:04:16Z</time></trkpt><trkpt lat="44.254603465649986" lon="8.302598956080063"><ele>798.4</ele><time>2026-04-04T10:04:17Z</time></trkpt><trkpt lat="44.25458465930245" lon="8.30270688170712"><ele>795.0</ele><time>2026-04-04T10:04:18Z</time></trkpt><trkpt lat="44.254607125978794" lon="8.302881817788775"><ele>795.0</ele><time>2026-04-04T10:04:19Z</time></trkpt><trkpt lat="44.25466971703066" lon="8.303052142046138"><ele>795.0</ele><time>2026-04-04T10:04:20Z</time></trkpt><trkpt lat="44.25468401827731" lon="8.30313918808099"><ele>795.0</ele><time>2026-04-04T10:04:21Z</time></trkpt><trkpt lat="44.25466386371047" lon="8.303231201682493"><ele>795.0</ele><time>2026-04-04T10:04:22Z</time></trkpt><trkpt lat="44.2546410150708" lon="8.303330552824601"><ele>795.0</ele><time>2026-04-04T10:04:23Z</time></trkpt><trkpt lat="44.25459760061085" lon="8.303417748566456"><ele>795.0</ele><time>2026-04-04T10:04:24Z</time></trkpt><trkpt lat="44.254542369155736" lon="8.303507755731893"><ele>798.25</ele><time>2026-04-04T10:04:25Z</time></trkpt><trkpt lat="44.25444528883937" lon="8.303617070311306"><ele>801.5</ele><time>2026-04-04T10:04:26Z</time></trkpt><trkpt lat="44.25437000412891" lon="8.303711546840223"><ele>804.75</ele><time>2026-04-04T10:04:27Z</time></trkpt><trkpt lat="44.254328393666015" lon="8.303886739740818"><ele>808.0</ele><time>2026-04-04T10:04:28Z</time></trkpt><trkpt lat="44.254313191102305" lon="8.304105450514248"><ele>808.8</ele><time>2026-04-04T10:04:29Z</time></trkpt><trkpt lat="44.254267422710015" lon="8.304227408281694"><ele>809.5999999999999</ele><time>2026-04-04T10:04:30Z</time></trkpt><trkpt lat="44.25424053804162" lon="8.304371945034463"><ele>810.4000000000001</ele><time>2026-04-04T10:04:31Z</time></trkpt><trkpt lat="44.25421856875776" lon="8.304531282444021"><ele>811.2</ele><time>2026-04-04T10:04:32.001Z</time></trkpt><trkpt lat="44.25420904842661" lon="8.304661375939645"><ele>812.0</ele><time>2026-04-04T10:04:33.001Z</time></trkpt><trkpt lat="44.254210136432405" lon="8.304779945094785"><ele>812.0</ele><time>2026-04-04T10:04:34.001Z</time></trkpt><trkpt lat="44.25421543574162" lon="8.30494100306817"><ele>812.0</ele><time>2026-04-04T10:04:35.001Z</time></trkpt><trkpt lat="44.25422344890086" lon="8.305068207011468"><ele>812.0</ele><time>2026-04-04T10:04:36.001Z</time></trkpt><trkpt lat="44.25425249589249" lon="8.305202320856635"><ele>812.0</ele><time>2026-04-04T10:04:37.001Z</time></trkpt><trkpt lat="44.254303873917806" lon="8.305321207973353"><ele>812.0</ele><time>2026-04-04T10:04:38.001Z</time></trkpt><trkpt lat="44.254396575266476" lon="8.305513177142183"><ele>811.0</ele><time>2026-04-04T10:04:39.001Z</time></trkpt><trkpt lat="44.25443053779495" lon="8.305663222938177"><ele>810.0</ele><time>2026-04-04T10:04:40.001Z</time></trkpt><trkpt lat="44.25446566059469" lon="8.305804076415795"><ele>809.0</ele><time>2026-04-04T10:04:41.001Z</time></trkpt><trkpt lat="44.25451226544622" lon="8.305921185850329"><ele>808.0</ele><time>2026-04-04T10:04:42.001Z</time></trkpt><trkpt lat="44.25456324417374" lon="8.306079809384945"><ele>807.0</ele><time>2026-04-04T10:04:43.001Z</time></trkpt><trkpt lat="44.254596115325" lon="8.306192923922447"><ele>807.0</ele><time>2026-04-04T10:04:44.001Z</time></trkpt><trkpt lat="44.25459010338801" lon="8.306319285317828"><ele>807.0</ele><time>2026-04-04T10:04:45.001Z</time></trkpt><trkpt lat="44.25458725509602" lon="8.30641829242732"><ele>807.0</ele><time>2026-04-04T10:04:46.001Z</time></trkpt><trkpt lat="44.25456077856476" lon="8.306540305959857"><ele>807.0</ele><time>2026-04-04T10:04:47.001Z</time></trkpt><trkpt lat="44.254545025030055" lon="8.306702908032573"><ele>807.0</ele><time>2026-04-04T10:04:48.001Z</time></trkpt><trkpt lat="44.25452669587758" lon="8.30681847757841"><ele>806.2</ele><time>2026-04-04T10:04:49.001Z</time></trkpt><trkpt lat="44.25449490418727" lon="8.30697963376467"><ele>805.4000000000001</ele><time>2026-04-04T10:04:51.001Z</time></trkpt><trkpt lat="44.25445760367843" lon="8.307112646564425"><ele>804.5999999999999</ele><time>2026-04-04T10:04:52.001Z</time></trkpt><trkpt lat="44.2545400591898" lon="8.307251080345287"><ele>803.8</ele><time>2026-04-04T10:04:53.001Z</time></trkpt><trkpt lat="44.25460058672546" lon="8.307322619586929"><ele>803.0</ele><time>2026-04-04T10:04:54.001Z</time></trkpt><trkpt lat="44.25475549548254" lon="8.307315267904611"><ele>804.4</ele><time>2026-04-04T10:04:55.001Z</time></trkpt><trkpt lat="44.2548706008376" lon="8.307384032248782"><ele>805.8</ele><time>2026-04-04T10:04:56.001Z</time></trkpt><trkpt lat="44.25496805101135" lon="8.30744915775323"><ele>807.2</ele><time>2026-04-04T10:04:57.001Z</time></trkpt><trkpt lat="44.25503396404297" lon="8.307497889190769"><ele>808.6</ele><time>2026-04-04T10:04:58.001Z</time></trkpt><trkpt lat="44.25509418966867" lon="8.30762746685634"><ele>810.0</ele><time>2026-04-04T10:04:59.001Z</time></trkpt><trkpt lat="44.255146004240764" lon="8.307783492121699"><ele>810.0</ele><time>2026-04-04T10:05:00.001Z</time></trkpt><trkpt lat="44.25520820486163" lon="8.307903363080323"><ele>810.0</ele><time>2026-04-04T10:05:01.001Z</time></trkpt><trkpt lat="44.255291021431056" lon="8.307989491514673"><ele>810.0</ele><time>2026-04-04T10:05:02.001Z</time></trkpt><trkpt lat="44.25538819134879" lon="8.308081562129905"><ele>810.0</ele><time>2026-04-04T10:05:03.001Z</time></trkpt><trkpt lat="44.255519880280175" lon="8.308117376022178"><ele>810.6666666666667</ele><time>2026-04-04T10:05:04.001Z</time></trkpt><trkpt lat="44.255661582622636" lon="8.308220895136918"><ele>811.3333333333334</ele><time>2026-04-04T10:05:05.001Z</time></trkpt><trkpt lat="44.25582125801022" lon="8.308297089917108"><ele>812.0</ele><time>2026-04-04T10:05:06.001Z</time></trkpt><trkpt lat="44.25595259311418" lon="8.30842366024274"><ele>812.0</ele><time>2026-04-04T10:05:07.001Z</time></trkpt><trkpt lat="44.256072069099204" lon="8.3084975097608"><ele>812.0</ele><time>2026-04-04T10:05:08.001Z</time></trkpt><trkpt lat="44.256168739457785" lon="8.308570719758777"><ele>812.0</ele><time>2026-04-04T10:05:09.001Z</time></trkpt><trkpt lat="44.25624960581497" lon="8.308691317362289"><ele>812.0</ele><time>2026-04-04T10:05:10.001Z</time></trkpt><trkpt lat="44.25633013827668" lon="8.308798543798254"><ele>811.8</ele><time>2026-04-04T10:05:11.001Z</time></trkpt><trkpt lat="44.256377356045846" lon="8.308931586040616"><ele>811.6</ele><time>2026-04-04T10:05:12.001Z</time></trkpt><trkpt lat="44.256429464843414" lon="8.309024110745854"><ele>811.4</ele><time>2026-04-04T10:05:13.001Z</time></trkpt><trkpt lat="44.25649944523458" lon="8.30910113694109"><ele>811.1999999999999</ele><time>2026-04-04T10:05:14.001Z</time></trkpt><trkpt lat="44.256608881886336" lon="8.309148455068815"><ele>811.0</ele><time>2026-04-04T10:05:15.001Z</time></trkpt><trkpt lat="44.256704974554594" lon="8.309188730440123"><ele>811.0</ele><time>2026-04-04T10:05:16.001Z</time></trkpt><trkpt lat="44.256809893194664" lon="8.309226300468902"><ele>811.0</ele><time>2026-04-04T10:05:17.001Z</time></trkpt><trkpt lat="44.256885797079484" lon="8.309303814276827"><ele>811.0</ele><time>2026-04-04T10:05:18.001Z</time></trkpt><trkpt lat="44.25701131293766" lon="8.309441739357984"><ele>811.0</ele><time>2026-04-04T10:05:19.001Z</time></trkpt><trkpt lat="44.257127538022" lon="8.309523771134122"><ele>811.0</ele><time>2026-04-04T10:05:20.001Z</time></trkpt><trkpt lat="44.25722375160767" lon="8.309631345270434"><ele>811.0</ele><time>2026-04-04T10:05:21.001Z</time></trkpt><trkpt lat="44.25732584057595" lon="8.30973553750068"><ele>811.0</ele><time>2026-04-04T10:05:22.001Z</time></trkpt><trkpt lat="44.25741993063163" lon="8.309811185988977"><ele>811.0</ele><time>2026-04-04T10:05:23.001Z</time></trkpt><trkpt lat="44.25753553841574" lon="8.309889070970028"><ele>810.1999999999999</ele><time>2026-04-04T10:05:24.001Z</time></trkpt><trkpt lat="44.257614580586065" lon="8.309950680956407"><ele>809.4</ele><time>2026-04-04T10:05:25.001Z</time></trkpt><trkpt lat="44.25768730059922" lon="8.31003185304014"><ele>808.6</ele><time>2026-04-04T10:05:26.001Z</time></trkpt><trkpt lat="44.25770725123695" lon="8.310123946655928"><ele>807.8</ele><time>2026-04-04T10:05:27.001Z</time></trkpt><trkpt lat="44.257786707960626" lon="8.310207699500454"><ele>807.0</ele><time>2026-04-04T10:05:28.001Z</time></trkpt><trkpt lat="44.25785508816717" lon="8.310308762959812"><ele>807.0</ele><time>2026-04-04T10:05:29.001Z</time></trkpt><trkpt lat="44.25793408061644" lon="8.310378548874775"><ele>807.0</ele><time>2026-04-04T10:05:30.001Z</time></trkpt><trkpt lat="44.258009017334224" lon="8.310423443346476"><ele>807.0</ele><time>2026-04-04T10:05:31.001Z</time></trkpt><trkpt lat="44.25809856190962" lon="8.310426620851104"><ele>807.0</ele><time>2026-04-04T10:05:32.002Z</time></trkpt><trkpt lat="44.25819850427046" lon="8.310414475300272"><ele>807.0</ele><time>2026-04-04T10:05:33.002Z</time></trkpt><trkpt lat="44.25833188071088" lon="8.31036126286191"><ele>809.6666666666667</ele><time>2026-04-04T10:05:34.002Z</time></trkpt><trkpt lat="44.258502858125226" lon="8.310319706127082"><ele>812.3333333333334</ele><time>2026-04-04T10:05:35.002Z</time></trkpt><trkpt lat="44.258650955522974" lon="8.310299627321054"><ele>815.0</ele><time>2026-04-04T10:05:36.002Z</time></trkpt><trkpt lat="44.25880438894989" lon="8.310294237675118"><ele>815.0</ele><time>2026-04-04T10:05:37.002Z</time></trkpt><trkpt lat="44.25889558235605" lon="8.310284181417487"><ele>815.0</ele><time>2026-04-04T10:05:38.002Z</time></trkpt><trkpt lat="44.25900241885014" lon="8.310273674113725"><ele>815.0</ele><time>2026-04-04T10:05:39.002Z</time></trkpt><trkpt lat="44.25909645314583" lon="8.310233261386006"><ele>815.0</ele><time>2026-04-04T10:05:40.002Z</time></trkpt><trkpt lat="44.25920117368618" lon="8.310232851096522"><ele>815.0</ele><time>2026-04-04T10:05:41.002Z</time></trkpt><trkpt lat="44.25929575770439" lon="8.310230800368858"><ele>813.6666666666667</ele><time>2026-04-04T10:05:42.002Z</time></trkpt><trkpt lat="44.25938524198298" lon="8.31024046880165"><ele>812.3333333333334</ele><time>2026-04-04T10:05:44.002Z</time></trkpt><trkpt lat="44.259461868779724" lon="8.310276651799189"><ele>811.0</ele><time>2026-04-04T10:05:46.002Z</time></trkpt><trkpt lat="44.25952599669961" lon="8.310317918169856"><ele>809.6666666666667</ele><time>2026-04-04T10:05:48.002Z</time></trkpt><trkpt lat="44.25958919425725" lon="8.31033065581171"><ele>808.3333333333334</ele><time>2026-04-04T10:05:50.002Z</time></trkpt><trkpt lat="44.259662557197224" lon="8.310414199059384"><ele>807.0</ele><time>2026-04-04T10:05:54.002Z</time></trkpt><trkpt lat="44.259705179003916" lon="8.310491599028815"><ele>805.8333333333334</ele><time>2026-04-04T10:05:57.002Z</time></trkpt><trkpt lat="44.25972747854298" lon="8.310595372974358"><ele>804.6666666666667</ele><time>2026-04-04T10:06:01.002Z</time></trkpt><trkpt lat="44.25975975547411" lon="8.310683226474856"><ele>803.5</ele><time>2026-04-04T10:06:08.002Z</time></trkpt><trkpt lat="44.259751406008085" lon="8.310784905922484"><ele>802.3333333333334</ele><time>2026-04-04T10:06:09.002Z</time></trkpt><trkpt lat="44.25975226521205" lon="8.31087957316304"><ele>801.1666666666667</ele><time>2026-04-04T10:06:10.002Z</time></trkpt><trkpt lat="44.25975995019014" lon="8.31102618196297"><ele>800.0</ele><time>2026-04-04T10:06:11.002Z</time></trkpt><trkpt lat="44.259749566030536" lon="8.311183523341569"><ele>800.0</ele><time>2026-04-04T10:06:12.002Z</time></trkpt><trkpt lat="44.25973870122842" lon="8.311348216548641"><ele>800.0</ele><time>2026-04-04T10:06:13Z</time></trkpt><trkpt lat="44.25971751592251" lon="8.311512842892247"><ele>800.0</ele><time>2026-04-04T10:06:14Z</time></trkpt><trkpt lat="44.25968398147785" lon="8.311686474398552"><ele>800.0</ele><time>2026-04-04T10:06:15Z</time></trkpt><trkpt lat="44.25962302086065" lon="8.311902072491367"><ele>799.25</ele><time>2026-04-04T10:06:16Z</time></trkpt><trkpt lat="44.25958258463016" lon="8.3121095853191"><ele>798.5</ele><time>2026-04-04T10:06:17Z</time></trkpt><trkpt lat="44.259612839537354" lon="8.312264255545037"><ele>797.75</ele><time>2026-04-04T10:06:18Z</time></trkpt><trkpt lat="44.25956251768282" lon="8.312412550839936"><ele>797.0</ele><time>2026-04-04T10:06:19Z</time></trkpt><trkpt lat="44.25951085692616" lon="8.312608565521575"><ele>796.75</ele><time>2026-04-04T10:06:20Z</time></trkpt><trkpt lat="44.25949089327305" lon="8.31282028510919"><ele>796.5</ele><time>2026-04-04T10:06:21Z</time></trkpt><trkpt lat="44.25948225780758" lon="8.313011988468874"><ele>796.25</ele><time>2026-04-04T10:06:22Z</time></trkpt><trkpt lat="44.259462447137096" lon="8.313215361072269"><ele>796.0</ele><time>2026-04-04T10:06:23Z</time></trkpt><trkpt lat="44.25945168217912" lon="8.313393344542416"><ele>796.0</ele><time>2026-04-04T10:06:24Z</time></trkpt><trkpt lat="44.25942618742337" lon="8.313538032000421"><ele>796.0</ele><time>2026-04-04T10:06:25Z</time></trkpt><trkpt lat="44.25941519126293" lon="8.31371204971032"><ele>796.0</ele><time>2026-04-04T10:06:26Z</time></trkpt><trkpt lat="44.25940957922539" lon="8.313859775837399"><ele>796.0</ele><time>2026-04-04T10:06:27Z</time></trkpt><trkpt lat="44.25938069128774" lon="8.314015295019209"><ele>795.75</ele><time>2026-04-04T10:06:28Z</time></trkpt><trkpt lat="44.25937366248586" lon="8.314146009540664"><ele>795.5</ele><time>2026-04-04T10:06:29Z</time></trkpt><trkpt lat="44.25936635555511" lon="8.314314002962618"><ele>795.25</ele><time>2026-04-04T10:06:30Z</time></trkpt><trkpt lat="44.25936174905296" lon="8.314452230316592"><ele>795.0</ele><time>2026-04-04T10:06:31Z</time></trkpt><trkpt lat="44.259341131738346" lon="8.314663653735545"><ele>793.8</ele><time>2026-04-04T10:06:33Z</time></trkpt><trkpt lat="44.25937975114821" lon="8.314799830313017"><ele>792.6</ele><time>2026-04-04T10:06:34Z</time></trkpt><trkpt lat="44.259470483676004" lon="8.314902991748077"><ele>791.4000000000001</ele><time>2026-04-04T10:06:35.001Z</time></trkpt><trkpt lat="44.25955042843238" lon="8.315023534182894"><ele>790.2</ele><time>2026-04-04T10:06:36.001Z</time></trkpt><trkpt lat="44.25961135173195" lon="8.315143045329158"><ele>789.0</ele><time>2026-04-04T10:06:37.001Z</time></trkpt><trkpt lat="44.25967424386525" lon="8.315283358338242"><ele>789.0</ele><time>2026-04-04T10:06:38.001Z</time></trkpt><trkpt lat="44.25971831462139" lon="8.315418325574147"><ele>789.0</ele><time>2026-04-04T10:06:39.001Z</time></trkpt><trkpt lat="44.25974884266974" lon="8.31553701310477"><ele>789.0</ele><time>2026-04-04T10:06:40.001Z</time></trkpt><trkpt lat="44.25969863888767" lon="8.315648523035913"><ele>789.0</ele><time>2026-04-04T10:06:41.001Z</time></trkpt><trkpt lat="44.25967223720923" lon="8.31576955072445"><ele>789.0</ele><time>2026-04-04T10:06:42.001Z</time></trkpt><trkpt lat="44.25965788804884" lon="8.315929121853094"><ele>786.8000000000001</ele><time>2026-04-04T10:06:43.001Z</time></trkpt><trkpt lat="44.25966571693602" lon="8.316108697510609"><ele>784.6</ele><time>2026-04-04T10:06:44.001Z</time></trkpt><trkpt lat="44.25965023979622" lon="8.316199286712754"><ele>782.4</ele><time>2026-04-04T10:06:45.001Z</time></trkpt><trkpt lat="44.25966138045477" lon="8.316310781841734"><ele>780.2</ele><time>2026-04-04T10:06:46.001Z</time></trkpt><trkpt lat="44.25965939033758" lon="8.316428087377881"><ele>778.0</ele><time>2026-04-04T10:06:47.001Z</time></trkpt><trkpt lat="44.25967590032461" lon="8.316665349337628"><ele>777.8333333333333</ele><time>2026-04-04T10:06:49.001Z</time></trkpt><trkpt lat="44.25966678747132" lon="8.316754878648005"><ele>777.6666666666666</ele><time>2026-04-04T10:06:50.001Z</time></trkpt><trkpt lat="44.25963387169284" lon="8.31691799084954"><ele>777.5</ele><time>2026-04-04T10:06:51.001Z</time></trkpt><trkpt lat="44.259600909190205" lon="8.317032570983805"><ele>777.3333333333333</ele><time>2026-04-04T10:06:52.001Z</time></trkpt><trkpt lat="44.25952058997304" lon="8.317105577360671"><ele>777.1666666666666</ele><time>2026-04-04T10:06:53.001Z</time></trkpt><trkpt lat="44.25948665422548" lon="8.317196344680017"><ele>777.0</ele><time>2026-04-04T10:06:54.001Z</time></trkpt><trkpt lat="44.2594613579359" lon="8.317383164686836"><ele>777.5</ele><time>2026-04-04T10:06:56.001Z</time></trkpt><trkpt lat="44.259525551311924" lon="8.317464510365689"><ele>778.0</ele><time>2026-04-04T10:06:57.001Z</time></trkpt><trkpt lat="44.259496046073444" lon="8.31756932201076"><ele>778.5</ele><time>2026-04-04T10:06:58.001Z</time></trkpt><trkpt lat="44.25944069217315" lon="8.317680465966863"><ele>779.0</ele><time>2026-04-04T10:06:59.001Z</time></trkpt><trkpt lat="44.259386904152336" lon="8.31777961153298"><ele>779.5</ele><time>2026-04-04T10:07:00.001Z</time></trkpt><trkpt lat="44.2593012919439" lon="8.317838764787277"><ele>780.0</ele><time>2026-04-04T10:07:01.001Z</time></trkpt><trkpt lat="44.25923248717934" lon="8.317916591505396"><ele>780.0</ele><time>2026-04-04T10:07:02.001Z</time></trkpt><trkpt lat="44.2591599651587" lon="8.317997869645465"><ele>780.0</ele><time>2026-04-04T10:07:03.001Z</time></trkpt><trkpt lat="44.25907463640052" lon="8.318096954134038"><ele>780.0</ele><time>2026-04-04T10:07:05.001Z</time></trkpt><trkpt lat="44.25909864802584" lon="8.318193254229197"><ele>780.0</ele><time>2026-04-04T10:07:06.001Z</time></trkpt><trkpt lat="44.259059215205234" lon="8.318326718924839"><ele>780.0</ele><time>2026-04-04T10:07:08.001Z</time></trkpt><trkpt lat="44.25901342060604" lon="8.318512155188545"><ele>780.8</ele><time>2026-04-04T10:07:10.001Z</time></trkpt><trkpt lat="44.25896836723526" lon="8.318613943798045"><ele>781.6</ele><time>2026-04-04T10:07:11.001Z</time></trkpt><trkpt lat="44.25887425403386" lon="8.318760282417244"><ele>782.4000000000001</ele><time>2026-04-04T10:07:13.001Z</time></trkpt><trkpt lat="44.258815179153125" lon="8.318828453672376"><ele>783.2</ele><time>2026-04-04T10:07:14.001Z</time></trkpt><trkpt lat="44.258727430725784" lon="8.318888366720225"><ele>784.0</ele><time>2026-04-04T10:07:15.001Z</time></trkpt><trkpt lat="44.25865807553391" lon="8.318941159430981"><ele>780.0</ele><time>2026-04-04T10:07:16.001Z</time></trkpt><trkpt lat="44.258507824804624" lon="8.319036179423813"><ele>776.0</ele><time>2026-04-04T10:07:18.001Z</time></trkpt><trkpt lat="44.25843601955526" lon="8.31911364436694"><ele>772.0</ele><time>2026-04-04T10:07:19.001Z</time></trkpt><trkpt lat="44.25837692495669" lon="8.319176656720298"><ele>768.0</ele><time>2026-04-04T10:07:20.001Z</time></trkpt><trkpt lat="44.25831615845581" lon="8.319264436108803"><ele>764.0</ele><time>2026-04-04T10:07:21.001Z</time></trkpt><trkpt lat="44.25828204849052" lon="8.319347095422174"><ele>764.0</ele><time>2026-04-04T10:07:22.001Z</time></trkpt><trkpt lat="44.25825261610904" lon="8.319433280329184"><ele>764.0</ele><time>2026-04-04T10:07:23.001Z</time></trkpt><trkpt lat="44.25822262530656" lon="8.319517943475715"><ele>764.0</ele><time>2026-04-04T10:07:24.001Z</time></trkpt><trkpt lat="44.25818888384456" lon="8.319597013857594"><ele>764.0</ele><time>2026-04-04T10:07:25.001Z</time></trkpt><trkpt lat="44.258164390673194" lon="8.319681416761098"><ele>764.0</ele><time>2026-04-04T10:07:26.001Z</time></trkpt><trkpt lat="44.25810000773041" lon="8.319786087069748"><ele>764.0</ele><time>2026-04-04T10:07:27.001Z</time></trkpt><trkpt lat="44.258053485008766" lon="8.319854227899853"><ele>764.0</ele><time>2026-04-04T10:07:28.001Z</time></trkpt><trkpt lat="44.25799785782409" lon="8.319940756020365"><ele>762.8333333333333</ele><time>2026-04-04T10:07:29.001Z</time></trkpt><trkpt lat="44.25795283951505" lon="8.320015126960886"><ele>761.6666666666666</ele><time>2026-04-04T10:07:30.001Z</time></trkpt><trkpt lat="44.257882087224466" lon="8.320151924010263"><ele>760.5</ele><time>2026-04-04T10:07:32.001Z</time></trkpt><trkpt lat="44.257831759582736" lon="8.320222282167713"><ele>759.3333333333334</ele><time>2026-04-04T10:07:33.001Z</time></trkpt><trkpt lat="44.25777565528379" lon="8.320314806375448"><ele>758.1666666666667</ele><time>2026-04-04T10:07:35.002Z</time></trkpt><trkpt lat="44.25773506822398" lon="8.320437038445064"><ele>757.0</ele><time>2026-04-04T10:07:36.002Z</time></trkpt><trkpt lat="44.25767728572119" lon="8.320587838251518"><ele>757.0</ele><time>2026-04-04T10:07:37.002Z</time></trkpt><trkpt lat="44.257619361650136" lon="8.320721848328253"><ele>757.0</ele><time>2026-04-04T10:07:38.002Z</time></trkpt><trkpt lat="44.257543660079754" lon="8.320874683479136"><ele>757.0</ele><time>2026-04-04T10:07:39.002Z</time></trkpt><trkpt lat="44.257506998459355" lon="8.320994284832079"><ele>757.0</ele><time>2026-04-04T10:07:40.002Z</time></trkpt><trkpt lat="44.257433281149524" lon="8.321082145288853"><ele>757.0</ele><time>2026-04-04T10:07:41.002Z</time></trkpt><trkpt lat="44.25739033383435" lon="8.321206887703317"><ele>757.0</ele><time>2026-04-04T10:07:42.002Z</time></trkpt><trkpt lat="44.25734275764956" lon="8.321359238841465"><ele>757.0</ele><time>2026-04-04T10:07:43.002Z</time></trkpt><trkpt lat="44.257294962562874" lon="8.321553822124464"><ele>757.0</ele><time>2026-04-04T10:07:44.002Z</time></trkpt><trkpt lat="44.257246380840364" lon="8.32167553347058"><ele>757.0</ele><time>2026-04-04T10:07:45.002Z</time></trkpt><trkpt lat="44.2572206159097" lon="8.321783415644973"><ele>757.0</ele><time>2026-04-04T10:07:46.002Z</time></trkpt><trkpt lat="44.257175438271666" lon="8.321907961504825"><ele>753.0</ele><time>2026-04-04T10:07:47.002Z</time></trkpt><trkpt lat="44.25708105549389" lon="8.322061574408156"><ele>749.0</ele><time>2026-04-04T10:07:48.002Z</time></trkpt><trkpt lat="44.257027241551626" lon="8.322192752228284"><ele>745.0</ele><time>2026-04-04T10:07:49.002Z</time></trkpt><trkpt lat="44.25692506719147" lon="8.322266308563506"><ele>741.0</ele><time>2026-04-04T10:07:50.002Z</time></trkpt><trkpt lat="44.256858683986145" lon="8.32236172762939"><ele>741.0</ele><time>2026-04-04T10:07:51.002Z</time></trkpt><trkpt lat="44.256779734548964" lon="8.322453930203167"><ele>741.0</ele><time>2026-04-04T10:07:52.002Z</time></trkpt><trkpt lat="44.25671468833817" lon="8.322534609126977"><ele>741.0</ele><time>2026-04-04T10:07:53.002Z</time></trkpt><trkpt lat="44.25665620620478" lon="8.322615962373577"><ele>741.0</ele><time>2026-04-04T10:07:54.002Z</time></trkpt><trkpt lat="44.25660701044675" lon="8.322698893412193"><ele>741.0</ele><time>2026-04-04T10:07:55.002Z</time></trkpt><trkpt lat="44.2565756439312" lon="8.322788495727593"><ele>741.0</ele><time>2026-04-04T10:07:56.002Z</time></trkpt><trkpt lat="44.25652686839592" lon="8.322876578159224"><ele>741.0</ele><time>2026-04-04T10:07:57.002Z</time></trkpt><trkpt lat="44.25646505016447" lon="8.32294866644149"><ele>741.0</ele><time>2026-04-04T10:07:58.002Z</time></trkpt><trkpt lat="44.256382203448524" lon="8.323050566398088"><ele>741.0</ele><time>2026-04-04T10:08:00.002Z</time></trkpt><trkpt lat="44.25631453332948" lon="8.323000833105848"><ele>741.0</ele><time>2026-04-04T10:08:01.002Z</time></trkpt><trkpt lat="44.25620129476251" lon="8.323030884279042"><ele>741.0</ele><time>2026-04-04T10:08:03.002Z</time></trkpt><trkpt lat="44.25612292584929" lon="8.323107925508877"><ele>738.5</ele><time>2026-04-04T10:08:04.002Z</time></trkpt><trkpt lat="44.25605147819344" lon="8.323148020268286"><ele>736.0</ele><time>2026-04-04T10:08:05.002Z</time></trkpt><trkpt lat="44.255974028219256" lon="8.323201489746499"><ele>733.5</ele><time>2026-04-04T10:08:06.002Z</time></trkpt><trkpt lat="44.255922995815524" lon="8.323278615173923"><ele>731.0</ele><time>2026-04-04T10:08:07.002Z</time></trkpt><trkpt lat="44.25585194788903" lon="8.32333628971383"><ele>728.5</ele><time>2026-04-04T10:08:08.002Z</time></trkpt><trkpt lat="44.255725702036905" lon="8.323328501951512"><ele>726.0</ele><time>2026-04-04T10:08:09.002Z</time></trkpt><trkpt lat="44.255631540451525" lon="8.323364766194363"><ele>722.6666666666666</ele><time>2026-04-04T10:08:10.002Z</time></trkpt><trkpt lat="44.25556997945498" lon="8.323426136670932"><ele>719.3333333333334</ele><time>2026-04-04T10:08:11.002Z</time></trkpt><trkpt lat="44.25550405095105" lon="8.323500272013606"><ele>716.0</ele><time>2026-04-04T10:08:12.002Z</time></trkpt><trkpt lat="44.255477016070785" lon="8.323588242321755"><ele>712.6666666666667</ele><time>2026-04-04T10:08:13.002Z</time></trkpt><trkpt lat="44.25544675147822" lon="8.323700717374763"><ele>709.3333333333334</ele><time>2026-04-04T10:08:14.002Z</time></trkpt><trkpt lat="44.25545924786143" lon="8.323823096830598"><ele>706.0</ele><time>2026-04-04T10:08:15.002Z</time></trkpt><trkpt lat="44.25546828963855" lon="8.323922192629201"><ele>705.5</ele><time>2026-04-04T10:08:16.002Z</time></trkpt><trkpt lat="44.2554959566485" lon="8.324035054834999"><ele>705.0</ele><time>2026-04-04T10:08:18.002Z</time></trkpt><trkpt lat="44.25550654969603" lon="8.324173422362096"><ele>704.5</ele><time>2026-04-04T10:08:20.001Z</time></trkpt><trkpt lat="44.25555216355323" lon="8.324273338924119"><ele>704.0</ele><time>2026-04-04T10:08:22.001Z</time></trkpt><trkpt lat="44.25554022494001" lon="8.324372564466357"><ele>703.5</ele><time>2026-04-04T10:08:24.001Z</time></trkpt><trkpt lat="44.25558460792899" lon="8.324455094210851"><ele>703.0</ele><time>2026-04-04T10:08:32Z</time></trkpt><trkpt lat="44.255623368435664" lon="8.324548016362012"><ele>703.0</ele><time>2026-04-04T10:08:47Z</time></trkpt><trkpt lat="44.25561443983171" lon="8.324664343727054"><ele>703.0</ele><time>2026-04-04T10:08:49.001Z</time></trkpt><trkpt lat="44.25561446145268" lon="8.324822988077496"><ele>703.0</ele><time>2026-04-04T10:08:51.001Z</time></trkpt><trkpt lat="44.25560571676718" lon="8.324975030045756"><ele>703.0</ele><time>2026-04-04T10:08:53.001Z</time></trkpt><trkpt lat="44.255671333089815" lon="8.325163681963621"><ele>703.0</ele><time>2026-04-04T10:08:54.001Z</time></trkpt><trkpt lat="44.255730257486356" lon="8.325311815998528"><ele>703.0</ele><time>2026-04-04T10:08:55.001Z</time></trkpt><trkpt lat="44.25578062846994" lon="8.32542988491252"><ele>703.0</ele><time>2026-04-04T10:08:56.001Z</time></trkpt><trkpt lat="44.25583981565846" lon="8.325564439446312"><ele>703.0</ele><time>2026-04-04T10:08:57.001Z</time></trkpt><trkpt lat="44.255894036549414" lon="8.325686910668207"><ele>703.0</ele><time>2026-04-04T10:08:58.001Z</time></trkpt><trkpt lat="44.25594515547654" lon="8.325803071483325"><ele>703.0</ele><time>2026-04-04T10:08:59.001Z</time></trkpt><trkpt lat="44.25599948659003" lon="8.325927194794872"><ele>703.0</ele><time>2026-04-04T10:09:00.001Z</time></trkpt><trkpt lat="44.25607704387312" lon="8.326005035355047"><ele>703.0</ele><time>2026-04-04T10:09:01.001Z</time></trkpt><trkpt lat="44.25612217130078" lon="8.326126314485968"><ele>703.0</ele><time>2026-04-04T10:09:02.001Z</time></trkpt><trkpt lat="44.25612534407533" lon="8.326224758297315"><ele>703.0</ele><time>2026-04-04T10:09:03.001Z</time></trkpt><trkpt lat="44.256141161975194" lon="8.326436824204887"><ele>700.25</ele><time>2026-04-04T10:09:05.001Z</time></trkpt><trkpt lat="44.25614014271003" lon="8.32657031809626"><ele>697.5</ele><time>2026-04-04T10:09:06.001Z</time></trkpt><trkpt lat="44.256059679787235" lon="8.326787209403232"><ele>694.75</ele><time>2026-04-04T10:09:08.001Z</time></trkpt><trkpt lat="44.25609940513487" lon="8.32693095325856"><ele>692.0</ele><time>2026-04-04T10:09:09.001Z</time></trkpt><trkpt lat="44.256139259795724" lon="8.327169280647588"><ele>691.8</ele><time>2026-04-04T10:09:10.001Z</time></trkpt><trkpt lat="44.25614984317459" lon="8.327317655729676"><ele>691.6</ele><time>2026-04-04T10:09:11.001Z</time></trkpt><trkpt lat="44.25619921525782" lon="8.327424959899457"><ele>691.4</ele><time>2026-04-04T10:09:12.001Z</time></trkpt><trkpt lat="44.25625928950387" lon="8.327567650688714"><ele>691.1999999999999</ele><time>2026-04-04T10:09:13.001Z</time></trkpt><trkpt lat="44.2562928461848" lon="8.327680410006293"><ele>691.0</ele><time>2026-04-04T10:09:14.001Z</time></trkpt><trkpt lat="44.25633930686632" lon="8.327766397304037"><ele>691.0</ele><time>2026-04-04T10:09:15.001Z</time></trkpt><trkpt lat="44.2563748395441" lon="8.327862548949565"><ele>691.0</ele><time>2026-04-04T10:09:16.001Z</time></trkpt><trkpt lat="44.25639968313826" lon="8.328012438280917"><ele>691.0</ele><time>2026-04-04T10:09:17.001Z</time></trkpt><trkpt lat="44.256447022125585" lon="8.328145978176998"><ele>691.0</ele><time>2026-04-04T10:09:18.001Z</time></trkpt><trkpt lat="44.2564687197228" lon="8.328338288324849"><ele>691.0</ele><time>2026-04-04T10:09:19.001Z</time></trkpt><trkpt lat="44.256402474731566" lon="8.328457746000689"><ele>688.8</ele><time>2026-04-04T10:09:20.001Z</time></trkpt><trkpt lat="44.25637221276353" lon="8.328575016858782"><ele>686.5999999999999</ele><time>2026-04-04T10:09:21.001Z</time></trkpt><trkpt lat="44.256335789787556" lon="8.328708933678586"><ele>684.4</ele><time>2026-04-04T10:09:22.001Z</time></trkpt><trkpt lat="44.25631190150772" lon="8.328826796825036"><ele>682.2</ele><time>2026-04-04T10:09:23.001Z</time></trkpt><trkpt lat="44.256296281244055" lon="8.32894801696318"><ele>680.0</ele><time>2026-04-04T10:09:24.001Z</time></trkpt><trkpt lat="44.25624887710704" lon="8.329116510445512"><ele>678.8</ele><time>2026-04-04T10:09:25.001Z</time></trkpt><trkpt lat="44.2562066799798" lon="8.329304569153368"><ele>677.6</ele><time>2026-04-04T10:09:26.001Z</time></trkpt><trkpt lat="44.25620269182205" lon="8.329394485825125"><ele>676.4000000000001</ele><time>2026-04-04T10:09:28.001Z</time></trkpt><trkpt lat="44.256198337924786" lon="8.329482717618784"><ele>675.2</ele><time>2026-04-04T10:09:29.001Z</time></trkpt><trkpt lat="44.2561082161391" lon="8.329571538567775"><ele>674.0</ele><time>2026-04-04T10:09:30.001Z</time></trkpt><trkpt lat="44.25602971414091" lon="8.329642917331137"><ele>674.5</ele><time>2026-04-04T10:09:31.001Z</time></trkpt><trkpt lat="44.25598488067645" lon="8.32973375467655"><ele>675.0</ele><time>2026-04-04T10:09:32.001Z</time></trkpt><trkpt lat="44.255949807302294" lon="8.329831026054077"><ele>675.5</ele><time>2026-04-04T10:09:33.001Z</time></trkpt><trkpt lat="44.25590440147335" lon="8.329896129028151"><ele>676.0</ele><time>2026-04-04T10:09:34.001Z</time></trkpt><trkpt lat="44.25588829019082" lon="8.330064588074704"><ele>676.5</ele><time>2026-04-04T10:09:36.001Z</time></trkpt><trkpt lat="44.25581358243138" lon="8.330107604338046"><ele>677.0</ele><time>2026-04-04T10:09:38.001Z</time></trkpt><trkpt lat="44.25575001110523" lon="8.330137385672966"><ele>677.0</ele><time>2026-04-04T10:09:40.001Z</time></trkpt><trkpt lat="44.25577851228067" lon="8.330256410780349"><ele>677.0</ele><time>2026-04-04T10:09:42.001Z</time></trkpt><trkpt lat="44.25579641109761" lon="8.330358376776081"><ele>677.0</ele><time>2026-04-04T10:09:43.001Z</time></trkpt><trkpt lat="44.25581508127592" lon="8.330480649422547"><ele>677.0</ele><time>2026-04-04T10:09:44.001Z</time></trkpt><trkpt lat="44.255786303949634" lon="8.33057721111716"><ele>677.0</ele><time>2026-04-04T10:09:45.001Z</time></trkpt><trkpt lat="44.25568031812763" lon="8.330678520786122"><ele>672.0</ele><time>2026-04-04T10:09:46.001Z</time></trkpt><trkpt lat="44.25561844919109" lon="8.330754296929815"><ele>667.0</ele><time>2026-04-04T10:09:47.001Z</time></trkpt><trkpt lat="44.255591313005404" lon="8.330896493701866"><ele>662.0</ele><time>2026-04-04T10:09:48.001Z</time></trkpt><trkpt lat="44.25559317779373" lon="8.331012896860235"><ele>657.0</ele><time>2026-04-04T10:09:49.001Z</time></trkpt><trkpt lat="44.255596982646495" lon="8.331150642610757"><ele>652.0</ele><time>2026-04-04T10:09:50.001Z</time></trkpt><trkpt lat="44.255609710131935" lon="8.331290813280486"><ele>654.0</ele><time>2026-04-04T10:09:51.001Z</time></trkpt><trkpt lat="44.25563045073134" lon="8.331427060610345"><ele>656.0</ele><time>2026-04-04T10:09:52.001Z</time></trkpt><trkpt lat="44.25563614682264" lon="8.331536626931603"><ele>658.0</ele><time>2026-04-04T10:09:53.001Z</time></trkpt><trkpt lat="44.255678670806844" lon="8.331626482167817"><ele>660.0</ele><time>2026-04-04T10:09:54.002Z</time></trkpt><trkpt lat="44.255730679637665" lon="8.331707236998252"><ele>662.0</ele><time>2026-04-04T10:09:55.002Z</time></trkpt><trkpt lat="44.25575454674747" lon="8.331800790777223"><ele>664.0</ele><time>2026-04-04T10:09:56.002Z</time></trkpt><trkpt lat="44.255787619938744" lon="8.331893837379234"><ele>664.0</ele><time>2026-04-04T10:09:57.002Z</time></trkpt><trkpt lat="44.25585970565129" lon="8.331910992412931"><ele>664.0</ele><time>2026-04-04T10:09:58.002Z</time></trkpt><trkpt lat="44.25595170960668" lon="8.331878886131486"><ele>664.0</ele><time>2026-04-04T10:09:59.002Z</time></trkpt><trkpt lat="44.25601933683341" lon="8.331860790896428"><ele>664.0</ele><time>2026-04-04T10:10:00.002Z</time></trkpt><trkpt lat="44.25609847696131" lon="8.331883613398157"><ele>664.0</ele><time>2026-04-04T10:10:01.002Z</time></trkpt><trkpt lat="44.25618659302475" lon="8.331823673162537"><ele>664.0</ele><time>2026-04-04T10:10:02.002Z</time></trkpt><trkpt lat="44.25624468832434" lon="8.331776214374583"><ele>664.0</ele><time>2026-04-04T10:10:03.002Z</time></trkpt><trkpt lat="44.256325703307986" lon="8.331661584197517"><ele>664.0</ele><time>2026-04-04T10:10:05.002Z</time></trkpt><trkpt lat="44.2564092061744" lon="8.331527753865242"><ele>664.0</ele><time>2026-04-04T10:10:07.002Z</time></trkpt><trkpt lat="44.25645166948297" lon="8.331411662671867"><ele>664.0</ele><time>2026-04-04T10:10:09.002Z</time></trkpt><trkpt lat="44.25651479079527" lon="8.331380844322556"><ele>664.0</ele><time>2026-04-04T10:10:14.002Z</time></trkpt><trkpt lat="44.256566309980094" lon="8.331320049570476"><ele>665.5</ele><time>2026-04-04T10:10:16.002Z</time></trkpt><trkpt lat="44.25664119079472" lon="8.331210893268334"><ele>667.0</ele><time>2026-04-04T10:10:18.002Z</time></trkpt><trkpt lat="44.25671295713785" lon="8.331178850816311"><ele>668.5</ele><time>2026-04-04T10:10:19.002Z</time></trkpt><trkpt lat="44.256752379948544" lon="8.331099267790755"><ele>670.0</ele><time>2026-04-04T10:10:20.002Z</time></trkpt><trkpt lat="44.25681938703927" lon="8.331069553839205"><ele>671.5</ele><time>2026-04-04T10:10:21.002Z</time></trkpt><trkpt lat="44.25692268541345" lon="8.33102121144367"><ele>673.0</ele><time>2026-04-04T10:10:22.002Z</time></trkpt><trkpt lat="44.25703223283943" lon="8.330992193739844"><ele>673.0</ele><time>2026-04-04T10:10:23.002Z</time></trkpt><trkpt lat="44.25711412246925" lon="8.33096381369205"><ele>673.0</ele><time>2026-04-04T10:10:24.002Z</time></trkpt><trkpt lat="44.257219589422604" lon="8.330941356074526"><ele>673.0</ele><time>2026-04-04T10:10:25Z</time></trkpt><trkpt lat="44.257309910365265" lon="8.3309689264271"><ele>673.0</ele><time>2026-04-04T10:10:26Z</time></trkpt><trkpt lat="44.257421203605" lon="8.330975045703639"><ele>673.0</ele><time>2026-04-04T10:10:27Z</time></trkpt><trkpt lat="44.25753202401562" lon="8.330957368226326"><ele>671.4</ele><time>2026-04-04T10:10:28Z</time></trkpt><trkpt lat="44.25764677605463" lon="8.330957577410038"><ele>669.8</ele><time>2026-04-04T10:10:29Z</time></trkpt><trkpt lat="44.25775790885001" lon="8.330975618641327"><ele>668.2</ele><time>2026-04-04T10:10:30Z</time></trkpt><trkpt lat="44.25784052944411" lon="8.330987505511128"><ele>666.6</ele><time>2026-04-04T10:10:31Z</time></trkpt><trkpt lat="44.25791998641936" lon="8.331019092598678"><ele>665.0</ele><time>2026-04-04T10:10:32Z</time></trkpt><trkpt lat="44.25801807747315" lon="8.331032263586364"><ele>665.0</ele><time>2026-04-04T10:10:33Z</time></trkpt><trkpt lat="44.258103096535706" lon="8.331059616415674"><ele>665.0</ele><time>2026-04-04T10:10:34Z</time></trkpt><trkpt lat="44.25819865868723" lon="8.331234701605414"><ele>665.0</ele><time>2026-04-04T10:10:35Z</time></trkpt><trkpt lat="44.25830306651457" lon="8.331339335928824"><ele>665.0</ele><time>2026-04-04T10:10:36Z</time></trkpt><trkpt lat="44.258416335623565" lon="8.331458520012054"><ele>662.25</ele><time>2026-04-04T10:10:37Z</time></trkpt><trkpt lat="44.258521497524995" lon="8.33155303518166"><ele>659.5</ele><time>2026-04-04T10:10:38Z</time></trkpt><trkpt lat="44.258646715258635" lon="8.331620907168217"><ele>656.75</ele><time>2026-04-04T10:10:39Z</time></trkpt><trkpt lat="44.25878029816223" lon="8.331689862342428"><ele>654.0</ele><time>2026-04-04T10:10:40Z</time></trkpt><trkpt lat="44.258874330195745" lon="8.331756969410119"><ele>655.4000000000001</ele><time>2026-04-04T10:10:41Z</time></trkpt><trkpt lat="44.25896659479995" lon="8.331809937547943"><ele>656.8</ele><time>2026-04-04T10:10:42Z</time></trkpt><trkpt lat="44.259049541975415" lon="8.331822384419215"><ele>658.2</ele><time>2026-04-04T10:10:43Z</time></trkpt><trkpt lat="44.259152252120046" lon="8.331782058413348"><ele>659.5999999999999</ele><time>2026-04-04T10:10:44Z</time></trkpt><trkpt lat="44.25927066041846" lon="8.331751854643832"><ele>661.0</ele><time>2026-04-04T10:10:45Z</time></trkpt><trkpt lat="44.25937930260921" lon="8.3317673429546"><ele>661.0</ele><time>2026-04-04T10:10:46Z</time></trkpt><trkpt lat="44.25951371463628" lon="8.331797753655907"><ele>661.0</ele><time>2026-04-04T10:10:47Z</time></trkpt><trkpt lat="44.25962264540987" lon="8.331853517101502"><ele>661.0</ele><time>2026-04-04T10:10:48Z</time></trkpt><trkpt lat="44.25972672633442" lon="8.331894342470482"><ele>661.0</ele><time>2026-04-04T10:10:49Z</time></trkpt><trkpt lat="44.259816734566925" lon="8.331933397726884"><ele>660.0</ele><time>2026-04-04T10:10:50Z</time></trkpt><trkpt lat="44.25988213569858" lon="8.33194775260556"><ele>659.0</ele><time>2026-04-04T10:10:51.001Z</time></trkpt><trkpt lat="44.25998750327314" lon="8.331863505459424"><ele>658.0</ele><time>2026-04-04T10:10:53.001Z</time></trkpt><trkpt lat="44.26005189455465" lon="8.331762846584878"><ele>657.0</ele><time>2026-04-04T10:10:54.001Z</time></trkpt><trkpt lat="44.26014704718344" lon="8.331662044905444"><ele>656.0</ele><time>2026-04-04T10:10:55.001Z</time></trkpt><trkpt lat="44.26024524183465" lon="8.331543457139361"><ele>656.0</ele><time>2026-04-04T10:10:56.001Z</time></trkpt><trkpt lat="44.260320626727875" lon="8.331464483556267"><ele>656.0</ele><time>2026-04-04T10:10:57.001Z</time></trkpt><trkpt lat="44.26044459916116" lon="8.331440808888264"><ele>656.0</ele><time>2026-04-04T10:10:58.001Z</time></trkpt><trkpt lat="44.26053610869767" lon="8.331435995664584"><ele>656.0</ele><time>2026-04-04T10:10:59.001Z</time></trkpt><trkpt lat="44.260616308445144" lon="8.33150173064064"><ele>656.0</ele><time>2026-04-04T10:11:00.001Z</time></trkpt><trkpt lat="44.26073178151554" lon="8.331570756417255"><ele>655.0</ele><time>2026-04-04T10:11:01.001Z</time></trkpt><trkpt lat="44.260820591798904" lon="8.331616663691735"><ele>654.0</ele><time>2026-04-04T10:11:02.001Z</time></trkpt><trkpt lat="44.2609192535898" lon="8.331650960464605"><ele>653.0</ele><time>2026-04-04T10:11:03.001Z</time></trkpt><trkpt lat="44.26101196338935" lon="8.331647386425745"><ele>652.0</ele><time>2026-04-04T10:11:04.001Z</time></trkpt><trkpt lat="44.261087893661404" lon="8.331614815854577"><ele>651.0</ele><time>2026-04-04T10:11:05.001Z</time></trkpt><trkpt lat="44.26117245261423" lon="8.331593616319084"><ele>651.0</ele><time>2026-04-04T10:11:06.001Z</time></trkpt><trkpt lat="44.26123594050391" lon="8.331533854698023"><ele>651.0</ele><time>2026-04-04T10:11:07.001Z</time></trkpt><trkpt lat="44.2612973134435" lon="8.33145781818062"><ele>651.0</ele><time>2026-04-04T10:11:08.001Z</time></trkpt><trkpt lat="44.26140285570323" lon="8.331329345994398"><ele>651.0</ele><time>2026-04-04T10:11:09.001Z</time></trkpt><trkpt lat="44.261461873488436" lon="8.331246445004883"><ele>651.0</ele><time>2026-04-04T10:11:10.001Z</time></trkpt><trkpt lat="44.26151176083824" lon="8.331103226707121"><ele>650.75</ele><time>2026-04-04T10:11:11.001Z</time></trkpt><trkpt lat="44.26163978203713" lon="8.330918880348689"><ele>650.5</ele><time>2026-04-04T10:11:12.001Z</time></trkpt><trkpt lat="44.2616929436663" lon="8.330801571238009"><ele>650.25</ele><time>2026-04-04T10:11:13.001Z</time></trkpt><trkpt lat="44.26175822529628" lon="8.330680582006687"><ele>650.0</ele><time>2026-04-04T10:11:14.001Z</time></trkpt><trkpt lat="44.26182317015382" lon="8.330585923794038"><ele>652.5</ele><time>2026-04-04T10:11:15.001Z</time></trkpt><trkpt lat="44.26186146610852" lon="8.330458201260319"><ele>655.0</ele><time>2026-04-04T10:11:16.001Z</time></trkpt><trkpt lat="44.26187571958845" lon="8.330301262123944"><ele>657.5</ele><time>2026-04-04T10:11:17.001Z</time></trkpt><trkpt lat="44.26189378805823" lon="8.330111845180335"><ele>660.0</ele><time>2026-04-04T10:11:18.001Z</time></trkpt><trkpt lat="44.26192551128136" lon="8.329971169708626"><ele>660.0</ele><time>2026-04-04T10:11:19.001Z</time></trkpt><trkpt lat="44.26194328055768" lon="8.329830119879729"><ele>660.0</ele><time>2026-04-04T10:11:20.001Z</time></trkpt><trkpt lat="44.26201225303583" lon="8.329702606168562"><ele>660.0</ele><time>2026-04-04T10:11:21.001Z</time></trkpt><trkpt lat="44.26204297841326" lon="8.32954309837321"><ele>660.0</ele><time>2026-04-04T10:11:22.001Z</time></trkpt><trkpt lat="44.26208396102493" lon="8.329385242563678"><ele>662.5</ele><time>2026-04-04T10:11:23.001Z</time></trkpt><trkpt lat="44.26208731674418" lon="8.32925850724617"><ele>665.0</ele><time>2026-04-04T10:11:24.001Z</time></trkpt><trkpt lat="44.26206053108385" lon="8.329119456036794"><ele>667.5</ele><time>2026-04-04T10:11:25.001Z</time></trkpt><trkpt lat="44.26206733004845" lon="8.32900673516311"><ele>670.0</ele><time>2026-04-04T10:11:26.001Z</time></trkpt><trkpt lat="44.26205955930805" lon="8.328911046182187"><ele>672.5</ele><time>2026-04-04T10:11:27.001Z</time></trkpt><trkpt lat="44.26209986434714" lon="8.328822709732167"><ele>675.0</ele><time>2026-04-04T10:11:28.001Z</time></trkpt><trkpt lat="44.26219636856954" lon="8.328717718083555"><ele>677.0</ele><time>2026-04-04T10:11:29.001Z</time></trkpt><trkpt lat="44.262279360307495" lon="8.328611566070593"><ele>679.0</ele><time>2026-04-04T10:11:30.001Z</time></trkpt><trkpt lat="44.26234255837579" lon="8.328522776665547"><ele>681.0</ele><time>2026-04-04T10:11:31.001Z</time></trkpt><trkpt lat="44.26242936584748" lon="8.328453415034431"><ele>683.0</ele><time>2026-04-04T10:11:32.001Z</time></trkpt><trkpt lat="44.26247840119893" lon="8.328371257349207"><ele>685.0</ele><time>2026-04-04T10:11:33.001Z</time></trkpt><trkpt lat="44.26249199671955" lon="8.328275441916897"><ele>687.0</ele><time>2026-04-04T10:11:34.001Z</time></trkpt><trkpt lat="44.26251636243503" lon="8.328177110693861"><ele>682.0</ele><time>2026-04-04T10:11:35.001Z</time></trkpt><trkpt lat="44.26252890803079" lon="8.328070452358746"><ele>677.0</ele><time>2026-04-04T10:11:36.001Z</time></trkpt><trkpt lat="44.26253577409443" lon="8.327865111102424"><ele>672.0</ele><time>2026-04-04T10:11:37.001Z</time></trkpt><trkpt lat="44.262571788571734" lon="8.327719968881787"><ele>667.0</ele><time>2026-04-04T10:11:38.001Z</time></trkpt><trkpt lat="44.26261863927659" lon="8.327573089831752"><ele>667.0</ele><time>2026-04-04T10:11:39.001Z</time></trkpt><trkpt lat="44.2626641774827" lon="8.32745678638607"><ele>667.0</ele><time>2026-04-04T10:11:40.001Z</time></trkpt><trkpt lat="44.26272583069531" lon="8.327347440523786"><ele>667.0</ele><time>2026-04-04T10:11:41.001Z</time></trkpt><trkpt lat="44.26277363231415" lon="8.327178997045284"><ele>667.0</ele><time>2026-04-04T10:11:43.001Z</time></trkpt><trkpt lat="44.26280835220039" lon="8.327105440042642"><ele>667.0</ele><time>2026-04-04T10:11:44.001Z</time></trkpt><trkpt lat="44.26286385810079" lon="8.327020520799325"><ele>668.5</ele><time>2026-04-04T10:11:45.001Z</time></trkpt><trkpt lat="44.26295089283743" lon="8.326951933036613"><ele>670.0</ele><time>2026-04-04T10:11:46.001Z</time></trkpt><trkpt lat="44.26307395477062" lon="8.326860776351607"><ele>671.5</ele><time>2026-04-04T10:11:47.001Z</time></trkpt><trkpt lat="44.263185753735925" lon="8.326810272533812"><ele>673.0</ele><time>2026-04-04T10:11:48.001Z</time></trkpt><trkpt lat="44.26328667782214" lon="8.32678081161513"><ele>673.0</ele><time>2026-04-04T10:11:49.001Z</time></trkpt><trkpt lat="44.26338892964775" lon="8.326809621789405"><ele>673.0</ele><time>2026-04-04T10:11:50.001Z</time></trkpt><trkpt lat="44.26349420754828" lon="8.326802894692248"><ele>673.0</ele><time>2026-04-04T10:11:51.001Z</time></trkpt><trkpt lat="44.26363093350126" lon="8.326858721436187"><ele>673.0</ele><time>2026-04-04T10:11:53.001Z</time></trkpt><trkpt lat="44.26373087521748" lon="8.326904123161519"><ele>673.0</ele><time>2026-04-04T10:11:54.001Z</time></trkpt><trkpt lat="44.26384712648093" lon="8.326923846965862"><ele>673.0</ele><time>2026-04-04T10:11:55.001Z</time></trkpt><trkpt lat="44.263981620144854" lon="8.326914822358155"><ele>673.0</ele><time>2026-04-04T10:11:56.001Z</time></trkpt><trkpt lat="44.26410927425354" lon="8.326908473769054"><ele>673.0</ele><time>2026-04-04T10:11:57.001Z</time></trkpt><trkpt lat="44.26428350748215" lon="8.326912029890288"><ele>673.4</ele><time>2026-04-04T10:11:58.001Z</time></trkpt><trkpt lat="44.264429383473306" lon="8.326932181826223"><ele>673.8</ele><time>2026-04-04T10:11:59.002Z</time></trkpt><trkpt lat="44.264510810547286" lon="8.326985891844082"><ele>674.2</ele><time>2026-04-04T10:12:00.002Z</time></trkpt><trkpt lat="44.26458113307545" lon="8.32699556974001"><ele>674.6</ele><time>2026-04-04T10:12:01.002Z</time></trkpt><trkpt lat="44.26465478085127" lon="8.326908684616043"><ele>675.0</ele><time>2026-04-04T10:12:02.002Z</time></trkpt><trkpt lat="44.26480653124032" lon="8.326763340225645"><ele>672.6</ele><time>2026-04-04T10:12:03.002Z</time></trkpt><trkpt lat="44.26491351713846" lon="8.326704584175733"><ele>670.2</ele><time>2026-04-04T10:12:04.002Z</time></trkpt><trkpt lat="44.26502522903715" lon="8.326696394161349"><ele>667.8</ele><time>2026-04-04T10:12:05.002Z</time></trkpt><trkpt lat="44.2650922985035" lon="8.326716428314509"><ele>665.4</ele><time>2026-04-04T10:12:06.002Z</time></trkpt><trkpt lat="44.265157434908154" lon="8.326701262275261"><ele>663.0</ele><time>2026-04-04T10:12:07.002Z</time></trkpt><trkpt lat="44.26522279717123" lon="8.326601101103034"><ele>663.0</ele><time>2026-04-04T10:12:08.002Z</time></trkpt><trkpt lat="44.26525622060547" lon="8.32646095801463"><ele>663.0</ele><time>2026-04-04T10:12:09.002Z</time></trkpt><trkpt lat="44.26531664948723" lon="8.326387873308814"><ele>663.0</ele><time>2026-04-04T10:12:10.002Z</time></trkpt><trkpt lat="44.26539143680236" lon="8.326344878422871"><ele>663.0</ele><time>2026-04-04T10:12:11.002Z</time></trkpt><trkpt lat="44.265428336796205" lon="8.326270765176753"><ele>663.0</ele><time>2026-04-04T10:12:12.002Z</time></trkpt><trkpt lat="44.26546536335621" lon="8.32613137328062"><ele>663.0</ele><time>2026-04-04T10:12:14.002Z</time></trkpt><trkpt lat="44.26549054734877" lon="8.32601562293812"><ele>665.5999999999999</ele><time>2026-04-04T10:12:15.002Z</time></trkpt><trkpt lat="44.265460041607156" lon="8.325889527875022"><ele>668.1999999999999</ele><time>2026-04-04T10:12:16.002Z</time></trkpt><trkpt lat="44.26539474412401" lon="8.325752688311812"><ele>670.8</ele><time>2026-04-04T10:12:17.002Z</time></trkpt><trkpt lat="44.26531195025262" lon="8.32564969442113"><ele>673.4</ele><time>2026-04-04T10:12:18.002Z</time></trkpt><trkpt lat="44.26529512486794" lon="8.325529284921926"><ele>676.0</ele><time>2026-04-04T10:12:19.002Z</time></trkpt><trkpt lat="44.26530179242744" lon="8.325417458981171"><ele>678.5999999999999</ele><time>2026-04-04T10:12:20.002Z</time></trkpt><trkpt lat="44.26532677745055" lon="8.32527101048982"><ele>681.2</ele><time>2026-04-04T10:12:21.002Z</time></trkpt><trkpt lat="44.26537323689763" lon="8.325170054645987"><ele>683.8</ele><time>2026-04-04T10:12:22.002Z</time></trkpt><trkpt lat="44.265453380996654" lon="8.325111330853229"><ele>686.4000000000001</ele><time>2026-04-04T10:12:23.002Z</time></trkpt><trkpt lat="44.265573969642794" lon="8.3249926761457"><ele>689.0</ele><time>2026-04-04T10:12:24.002Z</time></trkpt><trkpt lat="44.26566895955684" lon="8.324884545009528"><ele>689.6</ele><time>2026-04-04T10:12:25.002Z</time></trkpt><trkpt lat="44.265746795397824" lon="8.324799055156015"><ele>690.2</ele><time>2026-04-04T10:12:26.002Z</time></trkpt><trkpt lat="44.26577408198644" lon="8.324684938648154"><ele>690.8000000000001</ele><time>2026-04-04T10:12:28.002Z</time></trkpt><trkpt lat="44.265911987555704" lon="8.324650905863207"><ele>691.4000000000001</ele><time>2026-04-04T10:12:30.002Z</time></trkpt><trkpt lat="44.265980397803844" lon="8.324712255094584"><ele>692.0</ele><time>2026-04-04T10:12:31Z</time></trkpt><trkpt lat="44.26605855902055" lon="8.324753318395873"><ele>692.0</ele><time>2026-04-04T10:12:32Z</time></trkpt><trkpt lat="44.266178924467916" lon="8.324788974984967"><ele>692.0</ele><time>2026-04-04T10:12:34Z</time></trkpt><trkpt lat="44.266294457322864" lon="8.324772537445932"><ele>692.0</ele><time>2026-04-04T10:12:36Z</time></trkpt><trkpt lat="44.26636585383142" lon="8.32472897258434"><ele>692.0</ele><time>2026-04-04T10:12:37Z</time></trkpt><trkpt lat="44.26643523051083" lon="8.324706742178634"><ele>692.0</ele><time>2026-04-04T10:12:38Z</time></trkpt><trkpt lat="44.26655525836138" lon="8.324674190409448"><ele>693.3333333333333</ele><time>2026-04-04T10:12:40Z</time></trkpt><trkpt lat="44.26660799170736" lon="8.324727963819377"><ele>694.6666666666666</ele><time>2026-04-04T10:12:41Z</time></trkpt><trkpt lat="44.266632168241834" lon="8.324870358889376"><ele>696.0</ele><time>2026-04-04T10:12:42Z</time></trkpt><trkpt lat="44.266652884942665" lon="8.324964630279204"><ele>697.3333333333334</ele><time>2026-04-04T10:12:43Z</time></trkpt><trkpt lat="44.266701753661415" lon="8.325039079426082"><ele>698.6666666666667</ele><time>2026-04-04T10:12:44Z</time></trkpt><trkpt lat="44.26677462661238" lon="8.325119459751217"><ele>700.0</ele><time>2026-04-04T10:12:45Z</time></trkpt><trkpt lat="44.26683334666494" lon="8.325206734413007"><ele>694.5</ele><time>2026-04-04T10:12:46Z</time></trkpt><trkpt lat="44.26690289647924" lon="8.325290314483096"><ele>689.0</ele><time>2026-04-04T10:12:47Z</time></trkpt><trkpt lat="44.26695810907861" lon="8.325388404813609"><ele>683.5</ele><time>2026-04-04T10:12:48Z</time></trkpt><trkpt lat="44.26703594969007" lon="8.32543466532095"><ele>678.0</ele><time>2026-04-04T10:12:49Z</time></trkpt><trkpt lat="44.267101019013694" lon="8.325462868457564"><ele>672.5</ele><time>2026-04-04T10:12:50Z</time></trkpt><trkpt lat="44.26720369212974" lon="8.325467189998509"><ele>667.0</ele><time>2026-04-04T10:12:51Z</time></trkpt><trkpt lat="44.267298763454846" lon="8.325443767095864"><ele>667.0</ele><time>2026-04-04T10:12:52Z</time></trkpt><trkpt lat="44.26734443842796" lon="8.325374937952509"><ele>667.0</ele><time>2026-04-04T10:12:53Z</time></trkpt><trkpt lat="44.26745124637268" lon="8.325256676798759"><ele>667.0</ele><time>2026-04-04T10:12:54Z</time></trkpt><trkpt lat="44.2675457403582" lon="8.325139049145163"><ele>667.0</ele><time>2026-04-04T10:12:55Z</time></trkpt><trkpt lat="44.267620290751" lon="8.325032880269646"><ele>667.0</ele><time>2026-04-04T10:12:56Z</time></trkpt><trkpt lat="44.26767010004583" lon="8.324863085112051"><ele>671.6</ele><time>2026-04-04T10:12:57Z</time></trkpt><trkpt lat="44.2677152067781" lon="8.324727212484092"><ele>676.2</ele><time>2026-04-04T10:12:58Z</time></trkpt><trkpt lat="44.26777404304938" lon="8.324649282661506"><ele>680.8</ele><time>2026-04-04T10:12:59Z</time></trkpt><trkpt lat="44.26784561905435" lon="8.324568267451767"><ele>685.4</ele><time>2026-04-04T10:13:00Z</time></trkpt><trkpt lat="44.26790629228606" lon="8.324492069372171"><ele>690.0</ele><time>2026-04-04T10:13:01Z</time></trkpt><trkpt lat="44.26795549191031" lon="8.324376713688546"><ele>690.0</ele><time>2026-04-04T10:13:02Z</time></trkpt><trkpt lat="44.26799189155783" lon="8.324252222151278"><ele>690.0</ele><time>2026-04-04T10:13:03Z</time></trkpt><trkpt lat="44.268045384078526" lon="8.324143061626526"><ele>690.0</ele><time>2026-04-04T10:13:04Z</time></trkpt><trkpt lat="44.268079398320786" lon="8.324061763170478"><ele>690.0</ele><time>2026-04-04T10:13:05Z</time></trkpt><trkpt lat="44.26810399981564" lon="8.323975856662322"><ele>690.0</ele><time>2026-04-04T10:13:06Z</time></trkpt><trkpt lat="44.26819831633545" lon="8.323961627298411"><ele>690.0</ele><time>2026-04-04T10:13:07Z</time></trkpt><trkpt lat="44.26830338526137" lon="8.324027756618051"><ele>690.2</ele><time>2026-04-04T10:13:08Z</time></trkpt><trkpt lat="44.26839989456907" lon="8.324007860266263"><ele>690.4</ele><time>2026-04-04T10:13:09Z</time></trkpt><trkpt lat="44.26848909558201" lon="8.323949934040792"><ele>690.5999999999999</ele><time>2026-04-04T10:13:10Z</time></trkpt><trkpt lat="44.26858639523851" lon="8.323839355978704"><ele>690.8</ele><time>2026-04-04T10:13:11.001Z</time></trkpt><trkpt lat="44.268645850924145" lon="8.32373395203695"><ele>691.0</ele><time>2026-04-04T10:13:12.001Z</time></trkpt><trkpt lat="44.26870316641397" lon="8.323684213984015"><ele>691.0</ele><time>2026-04-04T10:13:13.001Z</time></trkpt><trkpt lat="44.26880930380065" lon="8.32368320258272"><ele>691.0</ele><time>2026-04-04T10:13:15.001Z</time></trkpt><trkpt lat="44.268828117902096" lon="8.323801051588687"><ele>691.0</ele><time>2026-04-04T10:13:16.001Z</time></trkpt><trkpt lat="44.26887016348432" lon="8.323874731173223"><ele>691.0</ele><time>2026-04-04T10:13:17.001Z</time></trkpt><trkpt lat="44.268947906299275" lon="8.323904143261775"><ele>691.0</ele><time>2026-04-04T10:13:18.001Z</time></trkpt><trkpt lat="44.26902956929625" lon="8.323845768555758"><ele>691.0</ele><time>2026-04-04T10:13:19.001Z</time></trkpt><trkpt lat="44.269110873773535" lon="8.323900267835356"><ele>689.3333333333334</ele><time>2026-04-04T10:13:20.001Z</time></trkpt><trkpt lat="44.26917808191005" lon="8.323898134413241"><ele>687.6666666666667</ele><time>2026-04-04T10:13:21.001Z</time></trkpt><trkpt lat="44.26928729200225" lon="8.323850070902813"><ele>686.0</ele><time>2026-04-04T10:13:23.001Z</time></trkpt><trkpt lat="44.26931815099901" lon="8.323772302361014"><ele>684.3333333333334</ele><time>2026-04-04T10:13:24.001Z</time></trkpt><trkpt lat="44.26936612709249" lon="8.323640149515654"><ele>682.6666666666666</ele><time>2026-04-04T10:13:25.001Z</time></trkpt><trkpt lat="44.269404088125484" lon="8.323568691844713"><ele>681.0</ele><time>2026-04-04T10:13:26.001Z</time></trkpt><trkpt lat="44.269541261219935" lon="8.323646667007408"><ele>681.0</ele><time>2026-04-04T10:13:30.001Z</time></trkpt><trkpt lat="44.26962153068599" lon="8.323777061863067"><ele>681.0</ele><time>2026-04-04T10:13:31.001Z</time></trkpt><trkpt lat="44.26968736244107" lon="8.323939345607208"><ele>681.0</ele><time>2026-04-04T10:13:32.001Z</time></trkpt><trkpt lat="44.26975990057588" lon="8.32406647789706"><ele>681.0</ele><time>2026-04-04T10:13:33.001Z</time></trkpt><trkpt lat="44.269814855966885" lon="8.324179001204573"><ele>678.8333333333334</ele><time>2026-04-04T10:13:34.001Z</time></trkpt><trkpt lat="44.26986316694532" lon="8.324243289084222"><ele>676.6666666666666</ele><time>2026-04-04T10:13:35.001Z</time></trkpt><trkpt lat="44.26992878392588" lon="8.324293627506108"><ele>674.5</ele><time>2026-04-04T10:13:36.001Z</time></trkpt><trkpt lat="44.27001069349685" lon="8.32431385501231"><ele>672.3333333333333</ele><time>2026-04-04T10:13:37.001Z</time></trkpt><trkpt lat="44.27012475104686" lon="8.324304167384192"><ele>670.1666666666666</ele><time>2026-04-04T10:13:38.001Z</time></trkpt><trkpt lat="44.27022305881159" lon="8.324322929973137"><ele>668.0</ele><time>2026-04-04T10:13:39.001Z</time></trkpt><trkpt lat="44.270305552932484" lon="8.324380034482935"><ele>668.0</ele><time>2026-04-04T10:13:40.001Z</time></trkpt><trkpt lat="44.27035174047375" lon="8.324483125247058"><ele>668.0</ele><time>2026-04-04T10:13:41.001Z</time></trkpt><trkpt lat="44.270429461594354" lon="8.324625839111876"><ele>668.0</ele><time>2026-04-04T10:13:42.001Z</time></trkpt><trkpt lat="44.27053038883196" lon="8.324720507571024"><ele>668.0</ele><time>2026-04-04T10:13:43.001Z</time></trkpt><trkpt lat="44.27062640399779" lon="8.324799556159782"><ele>668.0</ele><time>2026-04-04T10:13:44.001Z</time></trkpt><trkpt lat="44.270716821219644" lon="8.324911688968134"><ele>666.6666666666666</ele><time>2026-04-04T10:13:45.001Z</time></trkpt><trkpt lat="44.270746222369624" lon="8.325015373664302"><ele>665.3333333333333</ele><time>2026-04-04T10:13:46.001Z</time></trkpt><trkpt lat="44.270813843889826" lon="8.325094747667084"><ele>664.0</ele><time>2026-04-04T10:13:47.001Z</time></trkpt><trkpt lat="44.27087593305031" lon="8.3251468484715"><ele>662.6666666666666</ele><time>2026-04-04T10:13:48.001Z</time></trkpt><trkpt lat="44.27097204512848" lon="8.325162360615304"><ele>661.3333333333334</ele><time>2026-04-04T10:13:49.001Z</time></trkpt><trkpt lat="44.271053696227455" lon="8.32514030099967"><ele>660.0</ele><time>2026-04-04T10:13:50.001Z</time></trkpt><trkpt lat="44.27115089269001" lon="8.325118030488671"><ele>660.0</ele><time>2026-04-04T10:13:51.001Z</time></trkpt><trkpt lat="44.27125407038991" lon="8.325076232026305"><ele>660.0</ele><time>2026-04-04T10:13:52.001Z</time></trkpt><trkpt lat="44.27135887061076" lon="8.325022447975597"><ele>660.0</ele><time>2026-04-04T10:13:53.001Z</time></trkpt><trkpt lat="44.27146395300106" lon="8.325011635423403"><ele>660.0</ele><time>2026-04-04T10:13:54.001Z</time></trkpt><trkpt lat="44.27155106750042" lon="8.325021286791172"><ele>660.0</ele><time>2026-04-04T10:13:55.001Z</time></trkpt><trkpt lat="44.271655716377914" lon="8.32505314731836"><ele>662.5</ele><time>2026-04-04T10:13:56.001Z</time></trkpt><trkpt lat="44.271756258920966" lon="8.325113829994127"><ele>665.0</ele><time>2026-04-04T10:13:57.001Z</time></trkpt><trkpt lat="44.271893324892204" lon="8.325150387127836"><ele>667.5</ele><time>2026-04-04T10:13:58.001Z</time></trkpt><trkpt lat="44.2720130786939" lon="8.325191615947585"><ele>670.0</ele><time>2026-04-04T10:13:59.001Z</time></trkpt><trkpt lat="44.27209806543618" lon="8.325279081516573"><ele>670.0</ele><time>2026-04-04T10:14:00.001Z</time></trkpt><trkpt lat="44.272161050660486" lon="8.325385489865734"><ele>670.0</ele><time>2026-04-04T10:14:01.001Z</time></trkpt><trkpt lat="44.27227980100275" lon="8.325462460601807"><ele>670.0</ele><time>2026-04-04T10:14:02.001Z</time></trkpt><trkpt lat="44.27236850450621" lon="8.325622819339072"><ele>670.0</ele><time>2026-04-04T10:14:03.001Z</time></trkpt><trkpt lat="44.272421807066195" lon="8.325746735248307"><ele>669.4</ele><time>2026-04-04T10:14:04.001Z</time></trkpt><trkpt lat="44.27250155003316" lon="8.3258478769939"><ele>668.8</ele><time>2026-04-04T10:14:05.001Z</time></trkpt><trkpt lat="44.27258755777977" lon="8.325946420273382"><ele>668.2</ele><time>2026-04-04T10:14:06.001Z</time></trkpt><trkpt lat="44.27267623277476" lon="8.326045131392068"><ele>667.6</ele><time>2026-04-04T10:14:07.001Z</time></trkpt><trkpt lat="44.27275871305989" lon="8.326138614337511"><ele>667.0</ele><time>2026-04-04T10:14:08.001Z</time></trkpt><trkpt lat="44.27285291904781" lon="8.326247443800655"><ele>667.0</ele><time>2026-04-04T10:14:09.001Z</time></trkpt><trkpt lat="44.27289967914886" lon="8.32635303859212"><ele>667.0</ele><time>2026-04-04T10:14:10.001Z</time></trkpt><trkpt lat="44.272929889766544" lon="8.3264926387765"><ele>667.0</ele><time>2026-04-04T10:14:11.001Z</time></trkpt><trkpt lat="44.27294529295261" lon="8.326611922685126"><ele>667.0</ele><time>2026-04-04T10:14:12.001Z</time></trkpt><trkpt lat="44.272981302182885" lon="8.32669460358293"><ele>667.0</ele><time>2026-04-04T10:14:13.001Z</time></trkpt><trkpt lat="44.2730520451202" lon="8.326757482066906"><ele>667.0</ele><time>2026-04-04T10:14:14.001Z</time></trkpt><trkpt lat="44.27316908954827" lon="8.326808141365364"><ele>668.8</ele><time>2026-04-04T10:14:15.001Z</time></trkpt><trkpt lat="44.27325327938703" lon="8.326907839953835"><ele>670.6</ele><time>2026-04-04T10:14:16.001Z</time></trkpt><trkpt lat="44.2733349260278" lon="8.32700881514379"><ele>672.4</ele><time>2026-04-04T10:14:17.001Z</time></trkpt><trkpt lat="44.27339726081617" lon="8.327062117635156"><ele>674.1999999999999</ele><time>2026-04-04T10:14:18.001Z</time></trkpt><trkpt lat="44.27347636732513" lon="8.327085541181297"><ele>676.0</ele><time>2026-04-04T10:14:19.001Z</time></trkpt><trkpt lat="44.273565463625225" lon="8.327092114135453"><ele>676.0</ele><time>2026-04-04T10:14:20.001Z</time></trkpt><trkpt lat="44.27369549903999" lon="8.327101908072883"><ele>676.0</ele><time>2026-04-04T10:14:21.001Z</time></trkpt><trkpt lat="44.27379727772223" lon="8.327111720152825"><ele>676.0</ele><time>2026-04-04T10:14:22.001Z</time></trkpt><trkpt lat="44.273873193502" lon="8.327098214320772"><ele>676.0</ele><time>2026-04-04T10:14:23.001Z</time></trkpt><trkpt lat="44.27395377227239" lon="8.327093186036915"><ele>676.0</ele><time>2026-04-04T10:14:24.002Z</time></trkpt><trkpt lat="44.27403307927479" lon="8.327071176105614"><ele>677.0</ele><time>2026-04-04T10:14:25.002Z</time></trkpt><trkpt lat="44.27410593193062" lon="8.327021809697468"><ele>678.0</ele><time>2026-04-04T10:14:26.002Z</time></trkpt><trkpt lat="44.2741854434056" lon="8.326950389961587"><ele>679.0</ele><time>2026-04-04T10:14:27.002Z</time></trkpt><trkpt lat="44.274295982435994" lon="8.326843903528829"><ele>680.0</ele><time>2026-04-04T10:14:28.002Z</time></trkpt><trkpt lat="44.2743672289463" lon="8.326765721761547"><ele>681.0</ele><time>2026-04-04T10:14:29.002Z</time></trkpt><trkpt lat="44.27442752068589" lon="8.326693280049616"><ele>681.0</ele><time>2026-04-04T10:14:30.002Z</time></trkpt><trkpt lat="44.27452163380579" lon="8.326648707785298"><ele>681.0</ele><time>2026-04-04T10:14:31.002Z</time></trkpt><trkpt lat="44.2746150155808" lon="8.326639004004106"><ele>681.0</ele><time>2026-04-04T10:14:32.002Z</time></trkpt><trkpt lat="44.27475161985888" lon="8.326652600040786"><ele>681.0</ele><time>2026-04-04T10:14:33.002Z</time></trkpt><trkpt lat="44.27486514913074" lon="8.326759958932865"><ele>680.3333333333334</ele><time>2026-04-04T10:14:34.002Z</time></trkpt><trkpt lat="44.27493756133693" lon="8.326807254487356"><ele>679.6666666666666</ele><time>2026-04-04T10:14:35.002Z</time></trkpt><trkpt lat="44.27501095986986" lon="8.32686933208654"><ele>679.0</ele><time>2026-04-04T10:14:36.002Z</time></trkpt><trkpt lat="44.27508528761841" lon="8.326902539456265"><ele>678.3333333333333</ele><time>2026-04-04T10:14:37Z</time></trkpt><trkpt lat="44.275153412698174" lon="8.326916367052586"><ele>677.6666666666666</ele><time>2026-04-04T10:14:38Z</time></trkpt><trkpt lat="44.275250611091096" lon="8.326887570940478"><ele>677.0</ele><time>2026-04-04T10:14:39Z</time></trkpt><trkpt lat="44.27535558408664" lon="8.326863794235795"><ele>677.0</ele><time>2026-04-04T10:14:40Z</time></trkpt><trkpt lat="44.275477007666986" lon="8.326885076377225"><ele>677.0</ele><time>2026-04-04T10:14:41Z</time></trkpt><trkpt lat="44.2755844951081" lon="8.326891384639863"><ele>677.0</ele><time>2026-04-04T10:14:42Z</time></trkpt><trkpt lat="44.27565398452509" lon="8.326872280000146"><ele>677.0</ele><time>2026-04-04T10:14:43Z</time></trkpt><trkpt lat="44.27573782742007" lon="8.326885729073098"><ele>677.0</ele><time>2026-04-04T10:14:44Z</time></trkpt><trkpt lat="44.27584068875657" lon="8.326863349229624"><ele>677.4000000000001</ele><time>2026-04-04T10:14:45Z</time></trkpt><trkpt lat="44.27593246583874" lon="8.326876907633688"><ele>677.8000000000001</ele><time>2026-04-04T10:14:46Z</time></trkpt><trkpt lat="44.27598757328284" lon="8.32692677640223"><ele>678.2</ele><time>2026-04-04T10:14:47Z</time></trkpt><trkpt lat="44.27607191514343" lon="8.326956406339425"><ele>678.6</ele><time>2026-04-04T10:14:48Z</time></trkpt><trkpt lat="44.27613927478051" lon="8.326984677669886"><ele>679.0</ele><time>2026-04-04T10:14:49Z</time></trkpt><trkpt lat="44.276277973791814" lon="8.327049371018783"><ele>679.0</ele><time>2026-04-04T10:14:51Z</time></trkpt><trkpt lat="44.276364211462734" lon="8.327081390853587"><ele>679.0</ele><time>2026-04-04T10:14:52Z</time></trkpt><trkpt lat="44.27645105111521" lon="8.327103527238096"><ele>679.0</ele><time>2026-04-04T10:14:53Z</time></trkpt><trkpt lat="44.27658272661141" lon="8.327114606982141"><ele>679.0</ele><time>2026-04-04T10:14:54Z</time></trkpt><trkpt lat="44.27668210210295" lon="8.327132994569283"><ele>679.0</ele><time>2026-04-04T10:14:55Z</time></trkpt><trkpt lat="44.27678947355702" lon="8.327128637658424"><ele>680.25</ele><time>2026-04-04T10:14:56Z</time></trkpt><trkpt lat="44.27689787427225" lon="8.327122230249929"><ele>681.5</ele><time>2026-04-04T10:14:57Z</time></trkpt><trkpt lat="44.27698970428791" lon="8.327112031406896"><ele>682.75</ele><time>2026-04-04T10:14:58Z</time></trkpt><trkpt lat="44.27719271607315" lon="8.3270711535211"><ele>684.0</ele><time>2026-04-04T10:15:00Z</time></trkpt><trkpt lat="44.27727982956295" lon="8.327039863152383"><ele>685.8000000000001</ele><time>2026-04-04T10:15:01Z</time></trkpt><trkpt lat="44.277403391713854" lon="8.327046131512228"><ele>687.6</ele><time>2026-04-04T10:15:03Z</time></trkpt><trkpt lat="44.27747013541042" lon="8.327068539028428"><ele>689.4</ele><time>2026-04-04T10:15:04Z</time></trkpt><trkpt lat="44.27751884199455" lon="8.327249967037869"><ele>691.2</ele><time>2026-04-04T10:15:06Z</time></trkpt><trkpt lat="44.277555070795444" lon="8.327374337602196"><ele>693.0</ele><time>2026-04-04T10:15:07Z</time></trkpt><trkpt lat="44.27760817124478" lon="8.32744111990846"><ele>688.5</ele><time>2026-04-04T10:15:08Z</time></trkpt><trkpt lat="44.27766285503827" lon="8.327504608848269"><ele>684.0</ele><time>2026-04-04T10:15:09Z</time></trkpt><trkpt lat="44.27772636888619" lon="8.327496922662911"><ele>679.5</ele><time>2026-04-04T10:15:10Z</time></trkpt><trkpt lat="44.27780551364831" lon="8.327524485127787"><ele>675.0</ele><time>2026-04-04T10:15:11Z</time></trkpt><trkpt lat="44.27785859690796" lon="8.327614112958702"><ele>670.5</ele><time>2026-04-04T10:15:12Z</time></trkpt><trkpt lat="44.27791900907649" lon="8.327716329988158"><ele>666.0</ele><time>2026-04-04T10:15:13Z</time></trkpt><trkpt lat="44.277952689257596" lon="8.327837693480106"><ele>666.0</ele><time>2026-04-04T10:15:14Z</time></trkpt><trkpt lat="44.27797905635791" lon="8.32796747002588"><ele>666.0</ele><time>2026-04-04T10:15:15Z</time></trkpt><trkpt lat="44.27803561598168" lon="8.328048616129992"><ele>666.0</ele><time>2026-04-04T10:15:16Z</time></trkpt><trkpt lat="44.27814430362762" lon="8.328123098920473"><ele>666.0</ele><time>2026-04-04T10:15:17Z</time></trkpt><trkpt lat="44.27822690634498" lon="8.328190261065316"><ele>666.0</ele><time>2026-04-04T10:15:18Z</time></trkpt><trkpt lat="44.27827523889022" lon="8.328276423081762"><ele>666.8</ele><time>2026-04-04T10:15:19Z</time></trkpt><trkpt lat="44.278317746548474" lon="8.328393029401253"><ele>667.5999999999999</ele><time>2026-04-04T10:15:20.001Z</time></trkpt><trkpt lat="44.27833900341701" lon="8.328513243802464"><ele>668.4</ele><time>2026-04-04T10:15:21.001Z</time></trkpt><trkpt lat="44.27837486138849" lon="8.32859335106004"><ele>669.2</ele><time>2026-04-04T10:15:22.001Z</time></trkpt><trkpt lat="44.27851696599865" lon="8.3286369900784"><ele>670.0</ele><time>2026-04-04T10:15:24.001Z</time></trkpt><trkpt lat="44.278611782611286" lon="8.328641556687806"><ele>670.0</ele><time>2026-04-04T10:15:25.001Z</time></trkpt><trkpt lat="44.27869477598957" lon="8.32868577536628"><ele>670.0</ele><time>2026-04-04T10:15:26.001Z</time></trkpt><trkpt lat="44.27876562059474" lon="8.328766496648937"><ele>670.0</ele><time>2026-04-04T10:15:27.001Z</time></trkpt><trkpt lat="44.278845792803004" lon="8.32882935122669"><ele>670.0</ele><time>2026-04-04T10:15:28.001Z</time></trkpt><trkpt lat="44.278927847361786" lon="8.328868255511896"><ele>670.0</ele><time>2026-04-04T10:15:29.001Z</time></trkpt><trkpt lat="44.27902016278439" lon="8.328886034989315"><ele>670.6666666666667</ele><time>2026-04-04T10:15:30.001Z</time></trkpt><trkpt lat="44.27911073094023" lon="8.328884464398152"><ele>671.3333333333334</ele><time>2026-04-04T10:15:31.001Z</time></trkpt><trkpt lat="44.27920942929265" lon="8.328881825505414"><ele>672.0</ele><time>2026-04-04T10:15:32.001Z</time></trkpt><trkpt lat="44.27928801408402" lon="8.328891133483397"><ele>672.6666666666666</ele><time>2026-04-04T10:15:33.001Z</time></trkpt><trkpt lat="44.279371346202936" lon="8.32893253099131"><ele>673.3333333333333</ele><time>2026-04-04T10:15:34.001Z</time></trkpt><trkpt lat="44.27944000952855" lon="8.329019069818225"><ele>674.0</ele><time>2026-04-04T10:15:35.001Z</time></trkpt><trkpt lat="44.279514464447274" lon="8.329121522336324"><ele>673.0</ele><time>2026-04-04T10:15:36.001Z</time></trkpt><trkpt lat="44.2796099036736" lon="8.329223748415853"><ele>672.0</ele><time>2026-04-04T10:15:37.001Z</time></trkpt><trkpt lat="44.27971738122533" lon="8.32932806151043"><ele>671.0</ele><time>2026-04-04T10:15:38.001Z</time></trkpt><trkpt lat="44.27978471231245" lon="8.329399346308927"><ele>670.0</ele><time>2026-04-04T10:15:39.001Z</time></trkpt><trkpt lat="44.279848744047634" lon="8.329467837908144"><ele>669.0</ele><time>2026-04-04T10:15:40.001Z</time></trkpt><trkpt lat="44.279911486258705" lon="8.329485681788473"><ele>669.0</ele><time>2026-04-04T10:15:41.001Z</time></trkpt><trkpt lat="44.27998789329211" lon="8.329472638698183"><ele>669.0</ele><time>2026-04-04T10:15:42.001Z</time></trkpt><trkpt lat="44.28006570364599" lon="8.329421834777277"><ele>669.0</ele><time>2026-04-04T10:15:43.001Z</time></trkpt><trkpt lat="44.28014869897457" lon="8.32935457944112"><ele>669.0</ele><time>2026-04-04T10:15:44.001Z</time></trkpt><trkpt lat="44.28022100737185" lon="8.329289223712893"><ele>669.0</ele><time>2026-04-04T10:15:45.001Z</time></trkpt><trkpt lat="44.28029277542433" lon="8.329259691482168"><ele>669.0</ele><time>2026-04-04T10:15:46.001Z</time></trkpt><trkpt lat="44.28037443695071" lon="8.3292652429253"><ele>669.0</ele><time>2026-04-04T10:15:47.001Z</time></trkpt><trkpt lat="44.28046823094044" lon="8.329311632292654"><ele>669.0</ele><time>2026-04-04T10:15:48.001Z</time></trkpt><trkpt lat="44.28056344739722" lon="8.329381830389915"><ele>669.0</ele><time>2026-04-04T10:15:49.001Z</time></trkpt><trkpt lat="44.28066431427348" lon="8.32943474977483"><ele>669.0</ele><time>2026-04-04T10:15:50.001Z</time></trkpt><trkpt lat="44.280754397497304" lon="8.329457722020285"><ele>669.0</ele><time>2026-04-04T10:15:51.001Z</time></trkpt><trkpt lat="44.280852398881606" lon="8.329449476437738"><ele>670.8333333333334</ele><time>2026-04-04T10:15:52.001Z</time></trkpt><trkpt lat="44.28094385916046" lon="8.32944856875762"><ele>672.6666666666666</ele><time>2026-04-04T10:15:53.001Z</time></trkpt><trkpt lat="44.2810265874373" lon="8.329472392148848"><ele>674.5</ele><time>2026-04-04T10:15:54.001Z</time></trkpt><trkpt lat="44.2810941855346" lon="8.32952502707198"><ele>676.3333333333333</ele><time>2026-04-04T10:15:55.001Z</time></trkpt><trkpt lat="44.281168271949824" lon="8.329574799272265"><ele>678.1666666666666</ele><time>2026-04-04T10:15:56.001Z</time></trkpt><trkpt lat="44.28123763143617" lon="8.329604192387034"><ele>680.0</ele><time>2026-04-04T10:15:57.001Z</time></trkpt><trkpt lat="44.28135634322204" lon="8.329634077921503"><ele>678.4</ele><time>2026-04-04T10:15:59.001Z</time></trkpt><trkpt lat="44.28146329299599" lon="8.329629585038322"><ele>676.8</ele><time>2026-04-04T10:16:01.001Z</time></trkpt><trkpt lat="44.28155576173631" lon="8.329595217759083"><ele>675.2</ele><time>2026-04-04T10:16:03.001Z</time></trkpt><trkpt lat="44.28164217326336" lon="8.32956923084177"><ele>673.6</ele><time>2026-04-04T10:16:06.001Z</time></trkpt><trkpt lat="44.281778594292255" lon="8.329535879278032"><ele>672.0</ele><time>2026-04-04T10:16:45Z</time></trkpt><trkpt lat="44.28182626846224" lon="8.329598991543714"><ele>672.0</ele><time>2026-04-04T10:16:48Z</time></trkpt><trkpt lat="44.28187397990542" lon="8.329661639246536"><ele>672.0</ele><time>2026-04-04T10:16:50Z</time></trkpt><trkpt lat="44.28193662669186" lon="8.329716664144804"><ele>672.0</ele><time>2026-04-04T10:16:51Z</time></trkpt><trkpt lat="44.282040451201716" lon="8.330052095447355"><ele>672.0</ele><time>2026-04-04T10:16:52Z</time></trkpt><trkpt lat="44.28209097563867" lon="8.330179978049573"><ele>671.2</ele><time>2026-04-04T10:16:53Z</time></trkpt><trkpt lat="44.28212856163382" lon="8.330264885899094"><ele>670.4000000000001</ele><time>2026-04-04T10:16:55Z</time></trkpt><trkpt lat="44.28223054753489" lon="8.330232637873461"><ele>669.5999999999999</ele><time>2026-04-04T10:16:57Z</time></trkpt><trkpt lat="44.28232802827098" lon="8.330183659427092"><ele>668.8</ele><time>2026-04-04T10:16:59Z</time></trkpt><trkpt lat="44.28237688213438" lon="8.33011120524552"><ele>668.0</ele><time>2026-04-04T10:17:00Z</time></trkpt><trkpt lat="44.282522799585486" lon="8.330090172109143"><ele>670.0</ele><time>2026-04-04T10:17:02Z</time></trkpt><trkpt lat="44.28261228118244" lon="8.330069538920577"><ele>672.0</ele><time>2026-04-04T10:17:03Z</time></trkpt><trkpt lat="44.28268963465147" lon="8.330028014164311"><ele>674.0</ele><time>2026-04-04T10:17:04Z</time></trkpt><trkpt lat="44.28276524173976" lon="8.330022397982615"><ele>676.0</ele><time>2026-04-04T10:17:05Z</time></trkpt><trkpt lat="44.28284408847792" lon="8.330000310363742"><ele>678.0</ele><time>2026-04-04T10:17:06Z</time></trkpt><trkpt lat="44.28294254901045" lon="8.330035808273685"><ele>680.0</ele><time>2026-04-04T10:17:07Z</time></trkpt><trkpt lat="44.28302519354314" lon="8.330081368947441"><ele>681.6</ele><time>2026-04-04T10:17:08Z</time></trkpt><trkpt lat="44.283115914185714" lon="8.330132757944426"><ele>683.2</ele><time>2026-04-04T10:17:09Z</time></trkpt><trkpt lat="44.2831907836011" lon="8.330217707239978"><ele>684.8</ele><time>2026-04-04T10:17:10Z</time></trkpt><trkpt lat="44.28326649308263" lon="8.330277469754003"><ele>686.4</ele><time>2026-04-04T10:17:11Z</time></trkpt><trkpt lat="44.28333664998727" lon="8.330354034458153"><ele>688.0</ele><time>2026-04-04T10:17:12Z</time></trkpt><trkpt lat="44.28340525689653" lon="8.33041928261878"><ele>688.0</ele><time>2026-04-04T10:17:13Z</time></trkpt><trkpt lat="44.28351921012586" lon="8.330462646468028"><ele>688.0</ele><time>2026-04-04T10:17:14Z</time></trkpt><trkpt lat="44.28360165675964" lon="8.330509514118004"><ele>688.0</ele><time>2026-04-04T10:17:15Z</time></trkpt><trkpt lat="44.283717248447715" lon="8.330599852318075"><ele>688.0</ele><time>2026-04-04T10:17:17Z</time></trkpt><trkpt lat="44.28375236027492" lon="8.330688977496806"><ele>688.0</ele><time>2026-04-04T10:17:18Z</time></trkpt><trkpt lat="44.28382342996771" lon="8.330761509125736"><ele>692.4</ele><time>2026-04-04T10:17:19Z</time></trkpt><trkpt lat="44.28388872918977" lon="8.330824706000127"><ele>696.8</ele><time>2026-04-04T10:17:20Z</time></trkpt><trkpt lat="44.28393862278077" lon="8.330888148290688"><ele>701.2</ele><time>2026-04-04T10:17:22.001Z</time></trkpt><trkpt lat="44.28405847571009" lon="8.330961665833378"><ele>705.6</ele><time>2026-04-04T10:17:24.001Z</time></trkpt><trkpt lat="44.28416017396866" lon="8.330925832543409"><ele>710.0</ele><time>2026-04-04T10:17:26.001Z</time></trkpt><trkpt lat="44.28421397010603" lon="8.330870027285496"><ele>710.7142857142857</ele><time>2026-04-04T10:17:27.001Z</time></trkpt><trkpt lat="44.2842594766302" lon="8.330796606489544"><ele>711.4285714285714</ele><time>2026-04-04T10:17:28.001Z</time></trkpt><trkpt lat="44.284284228089504" lon="8.330715038295862"><ele>712.1428571428571</ele><time>2026-04-04T10:17:29.001Z</time></trkpt><trkpt lat="44.28433199177958" lon="8.330603622496493"><ele>712.8571428571429</ele><time>2026-04-04T10:17:30.001Z</time></trkpt><trkpt lat="44.284385752720446" lon="8.330512479379545"><ele>713.5714285714286</ele><time>2026-04-04T10:17:31.001Z</time></trkpt><trkpt lat="44.28442264669675" lon="8.330438100651067"><ele>714.2857142857143</ele><time>2026-04-04T10:17:32.001Z</time></trkpt><trkpt lat="44.28446608908074" lon="8.330356477101049"><ele>715.0</ele><time>2026-04-04T10:17:33.001Z</time></trkpt><trkpt lat="44.284519738102645" lon="8.33026234235319"><ele>715.4</ele><time>2026-04-04T10:17:34.001Z</time></trkpt><trkpt lat="44.284572352810194" lon="8.330143771514033"><ele>715.8</ele><time>2026-04-04T10:17:35.001Z</time></trkpt><trkpt lat="44.284651650743626" lon="8.330077912945598"><ele>716.2</ele><time>2026-04-04T10:17:36.001Z</time></trkpt><trkpt lat="44.28467403769309" lon="8.329924325101238"><ele>716.6</ele><time>2026-04-04T10:17:38.001Z</time></trkpt><trkpt lat="44.284715429949195" lon="8.329827694083932"><ele>717.0</ele><time>2026-04-04T10:17:40.001Z</time></trkpt><trkpt lat="44.284772764629096" lon="8.32974787771661"><ele>714.3333333333334</ele><time>2026-04-04T10:17:51.001Z</time></trkpt><trkpt lat="44.284846708789615" lon="8.329660485337442"><ele>711.6666666666666</ele><time>2026-04-04T10:17:55.001Z</time></trkpt><trkpt lat="44.28489655764372" lon="8.329583859225933"><ele>709.0</ele><time>2026-04-04T10:17:57.001Z</time></trkpt><trkpt lat="44.284947322386486" lon="8.329515054223037"><ele>706.3333333333333</ele><time>2026-04-04T10:17:59.001Z</time></trkpt><trkpt lat="44.28501385300321" lon="8.329472836721695"><ele>703.6666666666666</ele><time>2026-04-04T10:18:01.001Z</time></trkpt><trkpt lat="44.28508464401814" lon="8.329429141529278"><ele>701.0</ele><time>2026-04-04T10:18:03.001Z</time></trkpt><trkpt lat="44.285157492825626" lon="8.329455866710674"><ele>701.0</ele><time>2026-04-04T10:18:05.001Z</time></trkpt><trkpt lat="44.28518323616346" lon="8.329549851041737"><ele>701.0</ele><time>2026-04-04T10:18:07.001Z</time></trkpt><trkpt lat="44.28517218425862" lon="8.329657089566759"><ele>701.0</ele><time>2026-04-04T10:18:08.001Z</time></trkpt><trkpt lat="44.28516751622347" lon="8.329752549321917"><ele>701.0</ele><time>2026-04-04T10:18:09.001Z</time></trkpt><trkpt lat="44.28518806403621" lon="8.329898857660766"><ele>701.0</ele><time>2026-04-04T10:18:11.001Z</time></trkpt><trkpt lat="44.28523068001652" lon="8.329983740596242"><ele>701.0</ele><time>2026-04-04T10:18:12.001Z</time></trkpt><trkpt lat="44.28531299605325" lon="8.330046739017728"><ele>701.4</ele><time>2026-04-04T10:18:13.001Z</time></trkpt><trkpt lat="44.2853531627029" lon="8.330117814696262"><ele>701.8</ele><time>2026-04-04T10:18:14.001Z</time></trkpt><trkpt lat="44.28545097354544" lon="8.330138443796287"><ele>702.1999999999999</ele><time>2026-04-04T10:18:16.001Z</time></trkpt><trkpt lat="44.28552414252274" lon="8.330099645321113"><ele>702.5999999999999</ele><time>2026-04-04T10:18:17.001Z</time></trkpt><trkpt lat="44.28564597233795" lon="8.33011651951153"><ele>703.0</ele><time>2026-04-04T10:18:18.001Z</time></trkpt><trkpt lat="44.285758830922" lon="8.330157370026575"><ele>703.0</ele><time>2026-04-04T10:18:19.001Z</time></trkpt><trkpt lat="44.28583961907659" lon="8.330185275662357"><ele>703.0</ele><time>2026-04-04T10:18:20.001Z</time></trkpt><trkpt lat="44.285899022368376" lon="8.3302547190152"><ele>703.0</ele><time>2026-04-04T10:18:21.001Z</time></trkpt><trkpt lat="44.28600434076784" lon="8.330349744567629"><ele>703.0</ele><time>2026-04-04T10:18:22.001Z</time></trkpt><trkpt lat="44.28608714634308" lon="8.33039890935898"><ele>703.0</ele><time>2026-04-04T10:18:23.001Z</time></trkpt><trkpt lat="44.28615607637898" lon="8.33046735488089"><ele>703.0</ele><time>2026-04-04T10:18:24.001Z</time></trkpt><trkpt lat="44.286242761233524" lon="8.330536453647557"><ele>703.0</ele><time>2026-04-04T10:18:25.001Z</time></trkpt><trkpt lat="44.28633438219161" lon="8.330583342363255"><ele>703.0</ele><time>2026-04-04T10:18:26.001Z</time></trkpt><trkpt lat="44.28646209123951" lon="8.330618608515646"><ele>703.0</ele><time>2026-04-04T10:18:27.001Z</time></trkpt><trkpt lat="44.28654325318904" lon="8.330675740076538"><ele>703.0</ele><time>2026-04-04T10:18:28.001Z</time></trkpt><trkpt lat="44.28661279257172" lon="8.330751773727162"><ele>703.2</ele><time>2026-04-04T10:18:29.001Z</time></trkpt><trkpt lat="44.286692919865956" lon="8.330769364141629"><ele>703.4</ele><time>2026-04-04T10:18:30.001Z</time></trkpt><trkpt lat="44.2867682448931" lon="8.330836061356086"><ele>703.6</ele><time>2026-04-04T10:18:31.001Z</time></trkpt><trkpt lat="44.28683225707636" lon="8.330884416426093"><ele>703.8000000000001</ele><time>2026-04-04T10:18:32.001Z</time></trkpt><trkpt lat="44.28690207529004" lon="8.33099558816709"><ele>704.0</ele><time>2026-04-04T10:18:34.001Z</time></trkpt><trkpt lat="44.28694153232011" lon="8.331153886330508"><ele>704.0</ele><time>2026-04-04T10:18:36.001Z</time></trkpt><trkpt lat="44.28695700403811" lon="8.331300558640976"><ele>704.0</ele><time>2026-04-04T10:18:38.002Z</time></trkpt><trkpt lat="44.28693933835813" lon="8.331499485151703"><ele>704.0</ele><time>2026-04-04T10:18:40.002Z</time></trkpt><trkpt lat="44.28694728593515" lon="8.33164754052508"><ele>704.0</ele><time>2026-04-04T10:18:42.002Z</time></trkpt><trkpt lat="44.28689822123926" lon="8.331747202974773"><ele>704.0</ele><time>2026-04-04T10:18:43.002Z</time></trkpt><trkpt lat="44.286856904016055" lon="8.331894643817318"><ele>705.1666666666666</ele><time>2026-04-04T10:18:45.002Z</time></trkpt><trkpt lat="44.286884342904884" lon="8.331997957346678"><ele>706.3333333333333</ele><time>2026-04-04T10:18:46.002Z</time></trkpt><trkpt lat="44.28692405779165" lon="8.332069328462255"><ele>707.5</ele><time>2026-04-04T10:18:47.002Z</time></trkpt><trkpt lat="44.28696949754898" lon="8.332141868479539"><ele>708.6666666666666</ele><time>2026-04-04T10:18:48.002Z</time></trkpt><trkpt lat="44.287045888720584" lon="8.332281251780826"><ele>709.8333333333334</ele><time>2026-04-04T10:18:50Z</time></trkpt><trkpt lat="44.2871411738971" lon="8.332289893176041"><ele>711.0</ele><time>2026-04-04T10:18:52Z</time></trkpt><trkpt lat="44.2872791695846" lon="8.332288459298605"><ele>706.25</ele><time>2026-04-04T10:18:55Z</time></trkpt><trkpt lat="44.2873586126089" lon="8.33239443056074"><ele>701.5</ele><time>2026-04-04T10:18:57Z</time></trkpt><trkpt lat="44.28751776157245" lon="8.332514511008323"><ele>696.75</ele><time>2026-04-04T10:18:58Z</time></trkpt><trkpt lat="44.2876447739158" lon="8.332531560225936"><ele>692.0</ele><time>2026-04-04T10:18:59Z</time></trkpt><trkpt lat="44.28770632044942" lon="8.332566631652133"><ele>692.0</ele><time>2026-04-04T10:19:00Z</time></trkpt><trkpt lat="44.287804226187625" lon="8.33252698507518"><ele>692.0</ele><time>2026-04-04T10:19:01Z</time></trkpt><trkpt lat="44.287886107190715" lon="8.33255512628202"><ele>692.0</ele><time>2026-04-04T10:19:02Z</time></trkpt><trkpt lat="44.28796521257384" lon="8.332588812557425"><ele>692.0</ele><time>2026-04-04T10:19:03Z</time></trkpt><trkpt lat="44.28806198181212" lon="8.33264324990018"><ele>692.0</ele><time>2026-04-04T10:19:04Z</time></trkpt><trkpt lat="44.28815047882236" lon="8.332662966727943"><ele>692.0</ele><time>2026-04-04T10:19:05Z</time></trkpt><trkpt lat="44.288236677795005" lon="8.33273373999498"><ele>692.0</ele><time>2026-04-04T10:19:06Z</time></trkpt><trkpt lat="44.28833235183229" lon="8.332749756036833"><ele>692.0</ele><time>2026-04-04T10:19:07Z</time></trkpt><trkpt lat="44.28839736663845" lon="8.332684117739603"><ele>692.0</ele><time>2026-04-04T10:19:08Z</time></trkpt><trkpt lat="44.28844786486461" lon="8.332611960475354"><ele>692.0</ele><time>2026-04-04T10:19:09Z</time></trkpt><trkpt lat="44.288502874050245" lon="8.332558624721006"><ele>692.0</ele><time>2026-04-04T10:19:10Z</time></trkpt><trkpt lat="44.28853415434171" lon="8.33246412005093"><ele>692.0</ele><time>2026-04-04T10:19:11Z</time></trkpt><trkpt lat="44.28856195433667" lon="8.332347606487804"><ele>692.0</ele><time>2026-04-04T10:19:12Z</time></trkpt><trkpt lat="44.288582924711086" lon="8.332190919218965"><ele>692.0</ele><time>2026-04-04T10:19:13Z</time></trkpt><trkpt lat="44.28861236609499" lon="8.33206371365767"><ele>692.0</ele><time>2026-04-04T10:19:14Z</time></trkpt><trkpt lat="44.2886091636371" lon="8.331954773274319"><ele>692.0</ele><time>2026-04-04T10:19:15Z</time></trkpt><trkpt lat="44.288653542808746" lon="8.331856405105018"><ele>692.0</ele><time>2026-04-04T10:19:16Z</time></trkpt><trkpt lat="44.288746858205236" lon="8.331786889295442"><ele>692.0</ele><time>2026-04-04T10:19:17Z</time></trkpt><trkpt lat="44.288858451221834" lon="8.331686975563647"><ele>692.0</ele><time>2026-04-04T10:19:18Z</time></trkpt><trkpt lat="44.288960521633015" lon="8.331572609140588"><ele>692.0</ele><time>2026-04-04T10:19:19Z</time></trkpt><trkpt lat="44.289040211205744" lon="8.33148616066065"><ele>692.0</ele><time>2026-04-04T10:19:20Z</time></trkpt><trkpt lat="44.28910510671215" lon="8.331397873993797"><ele>692.0</ele><time>2026-04-04T10:19:21Z</time></trkpt><trkpt lat="44.289167389559076" lon="8.33132098267557"><ele>692.0</ele><time>2026-04-04T10:19:22Z</time></trkpt><trkpt lat="44.289218507710714" lon="8.331241970423342"><ele>692.0</ele><time>2026-04-04T10:19:23Z</time></trkpt><trkpt lat="44.28923697547067" lon="8.331045399299088"><ele>692.0</ele><time>2026-04-04T10:19:25Z</time></trkpt><trkpt lat="44.289217788757036" lon="8.330906756812904"><ele>689.1666666666666</ele><time>2026-04-04T10:19:26Z</time></trkpt><trkpt lat="44.28924906351981" lon="8.330805651274598"><ele>686.3333333333333</ele><time>2026-04-04T10:19:27Z</time></trkpt><trkpt lat="44.289285169428915" lon="8.330733311309588"><ele>683.5</ele><time>2026-04-04T10:19:28Z</time></trkpt><trkpt lat="44.289366725146316" lon="8.33067795197178"><ele>680.6666666666666</ele><time>2026-04-04T10:19:29.001Z</time></trkpt><trkpt lat="44.28944899450076" lon="8.33058591895552"><ele>677.8333333333334</ele><time>2026-04-04T10:19:30.001Z</time></trkpt><trkpt lat="44.289545918813026" lon="8.330575058411966"><ele>675.0</ele><time>2026-04-04T10:19:31.001Z</time></trkpt><trkpt lat="44.28961860555371" lon="8.330477795646168"><ele>672.4</ele><time>2026-04-04T10:19:32.001Z</time></trkpt><trkpt lat="44.28973773581462" lon="8.330411622161739"><ele>669.8</ele><time>2026-04-04T10:19:33.001Z</time></trkpt><trkpt lat="44.28985665750584" lon="8.330411199763233"><ele>667.2</ele><time>2026-04-04T10:19:34.001Z</time></trkpt><trkpt lat="44.28995795221973" lon="8.330358059740414"><ele>664.6</ele><time>2026-04-04T10:19:35.001Z</time></trkpt><trkpt lat="44.290034502901094" lon="8.330369232490764"><ele>662.0</ele><time>2026-04-04T10:19:36.001Z</time></trkpt><trkpt lat="44.290095649529434" lon="8.3303275341548"><ele>662.0</ele><time>2026-04-04T10:19:37.001Z</time></trkpt><trkpt lat="44.29016698835843" lon="8.330305018776166"><ele>662.0</ele><time>2026-04-04T10:19:38.001Z</time></trkpt><trkpt lat="44.29022770427643" lon="8.33028100116161"><ele>662.0</ele><time>2026-04-04T10:19:39.001Z</time></trkpt><trkpt lat="44.29035716556799" lon="8.330275293416726"><ele>662.0</ele><time>2026-04-04T10:19:41.001Z</time></trkpt><trkpt lat="44.290432131005076" lon="8.33027890282302"><ele>662.0</ele><time>2026-04-04T10:19:42.001Z</time></trkpt><trkpt lat="44.29051319493435" lon="8.330385497616545"><ele>661.0</ele><time>2026-04-04T10:19:43.001Z</time></trkpt><trkpt lat="44.290596116992276" lon="8.330473417288275"><ele>660.0</ele><time>2026-04-04T10:19:44.001Z</time></trkpt><trkpt lat="44.29065000969933" lon="8.330560816666619"><ele>659.0</ele><time>2026-04-04T10:19:45.001Z</time></trkpt><trkpt lat="44.290666025640625" lon="8.330650509855394"><ele>658.0</ele><time>2026-04-04T10:19:46.001Z</time></trkpt><trkpt lat="44.29074470852899" lon="8.330703204927051"><ele>657.0</ele><time>2026-04-04T10:19:47.001Z</time></trkpt><trkpt lat="44.290816531933956" lon="8.330827639622234"><ele>660.6</ele><time>2026-04-04T10:19:48.001Z</time></trkpt><trkpt lat="44.29086177064078" lon="8.330955344344552"><ele>664.2</ele><time>2026-04-04T10:19:49.001Z</time></trkpt><trkpt lat="44.290951646877915" lon="8.331078453391742"><ele>667.8</ele><time>2026-04-04T10:19:50.001Z</time></trkpt><trkpt lat="44.29101777469188" lon="8.331117744512477"><ele>671.4</ele><time>2026-04-04T10:19:51.001Z</time></trkpt><trkpt lat="44.29111052670777" lon="8.331204971335843"><ele>675.0</ele><time>2026-04-04T10:19:52.001Z</time></trkpt><trkpt lat="44.2912247860381" lon="8.331293314410843"><ele>675.0</ele><time>2026-04-04T10:19:53.001Z</time></trkpt><trkpt lat="44.291339593274074" lon="8.33137487034403"><ele>675.0</ele><time>2026-04-04T10:19:54.001Z</time></trkpt><trkpt lat="44.29144294270014" lon="8.331400890408208"><ele>675.0</ele><time>2026-04-04T10:19:55.001Z</time></trkpt><trkpt lat="44.29154240967452" lon="8.331428932589787"><ele>675.0</ele><time>2026-04-04T10:19:56.001Z</time></trkpt><trkpt lat="44.291681587836635" lon="8.331502555123134"><ele>675.2</ele><time>2026-04-04T10:19:58.001Z</time></trkpt><trkpt lat="44.29173233371149" lon="8.331570168572096"><ele>675.4</ele><time>2026-04-04T10:19:59.001Z</time></trkpt><trkpt lat="44.291725222369934" lon="8.331708395883874"><ele>675.5999999999999</ele><time>2026-04-04T10:20:00.001Z</time></trkpt><trkpt lat="44.291786242517915" lon="8.33182125033181"><ele>675.8</ele><time>2026-04-04T10:20:01.001Z</time></trkpt><trkpt lat="44.291834380896844" lon="8.331944381110755"><ele>676.0</ele><time>2026-04-04T10:20:02.001Z</time></trkpt><trkpt lat="44.29187537787237" lon="8.332068632120418"><ele>676.0</ele><time>2026-04-04T10:20:03.001Z</time></trkpt><trkpt lat="44.291896668459984" lon="8.332155103387173"><ele>676.0</ele><time>2026-04-04T10:20:04.001Z</time></trkpt><trkpt lat="44.2919094508746" lon="8.332245307155299"><ele>676.0</ele><time>2026-04-04T10:20:05.001Z</time></trkpt><trkpt lat="44.29195340312379" lon="8.332352365435414"><ele>676.0</ele><time>2026-04-04T10:20:06.001Z</time></trkpt><trkpt lat="44.29199930429581" lon="8.332464997809012"><ele>676.0</ele><time>2026-04-04T10:20:07.001Z</time></trkpt><trkpt lat="44.292053986300296" lon="8.332555385359768"><ele>676.0</ele><time>2026-04-04T10:20:08.001Z</time></trkpt><trkpt lat="44.292115170416174" lon="8.332671088722899"><ele>676.8</ele><time>2026-04-04T10:20:10.001Z</time></trkpt><trkpt lat="44.29215616648353" lon="8.332765203470206"><ele>677.5999999999999</ele><time>2026-04-04T10:20:12.001Z</time></trkpt><trkpt lat="44.29222153259935" lon="8.332873634684661"><ele>678.4</ele><time>2026-04-04T10:20:21.001Z</time></trkpt><trkpt lat="44.29228030248616" lon="8.333047562721484"><ele>679.2</ele><time>2026-04-04T10:20:23.001Z</time></trkpt><trkpt lat="44.29232458124942" lon="8.333142734910837"><ele>680.0</ele><time>2026-04-04T10:20:24.001Z</time></trkpt><trkpt lat="44.29236388998243" lon="8.333257479012932"><ele>680.0</ele><time>2026-04-04T10:20:25.001Z</time></trkpt><trkpt lat="44.2923953875084" lon="8.333391767546495"><ele>680.0</ele><time>2026-04-04T10:20:26.001Z</time></trkpt><trkpt lat="44.29240342897552" lon="8.333485008837044"><ele>680.0</ele><time>2026-04-04T10:20:27.001Z</time></trkpt><trkpt lat="44.292421000259594" lon="8.33364315774302"><ele>680.0</ele><time>2026-04-04T10:20:28.001Z</time></trkpt><trkpt lat="44.292486376145376" lon="8.333786615184847"><ele>680.0</ele><time>2026-04-04T10:20:29.001Z</time></trkpt><trkpt lat="44.29252157678923" lon="8.33391523794467"><ele>679.2</ele><time>2026-04-04T10:20:30.001Z</time></trkpt><trkpt lat="44.29254449561317" lon="8.33403115046082"><ele>678.4</ele><time>2026-04-04T10:20:31.001Z</time></trkpt><trkpt lat="44.292567919904144" lon="8.33416330123836"><ele>677.5999999999999</ele><time>2026-04-04T10:20:32.001Z</time></trkpt><trkpt lat="44.29258058357078" lon="8.334287644993525"><ele>676.8</ele><time>2026-04-04T10:20:33.001Z</time></trkpt><trkpt lat="44.29259203604227" lon="8.334424156287852"><ele>676.0</ele><time>2026-04-04T10:20:34.001Z</time></trkpt><trkpt lat="44.292599527820016" lon="8.334533992734691"><ele>676.0</ele><time>2026-04-04T10:20:35.001Z</time></trkpt><trkpt lat="44.29266511050645" lon="8.334616319433726"><ele>676.0</ele><time>2026-04-04T10:20:36.001Z</time></trkpt><trkpt lat="44.29272133568951" lon="8.334755470822692"><ele>676.0</ele><time>2026-04-04T10:20:38.001Z</time></trkpt><trkpt lat="44.2927889225399" lon="8.334809992802834"><ele>676.0</ele><time>2026-04-04T10:20:39.001Z</time></trkpt><trkpt lat="44.292841649257284" lon="8.334886932772644"><ele>676.0</ele><time>2026-04-04T10:20:41.001Z</time></trkpt><trkpt lat="44.292855959720995" lon="8.334981830278634"><ele>676.0</ele><time>2026-04-04T10:20:43.001Z</time></trkpt><trkpt lat="44.29296032355695" lon="8.335046831830377"><ele>676.5999999999999</ele><time>2026-04-04T10:20:46.001Z</time></trkpt><trkpt lat="44.293007877585055" lon="8.335138858144553"><ele>677.2</ele><time>2026-04-04T10:20:47.002Z</time></trkpt><trkpt lat="44.29307206889808" lon="8.33518471623964"><ele>677.8</ele><time>2026-04-04T10:20:48.002Z</time></trkpt><trkpt lat="44.29314434076338" lon="8.335253870966426"><ele>678.4000000000001</ele><time>2026-04-04T10:20:49.002Z</time></trkpt><trkpt lat="44.29320652733721" lon="8.335333376527489"><ele>679.0</ele><time>2026-04-04T10:20:50.002Z</time></trkpt><trkpt lat="44.29330955214958" lon="8.335463098862359"><ele>679.0</ele><time>2026-04-04T10:20:52.002Z</time></trkpt><trkpt lat="44.29336120739892" lon="8.335536600575624"><ele>679.0</ele><time>2026-04-04T10:20:53.002Z</time></trkpt><trkpt lat="44.29344994900976" lon="8.335534998758058"><ele>679.0</ele><time>2026-04-04T10:20:54.002Z</time></trkpt><trkpt lat="44.29354337266643" lon="8.335579502502355"><ele>679.0</ele><time>2026-04-04T10:20:55Z</time></trkpt><trkpt lat="44.293558396304526" lon="8.335673200005235"><ele>679.0</ele><time>2026-04-04T10:20:56Z</time></trkpt><trkpt lat="44.2936114292352" lon="8.335768797208823"><ele>679.0</ele><time>2026-04-04T10:20:58Z</time></trkpt><trkpt lat="44.29366411875618" lon="8.335854030136717"><ele>679.1666666666667</ele><time>2026-04-04T10:20:59Z</time></trkpt><trkpt lat="44.293715899836876" lon="8.33592393368749"><ele>679.3333333333334</ele><time>2026-04-04T10:21:00Z</time></trkpt><trkpt lat="44.29376534519559" lon="8.33599289546437"><ele>679.5</ele><time>2026-04-04T10:21:01Z</time></trkpt><trkpt lat="44.29383028075398" lon="8.336060026296536"><ele>679.6666666666666</ele><time>2026-04-04T10:21:02Z</time></trkpt><trkpt lat="44.29389484291129" lon="8.336089400130405"><ele>679.8333333333333</ele><time>2026-04-04T10:21:03Z</time></trkpt><trkpt lat="44.293963668923595" lon="8.336155525734748"><ele>680.0</ele><time>2026-04-04T10:21:04Z</time></trkpt><trkpt lat="44.29402851667738" lon="8.336219752954479"><ele>679.1666666666666</ele><time>2026-04-04T10:21:05Z</time></trkpt><trkpt lat="44.29408704970243" lon="8.336292662611923"><ele>678.3333333333333</ele><time>2026-04-04T10:21:06Z</time></trkpt><trkpt lat="44.29414523134438" lon="8.336326667640332"><ele>677.5</ele><time>2026-04-04T10:21:07Z</time></trkpt><trkpt lat="44.29427994359162" lon="8.336305397223096"><ele>676.6666666666666</ele><time>2026-04-04T10:21:09Z</time></trkpt><trkpt lat="44.29435300912776" lon="8.336291502797003"><ele>675.8333333333334</ele><time>2026-04-04T10:21:10Z</time></trkpt><trkpt lat="44.29442060742271" lon="8.336282414065364"><ele>675.0</ele><time>2026-04-04T10:21:11Z</time></trkpt><trkpt lat="44.29448512237844" lon="8.336366489246963"><ele>673.3333333333334</ele><time>2026-04-04T10:21:13Z</time></trkpt><trkpt lat="44.29449749850103" lon="8.336473120546142"><ele>671.6666666666666</ele><time>2026-04-04T10:21:15Z</time></trkpt><trkpt lat="44.29450351610907" lon="8.336569435079339"><ele>670.0</ele><time>2026-04-04T10:21:16Z</time></trkpt><trkpt lat="44.29452032183579" lon="8.336699357957974"><ele>668.3333333333333</ele><time>2026-04-04T10:21:17Z</time></trkpt><trkpt lat="44.29452133753074" lon="8.336811331431502"><ele>666.6666666666666</ele><time>2026-04-04T10:21:18Z</time></trkpt><trkpt lat="44.29454037905339" lon="8.336978443388915"><ele>665.0</ele><time>2026-04-04T10:21:20Z</time></trkpt><trkpt lat="44.29464635792974" lon="8.337074175896806"><ele>665.0</ele><time>2026-04-04T10:21:22Z</time></trkpt><trkpt lat="44.294701419461944" lon="8.337128417860997"><ele>665.0</ele><time>2026-04-04T10:21:23Z</time></trkpt><trkpt lat="44.29477205255507" lon="8.337159766571787"><ele>665.0</ele><time>2026-04-04T10:21:24Z</time></trkpt><trkpt lat="44.29483339860806" lon="8.337184959039007"><ele>665.0</ele><time>2026-04-04T10:21:25Z</time></trkpt><trkpt lat="44.294966303751856" lon="8.33723845740957"><ele>665.0</ele><time>2026-04-04T10:21:27Z</time></trkpt><trkpt lat="44.2950633584566" lon="8.337290297967183"><ele>665.0</ele><time>2026-04-04T10:21:29Z</time></trkpt><trkpt lat="44.29511715292663" lon="8.337336831014348"><ele>663.0</ele><time>2026-04-04T10:21:30Z</time></trkpt><trkpt lat="44.295166644918986" lon="8.337406857677998"><ele>661.0</ele><time>2026-04-04T10:21:31Z</time></trkpt><trkpt lat="44.29521398330135" lon="8.337493550937332"><ele>659.0</ele><time>2026-04-04T10:21:32Z</time></trkpt><trkpt lat="44.2952114423146" lon="8.33762238941247"><ele>657.0</ele><time>2026-04-04T10:21:33Z</time></trkpt><trkpt lat="44.29521521004866" lon="8.337728109640045"><ele>655.0</ele><time>2026-04-04T10:21:34Z</time></trkpt><trkpt lat="44.29521496443907" lon="8.337913694358175"><ele>653.0</ele><time>2026-04-04T10:21:36Z</time></trkpt><trkpt lat="44.29522270390905" lon="8.33801373493607"><ele>650.8571428571429</ele><time>2026-04-04T10:21:37Z</time></trkpt><trkpt lat="44.295235619089006" lon="8.3381040424885"><ele>648.7142857142858</ele><time>2026-04-04T10:21:38Z</time></trkpt><trkpt lat="44.29526712568421" lon="8.338200330787343"><ele>646.5714285714287</ele><time>2026-04-04T10:21:39Z</time></trkpt><trkpt lat="44.29530461939162" lon="8.33828474273819"><ele>644.4285714285714</ele><time>2026-04-04T10:21:40Z</time></trkpt><trkpt lat="44.295334705014675" lon="8.3383886169783"><ele>642.2857142857142</ele><time>2026-04-04T10:21:42Z</time></trkpt><trkpt lat="44.29535426424291" lon="8.338503029834701"><ele>640.1428571428572</ele><time>2026-04-04T10:21:43Z</time></trkpt><trkpt lat="44.295361387877186" lon="8.338599040865233"><ele>638.0</ele><time>2026-04-04T10:21:44.001Z</time></trkpt><trkpt lat="44.29535997422117" lon="8.338689422344148"><ele>638.0</ele><time>2026-04-04T10:21:45.001Z</time></trkpt><trkpt lat="44.29539097329595" lon="8.338842825406942"><ele>638.0</ele><time>2026-04-04T10:21:47.001Z</time></trkpt><trkpt lat="44.2954435671832" lon="8.33893795340688"><ele>638.0</ele><time>2026-04-04T10:21:49.001Z</time></trkpt><trkpt lat="44.29553753982799" lon="8.339134927827397"><ele>638.0</ele><time>2026-04-04T10:21:51.001Z</time></trkpt><trkpt lat="44.295583498404504" lon="8.339205907744809"><ele>638.0</ele><time>2026-04-04T10:21:52.001Z</time></trkpt><trkpt lat="44.29562273674284" lon="8.339282673524536"><ele>640.1428571428572</ele><time>2026-04-04T10:21:53.001Z</time></trkpt><trkpt lat="44.295665967862774" lon="8.339368408899775"><ele>642.2857142857142</ele><time>2026-04-04T10:21:54.001Z</time></trkpt><trkpt lat="44.295710282131886" lon="8.339453845347132"><ele>644.4285714285714</ele><time>2026-04-04T10:21:55.001Z</time></trkpt><trkpt lat="44.295766119924615" lon="8.339525427423533"><ele>646.5714285714287</ele><time>2026-04-04T10:21:56.001Z</time></trkpt><trkpt lat="44.2958003342076" lon="8.339605477269137"><ele>648.7142857142858</ele><time>2026-04-04T10:21:57.001Z</time></trkpt><trkpt lat="44.295845642831736" lon="8.33967475808112"><ele>650.8571428571429</ele><time>2026-04-04T10:21:58.001Z</time></trkpt><trkpt lat="44.29591014169002" lon="8.339757256076002"><ele>653.0</ele><time>2026-04-04T10:21:59.001Z</time></trkpt><trkpt lat="44.29595362410858" lon="8.339828598616673"><ele>648.0</ele><time>2026-04-04T10:22:00.001Z</time></trkpt><trkpt lat="44.29598959664165" lon="8.339908863182709"><ele>643.0</ele><time>2026-04-04T10:22:01.001Z</time></trkpt><trkpt lat="44.296056346527976" lon="8.339936704657992"><ele>638.0</ele><time>2026-04-04T10:22:02.001Z</time></trkpt><trkpt lat="44.29610962273962" lon="8.340002134767852"><ele>633.0</ele><time>2026-04-04T10:22:03.001Z</time></trkpt><trkpt lat="44.296212652093985" lon="8.340118364945711"><ele>628.0</ele><time>2026-04-04T10:22:05.001Z</time></trkpt><trkpt lat="44.29627713608361" lon="8.340168737980603"><ele>623.0</ele><time>2026-04-04T10:22:06.001Z</time></trkpt><trkpt lat="44.29633308922253" lon="8.340210671451036"><ele>623.0</ele><time>2026-04-04T10:22:07.001Z</time></trkpt><trkpt lat="44.2964145998077" lon="8.340294684674788"><ele>623.0</ele><time>2026-04-04T10:22:09.001Z</time></trkpt><trkpt lat="44.296480014478796" lon="8.340304402095391"><ele>623.0</ele><time>2026-04-04T10:22:10.001Z</time></trkpt><trkpt lat="44.29650045717955" lon="8.340426766091204"><ele>623.0</ele><time>2026-04-04T10:22:12.001Z</time></trkpt><trkpt lat="44.296476910535226" lon="8.340532501293142"><ele>623.0</ele><time>2026-04-04T10:22:14.001Z</time></trkpt><trkpt lat="44.2964268022923" lon="8.340614281099436"><ele>623.0</ele><time>2026-04-04T10:22:15.001Z</time></trkpt><trkpt lat="44.29638224091698" lon="8.340762437665926"><ele>623.5</ele><time>2026-04-04T10:22:17.001Z</time></trkpt><trkpt lat="44.29639027375423" lon="8.340858017330065"><ele>624.0</ele><time>2026-04-04T10:22:18.001Z</time></trkpt><trkpt lat="44.29640106844249" lon="8.340966528022413"><ele>624.5</ele><time>2026-04-04T10:22:19.001Z</time></trkpt><trkpt lat="44.296418722494764" lon="8.34110826738929"><ele>625.0</ele><time>2026-04-04T10:22:20.001Z</time></trkpt><trkpt lat="44.29643620422197" lon="8.341230321615258"><ele>625.5</ele><time>2026-04-04T10:22:21.001Z</time></trkpt><trkpt lat="44.29644827260521" lon="8.34133438139964"><ele>626.0</ele><time>2026-04-04T10:22:22.001Z</time></trkpt><trkpt lat="44.29646550266975" lon="8.341518877596426"><ele>626.0</ele><time>2026-04-04T10:22:24.001Z</time></trkpt><trkpt lat="44.296449818277644" lon="8.341643605707407"><ele>626.0</ele><time>2026-04-04T10:22:25.001Z</time></trkpt><trkpt lat="44.29642684302441" lon="8.341758301179388"><ele>626.0</ele><time>2026-04-04T10:22:26.001Z</time></trkpt><trkpt lat="44.29640356813094" lon="8.34187048927197"><ele>626.0</ele><time>2026-04-04T10:22:27.001Z</time></trkpt><trkpt lat="44.296366173608284" lon="8.341978450645584"><ele>626.0</ele><time>2026-04-04T10:22:28.001Z</time></trkpt><trkpt lat="44.296322874741385" lon="8.34209381796991"><ele>626.0</ele><time>2026-04-04T10:22:29.001Z</time></trkpt><trkpt lat="44.29629496201407" lon="8.342191418946575"><ele>616.0</ele><time>2026-04-04T10:22:30.001Z</time></trkpt><trkpt lat="44.29628902954674" lon="8.342340302112415"><ele>606.0</ele><time>2026-04-04T10:22:32.001Z</time></trkpt><trkpt lat="44.29634244617794" lon="8.34252074260749"><ele>596.0</ele><time>2026-04-04T10:22:34.001Z</time></trkpt><trkpt lat="44.29638139328509" lon="8.342624205510718"><ele>586.0</ele><time>2026-04-04T10:22:35.001Z</time></trkpt><trkpt lat="44.29641430006051" lon="8.342854025602012"><ele>586.0</ele><time>2026-04-04T10:22:37.001Z</time></trkpt><trkpt lat="44.29636938680543" lon="8.342997971006369"><ele>586.0</ele><time>2026-04-04T10:22:38.001Z</time></trkpt><trkpt lat="44.29639127048204" lon="8.343091187153506"><ele>586.0</ele><time>2026-04-04T10:22:39.001Z</time></trkpt><trkpt lat="44.29639464329912" lon="8.343194613920355"><ele>586.0</ele><time>2026-04-04T10:22:40.001Z</time></trkpt><trkpt lat="44.29636005610392" lon="8.343320186204734"><ele>586.0</ele><time>2026-04-04T10:22:42.001Z</time></trkpt><trkpt lat="44.296326934089315" lon="8.343459730279385"><ele>586.2</ele><time>2026-04-04T10:22:43.001Z</time></trkpt><trkpt lat="44.29619843663881" lon="8.343561241520854"><ele>586.4000000000001</ele><time>2026-04-04T10:22:45.001Z</time></trkpt><trkpt lat="44.29613176264898" lon="8.343614132589071"><ele>586.6</ele><time>2026-04-04T10:22:46.001Z</time></trkpt><trkpt lat="44.29606665344842" lon="8.343653929643345"><ele>586.8000000000001</ele><time>2026-04-04T10:22:47.001Z</time></trkpt><trkpt lat="44.2959845924917" lon="8.343777857790101"><ele>587.0</ele><time>2026-04-04T10:22:49.001Z</time></trkpt><trkpt lat="44.29594122077397" lon="8.343886148018802"><ele>587.8000000000001</ele><time>2026-04-04T10:22:51.001Z</time></trkpt><trkpt lat="44.29593609134025" lon="8.34398028635417"><ele>588.6</ele><time>2026-04-04T10:22:52.001Z</time></trkpt><trkpt lat="44.29591610119385" lon="8.34413745456837"><ele>589.4000000000001</ele><time>2026-04-04T10:22:54.001Z</time></trkpt><trkpt lat="44.29589487241583" lon="8.344308158542574"><ele>590.2</ele><time>2026-04-04T10:22:56.001Z</time></trkpt><trkpt lat="44.29588309273523" lon="8.3444772468037"><ele>591.0</ele><time>2026-04-04T10:22:58.001Z</time></trkpt><trkpt lat="44.29587571725736" lon="8.344566980695946"><ele>591.0</ele><time>2026-04-04T10:22:59.001Z</time></trkpt><trkpt lat="44.29588715749322" lon="8.344663539977558"><ele>591.0</ele><time>2026-04-04T10:23:00.001Z</time></trkpt><trkpt lat="44.29588510337272" lon="8.344779997734179"><ele>591.0</ele><time>2026-04-04T10:23:01Z</time></trkpt><trkpt lat="44.295876867148294" lon="8.34487184051416"><ele>591.0</ele><time>2026-04-04T10:23:02Z</time></trkpt><trkpt lat="44.29584707146989" lon="8.344970861679226"><ele>591.0</ele><time>2026-04-04T10:23:03Z</time></trkpt><trkpt lat="44.29580362089251" lon="8.345097342914528"><ele>591.0</ele><time>2026-04-04T10:23:04Z</time></trkpt><trkpt lat="44.295751385448106" lon="8.345211220819195"><ele>591.5</ele><time>2026-04-04T10:23:05Z</time></trkpt><trkpt lat="44.29569829557087" lon="8.345328636039886"><ele>592.0</ele><time>2026-04-04T10:23:06Z</time></trkpt><trkpt lat="44.29565681226089" lon="8.345422187190568"><ele>592.5</ele><time>2026-04-04T10:23:07Z</time></trkpt><trkpt lat="44.29561933168324" lon="8.345500193803144"><ele>593.0</ele><time>2026-04-04T10:23:08Z</time></trkpt><trkpt lat="44.29558172090044" lon="8.345577801491594"><ele>593.5</ele><time>2026-04-04T10:23:09Z</time></trkpt><trkpt lat="44.295546919974555" lon="8.345667109995869"><ele>594.0</ele><time>2026-04-04T10:23:10Z</time></trkpt><trkpt lat="44.295505478836596" lon="8.345754378728898"><ele>594.1666666666666</ele><time>2026-04-04T10:23:12Z</time></trkpt><trkpt lat="44.295557064359826" lon="8.345907916665391"><ele>594.3333333333334</ele><time>2026-04-04T10:23:14Z</time></trkpt><trkpt lat="44.2955916843075" lon="8.345993156579178"><ele>594.5</ele><time>2026-04-04T10:23:15Z</time></trkpt><trkpt lat="44.2956546573551" lon="8.346062120690874"><ele>594.6666666666667</ele><time>2026-04-04T10:23:16Z</time></trkpt><trkpt lat="44.29570367022442" lon="8.34613051543183"><ele>594.8333333333334</ele><time>2026-04-04T10:23:17Z</time></trkpt><trkpt lat="44.295748971562695" lon="8.346197817405312"><ele>595.0</ele><time>2026-04-04T10:23:18Z</time></trkpt><trkpt lat="44.295813451464056" lon="8.346374707179647"><ele>593.2</ele><time>2026-04-04T10:23:20Z</time></trkpt><trkpt lat="44.295816692751416" lon="8.34654190191045"><ele>591.4</ele><time>2026-04-04T10:23:22Z</time></trkpt><trkpt lat="44.29577339935688" lon="8.346707218619356"><ele>589.6</ele><time>2026-04-04T10:23:23Z</time></trkpt><trkpt lat="44.29577908239958" lon="8.34681417410156"><ele>587.8</ele><time>2026-04-04T10:23:24Z</time></trkpt><trkpt lat="44.295792460787396" lon="8.346904666139064"><ele>586.0</ele><time>2026-04-04T10:23:25Z</time></trkpt><trkpt lat="44.295819786980935" lon="8.347004354389243"><ele>586.0</ele><time>2026-04-04T10:23:26Z</time></trkpt><trkpt lat="44.29586057111911" lon="8.34709532650503"><ele>586.0</ele><time>2026-04-04T10:23:27Z</time></trkpt><trkpt lat="44.29589304727715" lon="8.34720738456094"><ele>586.0</ele><time>2026-04-04T10:23:29Z</time></trkpt><trkpt lat="44.295949833877785" lon="8.34728438710965"><ele>586.0</ele><time>2026-04-04T10:23:31Z</time></trkpt><trkpt lat="44.29605492071123" lon="8.347250653311043"><ele>586.0</ele><time>2026-04-04T10:23:33Z</time></trkpt><trkpt lat="44.29614362182441" lon="8.347169137913431"><ele>586.0</ele><time>2026-04-04T10:23:35Z</time></trkpt><trkpt lat="44.296229333632546" lon="8.347188440821883"><ele>586.0</ele><time>2026-04-04T10:23:37Z</time></trkpt><trkpt lat="44.296340242734516" lon="8.347254768626431"><ele>586.0</ele><time>2026-04-04T10:23:39Z</time></trkpt><trkpt lat="44.296430125236846" lon="8.347333532857094"><ele>586.0</ele><time>2026-04-04T10:23:40Z</time></trkpt><trkpt lat="44.29646948299378" lon="8.347434093585202"><ele>586.0</ele><time>2026-04-04T10:23:41Z</time></trkpt><trkpt lat="44.296561680471214" lon="8.347511369322689"><ele>585.0</ele><time>2026-04-04T10:23:43Z</time></trkpt><trkpt lat="44.296608938652824" lon="8.347591855637942"><ele>584.0</ele><time>2026-04-04T10:23:44Z</time></trkpt><trkpt lat="44.29663961957323" lon="8.347702076379312"><ele>583.0</ele><time>2026-04-04T10:23:45Z</time></trkpt><trkpt lat="44.29667970219223" lon="8.347800264836245"><ele>582.0</ele><time>2026-04-04T10:23:46Z</time></trkpt><trkpt lat="44.29669733146854" lon="8.347898303151473"><ele>581.0</ele><time>2026-04-04T10:23:47Z</time></trkpt><trkpt lat="44.296719350525095" lon="8.34799246150026"><ele>580.0</ele><time>2026-04-04T10:23:48Z</time></trkpt><trkpt lat="44.296735571156425" lon="8.348110744733244"><ele>577.0</ele><time>2026-04-04T10:23:49Z</time></trkpt><trkpt lat="44.296775707655385" lon="8.348186247385698"><ele>574.0</ele><time>2026-04-04T10:23:50.001Z</time></trkpt><trkpt lat="44.29681074765176" lon="8.34826127994129"><ele>571.0</ele><time>2026-04-04T10:23:51.001Z</time></trkpt><trkpt lat="44.29688531898502" lon="8.348426251283728"><ele>568.0</ele><time>2026-04-04T10:23:53.001Z</time></trkpt><trkpt lat="44.296933552083495" lon="8.348532255305107"><ele>565.0</ele><time>2026-04-04T10:23:54.001Z</time></trkpt><trkpt lat="44.296957993430304" lon="8.348613545544294"><ele>562.0</ele><time>2026-04-04T10:23:55.001Z</time></trkpt><trkpt lat="44.296970947386036" lon="8.348702800316333"><ele>562.0</ele><time>2026-04-04T10:23:56.001Z</time></trkpt><trkpt lat="44.29700257770674" lon="8.348781474983266"><ele>562.0</ele><time>2026-04-04T10:23:57.001Z</time></trkpt><trkpt lat="44.297075946359506" lon="8.348907846535795"><ele>562.0</ele><time>2026-04-04T10:23:59.001Z</time></trkpt><trkpt lat="44.29714818769147" lon="8.348953688441483"><ele>562.0</ele><time>2026-04-04T10:24:00.001Z</time></trkpt><trkpt lat="44.297213521863426" lon="8.348986317537923"><ele>562.0</ele><time>2026-04-04T10:24:01.001Z</time></trkpt><trkpt lat="44.2972876283877" lon="8.349036558701483"><ele>562.0</ele><time>2026-04-04T10:24:03.001Z</time></trkpt><trkpt lat="44.29735591733397" lon="8.349125326348217"><ele>561.0</ele><time>2026-04-04T10:24:05.001Z</time></trkpt><trkpt lat="44.2973589044325" lon="8.349224520532397"><ele>560.0</ele><time>2026-04-04T10:24:11.001Z</time></trkpt><trkpt lat="44.29735519568286" lon="8.349351801263207"><ele>559.0</ele><time>2026-04-04T10:24:16.001Z</time></trkpt><trkpt lat="44.29734136951858" lon="8.349451410105708"><ele>558.0</ele><time>2026-04-04T10:24:17.001Z</time></trkpt><trkpt lat="44.297335520832036" lon="8.349577299855873"><ele>557.0</ele><time>2026-04-04T10:24:19.001Z</time></trkpt><trkpt lat="44.29733214480003" lon="8.349699848273339"><ele>556.0</ele><time>2026-04-04T10:24:21.001Z</time></trkpt><trkpt lat="44.297363482565274" lon="8.349880951304215"><ele>556.0</ele><time>2026-04-04T10:24:23.001Z</time></trkpt><trkpt lat="44.29738213291934" lon="8.349982259088641"><ele>556.0</ele><time>2026-04-04T10:24:24.001Z</time></trkpt><trkpt lat="44.297405961730796" lon="8.350123590396008"><ele>556.0</ele><time>2026-04-04T10:24:26.001Z</time></trkpt><trkpt lat="44.297446413548286" lon="8.35020790467572"><ele>556.0</ele><time>2026-04-04T10:24:28.001Z</time></trkpt><trkpt lat="44.29745112845412" lon="8.350302612887202"><ele>556.0</ele><time>2026-04-04T10:24:29.001Z</time></trkpt><trkpt lat="44.297481317912904" lon="8.350388489825335"><ele>556.0</ele><time>2026-04-04T10:24:30.001Z</time></trkpt><trkpt lat="44.29751892967702" lon="8.35051473042056"><ele>553.3333333333334</ele><time>2026-04-04T10:24:32.001Z</time></trkpt><trkpt lat="44.297550371502574" lon="8.350594617080477"><ele>550.6666666666667</ele><time>2026-04-04T10:24:33.001Z</time></trkpt><trkpt lat="44.297604157487314" lon="8.350743043060996"><ele>548.0</ele><time>2026-04-04T10:24:35.001Z</time></trkpt><trkpt lat="44.29762571460363" lon="8.35084282507943"><ele>545.3333333333334</ele><time>2026-04-04T10:24:36.001Z</time></trkpt><trkpt lat="44.297627240543484" lon="8.350946449340896"><ele>542.6666666666666</ele><time>2026-04-04T10:24:37.001Z</time></trkpt><trkpt lat="44.29761394614583" lon="8.351088681741047"><ele>540.0</ele><time>2026-04-04T10:24:38.001Z</time></trkpt><trkpt lat="44.29760467179129" lon="8.35119668966948"><ele>540.0</ele><time>2026-04-04T10:24:39.001Z</time></trkpt><trkpt lat="44.29759813586949" lon="8.351353091893923"><ele>540.0</ele><time>2026-04-04T10:24:41.001Z</time></trkpt><trkpt lat="44.29765910648995" lon="8.351508752415597"><ele>540.0</ele><time>2026-04-04T10:24:43.001Z</time></trkpt><trkpt lat="44.29769275057383" lon="8.351614103577695"><ele>540.0</ele><time>2026-04-04T10:24:44.001Z</time></trkpt><trkpt lat="44.2977146731959" lon="8.351711344124027"><ele>540.0</ele><time>2026-04-04T10:24:45.001Z</time></trkpt><trkpt lat="44.29773516427067" lon="8.3518118888482"><ele>537.3333333333334</ele><time>2026-04-04T10:24:46.001Z</time></trkpt><trkpt lat="44.297709383733256" lon="8.351950050952956"><ele>534.6666666666666</ele><time>2026-04-04T10:24:48.001Z</time></trkpt><trkpt lat="44.297682907308285" lon="8.352039147016352"><ele>532.0</ele><time>2026-04-04T10:24:49.001Z</time></trkpt><trkpt lat="44.297718779922505" lon="8.352152324759798"><ele>529.3333333333333</ele><time>2026-04-04T10:24:50.001Z</time></trkpt><trkpt lat="44.29772230073048" lon="8.352241850344384"><ele>526.6666666666666</ele><time>2026-04-04T10:24:51.001Z</time></trkpt><trkpt lat="44.29771658117396" lon="8.352335015062264"><ele>524.0</ele><time>2026-04-04T10:24:52.001Z</time></trkpt><trkpt lat="44.29771720508662" lon="8.352433318503053"><ele>521.8</ele><time>2026-04-04T10:24:53.001Z</time></trkpt><trkpt lat="44.297819785259954" lon="8.35258385769443"><ele>519.5999999999999</ele><time>2026-04-04T10:24:55.001Z</time></trkpt><trkpt lat="44.29785382683068" lon="8.352737146350762"><ele>517.4</ele><time>2026-04-04T10:24:57.001Z</time></trkpt><trkpt lat="44.297871453835" lon="8.352827857372887"><ele>515.1999999999999</ele><time>2026-04-04T10:24:58.001Z</time></trkpt><trkpt lat="44.29789579431149" lon="8.352930022747609"><ele>513.0</ele><time>2026-04-04T10:24:59.001Z</time></trkpt><trkpt lat="44.297916564911" lon="8.353041970345936"><ele>512.6666666666666</ele><time>2026-04-04T10:25:00.001Z</time></trkpt><trkpt lat="44.29794904972949" lon="8.353169665438585"><ele>512.3333333333334</ele><time>2026-04-04T10:25:01.001Z</time></trkpt><trkpt lat="44.297993093264964" lon="8.35327275796698"><ele>512.0</ele><time>2026-04-04T10:25:02.001Z</time></trkpt><trkpt lat="44.29803512078278" lon="8.353362113576843"><ele>511.6666666666667</ele><time>2026-04-04T10:25:03.001Z</time></trkpt><trkpt lat="44.29808679542125" lon="8.353441795121817"><ele>511.33333333333337</ele><time>2026-04-04T10:25:04.001Z</time></trkpt><trkpt lat="44.29812410782067" lon="8.35354153904294"><ele>511.0</ele><time>2026-04-04T10:25:05.001Z</time></trkpt><trkpt lat="44.298175552279055" lon="8.353634472476319"><ele>511.00000000000006</ele><time>2026-04-04T10:25:06.001Z</time></trkpt><trkpt lat="44.29821991958398" lon="8.353750404990276"><ele>511.0</ele><time>2026-04-04T10:25:07Z</time></trkpt><trkpt lat="44.29824290035146" lon="8.353856990123601"><ele>511.0</ele><time>2026-04-04T10:25:08Z</time></trkpt><trkpt lat="44.29825401747417" lon="8.353966282737728"><ele>511.0</ele><time>2026-04-04T10:25:09Z</time></trkpt><trkpt lat="44.298253564363705" lon="8.3540786637912"><ele>511.00000000000006</ele><time>2026-04-04T10:25:10Z</time></trkpt><trkpt lat="44.298249778777006" lon="8.354199391634161"><ele>511.0</ele><time>2026-04-04T10:25:11Z</time></trkpt><trkpt lat="44.29824508970328" lon="8.354302449365939"><ele>509.33333333333337</ele><time>2026-04-04T10:25:12Z</time></trkpt><trkpt lat="44.29824744518571" lon="8.354392861469533"><ele>507.6666666666667</ele><time>2026-04-04T10:25:13Z</time></trkpt><trkpt lat="44.29822871314296" lon="8.354489185290317"><ele>506.0</ele><time>2026-04-04T10:25:14Z</time></trkpt><trkpt lat="44.29821175448397" lon="8.35457642382996"><ele>504.33333333333337</ele><time>2026-04-04T10:25:15Z</time></trkpt><trkpt lat="44.298185866043795" lon="8.354722850918609"><ele>502.6666666666667</ele><time>2026-04-04T10:25:17Z</time></trkpt><trkpt lat="44.298126615148774" lon="8.354764464792957"><ele>501.0</ele><time>2026-04-04T10:25:22Z</time></trkpt><trkpt lat="44.29801745811122" lon="8.354772857314646"><ele>500.4</ele><time>2026-04-04T10:25:28Z</time></trkpt><trkpt lat="44.29791351141779" lon="8.354749757274298"><ele>499.8</ele><time>2026-04-04T10:25:30Z</time></trkpt><trkpt lat="44.29784790940838" lon="8.354742308412712"><ele>499.19999999999993</ele><time>2026-04-04T10:25:31Z</time></trkpt><trkpt lat="44.297725790044524" lon="8.354729132283458"><ele>498.59999999999997</ele><time>2026-04-04T10:25:33Z</time></trkpt><trkpt lat="44.297638451253114" lon="8.354627002263653"><ele>498.0</ele><time>2026-04-04T10:25:35Z</time></trkpt><trkpt lat="44.29759483711346" lon="8.354543282130427"><ele>498.0</ele><time>2026-04-04T10:25:37Z</time></trkpt><trkpt lat="44.29755797075156" lon="8.354648792995258"><ele>497.99999999999994</ele><time>2026-04-04T10:25:39Z</time></trkpt><trkpt lat="44.2975605122534" lon="8.35484589691644"><ele>497.99999999999994</ele><time>2026-04-04T10:25:41Z</time></trkpt><trkpt lat="44.29756772805225" lon="8.354987016398987"><ele>498.0</ele><time>2026-04-04T10:25:42Z</time></trkpt><trkpt lat="44.29753621407771" lon="8.35509957547044"><ele>498.0</ele><time>2026-04-04T10:25:43Z</time></trkpt><trkpt lat="44.297502810655985" lon="8.355213346648098"><ele>497.5</ele><time>2026-04-04T10:25:44Z</time></trkpt><trkpt lat="44.29748012179321" lon="8.355300811646394"><ele>497.0</ele><time>2026-04-04T10:25:45Z</time></trkpt><trkpt lat="44.297455827926065" lon="8.355397365517316"><ele>496.5</ele><time>2026-04-04T10:25:46Z</time></trkpt><trkpt lat="44.29743538032805" lon="8.355483256668773"><ele>496.0</ele><time>2026-04-04T10:25:47Z</time></trkpt><trkpt lat="44.297427620832856" lon="8.355672125878751"><ele>495.5</ele><time>2026-04-04T10:25:49Z</time></trkpt><trkpt lat="44.297468621963546" lon="8.355769734988836"><ele>495.0</ele><time>2026-04-04T10:25:50Z</time></trkpt><trkpt lat="44.2975728899472" lon="8.355812274075848"><ele>494.5</ele><time>2026-04-04T10:25:51Z</time></trkpt><trkpt lat="44.29762203369558" lon="8.355879631166243"><ele>494.0</ele><time>2026-04-04T10:25:52Z</time></trkpt><trkpt lat="44.29769361341886" lon="8.355959454119063"><ele>493.5</ele><time>2026-04-04T10:25:53Z</time></trkpt><trkpt lat="44.29773351025457" lon="8.356041854648588"><ele>493.0</ele><time>2026-04-04T10:25:54Z</time></trkpt><trkpt lat="44.29776858159388" lon="8.356132904484133"><ele>492.5</ele><time>2026-04-04T10:25:55Z</time></trkpt><trkpt lat="44.29779789137069" lon="8.356222191992792"><ele>492.0</ele><time>2026-04-04T10:25:56Z</time></trkpt><trkpt lat="44.297844844168786" lon="8.356357754351283"><ele>489.5</ele><time>2026-04-04T10:25:58Z</time></trkpt><trkpt lat="44.297824974306195" lon="8.356476569985986"><ele>487.0</ele><time>2026-04-04T10:26:00Z</time></trkpt><trkpt lat="44.29776198934051" lon="8.356530094659828"><ele>484.5</ele><time>2026-04-04T10:26:01Z</time></trkpt><trkpt lat="44.29763200148113" lon="8.35654852664961"><ele>482.0</ele><time>2026-04-04T10:26:03.001Z</time></trkpt><trkpt lat="44.297555442239144" lon="8.356571684372428"><ele>479.5</ele><time>2026-04-04T10:26:04.001Z</time></trkpt><trkpt lat="44.29748710775857" lon="8.356559044001086"><ele>477.0</ele><time>2026-04-04T10:26:05.001Z</time></trkpt><trkpt lat="44.29742282434803" lon="8.356613512240331"><ele>477.0</ele><time>2026-04-04T10:26:07.001Z</time></trkpt><trkpt lat="44.297432874439124" lon="8.356727779202775"><ele>477.0</ele><time>2026-04-04T10:26:09.001Z</time></trkpt><trkpt lat="44.29750363753342" lon="8.356705528840909"><ele>477.0</ele><time>2026-04-04T10:26:10.001Z</time></trkpt><trkpt lat="44.29755476479501" lon="8.356771585657917"><ele>477.0</ele><time>2026-04-04T10:26:11.001Z</time></trkpt><trkpt lat="44.29761895290243" lon="8.356819907727816"><ele>477.0</ele><time>2026-04-04T10:26:12.001Z</time></trkpt><trkpt lat="44.297701351290485" lon="8.35685455766438"><ele>477.0</ele><time>2026-04-04T10:26:13.001Z</time></trkpt><trkpt lat="44.29780863229912" lon="8.356863548784304"><ele>477.0</ele><time>2026-04-04T10:26:14.001Z</time></trkpt><trkpt lat="44.29790130057622" lon="8.356874802397309"><ele>477.0</ele><time>2026-04-04T10:26:15.001Z</time></trkpt><trkpt lat="44.297968718251774" lon="8.356865754498266"><ele>477.0</ele><time>2026-04-04T10:26:16.001Z</time></trkpt><trkpt lat="44.29804708637224" lon="8.356830020203535"><ele>477.0</ele><time>2026-04-04T10:26:17.001Z</time></trkpt><trkpt lat="44.298121137263266" lon="8.356759671084223"><ele>477.0</ele><time>2026-04-04T10:26:19.001Z</time></trkpt><trkpt lat="44.298212142681166" lon="8.356742139866833"><ele>477.0</ele><time>2026-04-04T10:26:21.001Z</time></trkpt><trkpt lat="44.2982863032326" lon="8.356800603559744"><ele>477.0</ele><time>2026-04-04T10:26:23.001Z</time></trkpt><trkpt lat="44.29829319302505" lon="8.356924604429366"><ele>477.0</ele><time>2026-04-04T10:26:25.001Z</time></trkpt><trkpt lat="44.29829078294126" lon="8.35702276464188"><ele>477.0</ele><time>2026-04-04T10:26:26.001Z</time></trkpt><trkpt lat="44.29820189600325" lon="8.357115693131334"><ele>477.0</ele><time>2026-04-04T10:26:28.001Z</time></trkpt><trkpt lat="44.29813038472518" lon="8.357134836893364"><ele>477.0</ele><time>2026-04-04T10:26:29.001Z</time></trkpt><trkpt lat="44.2980664331422" lon="8.357145067841815"><ele>477.0</ele><time>2026-04-04T10:26:30.001Z</time></trkpt><trkpt lat="44.29796871876949" lon="8.357167842042822"><ele>472.25</ele><time>2026-04-04T10:26:32.001Z</time></trkpt><trkpt lat="44.2978778478985" lon="8.357250552164293"><ele>467.5</ele><time>2026-04-04T10:26:34.001Z</time></trkpt><trkpt lat="44.29787030781665" lon="8.357346733388601"><ele>462.75</ele><time>2026-04-04T10:26:37.001Z</time></trkpt><trkpt lat="44.29788513645516" lon="8.3574621017911"><ele>458.0</ele><time>2026-04-04T10:26:40.001Z</time></trkpt><trkpt lat="44.297678586520554" lon="8.358018098027328"><ele>456.16666666666663</ele><time>2026-04-04T10:26:42.001Z</time></trkpt><trkpt lat="44.29772330085259" lon="8.358165185039127"><ele>454.3333333333333</ele><time>2026-04-04T10:26:44.001Z</time></trkpt><trkpt lat="44.29780204227926" lon="8.358164292226528"><ele>452.5</ele><time>2026-04-04T10:26:45.001Z</time></trkpt><trkpt lat="44.29783677231138" lon="8.358241442997333"><ele>450.66666666666663</ele><time>2026-04-04T10:26:46.001Z</time></trkpt><trkpt lat="44.29791278118034" lon="8.358269660703"><ele>448.8333333333333</ele><time>2026-04-04T10:26:47.001Z</time></trkpt><trkpt lat="44.29800301722643" lon="8.358299707159365"><ele>447.0</ele><time>2026-04-04T10:26:48.001Z</time></trkpt><trkpt lat="44.29809131301052" lon="8.358295073493327"><ele>445.40000000000003</ele><time>2026-04-04T10:26:49.001Z</time></trkpt><trkpt lat="44.29819026328407" lon="8.35829657494261"><ele>443.80000000000007</ele><time>2026-04-04T10:26:50.001Z</time></trkpt><trkpt lat="44.29835436254193" lon="8.358289530494961"><ele>442.2</ele><time>2026-04-04T10:26:52.001Z</time></trkpt><trkpt lat="44.298433095767145" lon="8.3582998092741"><ele>440.6</ele><time>2026-04-04T10:26:53.001Z</time></trkpt><trkpt lat="44.29851692694374" lon="8.358292023025651"><ele>439.0</ele><time>2026-04-04T10:26:54.001Z</time></trkpt><trkpt lat="44.29860033755981" lon="8.358304443669955"><ele>439.00000000000006</ele><time>2026-04-04T10:26:55.001Z</time></trkpt><trkpt lat="44.29867022745648" lon="8.3583629169381"><ele>439.0</ele><time>2026-04-04T10:26:56.001Z</time></trkpt><trkpt lat="44.29875761114787" lon="8.358425259218496"><ele>439.0</ele><time>2026-04-04T10:26:57.001Z</time></trkpt><trkpt lat="44.29884173321514" lon="8.358445131095335"><ele>439.0</ele><time>2026-04-04T10:26:58.001Z</time></trkpt><trkpt lat="44.2988914409406" lon="8.358380377838264"><ele>439.00000000000006</ele><time>2026-04-04T10:26:59.001Z</time></trkpt><trkpt lat="44.29891131065966" lon="8.358286242285756"><ele>439.0</ele><time>2026-04-04T10:27:00.001Z</time></trkpt><trkpt lat="44.298961973111716" lon="8.358208524582993"><ele>439.00000000000006</ele><time>2026-04-04T10:27:01.001Z</time></trkpt><trkpt lat="44.29900851391738" lon="8.358127393358195"><ele>439.0</ele><time>2026-04-04T10:27:02.001Z</time></trkpt><trkpt lat="44.299049503629426" lon="8.358041830032748"><ele>439.0</ele><time>2026-04-04T10:27:03.001Z</time></trkpt><trkpt lat="44.29908469769222" lon="8.357943574543656"><ele>439.0</ele><time>2026-04-04T10:27:04.001Z</time></trkpt><trkpt lat="44.2991423869395" lon="8.357859286611609"><ele>439.00000000000006</ele><time>2026-04-04T10:27:05.001Z</time></trkpt><trkpt lat="44.2992370239203" lon="8.357799005431405"><ele>439.0</ele><time>2026-04-04T10:27:07.001Z</time></trkpt><trkpt lat="44.299283599500576" lon="8.357875766269315"><ele>439.0</ele><time>2026-04-04T10:27:09.001Z</time></trkpt><trkpt lat="44.29927184853837" lon="8.358022107298646"><ele>439.0</ele><time>2026-04-04T10:27:11.001Z</time></trkpt><trkpt lat="44.29921947944603" lon="8.358118556701983"><ele>439.0</ele><time>2026-04-04T10:27:12.001Z</time></trkpt><trkpt lat="44.29917012250458" lon="8.35820343625608"><ele>439.0</ele><time>2026-04-04T10:27:13Z</time></trkpt><trkpt lat="44.29910771374386" lon="8.358294758975394"><ele>439.0</ele><time>2026-04-04T10:27:14Z</time></trkpt><trkpt lat="44.29905177792892" lon="8.358399649637386"><ele>439.00000000000006</ele><time>2026-04-04T10:27:15Z</time></trkpt><trkpt lat="44.29897903189361" lon="8.35848304318917"><ele>439.0</ele><time>2026-04-04T10:27:16Z</time></trkpt><trkpt lat="44.29891500341617" lon="8.358569581617724"><ele>439.0</ele><time>2026-04-04T10:27:17Z</time></trkpt><trkpt lat="44.298848588156126" lon="8.35865721139954"><ele>439.0</ele><time>2026-04-04T10:27:18Z</time></trkpt><trkpt lat="44.29878224414488" lon="8.358738013098705"><ele>439.00000000000006</ele><time>2026-04-04T10:27:19Z</time></trkpt><trkpt lat="44.29870847027763" lon="8.3587954314486"><ele>439.0</ele><time>2026-04-04T10:27:20Z</time></trkpt><trkpt lat="44.298624033397736" lon="8.358841320544153"><ele>435.1666666666667</ele><time>2026-04-04T10:27:21Z</time></trkpt><trkpt lat="44.29853420346557" lon="8.358894216877736"><ele>431.33333333333337</ele><time>2026-04-04T10:27:22Z</time></trkpt><trkpt lat="44.29845915518153" lon="8.358927574589279"><ele>427.5</ele><time>2026-04-04T10:27:23Z</time></trkpt><trkpt lat="44.2983861891101" lon="8.358933882270131"><ele>423.66666666666663</ele><time>2026-04-04T10:27:24Z</time></trkpt><trkpt lat="44.29832274152505" lon="8.358904541223401"><ele>419.8333333333333</ele><time>2026-04-04T10:27:25Z</time></trkpt><trkpt lat="44.298257495013104" lon="8.358875845303276"><ele>416.0</ele><time>2026-04-04T10:27:26Z</time></trkpt><trkpt lat="44.29815313179159" lon="8.358912936024772"><ele>416.0</ele><time>2026-04-04T10:27:28Z</time></trkpt><trkpt lat="44.29808884000108" lon="8.359103391893536"><ele>416.0</ele><time>2026-04-04T10:27:30Z</time></trkpt><trkpt lat="44.29804281992084" lon="8.359246074302556"><ele>416.0</ele><time>2026-04-04T10:27:31Z</time></trkpt><trkpt lat="44.29799416166736" lon="8.359378258742145"><ele>416.0</ele><time>2026-04-04T10:27:32Z</time></trkpt><trkpt lat="44.29795061210052" lon="8.359524802722932"><ele>415.6</ele><time>2026-04-04T10:27:33Z</time></trkpt><trkpt lat="44.29793452388629" lon="8.359644701704623"><ele>415.20000000000005</ele><time>2026-04-04T10:27:34Z</time></trkpt><trkpt lat="44.297891936854974" lon="8.359746711026245"><ele>414.79999999999995</ele><time>2026-04-04T10:27:35Z</time></trkpt><trkpt lat="44.2978606924309" lon="8.35986801568811"><ele>414.4</ele><time>2026-04-04T10:27:36Z</time></trkpt><trkpt lat="44.2978021925209" lon="8.359949980495733"><ele>414.0</ele><time>2026-04-04T10:27:37Z</time></trkpt><trkpt lat="44.29773953218047" lon="8.360077795506754"><ele>414.0</ele><time>2026-04-04T10:27:38Z</time></trkpt><trkpt lat="44.29769597357015" lon="8.360196180148138"><ele>414.0</ele><time>2026-04-04T10:27:39Z</time></trkpt><trkpt lat="44.29762181857195" lon="8.360264923217198"><ele>414.0</ele><time>2026-04-04T10:27:40Z</time></trkpt><trkpt lat="44.297547625112635" lon="8.36032121791554"><ele>414.0</ele><time>2026-04-04T10:27:41Z</time></trkpt><trkpt lat="44.297466627819546" lon="8.36037863409586"><ele>414.0</ele><time>2026-04-04T10:27:42Z</time></trkpt><trkpt lat="44.29742326188803" lon="8.360484189111634"><ele>414.0</ele><time>2026-04-04T10:27:43Z</time></trkpt><trkpt lat="44.2973719153263" lon="8.360547191176705"><ele>413.79999999999995</ele><time>2026-04-04T10:27:44Z</time></trkpt><trkpt lat="44.29726858966715" lon="8.360570691079507"><ele>413.59999999999997</ele><time>2026-04-04T10:27:46Z</time></trkpt><trkpt lat="44.29714547417711" lon="8.360520303669729"><ele>413.4</ele><time>2026-04-04T10:27:48Z</time></trkpt><trkpt lat="44.29706809702753" lon="8.360537373609963"><ele>413.2</ele><time>2026-04-04T10:27:50Z</time></trkpt><trkpt lat="44.296970719815704" lon="8.360664231823971"><ele>413.0</ele><time>2026-04-04T10:27:52Z</time></trkpt><trkpt lat="44.296894360856044" lon="8.360780335778362"><ele>410.8333333333333</ele><time>2026-04-04T10:27:53Z</time></trkpt><trkpt lat="44.296826240747556" lon="8.360841607366744"><ele>408.66666666666663</ele><time>2026-04-04T10:27:54Z</time></trkpt><trkpt lat="44.29676767714112" lon="8.36090115121285"><ele>406.5</ele><time>2026-04-04T10:27:55Z</time></trkpt><trkpt lat="44.296716779575476" lon="8.360955387080033"><ele>404.33333333333337</ele><time>2026-04-04T10:27:56Z</time></trkpt><trkpt lat="44.296648202973046" lon="8.361112074155642"><ele>402.1666666666667</ele><time>2026-04-04T10:27:58Z</time></trkpt><trkpt lat="44.296605292866516" lon="8.36118341627888"><ele>400.0</ele><time>2026-04-04T10:27:59Z</time></trkpt><trkpt lat="44.29652324017101" lon="8.36132382666413"><ele>397.4</ele><time>2026-04-04T10:28:01Z</time></trkpt><trkpt lat="44.29650067832718" lon="8.361428741370515"><ele>394.8</ele><time>2026-04-04T10:28:02Z</time></trkpt><trkpt lat="44.29642206556955" lon="8.361586450512911"><ele>392.20000000000005</ele><time>2026-04-04T10:28:04Z</time></trkpt><trkpt lat="44.296421303559164" lon="8.36168924494048"><ele>389.6</ele><time>2026-04-04T10:28:05Z</time></trkpt><trkpt lat="44.29640889148186" lon="8.361854250889698"><ele>387.0</ele><time>2026-04-04T10:28:07Z</time></trkpt><trkpt lat="44.29638718106968" lon="8.362014292959064"><ele>387.0</ele><time>2026-04-04T10:28:09Z</time></trkpt><trkpt lat="44.29641253802483" lon="8.362126229158752"><ele>387.0</ele><time>2026-04-04T10:28:11.001Z</time></trkpt><trkpt lat="44.29648066160978" lon="8.36220356665739"><ele>387.0</ele><time>2026-04-04T10:28:13.001Z</time></trkpt><trkpt lat="44.29657994846702" lon="8.362147165718048"><ele>387.0</ele><time>2026-04-04T10:28:15.001Z</time></trkpt><trkpt lat="44.296659195061174" lon="8.362115010956295"><ele>387.0</ele><time>2026-04-04T10:28:16.001Z</time></trkpt><trkpt lat="44.296732018072895" lon="8.362047703630852"><ele>387.0</ele><time>2026-04-04T10:28:17.001Z</time></trkpt><trkpt lat="44.296804385267365" lon="8.362022337990101"><ele>387.0</ele><time>2026-04-04T10:28:18.001Z</time></trkpt><trkpt lat="44.29691446021749" lon="8.361960686635573"><ele>387.0</ele><time>2026-04-04T10:28:20.001Z</time></trkpt><trkpt lat="44.29701641073856" lon="8.361917406328702"><ele>387.0</ele><time>2026-04-04T10:28:22.001Z</time></trkpt><trkpt lat="44.297116326931636" lon="8.361874810283735"><ele>387.0</ele><time>2026-04-04T10:28:24.001Z</time></trkpt><trkpt lat="44.29722471407066" lon="8.36190727386486"><ele>387.0</ele><time>2026-04-04T10:28:26.001Z</time></trkpt><trkpt lat="44.2972924772978" lon="8.361938898305631"><ele>384.75</ele><time>2026-04-04T10:28:27.001Z</time></trkpt><trkpt lat="44.29739224640618" lon="8.361892823453095"><ele>382.5</ele><time>2026-04-04T10:28:29.001Z</time></trkpt><trkpt lat="44.29734726010873" lon="8.36176738195699"><ele>380.25</ele><time>2026-04-04T10:28:31.001Z</time></trkpt><trkpt lat="44.29748350637229" lon="8.36161985717175"><ele>378.0</ele><time>2026-04-04T10:28:34.001Z</time></trkpt><trkpt lat="44.29756289199786" lon="8.361548260533036"><ele>378.0</ele><time>2026-04-04T10:28:35.001Z</time></trkpt><trkpt lat="44.29764574096753" lon="8.361575882313357"><ele>378.0</ele><time>2026-04-04T10:28:36.001Z</time></trkpt><trkpt lat="44.29768029633481" lon="8.361717075693155"><ele>378.0</ele><time>2026-04-04T10:28:38.001Z</time></trkpt><trkpt lat="44.29774319940459" lon="8.361849325562975"><ele>378.0</ele><time>2026-04-04T10:28:40.001Z</time></trkpt><trkpt lat="44.29781238801529" lon="8.361884166854482"><ele>378.0</ele><time>2026-04-04T10:28:41.001Z</time></trkpt><trkpt lat="44.297928501260174" lon="8.361906534270085"><ele>378.0</ele><time>2026-04-04T10:28:43.001Z</time></trkpt><trkpt lat="44.29805490799702" lon="8.361864271943176"><ele>378.0</ele><time>2026-04-04T10:28:45.001Z</time></trkpt><trkpt lat="44.29810757437027" lon="8.361815788426238"><ele>378.0</ele><time>2026-04-04T10:28:46.001Z</time></trkpt><trkpt lat="44.29818335384056" lon="8.361791500490646"><ele>378.0</ele><time>2026-04-04T10:28:47.001Z</time></trkpt><trkpt lat="44.298232023748646" lon="8.36170531765931"><ele>378.0</ele><time>2026-04-04T10:28:48.001Z</time></trkpt><trkpt lat="44.298267060994576" lon="8.3616296823567"><ele>378.0</ele><time>2026-04-04T10:28:49.001Z</time></trkpt><trkpt lat="44.29831260694066" lon="8.36145566964787"><ele>376.8333333333333</ele><time>2026-04-04T10:28:51.001Z</time></trkpt><trkpt lat="44.29831944397092" lon="8.361344260752125"><ele>375.6666666666667</ele><time>2026-04-04T10:28:52.001Z</time></trkpt><trkpt lat="44.29832859811022" lon="8.36122859657054"><ele>374.5</ele><time>2026-04-04T10:28:53.001Z</time></trkpt><trkpt lat="44.298328421244115" lon="8.36112307524429"><ele>373.33333333333337</ele><time>2026-04-04T10:28:54.001Z</time></trkpt><trkpt lat="44.298333517162675" lon="8.361000924862473"><ele>372.1666666666667</ele><time>2026-04-04T10:28:55.001Z</time></trkpt><trkpt lat="44.29831430612194" lon="8.360910105279373"><ele>371.0</ele><time>2026-04-04T10:28:56.001Z</time></trkpt><trkpt lat="44.29836731062879" lon="8.36080370601428"><ele>371.0</ele><time>2026-04-04T10:28:58.001Z</time></trkpt><trkpt lat="44.298375881611" lon="8.360673565440406"><ele>371.0</ele><time>2026-04-04T10:29:00.001Z</time></trkpt><trkpt lat="44.29846051447153" lon="8.36071551775491"><ele>371.0</ele><time>2026-04-04T10:29:02.001Z</time></trkpt><trkpt lat="44.29845877555663" lon="8.36085837168409"><ele>371.0</ele><time>2026-04-04T10:29:04.001Z</time></trkpt><trkpt lat="44.29844746449288" lon="8.360976673642798"><ele>371.0</ele><time>2026-04-04T10:29:06.001Z</time></trkpt><trkpt lat="44.29845288787435" lon="8.36109668551302"><ele>371.0</ele><time>2026-04-04T10:29:08.001Z</time></trkpt><trkpt lat="44.298440862475275" lon="8.361326369899146"><ele>371.0</ele><time>2026-04-04T10:29:09.001Z</time></trkpt><trkpt lat="44.29844806665191" lon="8.36144245300699"><ele>371.0</ele><time>2026-04-04T10:29:10.001Z</time></trkpt><trkpt lat="44.29847810060598" lon="8.361524086935479"><ele>371.0</ele><time>2026-04-04T10:29:11.001Z</time></trkpt><trkpt lat="44.29849970736704" lon="8.361631870187175"><ele>371.0</ele><time>2026-04-04T10:29:12.001Z</time></trkpt><trkpt lat="44.29852689961192" lon="8.361743703137208"><ele>369.33333333333337</ele><time>2026-04-04T10:29:13.001Z</time></trkpt><trkpt lat="44.298557722125615" lon="8.361847098675295"><ele>367.6666666666667</ele><time>2026-04-04T10:29:14.001Z</time></trkpt><trkpt lat="44.29855968168807" lon="8.361987355886951"><ele>366.0</ele><time>2026-04-04T10:29:16.001Z</time></trkpt><trkpt lat="44.298536721901215" lon="8.36207578687141"><ele>364.3333333333333</ele><time>2026-04-04T10:29:17.001Z</time></trkpt><trkpt lat="44.29848290203364" lon="8.362152951744223"><ele>362.66666666666663</ele><time>2026-04-04T10:29:18.001Z</time></trkpt><trkpt lat="44.29843839049809" lon="8.362249472467097"><ele>361.0</ele><time>2026-04-04T10:29:19Z</time></trkpt><trkpt lat="44.29841273482602" lon="8.362369851906271"><ele>358.8</ele><time>2026-04-04T10:29:20Z</time></trkpt><trkpt lat="44.298380033173885" lon="8.362460802540939"><ele>356.6</ele><time>2026-04-04T10:29:21Z</time></trkpt><trkpt lat="44.298377196324054" lon="8.362601599362398"><ele>354.4</ele><time>2026-04-04T10:29:23Z</time></trkpt><trkpt lat="44.29841127559929" lon="8.362697460373177"><ele>352.2</ele><time>2026-04-04T10:29:25Z</time></trkpt><trkpt lat="44.29850637587888" lon="8.36270629356659"><ele>350.0</ele><time>2026-04-04T10:29:26Z</time></trkpt><trkpt lat="44.29856568658856" lon="8.362541902160533"><ele>350.0</ele><time>2026-04-04T10:29:27Z</time></trkpt><trkpt lat="44.2986149035302" lon="8.362434295591092"><ele>350.0</ele><time>2026-04-04T10:29:28Z</time></trkpt><trkpt lat="44.29866181532349" lon="8.362331728919514"><ele>350.0</ele><time>2026-04-04T10:29:29Z</time></trkpt><trkpt lat="44.29870529194615" lon="8.362243724510714"><ele>350.0</ele><time>2026-04-04T10:29:30Z</time></trkpt><trkpt lat="44.29876675531428" lon="8.362161943086965"><ele>350.0</ele><time>2026-04-04T10:29:32Z</time></trkpt><trkpt lat="44.29875229154744" lon="8.362305418273868"><ele>350.0</ele><time>2026-04-04T10:29:35Z</time></trkpt><trkpt lat="44.29874094300608" lon="8.362429376830972"><ele>350.0</ele><time>2026-04-04T10:29:36Z</time></trkpt><trkpt lat="44.29873677992278" lon="8.36257611251763"><ele>350.0</ele><time>2026-04-04T10:29:37Z</time></trkpt><trkpt lat="44.298713255364035" lon="8.36274565749273"><ele>350.0</ele><time>2026-04-04T10:29:38Z</time></trkpt><trkpt lat="44.298688004725896" lon="8.362905230910144"><ele>350.0</ele><time>2026-04-04T10:29:39Z</time></trkpt><trkpt lat="44.298654984461514" lon="8.363035991693586"><ele>350.0</ele><time>2026-04-04T10:29:40Z</time></trkpt><trkpt lat="44.298618200133184" lon="8.363134879944363"><ele>345.8</ele><time>2026-04-04T10:29:41Z</time></trkpt><trkpt lat="44.298564648506336" lon="8.363201653708174"><ele>341.6</ele><time>2026-04-04T10:29:42Z</time></trkpt><trkpt lat="44.29848681245814" lon="8.363210047770329"><ele>337.4</ele><time>2026-04-04T10:29:43Z</time></trkpt><trkpt lat="44.29837196936451" lon="8.363213724134123"><ele>333.2</ele><time>2026-04-04T10:29:44Z</time></trkpt><trkpt lat="44.29825863357786" lon="8.363267133859178"><ele>329.0</ele><time>2026-04-04T10:29:45Z</time></trkpt><trkpt lat="44.29815513070774" lon="8.363395895814374"><ele>333.2</ele><time>2026-04-04T10:29:46Z</time></trkpt><trkpt lat="44.29802484626809" lon="8.363468718289731"><ele>337.4</ele><time>2026-04-04T10:29:47Z</time></trkpt><trkpt lat="44.297909341380894" lon="8.363552989801246"><ele>341.6</ele><time>2026-04-04T10:29:48Z</time></trkpt><trkpt lat="44.297829121146236" lon="8.363618136991024"><ele>345.8</ele><time>2026-04-04T10:29:49Z</time></trkpt><trkpt lat="44.297757866735175" lon="8.363676002990339"><ele>350.0</ele><time>2026-04-04T10:29:50Z</time></trkpt><trkpt lat="44.29769933466268" lon="8.363712514617786"><ele>350.0</ele><time>2026-04-04T10:29:51Z</time></trkpt><trkpt lat="44.297614934282166" lon="8.363790803063772"><ele>350.0</ele><time>2026-04-04T10:29:52Z</time></trkpt><trkpt lat="44.297540206386664" lon="8.363876756735989"><ele>350.0</ele><time>2026-04-04T10:29:53Z</time></trkpt><trkpt lat="44.297473314444865" lon="8.363987181381626"><ele>350.0</ele><time>2026-04-04T10:29:54Z</time></trkpt><trkpt lat="44.297404444347784" lon="8.364080473996559"><ele>350.0</ele><time>2026-04-04T10:29:55Z</time></trkpt><trkpt lat="44.29736238424785" lon="8.364288359862028"><ele>347.5</ele><time>2026-04-04T10:29:56Z</time></trkpt><trkpt lat="44.29729458444782" lon="8.364426856054243"><ele>345.0</ele><time>2026-04-04T10:29:57Z</time></trkpt><trkpt lat="44.29725926296618" lon="8.364535457277555"><ele>342.5</ele><time>2026-04-04T10:29:58Z</time></trkpt><trkpt lat="44.297240126094316" lon="8.364742406605256"><ele>340.0</ele><time>2026-04-04T10:29:59Z</time></trkpt><trkpt lat="44.29720094215399" lon="8.364918087952187"><ele>340.0</ele><time>2026-04-04T10:30:00Z</time></trkpt><trkpt lat="44.29716850674508" lon="8.365081253867773"><ele>340.0</ele><time>2026-04-04T10:30:01Z</time></trkpt><trkpt lat="44.29715633697557" lon="8.365231114051712"><ele>340.0</ele><time>2026-04-04T10:30:02Z</time></trkpt><trkpt lat="44.29715387919594" lon="8.365381167046785"><ele>340.0</ele><time>2026-04-04T10:30:03Z</time></trkpt><trkpt lat="44.297140840760065" lon="8.365515042172849"><ele>340.0</ele><time>2026-04-04T10:30:04Z</time></trkpt><trkpt lat="44.29711094982733" lon="8.365623985350481"><ele>336.25</ele><time>2026-04-04T10:30:05Z</time></trkpt><trkpt lat="44.29699957764873" lon="8.365664729508607"><ele>332.5</ele><time>2026-04-04T10:30:06Z</time></trkpt><trkpt lat="44.296911214693104" lon="8.36578166764101"><ele>328.75</ele><time>2026-04-04T10:30:07Z</time></trkpt><trkpt lat="44.29683441274772" lon="8.365905641069698"><ele>325.0</ele><time>2026-04-04T10:30:08Z</time></trkpt><trkpt lat="44.296779203963936" lon="8.366033441778846"><ele>325.0</ele><time>2026-04-04T10:30:09Z</time></trkpt><trkpt lat="44.29675943986381" lon="8.366124197811848"><ele>325.0</ele><time>2026-04-04T10:30:10Z</time></trkpt><trkpt lat="44.29674552395053" lon="8.366222267020557"><ele>325.0</ele><time>2026-04-04T10:30:11Z</time></trkpt><trkpt lat="44.2967354542812" lon="8.366351068977991"><ele>325.0</ele><time>2026-04-04T10:30:12Z</time></trkpt><trkpt lat="44.29675854347673" lon="8.366468028341833"><ele>325.0</ele><time>2026-04-04T10:30:13.001Z</time></trkpt><trkpt lat="44.29678573007372" lon="8.366563376552499"><ele>325.0</ele><time>2026-04-04T10:30:14.001Z</time></trkpt><trkpt lat="44.29680530325531" lon="8.366650255727297"><ele>323.7142857142857</ele><time>2026-04-04T10:30:15.001Z</time></trkpt><trkpt lat="44.296823168167926" lon="8.366744339716071"><ele>322.42857142857144</ele><time>2026-04-04T10:30:16.001Z</time></trkpt><trkpt lat="44.29684384619734" lon="8.366848414423021"><ele>321.14285714285717</ele><time>2026-04-04T10:30:17.001Z</time></trkpt><trkpt lat="44.29686890713948" lon="8.36694432656998"><ele>319.8571428571429</ele><time>2026-04-04T10:30:18.001Z</time></trkpt><trkpt lat="44.296878232501136" lon="8.367037731739135"><ele>318.57142857142856</ele><time>2026-04-04T10:30:19.001Z</time></trkpt><trkpt lat="44.29691152437727" lon="8.367118950588232"><ele>317.28571428571433</ele><time>2026-04-04T10:30:21.001Z</time></trkpt><trkpt lat="44.29692324160919" lon="8.367243977795415"><ele>316.0</ele><time>2026-04-04T10:30:24.001Z</time></trkpt><trkpt lat="44.296938794501784" lon="8.367334418238405"><ele>315.16666666666663</ele><time>2026-04-04T10:30:25.001Z</time></trkpt><trkpt lat="44.29695346879823" lon="8.367425881477143"><ele>314.3333333333333</ele><time>2026-04-04T10:30:26.001Z</time></trkpt><trkpt lat="44.29696816661192" lon="8.3675214244229"><ele>313.5</ele><time>2026-04-04T10:30:27.001Z</time></trkpt><trkpt lat="44.296995117433674" lon="8.36767584046952"><ele>312.6666666666667</ele><time>2026-04-04T10:30:29.001Z</time></trkpt><trkpt lat="44.29700722144297" lon="8.367767600225815"><ele>311.83333333333337</ele><time>2026-04-04T10:30:30.001Z</time></trkpt><trkpt lat="44.29702165642068" lon="8.36790651301223"><ele>311.0</ele><time>2026-04-04T10:30:32.001Z</time></trkpt><trkpt lat="44.29714819265987" lon="8.36791475851427"><ele>311.0</ele><time>2026-04-04T10:30:33.001Z</time></trkpt><trkpt lat="44.29721689211385" lon="8.367904855699283"><ele>311.0</ele><time>2026-04-04T10:30:36.001Z</time></trkpt><trkpt lat="44.29728799062377" lon="8.367838397665832"><ele>311.0</ele><time>2026-04-04T10:30:38.001Z</time></trkpt><trkpt lat="44.29735077948801" lon="8.367755590150454"><ele>311.0</ele><time>2026-04-04T10:30:41.001Z</time></trkpt><trkpt lat="44.29736524171126" lon="8.367606831485244"><ele>311.0</ele><time>2026-04-04T10:30:43.001Z</time></trkpt><trkpt lat="44.297368720282456" lon="8.367494681590948"><ele>311.0</ele><time>2026-04-04T10:30:44.001Z</time></trkpt><trkpt lat="44.297393646022606" lon="8.367279097426428"><ele>306.6666666666667</ele><time>2026-04-04T10:30:46.001Z</time></trkpt><trkpt lat="44.2974521658277" lon="8.36714388262489"><ele>302.33333333333337</ele><time>2026-04-04T10:30:48.001Z</time></trkpt><trkpt lat="44.2974374447024" lon="8.366998623196677"><ele>298.0</ele><time>2026-04-04T10:30:50.001Z</time></trkpt><trkpt lat="44.29741790075901" lon="8.36691025693612"><ele>293.6666666666667</ele><time>2026-04-04T10:30:51.001Z</time></trkpt><trkpt lat="44.29740020905119" lon="8.366821725256038"><ele>289.3333333333333</ele><time>2026-04-04T10:30:52.001Z</time></trkpt><trkpt lat="44.297384266520645" lon="8.36671482143366"><ele>285.0</ele><time>2026-04-04T10:30:53.001Z</time></trkpt><trkpt lat="44.297332615461926" lon="8.36661872491584"><ele>285.0</ele><time>2026-04-04T10:30:54.001Z</time></trkpt><trkpt lat="44.29731315467522" lon="8.366501840575463"><ele>285.0</ele><time>2026-04-04T10:30:56.001Z</time></trkpt><trkpt lat="44.29736473898713" lon="8.366385186477542"><ele>285.0</ele><time>2026-04-04T10:30:58.001Z</time></trkpt><trkpt lat="44.29743988219719" lon="8.366317656272104"><ele>285.0</ele><time>2026-04-04T10:31:00.001Z</time></trkpt><trkpt lat="44.297516148302954" lon="8.366304739625953"><ele>285.0</ele><time>2026-04-04T10:31:01.001Z</time></trkpt><trkpt lat="44.29758154493499" lon="8.366220511315197"><ele>285.0</ele><time>2026-04-04T10:31:03.001Z</time></trkpt><trkpt lat="44.297605103006376" lon="8.366131768085962"><ele>286.6</ele><time>2026-04-04T10:31:04.001Z</time></trkpt><trkpt lat="44.29763855954906" lon="8.366026858155637"><ele>288.2</ele><time>2026-04-04T10:31:05.001Z</time></trkpt><trkpt lat="44.2976773122641" lon="8.365929665172844"><ele>289.8</ele><time>2026-04-04T10:31:06.001Z</time></trkpt><trkpt lat="44.29773797239455" lon="8.365744172678925"><ele>291.4</ele><time>2026-04-04T10:31:08.001Z</time></trkpt><trkpt lat="44.29775374228302" lon="8.365654316307785"><ele>293.0</ele><time>2026-04-04T10:31:09.001Z</time></trkpt><trkpt lat="44.297768855227474" lon="8.365484389123958"><ele>296.0</ele><time>2026-04-04T10:31:11.001Z</time></trkpt><trkpt lat="44.29775866355518" lon="8.365384735227373"><ele>299.0</ele><time>2026-04-04T10:31:12.001Z</time></trkpt><trkpt lat="44.297751016939706" lon="8.365284449989256"><ele>302.0</ele><time>2026-04-04T10:31:13.001Z</time></trkpt><trkpt lat="44.29775694634741" lon="8.36519083180187"><ele>305.0</ele><time>2026-04-04T10:31:14.001Z</time></trkpt><trkpt lat="44.29778963409485" lon="8.365050102822734"><ele>308.0</ele><time>2026-04-04T10:31:16.001Z</time></trkpt><trkpt lat="44.29786251516834" lon="8.365005782488879"><ele>311.0</ele><time>2026-04-04T10:31:18.001Z</time></trkpt><trkpt lat="44.297945442835655" lon="8.365002797497633"><ele>311.0</ele><time>2026-04-04T10:31:20.001Z</time></trkpt><trkpt lat="44.29800407430378" lon="8.36505539710801"><ele>311.0</ele><time>2026-04-04T10:31:22.001Z</time></trkpt><trkpt lat="44.29807139797211" lon="8.365069616568944"><ele>311.0</ele><time>2026-04-04T10:31:23.001Z</time></trkpt><trkpt lat="44.29818069715783" lon="8.365084082748579"><ele>311.0</ele><time>2026-04-04T10:31:24.001Z</time></trkpt><trkpt lat="44.298256281294" lon="8.365114637770123"><ele>311.0</ele><time>2026-04-04T10:31:26Z</time></trkpt><trkpt lat="44.29833122241506" lon="8.365053971694403"><ele>311.0</ele><time>2026-04-04T10:31:27Z</time></trkpt><trkpt lat="44.29842641060217" lon="8.365048039419788"><ele>306.6</ele><time>2026-04-04T10:31:28Z</time></trkpt><trkpt lat="44.29842801060196" lon="8.364956529708927"><ele>302.20000000000005</ele><time>2026-04-04T10:31:29Z</time></trkpt><trkpt lat="44.29851393903995" lon="8.364918706469197"><ele>297.79999999999995</ele><time>2026-04-04T10:31:30Z</time></trkpt><trkpt lat="44.298385756634076" lon="8.364913012858032"><ele>293.4</ele><time>2026-04-04T10:31:31Z</time></trkpt><trkpt lat="44.29847399611257" lon="8.364879113459404"><ele>289.0</ele><time>2026-04-04T10:31:32Z</time></trkpt><trkpt lat="44.29855037600974" lon="8.364789973305706"><ele>289.0</ele><time>2026-04-04T10:31:39Z</time></trkpt><trkpt lat="44.29861627759294" lon="8.364748103906903"><ele>289.0</ele><time>2026-04-04T10:31:40Z</time></trkpt><trkpt lat="44.298692131224605" lon="8.364652355453028"><ele>289.0</ele><time>2026-04-04T10:31:42Z</time></trkpt><trkpt lat="44.29878040906424" lon="8.364635937916356"><ele>289.0</ele><time>2026-04-04T10:31:45Z</time></trkpt><trkpt lat="44.298806990944136" lon="8.364725760917013"><ele>289.0</ele><time>2026-04-04T10:31:51Z</time></trkpt><trkpt lat="44.29886458485836" lon="8.364668280620947"><ele>289.0</ele><time>2026-04-04T10:31:54Z</time></trkpt><trkpt lat="44.298765704989854" lon="8.364630334463492"><ele>289.0</ele><time>2026-04-04T10:32:01Z</time></trkpt><trkpt lat="44.298635262563096" lon="8.364648498335693"><ele>289.0</ele><time>2026-04-04T10:32:03Z</time></trkpt><trkpt lat="44.298535004751976" lon="8.364692901472496"><ele>289.0</ele><time>2026-04-04T10:32:05Z</time></trkpt><trkpt lat="44.298477311766995" lon="8.36478168337749"><ele>289.0</ele><time>2026-04-04T10:32:07Z</time></trkpt><trkpt lat="44.29843289011585" lon="8.364857513800459"><ele>289.0</ele><time>2026-04-04T10:32:09.001Z</time></trkpt><trkpt lat="44.298367862499376" lon="8.364879067081505"><ele>289.0</ele><time>2026-04-04T10:32:13.001Z</time></trkpt><trkpt lat="44.29844728382056" lon="8.364938322150318"><ele>289.0</ele><time>2026-04-04T10:33:39Z</time></trkpt><trkpt lat="44.298384147683926" lon="8.364943141471233"><ele>289.0</ele><time>2026-04-04T10:36:31.001Z</time></trkpt><trkpt lat="44.29833633189491" lon="8.364858350196444"><ele>289.0</ele><time>2026-04-04T10:37:08.001Z</time></trkpt><trkpt lat="44.29841053732267" lon="8.364854083550599"><ele>289.0</ele><time>2026-04-04T10:38:15Z</time></trkpt><trkpt lat="44.29848443748743" lon="8.364905190064132"><ele>289.0</ele><time>2026-04-04T10:38:18Z</time></trkpt><trkpt lat="44.29842161210558" lon="8.364919588088952"><ele>289.0</ele><time>2026-04-04T10:38:31Z</time></trkpt><trkpt lat="44.298351303292975" lon="8.364958202883692"><ele>289.0</ele><time>2026-04-04T10:40:10Z</time></trkpt><trkpt lat="44.29826302773622" lon="8.365020425381497"><ele>289.0</ele><time>2026-04-04T10:40:12Z</time></trkpt><trkpt lat="44.29820780160675" lon="8.365067692564445"><ele>289.0</ele><time>2026-04-04T10:40:13Z</time></trkpt><trkpt lat="44.29815077090269" lon="8.365138815598602"><ele>289.0</ele><time>2026-04-04T10:40:15Z</time></trkpt><trkpt lat="44.298044114085855" lon="8.365074131350022"><ele>289.0</ele><time>2026-04-04T10:40:17Z</time></trkpt><trkpt lat="44.297983547043174" lon="8.365011262412846"><ele>292.66666666666663</ele><time>2026-04-04T10:40:19Z</time></trkpt><trkpt lat="44.2978803147036" lon="8.365003824750694"><ele>296.3333333333333</ele><time>2026-04-04T10:40:47.001Z</time></trkpt><trkpt lat="44.29784093759513" lon="8.364924398510485"><ele>300.0</ele><time>2026-04-04T10:40:50.001Z</time></trkpt><trkpt lat="44.29781736083288" lon="8.365014386981525"><ele>303.6666666666667</ele><time>2026-04-04T10:41:01.001Z</time></trkpt><trkpt lat="44.29777345031739" lon="8.365103013430039"><ele>307.33333333333337</ele><time>2026-04-04T10:41:05.001Z</time></trkpt><trkpt lat="44.29776858857838" lon="8.365212245678793"><ele>311.0</ele><time>2026-04-04T10:41:07.001Z</time></trkpt><trkpt lat="44.29776491834158" lon="8.3653197536407"><ele>311.0</ele><time>2026-04-04T10:41:08.001Z</time></trkpt><trkpt lat="44.297764516426135" lon="8.365425453213984"><ele>311.0</ele><time>2026-04-04T10:41:09.001Z</time></trkpt><trkpt lat="44.297777793675365" lon="8.365571777638207"><ele>311.0</ele><time>2026-04-04T10:41:10.001Z</time></trkpt><trkpt lat="44.29778686208014" lon="8.36568205510606"><ele>311.0</ele><time>2026-04-04T10:41:11.001Z</time></trkpt><trkpt lat="44.29771128857674" lon="8.365840582386753"><ele>311.0</ele><time>2026-04-04T10:41:13.001Z</time></trkpt><trkpt lat="44.29767349592332" lon="8.365958463135167"><ele>307.40000000000003</ele><time>2026-04-04T10:41:14.001Z</time></trkpt><trkpt lat="44.2976363509844" lon="8.366063416863888"><ele>303.8</ele><time>2026-04-04T10:41:15.001Z</time></trkpt><trkpt lat="44.29761308789733" lon="8.366158200839532"><ele>300.20000000000005</ele><time>2026-04-04T10:41:16.001Z</time></trkpt><trkpt lat="44.297542870798516" lon="8.366288288307105"><ele>296.6</ele><time>2026-04-04T10:41:18.001Z</time></trkpt><trkpt lat="44.29746306136395" lon="8.366341428344171"><ele>293.0</ele><time>2026-04-04T10:41:20.001Z</time></trkpt><trkpt lat="44.297366345554444" lon="8.366395725829612"><ele>291.4</ele><time>2026-04-04T10:41:22.001Z</time></trkpt><trkpt lat="44.297356534086084" lon="8.366543487212686"><ele>289.8</ele><time>2026-04-04T10:41:24.001Z</time></trkpt><trkpt lat="44.29742208334595" lon="8.366622228845063"><ele>288.2</ele><time>2026-04-04T10:41:26.001Z</time></trkpt><trkpt lat="44.2974402864535" lon="8.366796971157939"><ele>286.6</ele><time>2026-04-04T10:41:28.001Z</time></trkpt><trkpt lat="44.29746916014757" lon="8.366922026875473"><ele>285.0</ele><time>2026-04-04T10:41:29.001Z</time></trkpt><trkpt lat="44.29749067405554" lon="8.367008345904585"><ele>285.0</ele><time>2026-04-04T10:41:30.001Z</time></trkpt><trkpt lat="44.29747541807964" lon="8.367106546459604"><ele>285.0</ele><time>2026-04-04T10:41:31.001Z</time></trkpt><trkpt lat="44.29747206985157" lon="8.367206611986438"><ele>285.0</ele><time>2026-04-04T10:41:32.001Z</time></trkpt><trkpt lat="44.29746302468073" lon="8.367318937188418"><ele>285.0</ele><time>2026-04-04T10:41:33.001Z</time></trkpt><trkpt lat="44.297457705024556" lon="8.367448181812366"><ele>285.0</ele><time>2026-04-04T10:41:34.001Z</time></trkpt><trkpt lat="44.297433301321576" lon="8.367547320022181"><ele>285.0</ele><time>2026-04-04T10:41:35.001Z</time></trkpt><trkpt lat="44.29741775937194" lon="8.367633961751473"><ele>285.4</ele><time>2026-04-04T10:41:36.001Z</time></trkpt><trkpt lat="44.29737270089098" lon="8.367737765062898"><ele>285.8</ele><time>2026-04-04T10:41:38.001Z</time></trkpt><trkpt lat="44.29728391688364" lon="8.367832120603767"><ele>286.2</ele><time>2026-04-04T10:41:40.001Z</time></trkpt><trkpt lat="44.29718337053555" lon="8.367790667443984"><ele>286.6</ele><time>2026-04-04T10:41:42.001Z</time></trkpt><trkpt lat="44.2971203437487" lon="8.367689742781078"><ele>287.0</ele><time>2026-04-04T10:41:44.001Z</time></trkpt><trkpt lat="44.297066182783944" lon="8.367489840388533"><ele>291.0</ele><time>2026-04-04T10:41:46.002Z</time></trkpt><trkpt lat="44.2970629028963" lon="8.367367447787299"><ele>295.0</ele><time>2026-04-04T10:41:47.002Z</time></trkpt><trkpt lat="44.29705371144694" lon="8.367272061101868"><ele>299.0</ele><time>2026-04-04T10:41:48.002Z</time></trkpt><trkpt lat="44.29701123870584" lon="8.367159900219102"><ele>303.0</ele><time>2026-04-04T10:41:50.002Z</time></trkpt><trkpt lat="44.296949985956246" lon="8.367138225752765"><ele>307.0</ele><time>2026-04-04T10:41:52.002Z</time></trkpt><trkpt lat="44.29693599600351" lon="8.36724645030144"><ele>311.0</ele><time>2026-04-04T10:41:54.002Z</time></trkpt><trkpt lat="44.29696371070392" lon="8.367365552816567"><ele>311.0</ele><time>2026-04-04T10:41:56.001Z</time></trkpt><trkpt lat="44.29697879377961" lon="8.367457782020526"><ele>311.0</ele><time>2026-04-04T10:41:58.001Z</time></trkpt><trkpt lat="44.297001736445914" lon="8.36755631262993"><ele>311.0</ele><time>2026-04-04T10:42:00.001Z</time></trkpt><trkpt lat="44.297023798118204" lon="8.367711834642492"><ele>311.0</ele><time>2026-04-04T10:42:02.001Z</time></trkpt><trkpt lat="44.29700795183335" lon="8.367920700620568"><ele>311.0</ele><time>2026-04-04T10:42:04.001Z</time></trkpt><trkpt lat="44.29695174378527" lon="8.368005910109384"><ele>307.2</ele><time>2026-04-04T10:42:05.001Z</time></trkpt><trkpt lat="44.296889058143606" lon="8.36813323938862"><ele>303.40000000000003</ele><time>2026-04-04T10:42:06.001Z</time></trkpt><trkpt lat="44.2968311198456" lon="8.368248370723222"><ele>299.6</ele><time>2026-04-04T10:42:07Z</time></trkpt><trkpt lat="44.296792504240535" lon="8.368333393034344"><ele>295.8</ele><time>2026-04-04T10:42:08Z</time></trkpt><trkpt lat="44.296749619469736" lon="8.36841721448455"><ele>292.0</ele><time>2026-04-04T10:42:09Z</time></trkpt><trkpt lat="44.29665473491926" lon="8.368454167515775"><ele>292.0</ele><time>2026-04-04T10:42:11Z</time></trkpt><trkpt lat="44.29657278908888" lon="8.368410526459376"><ele>292.0</ele><time>2026-04-04T10:42:12Z</time></trkpt><trkpt lat="44.296461521660795" lon="8.3683314611575"><ele>292.0</ele><time>2026-04-04T10:42:13Z</time></trkpt><trkpt lat="44.29635519354498" lon="8.368263280806321"><ele>292.0</ele><time>2026-04-04T10:42:14Z</time></trkpt><trkpt lat="44.29627477555602" lon="8.368183671575489"><ele>292.0</ele><time>2026-04-04T10:42:15Z</time></trkpt><trkpt lat="44.29619149117607" lon="8.368087681700617"><ele>295.0</ele><time>2026-04-04T10:42:16Z</time></trkpt><trkpt lat="44.29612755476891" lon="8.367965157088237"><ele>298.0</ele><time>2026-04-04T10:42:17.001Z</time></trkpt><trkpt lat="44.296055490773824" lon="8.367847062929123"><ele>301.0</ele><time>2026-04-04T10:42:18.001Z</time></trkpt><trkpt lat="44.29599490813511" lon="8.367750481659783"><ele>304.0</ele><time>2026-04-04T10:42:19.001Z</time></trkpt><trkpt lat="44.29591260247917" lon="8.367655051755438"><ele>307.0</ele><time>2026-04-04T10:42:20.001Z</time></trkpt><trkpt lat="44.295822767362274" lon="8.367577128087703"><ele>307.0</ele><time>2026-04-04T10:42:21.001Z</time></trkpt><trkpt lat="44.295713829902596" lon="8.367513542430046"><ele>307.0</ele><time>2026-04-04T10:42:22.001Z</time></trkpt><trkpt lat="44.29558977224222" lon="8.367465091305386"><ele>307.0</ele><time>2026-04-04T10:42:23.001Z</time></trkpt><trkpt lat="44.29547703322677" lon="8.367429527541923"><ele>307.0</ele><time>2026-04-04T10:42:24.001Z</time></trkpt><trkpt lat="44.295350616346546" lon="8.367394497360877"><ele>301.8</ele><time>2026-04-04T10:42:25.001Z</time></trkpt><trkpt lat="44.29524900825125" lon="8.367366196377041"><ele>296.6</ele><time>2026-04-04T10:42:26.001Z</time></trkpt><trkpt lat="44.29515760190198" lon="8.36738071467781"><ele>291.40000000000003</ele><time>2026-04-04T10:42:27.001Z</time></trkpt><trkpt lat="44.29505234915352" lon="8.367401586004945"><ele>286.2</ele><time>2026-04-04T10:42:28.001Z</time></trkpt><trkpt lat="44.29494641826098" lon="8.367434105351927"><ele>281.0</ele><time>2026-04-04T10:42:29.001Z</time></trkpt><trkpt lat="44.29485579744588" lon="8.367455485547037"><ele>281.0</ele><time>2026-04-04T10:42:30.001Z</time></trkpt><trkpt lat="44.294781735796484" lon="8.367468587700397"><ele>281.0</ele><time>2026-04-04T10:42:31.001Z</time></trkpt><trkpt lat="44.29468802826993" lon="8.367470575052357"><ele>281.0</ele><time>2026-04-04T10:42:33.001Z</time></trkpt><trkpt lat="44.294651223253986" lon="8.367350156834494"><ele>281.0</ele><time>2026-04-04T10:42:34.001Z</time></trkpt><trkpt lat="44.294644017398284" lon="8.367232682505843"><ele>281.0</ele><time>2026-04-04T10:42:35.001Z</time></trkpt><trkpt lat="44.29466496146187" lon="8.367109761562501"><ele>281.0</ele><time>2026-04-04T10:42:36.001Z</time></trkpt><trkpt lat="44.294694440944596" lon="8.366976811575618"><ele>276.75</ele><time>2026-04-04T10:42:37.001Z</time></trkpt><trkpt lat="44.2947193253409" lon="8.366835824644424"><ele>272.5</ele><time>2026-04-04T10:42:38.001Z</time></trkpt><trkpt lat="44.29472940467319" lon="8.366685559643399"><ele>268.25</ele><time>2026-04-04T10:42:39.001Z</time></trkpt><trkpt lat="44.29472201308057" lon="8.366523643552558"><ele>264.0</ele><time>2026-04-04T10:42:40.001Z</time></trkpt><trkpt lat="44.29469720194765" lon="8.366356260847086"><ele>264.0</ele><time>2026-04-04T10:42:41.001Z</time></trkpt><trkpt lat="44.29467315205958" lon="8.366194273716983"><ele>264.0</ele><time>2026-04-04T10:42:42.001Z</time></trkpt><trkpt lat="44.29464144036341" lon="8.366052326953875"><ele>264.0</ele><time>2026-04-04T10:42:43.001Z</time></trkpt><trkpt lat="44.294628888280094" lon="8.36590254644692"><ele>264.0</ele><time>2026-04-04T10:42:44.001Z</time></trkpt><trkpt lat="44.29463155797814" lon="8.365744085133068"><ele>264.0</ele><time>2026-04-04T10:42:45.001Z</time></trkpt><trkpt lat="44.29462791257255" lon="8.365562568078387"><ele>263.5</ele><time>2026-04-04T10:42:46.001Z</time></trkpt><trkpt lat="44.29461060078109" lon="8.365377301143578"><ele>263.0</ele><time>2026-04-04T10:42:47.001Z</time></trkpt><trkpt lat="44.2945864829437" lon="8.365208026488153"><ele>262.5</ele><time>2026-04-04T10:42:48.001Z</time></trkpt><trkpt lat="44.29454977710106" lon="8.365050939332924"><ele>262.0</ele><time>2026-04-04T10:42:49.001Z</time></trkpt><trkpt lat="44.294541808809214" lon="8.364879937902222"><ele>262.0</ele><time>2026-04-04T10:42:50.001Z</time></trkpt><trkpt lat="44.294501401867066" lon="8.364719365827929"><ele>262.0</ele><time>2026-04-04T10:42:51.001Z</time></trkpt><trkpt lat="44.29443191447883" lon="8.364568260423132"><ele>262.0</ele><time>2026-04-04T10:42:52.001Z</time></trkpt><trkpt lat="44.29436004018538" lon="8.364417367733136"><ele>262.0</ele><time>2026-04-04T10:42:53.001Z</time></trkpt><trkpt lat="44.294293683454725" lon="8.364278926151714"><ele>262.8</ele><time>2026-04-04T10:42:54.001Z</time></trkpt><trkpt lat="44.29423376551689" lon="8.364146723286046"><ele>263.6</ele><time>2026-04-04T10:42:55.001Z</time></trkpt><trkpt lat="44.29418598152813" lon="8.364029023198752"><ele>264.40000000000003</ele><time>2026-04-04T10:42:56.001Z</time></trkpt><trkpt lat="44.29416110578102" lon="8.363914242603132"><ele>265.2</ele><time>2026-04-04T10:42:57.001Z</time></trkpt><trkpt lat="44.29417578157098" lon="8.363812435897371"><ele>266.0</ele><time>2026-04-04T10:42:59.001Z</time></trkpt><trkpt lat="44.294163941787346" lon="8.36369583666493"><ele>268.0</ele><time>2026-04-04T10:43:02.001Z</time></trkpt><trkpt lat="44.29408531108568" lon="8.363605807697265"><ele>270.0</ele><time>2026-04-04T10:43:05.001Z</time></trkpt><trkpt lat="44.29403835441825" lon="8.36352218637243"><ele>272.0</ele><time>2026-04-04T10:43:06.001Z</time></trkpt><trkpt lat="44.29396422794096" lon="8.363435566022327"><ele>274.0</ele><time>2026-04-04T10:43:07.001Z</time></trkpt><trkpt lat="44.293887076853935" lon="8.363339489681598"><ele>276.0</ele><time>2026-04-04T10:43:08.001Z</time></trkpt><trkpt lat="44.2938274008146" lon="8.363251666237705"><ele>270.2</ele><time>2026-04-04T10:43:09.001Z</time></trkpt><trkpt lat="44.293780828261966" lon="8.363152404001884"><ele>264.40000000000003</ele><time>2026-04-04T10:43:10.001Z</time></trkpt><trkpt lat="44.29374206833702" lon="8.363064257019595"><ele>258.6</ele><time>2026-04-04T10:43:11.001Z</time></trkpt><trkpt lat="44.2936822349684" lon="8.362976972859359"><ele>252.8</ele><time>2026-04-04T10:43:12.001Z</time></trkpt><trkpt lat="44.29366196165511" lon="8.362833227886648"><ele>247.0</ele><time>2026-04-04T10:43:13.001Z</time></trkpt><trkpt lat="44.29364671617567" lon="8.362681712790392"><ele>247.0</ele><time>2026-04-04T10:43:14.001Z</time></trkpt><trkpt lat="44.29363108401823" lon="8.36252838552079"><ele>247.0</ele><time>2026-04-04T10:43:15.001Z</time></trkpt><trkpt lat="44.29362399283591" lon="8.362370182996633"><ele>247.0</ele><time>2026-04-04T10:43:16.001Z</time></trkpt><trkpt lat="44.29353114021972" lon="8.362248088297454"><ele>247.0</ele><time>2026-04-04T10:43:17.001Z</time></trkpt><trkpt lat="44.293445286837624" lon="8.36213147400745"><ele>249.6</ele><time>2026-04-04T10:43:18.001Z</time></trkpt><trkpt lat="44.29337701912156" lon="8.362009172684518"><ele>252.2</ele><time>2026-04-04T10:43:19.001Z</time></trkpt><trkpt lat="44.29330985165492" lon="8.361907242516919"><ele>254.8</ele><time>2026-04-04T10:43:20.001Z</time></trkpt><trkpt lat="44.29324284746233" lon="8.361806929857954"><ele>257.4</ele><time>2026-04-04T10:43:21.001Z</time></trkpt><trkpt lat="44.29318164832891" lon="8.361737895807527"><ele>260.0</ele><time>2026-04-04T10:43:22.001Z</time></trkpt><trkpt lat="44.29311789979932" lon="8.361672762074477"><ele>260.0</ele><time>2026-04-04T10:43:23.001Z</time></trkpt><trkpt lat="44.29311943506488" lon="8.361493448684943"><ele>260.0</ele><time>2026-04-04T10:43:25.001Z</time></trkpt><trkpt lat="44.29311133979298" lon="8.361365907281222"><ele>260.0</ele><time>2026-04-04T10:43:26.001Z</time></trkpt><trkpt lat="44.29310925678037" lon="8.36126100762397"><ele>260.0</ele><time>2026-04-04T10:43:27.001Z</time></trkpt><trkpt lat="44.2930305903753" lon="8.36116025681154"><ele>260.0</ele><time>2026-04-04T10:43:29.001Z</time></trkpt><trkpt lat="44.29293020491293" lon="8.36126525425327"><ele>260.0</ele><time>2026-04-04T10:43:31.001Z</time></trkpt><trkpt lat="44.29293056693913" lon="8.361406225080085"><ele>260.0</ele><time>2026-04-04T10:43:32.001Z</time></trkpt><trkpt lat="44.292948657448385" lon="8.361561198611513"><ele>260.0</ele><time>2026-04-04T10:43:33.001Z</time></trkpt><trkpt lat="44.292972392876486" lon="8.36171735185626"><ele>260.0</ele><time>2026-04-04T10:43:34.001Z</time></trkpt><trkpt lat="44.29301862087145" lon="8.361862092662555"><ele>260.0</ele><time>2026-04-04T10:43:35.001Z</time></trkpt><trkpt lat="44.29310428134671" lon="8.361989920533656"><ele>260.0</ele><time>2026-04-04T10:43:36.001Z</time></trkpt><trkpt lat="44.29318203614011" lon="8.362135589237846"><ele>260.0</ele><time>2026-04-04T10:43:37.001Z</time></trkpt><trkpt lat="44.29326508575029" lon="8.362251638730188"><ele>260.0</ele><time>2026-04-04T10:43:38.001Z</time></trkpt><trkpt lat="44.29331507395951" lon="8.362411876489183"><ele>260.0</ele><time>2026-04-04T10:43:39.001Z</time></trkpt><trkpt lat="44.29333698127548" lon="8.362579061282046"><ele>256.75</ele><time>2026-04-04T10:43:40.001Z</time></trkpt><trkpt lat="44.29330954990155" lon="8.362732692681403"><ele>253.5</ele><time>2026-04-04T10:43:41.001Z</time></trkpt><trkpt lat="44.29330750002388" lon="8.362901429629291"><ele>250.25</ele><time>2026-04-04T10:43:42.001Z</time></trkpt><trkpt lat="44.293321800325785" lon="8.363055038229295"><ele>247.0</ele><time>2026-04-04T10:43:43.001Z</time></trkpt><trkpt lat="44.293351862859765" lon="8.363210918506885"><ele>245.49999999999997</ele><time>2026-04-04T10:43:44.001Z</time></trkpt><trkpt lat="44.29339102248752" lon="8.363365990585685"><ele>244.0</ele><time>2026-04-04T10:43:45.001Z</time></trkpt><trkpt lat="44.29344131384213" lon="8.363476105321913"><ele>242.5</ele><time>2026-04-04T10:43:46.001Z</time></trkpt><trkpt lat="44.29344449982749" lon="8.363585985864464"><ele>241.0</ele><time>2026-04-04T10:43:47.001Z</time></trkpt><trkpt lat="44.293456678223805" lon="8.363678335352468"><ele>239.49999999999997</ele><time>2026-04-04T10:43:48.001Z</time></trkpt><trkpt lat="44.293401319522985" lon="8.363748021061008"><ele>238.0</ele><time>2026-04-04T10:43:49.001Z</time></trkpt><trkpt lat="44.29333080974762" lon="8.363820429154275"><ele>238.0</ele><time>2026-04-04T10:43:50.002Z</time></trkpt><trkpt lat="44.2932582203746" lon="8.363924299281699"><ele>238.0</ele><time>2026-04-04T10:43:51.002Z</time></trkpt><trkpt lat="44.29319492250321" lon="8.36404827588364"><ele>238.0</ele><time>2026-04-04T10:43:52.002Z</time></trkpt><trkpt lat="44.29315618597964" lon="8.364211176014237"><ele>238.0</ele><time>2026-04-04T10:43:53.002Z</time></trkpt><trkpt lat="44.29312760020105" lon="8.364380127185704"><ele>238.0</ele><time>2026-04-04T10:43:54.002Z</time></trkpt><trkpt lat="44.29310821365893" lon="8.364557509945515"><ele>238.0</ele><time>2026-04-04T10:43:55.002Z</time></trkpt><trkpt lat="44.29309865120539" lon="8.364732092947946"><ele>238.0</ele><time>2026-04-04T10:43:56.002Z</time></trkpt><trkpt lat="44.29309894480542" lon="8.364891664004045"><ele>238.0</ele><time>2026-04-04T10:43:57.002Z</time></trkpt><trkpt lat="44.293095860375495" lon="8.365046293886094"><ele>238.0</ele><time>2026-04-04T10:43:58.002Z</time></trkpt><trkpt lat="44.293097142351456" lon="8.365191690824188"><ele>238.0</ele><time>2026-04-04T10:43:59.002Z</time></trkpt><trkpt lat="44.293082843952405" lon="8.365342313881786"><ele>238.0</ele><time>2026-04-04T10:44:00.002Z</time></trkpt><trkpt lat="44.293087525463214" lon="8.365484609679976"><ele>238.0</ele><time>2026-04-04T10:44:01.001Z</time></trkpt><trkpt lat="44.293099029810094" lon="8.365607691566517"><ele>238.0</ele><time>2026-04-04T10:44:02.001Z</time></trkpt><trkpt lat="44.29310789817554" lon="8.365713390335028"><ele>237.8</ele><time>2026-04-04T10:44:03.001Z</time></trkpt><trkpt lat="44.29305487402204" lon="8.365788200841612"><ele>237.60000000000002</ele><time>2026-04-04T10:44:05.001Z</time></trkpt><trkpt lat="44.29297330223767" lon="8.365829863755714"><ele>237.39999999999998</ele><time>2026-04-04T10:44:07.001Z</time></trkpt><trkpt lat="44.29305595030362" lon="8.365990117410849"><ele>237.2</ele><time>2026-04-04T10:44:09.001Z</time></trkpt><trkpt lat="44.29309220214517" lon="8.366097611023953"><ele>237.0</ele><time>2026-04-04T10:44:10.001Z</time></trkpt><trkpt lat="44.293101316462966" lon="8.366255442431031"><ele>236.2</ele><time>2026-04-04T10:44:11Z</time></trkpt><trkpt lat="44.29309335168334" lon="8.366404608297593"><ele>235.39999999999998</ele><time>2026-04-04T10:44:12Z</time></trkpt><trkpt lat="44.29310105179326" lon="8.366552026533475"><ele>234.60000000000002</ele><time>2026-04-04T10:44:13Z</time></trkpt><trkpt lat="44.29309786098859" lon="8.366702670379693"><ele>233.8</ele><time>2026-04-04T10:44:14Z</time></trkpt><trkpt lat="44.29308669238888" lon="8.36685246638034"><ele>233.0</ele><time>2026-04-04T10:44:15Z</time></trkpt><trkpt lat="44.29308019631103" lon="8.366985739469897"><ele>227.60000000000002</ele><time>2026-04-04T10:44:16Z</time></trkpt><trkpt lat="44.29302365465511" lon="8.367087234232086"><ele>222.20000000000002</ele><time>2026-04-04T10:44:17Z</time></trkpt><trkpt lat="44.292998300568655" lon="8.367207410947662"><ele>216.8</ele><time>2026-04-04T10:44:18Z</time></trkpt><trkpt lat="44.293010377606876" lon="8.367356912054143"><ele>211.4</ele><time>2026-04-04T10:44:19Z</time></trkpt><trkpt lat="44.293041084816316" lon="8.367512043243552"><ele>206.0</ele><time>2026-04-04T10:44:20Z</time></trkpt><trkpt lat="44.29306872487885" lon="8.367675287142497"><ele>205.0</ele><time>2026-04-04T10:44:21Z</time></trkpt><trkpt lat="44.29307370146603" lon="8.367830556319639"><ele>204.0</ele><time>2026-04-04T10:44:22Z</time></trkpt><trkpt lat="44.29307856059613" lon="8.367980540003089"><ele>203.0</ele><time>2026-04-04T10:44:23Z</time></trkpt><trkpt lat="44.293096724421055" lon="8.368122072231316"><ele>202.0</ele><time>2026-04-04T10:44:24Z</time></trkpt><trkpt lat="44.29312834137514" lon="8.368233585671254"><ele>201.0</ele><time>2026-04-04T10:44:25Z</time></trkpt><trkpt lat="44.2931384585255" lon="8.368323084089958"><ele>201.0</ele><time>2026-04-04T10:44:26Z</time></trkpt><trkpt lat="44.29305762715697" lon="8.36837673135115"><ele>201.0</ele><time>2026-04-04T10:44:28Z</time></trkpt><trkpt lat="44.29300198481691" lon="8.368189536030231"><ele>201.0</ele><time>2026-04-04T10:44:30Z</time></trkpt><trkpt lat="44.292977179508" lon="8.368037215592977"><ele>201.0</ele><time>2026-04-04T10:44:31.001Z</time></trkpt><trkpt lat="44.29294611320154" lon="8.367886323812968"><ele>201.0</ele><time>2026-04-04T10:44:32.001Z</time></trkpt><trkpt lat="44.2928440081927" lon="8.36775884890365"><ele>201.0</ele><time>2026-04-04T10:44:33.001Z</time></trkpt><trkpt lat="44.29276574972553" lon="8.367617965620044"><ele>201.0</ele><time>2026-04-04T10:44:34.001Z</time></trkpt><trkpt lat="44.29268316876307" lon="8.36749161199953"><ele>201.0</ele><time>2026-04-04T10:44:35.001Z</time></trkpt><trkpt lat="44.29259274650554" lon="8.367372090223162"><ele>201.0</ele><time>2026-04-04T10:44:36.001Z</time></trkpt><trkpt lat="44.29251933897476" lon="8.367267932989606"><ele>201.0</ele><time>2026-04-04T10:44:37.001Z</time></trkpt><trkpt lat="44.29245682095374" lon="8.367156846331447"><ele>201.0</ele><time>2026-04-04T10:44:38.001Z</time></trkpt><trkpt lat="44.29241122347966" lon="8.367047258762717"><ele>201.0</ele><time>2026-04-04T10:44:39.001Z</time></trkpt><trkpt lat="44.29236686247328" lon="8.366916603804093"><ele>201.0</ele><time>2026-04-04T10:44:40.001Z</time></trkpt><trkpt lat="44.29231539691624" lon="8.36678178839796"><ele>202.0</ele><time>2026-04-04T10:44:41.001Z</time></trkpt><trkpt lat="44.292264136432195" lon="8.366639681421107"><ele>203.0</ele><time>2026-04-04T10:44:42.001Z</time></trkpt><trkpt lat="44.292240532119465" lon="8.366491376376631"><ele>204.0</ele><time>2026-04-04T10:44:43.001Z</time></trkpt><trkpt lat="44.2922056767124" lon="8.366363436602601"><ele>205.0</ele><time>2026-04-04T10:44:44.001Z</time></trkpt><trkpt lat="44.29226025368007" lon="8.36624343102607"><ele>206.0</ele><time>2026-04-04T10:44:45.001Z</time></trkpt><trkpt lat="44.292266399639495" lon="8.366124611236042"><ele>206.66666666666669</ele><time>2026-04-04T10:44:46.001Z</time></trkpt><trkpt lat="44.292281102444186" lon="8.366037503517633"><ele>207.33333333333334</ele><time>2026-04-04T10:44:47.001Z</time></trkpt><trkpt lat="44.29220248678437" lon="8.365912605238686"><ele>208.0</ele><time>2026-04-04T10:44:49.001Z</time></trkpt><trkpt lat="44.292142404843545" lon="8.365942298167273"><ele>208.66666666666669</ele><time>2026-04-04T10:44:50.001Z</time></trkpt><trkpt lat="44.292094808304896" lon="8.366043802468337"><ele>209.33333333333334</ele><time>2026-04-04T10:44:51.001Z</time></trkpt><trkpt lat="44.29209186223651" lon="8.366176007724942"><ele>210.0</ele><time>2026-04-04T10:44:52.001Z</time></trkpt><trkpt lat="44.29209847686012" lon="8.366336409706323"><ele>202.0</ele><time>2026-04-04T10:44:53.001Z</time></trkpt><trkpt lat="44.29211226638513" lon="8.366494920144065"><ele>194.0</ele><time>2026-04-04T10:44:54.001Z</time></trkpt><trkpt lat="44.292137869847615" lon="8.366660203007843"><ele>186.0</ele><time>2026-04-04T10:44:55.001Z</time></trkpt><trkpt lat="44.29216009701607" lon="8.36682029472991"><ele>178.0</ele><time>2026-04-04T10:44:56.001Z</time></trkpt><trkpt lat="44.29215261916382" lon="8.3669396320792"><ele>170.0</ele><time>2026-04-04T10:44:57.001Z</time></trkpt><trkpt lat="44.29211204809439" lon="8.367081127409126"><ele>169.2</ele><time>2026-04-04T10:44:58.001Z</time></trkpt><trkpt lat="44.29206904822821" lon="8.367251604889526"><ele>168.4</ele><time>2026-04-04T10:44:59.001Z</time></trkpt><trkpt lat="44.2920225939882" lon="8.367372488818159"><ele>167.60000000000002</ele><time>2026-04-04T10:45:00.001Z</time></trkpt><trkpt lat="44.291996826662974" lon="8.367502412133716"><ele>166.8</ele><time>2026-04-04T10:45:01.001Z</time></trkpt><trkpt lat="44.29200377507543" lon="8.367614337743007"><ele>166.0</ele><time>2026-04-04T10:45:02.001Z</time></trkpt><trkpt lat="44.29206232271044" lon="8.367756642071473"><ele>166.0</ele><time>2026-04-04T10:45:03.001Z</time></trkpt><trkpt lat="44.29215908615824" lon="8.36786503499181"><ele>166.0</ele><time>2026-04-04T10:45:04.001Z</time></trkpt><trkpt lat="44.29227193983258" lon="8.367958944374287"><ele>166.0</ele><time>2026-04-04T10:45:05.001Z</time></trkpt><trkpt lat="44.292388454664966" lon="8.368088020777671"><ele>166.0</ele><time>2026-04-04T10:45:06.001Z</time></trkpt><trkpt lat="44.29248578632093" lon="8.368226321897017"><ele>166.75</ele><time>2026-04-04T10:45:07.001Z</time></trkpt><trkpt lat="44.29255958657703" lon="8.368368567018543"><ele>167.5</ele><time>2026-04-04T10:45:08.001Z</time></trkpt><trkpt lat="44.29262824855106" lon="8.368522577797483"><ele>168.25</ele><time>2026-04-04T10:45:09.001Z</time></trkpt><trkpt lat="44.292679730559854" lon="8.368702660112161"><ele>169.0</ele><time>2026-04-04T10:45:10.001Z</time></trkpt><trkpt lat="44.292729452191374" lon="8.368898340474113"><ele>169.0</ele><time>2026-04-04T10:45:11.001Z</time></trkpt><trkpt lat="44.29278146964864" lon="8.369080474470142"><ele>169.0</ele><time>2026-04-04T10:45:12.001Z</time></trkpt><trkpt lat="44.29283049434739" lon="8.36924633262841"><ele>169.0</ele><time>2026-04-04T10:45:13.001Z</time></trkpt><trkpt lat="44.29286843523022" lon="8.369387177476826"><ele>169.0</ele><time>2026-04-04T10:45:14.001Z</time></trkpt><trkpt lat="44.292926508094496" lon="8.36949242190298"><ele>169.0</ele><time>2026-04-04T10:45:15.001Z</time></trkpt><trkpt lat="44.29299828395426" lon="8.369570023182545"><ele>169.0</ele><time>2026-04-04T10:45:16.001Z</time></trkpt><trkpt lat="44.29309143470648" lon="8.369581795195"><ele>169.0</ele><time>2026-04-04T10:45:17.001Z</time></trkpt><trkpt lat="44.293197263701174" lon="8.369562478620054"><ele>169.0</ele><time>2026-04-04T10:45:18.001Z</time></trkpt><trkpt lat="44.29329599235125" lon="8.369518550387752"><ele>169.0</ele><time>2026-04-04T10:45:19.001Z</time></trkpt><trkpt lat="44.293383906593945" lon="8.369499733862131"><ele>166.6</ele><time>2026-04-04T10:45:20.001Z</time></trkpt><trkpt lat="44.293441564674694" lon="8.369537431956807"><ele>164.2</ele><time>2026-04-04T10:45:21.001Z</time></trkpt><trkpt lat="44.29346859734685" lon="8.369713055659354"><ele>161.79999999999998</ele><time>2026-04-04T10:45:23.001Z</time></trkpt><trkpt lat="44.293411822417575" lon="8.369799210408557"><ele>159.39999999999998</ele><time>2026-04-04T10:45:24.001Z</time></trkpt><trkpt lat="44.293333963714744" lon="8.369865651476717"><ele>157.0</ele><time>2026-04-04T10:45:25.001Z</time></trkpt><trkpt lat="44.29322803711397" lon="8.369836091928347"><ele>157.0</ele><time>2026-04-04T10:45:26.001Z</time></trkpt><trkpt lat="44.29310935465645" lon="8.369842495445264"><ele>157.0</ele><time>2026-04-04T10:45:27.001Z</time></trkpt><trkpt lat="44.29300211086027" lon="8.369839369110679"><ele>157.0</ele><time>2026-04-04T10:45:28.001Z</time></trkpt><trkpt lat="44.292900546291385" lon="8.369839460624203"><ele>157.0</ele><time>2026-04-04T10:45:29.001Z</time></trkpt><trkpt lat="44.29280958456964" lon="8.369790056584133"><ele>157.0</ele><time>2026-04-04T10:45:30.001Z</time></trkpt><trkpt lat="44.29272847076032" lon="8.36969197907044"><ele>160.0</ele><time>2026-04-04T10:45:31.001Z</time></trkpt><trkpt lat="44.292650121669475" lon="8.369581024093744"><ele>163.0</ele><time>2026-04-04T10:45:32.001Z</time></trkpt><trkpt lat="44.29256408769803" lon="8.369466692226881"><ele>166.0</ele><time>2026-04-04T10:45:33.001Z</time></trkpt><trkpt lat="44.292457568828375" lon="8.369375809292642"><ele>169.0</ele><time>2026-04-04T10:45:34.001Z</time></trkpt><trkpt lat="44.29235297066173" lon="8.369294319228835"><ele>169.0</ele><time>2026-04-04T10:45:35.001Z</time></trkpt><trkpt lat="44.29226826710306" lon="8.369198840544783"><ele>169.0</ele><time>2026-04-04T10:45:36.001Z</time></trkpt><trkpt lat="44.292207353830925" lon="8.369085896737356"><ele>169.0</ele><time>2026-04-04T10:45:37.001Z</time></trkpt><trkpt lat="44.29216024038857" lon="8.368973456076123"><ele>169.0</ele><time>2026-04-04T10:45:38.001Z</time></trkpt><trkpt lat="44.29211281900557" lon="8.368884831576429"><ele>169.0</ele><time>2026-04-04T10:45:39.001Z</time></trkpt><trkpt lat="44.29199565566787" lon="8.368914505722165"><ele>161.25</ele><time>2026-04-04T10:45:41.001Z</time></trkpt><trkpt lat="44.29201385816712" lon="8.369106355891843"><ele>153.5</ele><time>2026-04-04T10:45:43.001Z</time></trkpt><trkpt lat="44.29209172626914" lon="8.369212683566671"><ele>145.75</ele><time>2026-04-04T10:45:44.001Z</time></trkpt><trkpt lat="44.292160047814576" lon="8.369331930834463"><ele>138.0</ele><time>2026-04-04T10:45:45.001Z</time></trkpt><trkpt lat="44.29223382587096" lon="8.369452320449488"><ele>139.75</ele><time>2026-04-04T10:45:46.001Z</time></trkpt><trkpt lat="44.29231725117972" lon="8.369578517026584"><ele>141.5</ele><time>2026-04-04T10:45:47.001Z</time></trkpt><trkpt lat="44.29240625115228" lon="8.369709751558553"><ele>143.25</ele><time>2026-04-04T10:45:48.001Z</time></trkpt><trkpt lat="44.29248548389752" lon="8.369831823494437"><ele>145.0</ele><time>2026-04-04T10:45:49.001Z</time></trkpt><trkpt lat="44.29255648262109" lon="8.369954809131679"><ele>145.0</ele><time>2026-04-04T10:45:50.001Z</time></trkpt><trkpt lat="44.29261223624905" lon="8.370079030868839"><ele>145.0</ele><time>2026-04-04T10:45:51.001Z</time></trkpt><trkpt lat="44.292656937804175" lon="8.370229941680185"><ele>145.0</ele><time>2026-04-04T10:45:52.001Z</time></trkpt><trkpt lat="44.29268866510166" lon="8.370383845312942"><ele>145.0</ele><time>2026-04-04T10:45:53.001Z</time></trkpt><trkpt lat="44.29271937217471" lon="8.370535607945184"><ele>145.0</ele><time>2026-04-04T10:45:54.001Z</time></trkpt><trkpt lat="44.29275833511092" lon="8.370689812930117"><ele>144.0</ele><time>2026-04-04T10:45:55.001Z</time></trkpt><trkpt lat="44.29279728229703" lon="8.37083234424903"><ele>143.0</ele><time>2026-04-04T10:45:56.001Z</time></trkpt><trkpt lat="44.29284530435823" lon="8.370934160611577"><ele>142.0</ele><time>2026-04-04T10:45:57.001Z</time></trkpt><trkpt lat="44.292918673004245" lon="8.371001367778838"><ele>141.0</ele><time>2026-04-04T10:45:58.001Z</time></trkpt><trkpt lat="44.293014002815845" lon="8.371041095258661"><ele>140.0</ele><time>2026-04-04T10:45:59.001Z</time></trkpt><trkpt lat="44.29312323877486" lon="8.371056798516989"><ele>140.0</ele><time>2026-04-04T10:46:00.001Z</time></trkpt><trkpt lat="44.29324264959892" lon="8.371056063305401"><ele>140.0</ele><time>2026-04-04T10:46:01.001Z</time></trkpt><trkpt lat="44.29337111490914" lon="8.371056915279437"><ele>140.0</ele><time>2026-04-04T10:46:02.001Z</time></trkpt><trkpt lat="44.29350696058467" lon="8.37105721418749"><ele>140.0</ele><time>2026-04-04T10:46:03.001Z</time></trkpt><trkpt lat="44.293631815724495" lon="8.371059395140986"><ele>140.0</ele><time>2026-04-04T10:46:04.001Z</time></trkpt><trkpt lat="44.29374506092118" lon="8.371087035194241"><ele>140.0</ele><time>2026-04-04T10:46:05.001Z</time></trkpt><trkpt lat="44.29384845565165" lon="8.371142165013804"><ele>140.0</ele><time>2026-04-04T10:46:06.001Z</time></trkpt><trkpt lat="44.2939300541589" lon="8.371228482641724"><ele>140.0</ele><time>2026-04-04T10:46:07.001Z</time></trkpt><trkpt lat="44.29400093208322" lon="8.371355631739638"><ele>140.0</ele><time>2026-04-04T10:46:08.001Z</time></trkpt><trkpt lat="44.29405903621237" lon="8.371508079069493"><ele>138.0</ele><time>2026-04-04T10:46:09.001Z</time></trkpt><trkpt lat="44.29410462931584" lon="8.371651490516104"><ele>136.0</ele><time>2026-04-04T10:46:10.001Z</time></trkpt><trkpt lat="44.29415969303263" lon="8.371750396397378"><ele>134.0</ele><time>2026-04-04T10:46:11.001Z</time></trkpt><trkpt lat="44.29423051566522" lon="8.371812856754207"><ele>132.0</ele><time>2026-04-04T10:46:12.001Z</time></trkpt><trkpt lat="44.29431955341318" lon="8.371831719208958"><ele>130.0</ele><time>2026-04-04T10:46:13.001Z</time></trkpt><trkpt lat="44.29443829605482" lon="8.371807931216187"><ele>130.0</ele><time>2026-04-04T10:46:14.001Z</time></trkpt><trkpt lat="44.29455691227516" lon="8.371807447272605"><ele>130.0</ele><time>2026-04-04T10:46:15.001Z</time></trkpt><trkpt lat="44.29468993127152" lon="8.371846042445405"><ele>130.0</ele><time>2026-04-04T10:46:16.001Z</time></trkpt><trkpt lat="44.29482765276794" lon="8.371886606233291"><ele>130.0</ele><time>2026-04-04T10:46:17.001Z</time></trkpt><trkpt lat="44.29496641518443" lon="8.371913179393017"><ele>126.5</ele><time>2026-04-04T10:46:18.001Z</time></trkpt><trkpt lat="44.29509836291843" lon="8.37194877189278"><ele>123.0</ele><time>2026-04-04T10:46:19Z</time></trkpt><trkpt lat="44.29522468621673" lon="8.372020922908877"><ele>119.5</ele><time>2026-04-04T10:46:20Z</time></trkpt><trkpt lat="44.29534105825265" lon="8.372114286973478"><ele>116.0</ele><time>2026-04-04T10:46:21Z</time></trkpt><trkpt lat="44.29544215418767" lon="8.372204525736434"><ele>116.0</ele><time>2026-04-04T10:46:22Z</time></trkpt><trkpt lat="44.29554653094144" lon="8.372323456822892"><ele>116.0</ele><time>2026-04-04T10:46:23Z</time></trkpt><trkpt lat="44.295639639404676" lon="8.372474936400167"><ele>116.0</ele><time>2026-04-04T10:46:24Z</time></trkpt><trkpt lat="44.29574101667313" lon="8.372641244054442"><ele>116.0</ele><time>2026-04-04T10:46:25Z</time></trkpt><trkpt lat="44.29584771041882" lon="8.372786109518836"><ele>115.66666666666666</ele><time>2026-04-04T10:46:26Z</time></trkpt><trkpt lat="44.29597604062818" lon="8.372917801399462"><ele>115.33333333333334</ele><time>2026-04-04T10:46:27Z</time></trkpt><trkpt lat="44.29611437949833" lon="8.373040833637539"><ele>115.0</ele><time>2026-04-04T10:46:28Z</time></trkpt><trkpt lat="44.29625531194101" lon="8.373160803314967"><ele>115.0</ele><time>2026-04-04T10:46:29Z</time></trkpt><trkpt lat="44.29639844517902" lon="8.373291015173226"><ele>115.0</ele><time>2026-04-04T10:46:30Z</time></trkpt><trkpt lat="44.29653884195785" lon="8.373402372445817"><ele>115.0</ele><time>2026-04-04T10:46:31Z</time></trkpt><trkpt lat="44.29667180185784" lon="8.373498996580768"><ele>115.5</ele><time>2026-04-04T10:46:32Z</time></trkpt><trkpt lat="44.296812261084845" lon="8.373565915928083"><ele>116.0</ele><time>2026-04-04T10:46:33Z</time></trkpt><trkpt lat="44.29694274359369" lon="8.373614383654015"><ele>116.5</ele><time>2026-04-04T10:46:34Z</time></trkpt><trkpt lat="44.297049426477486" lon="8.373644055553754"><ele>117.0</ele><time>2026-04-04T10:46:35Z</time></trkpt><trkpt lat="44.29713475061178" lon="8.373697914465955"><ele>117.0</ele><time>2026-04-04T10:46:36Z</time></trkpt><trkpt lat="44.29720475629517" lon="8.373788796242131"><ele>116.99999999999999</ele><time>2026-04-04T10:46:37.001Z</time></trkpt><trkpt lat="44.297254704779846" lon="8.373916513721577"><ele>116.99999999999999</ele><time>2026-04-04T10:46:38.001Z</time></trkpt><trkpt lat="44.29728672913461" lon="8.374061191241907"><ele>117.0</ele><time>2026-04-04T10:46:39.001Z</time></trkpt><trkpt lat="44.29732912330867" lon="8.374195455344351"><ele>117.0</ele><time>2026-04-04T10:46:40.001Z</time></trkpt><trkpt lat="44.29739443180126" lon="8.374294842805279"><ele>114.8</ele><time>2026-04-04T10:46:41.001Z</time></trkpt><trkpt lat="44.29748261851422" lon="8.374376529411714"><ele>112.6</ele><time>2026-04-04T10:46:42.001Z</time></trkpt><trkpt lat="44.29759076718971" lon="8.374417291531952"><ele>110.39999999999999</ele><time>2026-04-04T10:46:43.001Z</time></trkpt><trkpt lat="44.29770695565427" lon="8.374442401206359"><ele>108.19999999999999</ele><time>2026-04-04T10:46:44.001Z</time></trkpt><trkpt lat="44.297795861099274" lon="8.374502928871031"><ele>106.0</ele><time>2026-04-04T10:46:45.001Z</time></trkpt><trkpt lat="44.2978550910894" lon="8.374605123098526"><ele>109.19999999999999</ele><time>2026-04-04T10:46:46.001Z</time></trkpt><trkpt lat="44.297869325135736" lon="8.374726802355417"><ele>112.39999999999999</ele><time>2026-04-04T10:46:47.001Z</time></trkpt><trkpt lat="44.29783492093167" lon="8.374853578265348"><ele>115.6</ele><time>2026-04-04T10:46:48.001Z</time></trkpt><trkpt lat="44.297800700748255" lon="8.375001771130124"><ele>118.8</ele><time>2026-04-04T10:46:49.001Z</time></trkpt><trkpt lat="44.29777404393856" lon="8.375176010926209"><ele>122.0</ele><time>2026-04-04T10:46:50.001Z</time></trkpt><trkpt lat="44.29775927755851" lon="8.375360538851497"><ele>122.75</ele><time>2026-04-04T10:46:51.001Z</time></trkpt><trkpt lat="44.2977325382882" lon="8.375546417124385"><ele>123.5</ele><time>2026-04-04T10:46:52.001Z</time></trkpt><trkpt lat="44.29770712470461" lon="8.375734272420242"><ele>124.25</ele><time>2026-04-04T10:46:53.001Z</time></trkpt><trkpt lat="44.29766707558442" lon="8.375920032665583"><ele>125.0</ele><time>2026-04-04T10:46:54.001Z</time></trkpt><trkpt lat="44.297626629117026" lon="8.37607698312167"><ele>125.0</ele><time>2026-04-04T10:46:55.001Z</time></trkpt><trkpt lat="44.29760226075768" lon="8.376235937881193"><ele>125.0</ele><time>2026-04-04T10:46:56.001Z</time></trkpt><trkpt lat="44.297612587408814" lon="8.37639842121787"><ele>125.0</ele><time>2026-04-04T10:46:57.001Z</time></trkpt><trkpt lat="44.297647349024054" lon="8.376544363190337"><ele>125.0</ele><time>2026-04-04T10:46:58.001Z</time></trkpt><trkpt lat="44.29773150865909" lon="8.376687626290183"><ele>125.0</ele><time>2026-04-04T10:46:59.001Z</time></trkpt><trkpt lat="44.29784727183714" lon="8.376793035061135"><ele>125.0</ele><time>2026-04-04T10:47:00.001Z</time></trkpt><trkpt lat="44.297894088581934" lon="8.376924315715625"><ele>125.0</ele><time>2026-04-04T10:47:01.001Z</time></trkpt><trkpt lat="44.29790375354138" lon="8.377021402479235"><ele>125.0</ele><time>2026-04-04T10:47:02.001Z</time></trkpt><trkpt lat="44.29788873733259" lon="8.377140303199644"><ele>125.0</ele><time>2026-04-04T10:47:03.001Z</time></trkpt><trkpt lat="44.29786409962811" lon="8.37731137011744"><ele>125.0</ele><time>2026-04-04T10:47:04.001Z</time></trkpt><trkpt lat="44.2978670377641" lon="8.377486829919514"><ele>125.0</ele><time>2026-04-04T10:47:05.001Z</time></trkpt><trkpt lat="44.29785894003904" lon="8.377670304721722"><ele>125.0</ele><time>2026-04-04T10:47:06.001Z</time></trkpt><trkpt lat="44.29784292926773" lon="8.377855512682839"><ele>125.0</ele><time>2026-04-04T10:47:07.001Z</time></trkpt><trkpt lat="44.297794832332634" lon="8.378027523150601"><ele>123.75</ele><time>2026-04-04T10:47:08.001Z</time></trkpt><trkpt lat="44.29775560444367" lon="8.378202580770473"><ele>122.5</ele><time>2026-04-04T10:47:09.001Z</time></trkpt><trkpt lat="44.297747622098235" lon="8.37838184852201"><ele>121.25</ele><time>2026-04-04T10:47:10.001Z</time></trkpt><trkpt lat="44.29778196093927" lon="8.37853880079825"><ele>120.0</ele><time>2026-04-04T10:47:11.001Z</time></trkpt><trkpt lat="44.29778748174242" lon="8.378660671965282"><ele>120.0</ele><time>2026-04-04T10:47:12.001Z</time></trkpt><trkpt lat="44.29776470835233" lon="8.378780646288856"><ele>120.0</ele><time>2026-04-04T10:47:13.001Z</time></trkpt><trkpt lat="44.29771875706759" lon="8.378891795714562"><ele>120.0</ele><time>2026-04-04T10:47:14.001Z</time></trkpt><trkpt lat="44.29763483683896" lon="8.378955103785971"><ele>120.0</ele><time>2026-04-04T10:47:15.001Z</time></trkpt><trkpt lat="44.297534999414815" lon="8.379027114616743"><ele>120.0</ele><time>2026-04-04T10:47:16.001Z</time></trkpt><trkpt lat="44.29742621778956" lon="8.379067040893448"><ele>116.75</ele><time>2026-04-04T10:47:17.001Z</time></trkpt><trkpt lat="44.29730346093008" lon="8.379076427089657"><ele>113.5</ele><time>2026-04-04T10:47:18.001Z</time></trkpt><trkpt lat="44.29717469950444" lon="8.379078473253562"><ele>110.25</ele><time>2026-04-04T10:47:19.001Z</time></trkpt><trkpt lat="44.29704010916665" lon="8.37909327970322"><ele>107.0</ele><time>2026-04-04T10:47:20.001Z</time></trkpt><trkpt lat="44.29689619659097" lon="8.379144823696386"><ele>107.0</ele><time>2026-04-04T10:47:21.001Z</time></trkpt><trkpt lat="44.296754979513246" lon="8.379225061774136"><ele>107.0</ele><time>2026-04-04T10:47:22.001Z</time></trkpt><trkpt lat="44.29662039200522" lon="8.379300553827512"><ele>107.0</ele><time>2026-04-04T10:47:23.001Z</time></trkpt><trkpt lat="44.29650221713601" lon="8.37935726604287"><ele>107.0</ele><time>2026-04-04T10:47:24.001Z</time></trkpt><trkpt lat="44.29638239529659" lon="8.379389352882336"><ele>108.25</ele><time>2026-04-04T10:47:25.001Z</time></trkpt><trkpt lat="44.29628477602917" lon="8.37943159592297"><ele>109.5</ele><time>2026-04-04T10:47:26.001Z</time></trkpt><trkpt lat="44.29619573457988" lon="8.379503483281862"><ele>110.75</ele><time>2026-04-04T10:47:27.001Z</time></trkpt><trkpt lat="44.29612372469791" lon="8.379650700165927"><ele>112.0</ele><time>2026-04-04T10:47:28.001Z</time></trkpt><trkpt lat="44.296101076848466" lon="8.379845413626848"><ele>112.0</ele><time>2026-04-04T10:47:29.001Z</time></trkpt><trkpt lat="44.29605988082303" lon="8.380028466331005"><ele>112.0</ele><time>2026-04-04T10:47:30.001Z</time></trkpt><trkpt lat="44.29600730182278" lon="8.380190405047221"><ele>112.0</ele><time>2026-04-04T10:47:31.001Z</time></trkpt><trkpt lat="44.29595188172997" lon="8.380350521325449"><ele>112.0</ele><time>2026-04-04T10:47:32.001Z</time></trkpt><trkpt lat="44.29592894225981" lon="8.380518656805307"><ele>107.6</ele><time>2026-04-04T10:47:33.001Z</time></trkpt><trkpt lat="44.295891024003375" lon="8.380684535706761"><ele>103.19999999999999</ele><time>2026-04-04T10:47:34.001Z</time></trkpt><trkpt lat="44.29584085887862" lon="8.380825890433101"><ele>98.8</ele><time>2026-04-04T10:47:35.001Z</time></trkpt><trkpt lat="44.295808639804974" lon="8.380907225696824"><ele>94.4</ele><time>2026-04-04T10:47:36.001Z</time></trkpt><trkpt lat="44.295754854443665" lon="8.380966184275918"><ele>90.0</ele><time>2026-04-04T10:47:37.001Z</time></trkpt><trkpt lat="44.295633780447595" lon="8.380946457438517"><ele>88.4</ele><time>2026-04-04T10:47:39.001Z</time></trkpt><trkpt lat="44.29551814565299" lon="8.38098515236169"><ele>86.8</ele><time>2026-04-04T10:47:41.001Z</time></trkpt><trkpt lat="44.29542999002216" lon="8.381069648005417"><ele>85.19999999999999</ele><time>2026-04-04T10:47:43.001Z</time></trkpt><trkpt lat="44.29536779122786" lon="8.381197241945154"><ele>83.6</ele><time>2026-04-04T10:47:45.001Z</time></trkpt><trkpt lat="44.29530537584688" lon="8.381277099805986"><ele>82.0</ele><time>2026-04-04T10:47:47.001Z</time></trkpt><trkpt lat="44.295239320497934" lon="8.381363006145925"><ele>82.0</ele><time>2026-04-04T10:47:49.001Z</time></trkpt><trkpt lat="44.29517345379368" lon="8.381445602585496"><ele>82.0</ele><time>2026-04-04T10:47:51.001Z</time></trkpt><trkpt lat="44.295062273525076" lon="8.381508533907093"><ele>82.0</ele><time>2026-04-04T10:47:53.001Z</time></trkpt><trkpt lat="44.29493685685161" lon="8.381548186753955"><ele>82.0</ele><time>2026-04-04T10:47:55.001Z</time></trkpt><trkpt lat="44.29485968056019" lon="8.381552840593736"><ele>82.0</ele><time>2026-04-04T10:47:56.001Z</time></trkpt><trkpt lat="44.29478535604585" lon="8.381543011070706"><ele>83.16666666666666</ele><time>2026-04-04T10:47:57.001Z</time></trkpt><trkpt lat="44.29471160931034" lon="8.381550669741744"><ele>84.33333333333333</ele><time>2026-04-04T10:47:58.001Z</time></trkpt><trkpt lat="44.294636984347086" lon="8.381613529567277"><ele>85.5</ele><time>2026-04-04T10:47:59.001Z</time></trkpt><trkpt lat="44.294568394209904" lon="8.381670849737338"><ele>86.66666666666667</ele><time>2026-04-04T10:48:00.001Z</time></trkpt><trkpt lat="44.29448694688225" lon="8.381708604627187"><ele>87.83333333333334</ele><time>2026-04-04T10:48:01.001Z</time></trkpt><trkpt lat="44.29440695708416" lon="8.381768210380987"><ele>89.0</ele><time>2026-04-04T10:48:02.001Z</time></trkpt><trkpt lat="44.29431625702323" lon="8.38181616906868"><ele>89.0</ele><time>2026-04-04T10:48:03.001Z</time></trkpt><trkpt lat="44.29422030896468" lon="8.381885559274806"><ele>89.0</ele><time>2026-04-04T10:48:04.001Z</time></trkpt><trkpt lat="44.2941226717661" lon="8.381979747689076"><ele>89.0</ele><time>2026-04-04T10:48:05.001Z</time></trkpt><trkpt lat="44.2940369230067" lon="8.38209404356424"><ele>89.0</ele><time>2026-04-04T10:48:06.001Z</time></trkpt><trkpt lat="44.293954455150796" lon="8.382204749763934"><ele>85.75</ele><time>2026-04-04T10:48:07.001Z</time></trkpt><trkpt lat="44.29386495164947" lon="8.382302463668024"><ele>82.5</ele><time>2026-04-04T10:48:08.001Z</time></trkpt><trkpt lat="44.2937651933656" lon="8.38241049013832"><ele>79.25</ele><time>2026-04-04T10:48:09.001Z</time></trkpt><trkpt lat="44.293671400049114" lon="8.382506402022015"><ele>76.0</ele><time>2026-04-04T10:48:10.001Z</time></trkpt><trkpt lat="44.2935760139436" lon="8.38260552270181"><ele>76.0</ele><time>2026-04-04T10:48:11.001Z</time></trkpt><trkpt lat="44.29348177126472" lon="8.382706491316592"><ele>76.0</ele><time>2026-04-04T10:48:12.001Z</time></trkpt><trkpt lat="44.29338587910611" lon="8.382817976382192"><ele>76.0</ele><time>2026-04-04T10:48:13.001Z</time></trkpt><trkpt lat="44.29329121799351" lon="8.382941904582706"><ele>76.0</ele><time>2026-04-04T10:48:14.001Z</time></trkpt><trkpt lat="44.29320677773659" lon="8.383078204532724"><ele>76.5</ele><time>2026-04-04T10:48:15.001Z</time></trkpt><trkpt lat="44.293133496033654" lon="8.383225006719059"><ele>77.0</ele><time>2026-04-04T10:48:16.001Z</time></trkpt><trkpt lat="44.2930671917061" lon="8.383368193719045"><ele>77.5</ele><time>2026-04-04T10:48:17.001Z</time></trkpt><trkpt lat="44.292964718849426" lon="8.383461222635358"><ele>78.0</ele><time>2026-04-04T10:48:18.001Z</time></trkpt><trkpt lat="44.29286888032106" lon="8.38356882704982"><ele>78.0</ele><time>2026-04-04T10:48:19.001Z</time></trkpt><trkpt lat="44.29276633558305" lon="8.383656983861083"><ele>78.0</ele><time>2026-04-04T10:48:20.001Z</time></trkpt><trkpt lat="44.292665627182046" lon="8.38375065255575"><ele>78.0</ele><time>2026-04-04T10:48:21.001Z</time></trkpt><trkpt lat="44.29256256145925" lon="8.383858474901924"><ele>78.0</ele><time>2026-04-04T10:48:22.001Z</time></trkpt><trkpt lat="44.2924587811136" lon="8.383964739640476"><ele>77.5</ele><time>2026-04-04T10:48:23Z</time></trkpt><trkpt lat="44.292354650037424" lon="8.384072929112385"><ele>77.0</ele><time>2026-04-04T10:48:24Z</time></trkpt><trkpt lat="44.292250938153224" lon="8.384178022766921"><ele>76.5</ele><time>2026-04-04T10:48:25Z</time></trkpt><trkpt lat="44.29214762946342" lon="8.384280859296485"><ele>76.0</ele><time>2026-04-04T10:48:26Z</time></trkpt><trkpt lat="44.29204170336938" lon="8.384385627932982"><ele>76.0</ele><time>2026-04-04T10:48:27Z</time></trkpt><trkpt lat="44.29194256507828" lon="8.384484430337192"><ele>76.0</ele><time>2026-04-04T10:48:28Z</time></trkpt><trkpt lat="44.29185597364543" lon="8.38458037174858"><ele>76.0</ele><time>2026-04-04T10:48:29Z</time></trkpt><trkpt lat="44.29177367736433" lon="8.384694774564053"><ele>76.0</ele><time>2026-04-04T10:48:30Z</time></trkpt><trkpt lat="44.291691600574815" lon="8.384826069201347"><ele>74.75</ele><time>2026-04-04T10:48:31Z</time></trkpt><trkpt lat="44.29160502567038" lon="8.384956646700255"><ele>73.5</ele><time>2026-04-04T10:48:32Z</time></trkpt><trkpt lat="44.29151237683732" lon="8.385094782520722"><ele>72.25</ele><time>2026-04-04T10:48:33Z</time></trkpt><trkpt lat="44.29142409308486" lon="8.385235606317238"><ele>71.0</ele><time>2026-04-04T10:48:34Z</time></trkpt><trkpt lat="44.29134306342194" lon="8.38537848740739"><ele>68.5</ele><time>2026-04-04T10:48:35Z</time></trkpt><trkpt lat="44.291261376897424" lon="8.385519527262266"><ele>66.0</ele><time>2026-04-04T10:48:36Z</time></trkpt><trkpt lat="44.29118043523541" lon="8.385655999169014"><ele>63.5</ele><time>2026-04-04T10:48:37Z</time></trkpt><trkpt lat="44.29110992993172" lon="8.385783488249354"><ele>61.0</ele><time>2026-04-04T10:48:38Z</time></trkpt><trkpt lat="44.2910457028668" lon="8.385898185547955"><ele>61.0</ele><time>2026-04-04T10:48:39Z</time></trkpt><trkpt lat="44.290992656110305" lon="8.386012125384934"><ele>60.99999999999999</ele><time>2026-04-04T10:48:40Z</time></trkpt><trkpt lat="44.2909335660801" lon="8.38613435246496"><ele>60.99999999999999</ele><time>2026-04-04T10:48:41Z</time></trkpt><trkpt lat="44.29089404000379" lon="8.386275653592085"><ele>61.0</ele><time>2026-04-04T10:48:42Z</time></trkpt><trkpt lat="44.29084979670413" lon="8.386417881451372"><ele>61.0</ele><time>2026-04-04T10:48:43Z</time></trkpt><trkpt lat="44.290805194602335" lon="8.386553598692624"><ele>60.8</ele><time>2026-04-04T10:48:44Z</time></trkpt><trkpt lat="44.2907617474178" lon="8.386685801605474"><ele>60.599999999999994</ele><time>2026-04-04T10:48:45Z</time></trkpt><trkpt lat="44.29071427270734" lon="8.386816196484025"><ele>60.4</ele><time>2026-04-04T10:48:46Z</time></trkpt><trkpt lat="44.29067445947181" lon="8.386958144806679"><ele>60.2</ele><time>2026-04-04T10:48:47Z</time></trkpt><trkpt lat="44.29067877722016" lon="8.38710868763643"><ele>60.0</ele><time>2026-04-04T10:48:48Z</time></trkpt><trkpt lat="44.29069372063911" lon="8.387229268638452"><ele>59.833333333333336</ele><time>2026-04-04T10:48:49Z</time></trkpt><trkpt lat="44.290686505176" lon="8.38733209719046"><ele>59.66666666666667</ele><time>2026-04-04T10:48:50Z</time></trkpt><trkpt lat="44.290676281402604" lon="8.387419556379536"><ele>59.5</ele><time>2026-04-04T10:48:51Z</time></trkpt><trkpt lat="44.290606258606715" lon="8.387453994936752"><ele>59.333333333333336</ele><time>2026-04-04T10:48:52.001Z</time></trkpt><trkpt lat="44.2904758581766" lon="8.38751876394181"><ele>59.16666666666667</ele><time>2026-04-04T10:48:54.001Z</time></trkpt><trkpt lat="44.290388297505594" lon="8.387568151092477"><ele>59.0</ele><time>2026-04-04T10:48:55.001Z</time></trkpt><trkpt lat="44.290315423289044" lon="8.387634677972208"><ele>59.00000000000001</ele><time>2026-04-04T10:48:56.001Z</time></trkpt><trkpt lat="44.2902364617049" lon="8.387682769337689"><ele>59.0</ele><time>2026-04-04T10:48:57.001Z</time></trkpt><trkpt lat="44.290162662847024" lon="8.387744225199492"><ele>59.0</ele><time>2026-04-04T10:48:58.001Z</time></trkpt><trkpt lat="44.29010137962274" lon="8.387821142007134"><ele>59.0</ele><time>2026-04-04T10:48:59.001Z</time></trkpt><trkpt lat="44.290066452601806" lon="8.387922403812178"><ele>59.00000000000001</ele><time>2026-04-04T10:49:00.001Z</time></trkpt><trkpt lat="44.29004051625538" lon="8.388030204075061"><ele>59.0</ele><time>2026-04-04T10:49:01.001Z</time></trkpt><trkpt lat="44.29002825710104" lon="8.388141758684611"><ele>59.00000000000001</ele><time>2026-04-04T10:49:02.001Z</time></trkpt><trkpt lat="44.29002911865863" lon="8.388253269849496"><ele>59.0</ele><time>2026-04-04T10:49:03.001Z</time></trkpt><trkpt lat="44.290038430441186" lon="8.388357192763335"><ele>59.0</ele><time>2026-04-04T10:49:04.001Z</time></trkpt><trkpt lat="44.2900561739828" lon="8.38845734433673"><ele>59.0</ele><time>2026-04-04T10:49:05.001Z</time></trkpt><trkpt lat="44.290079572194266" lon="8.388562275411443"><ele>59.00000000000001</ele><time>2026-04-04T10:49:06.001Z</time></trkpt><trkpt lat="44.290119421087695" lon="8.388660791813718"><ele>59.0</ele><time>2026-04-04T10:49:07.001Z</time></trkpt><trkpt lat="44.29016524624122" lon="8.388771141042552"><ele>58.800000000000004</ele><time>2026-04-04T10:49:08.001Z</time></trkpt><trkpt lat="44.29020150815389" lon="8.388892926525966"><ele>58.60000000000001</ele><time>2026-04-04T10:49:09.001Z</time></trkpt><trkpt lat="44.29023450759446" lon="8.38901703370396"><ele>58.4</ele><time>2026-04-04T10:49:10.001Z</time></trkpt><trkpt lat="44.290260261384674" lon="8.389156748764137"><ele>58.2</ele><time>2026-04-04T10:49:11.001Z</time></trkpt><trkpt lat="44.29032613241801" lon="8.389286209229605"><ele>58.0</ele><time>2026-04-04T10:49:12.001Z</time></trkpt><trkpt lat="44.29039260228659" lon="8.389427590338078"><ele>58.0</ele><time>2026-04-04T10:49:13.001Z</time></trkpt><trkpt lat="44.290446051117016" lon="8.389576476282208"><ele>58.0</ele><time>2026-04-04T10:49:14.001Z</time></trkpt><trkpt lat="44.29047968315693" lon="8.389735966738405"><ele>58.0</ele><time>2026-04-04T10:49:15.001Z</time></trkpt><trkpt lat="44.29050072231154" lon="8.389890209200962"><ele>58.0</ele><time>2026-04-04T10:49:16.001Z</time></trkpt><trkpt lat="44.290527460941824" lon="8.390052097277046"><ele>58.0</ele><time>2026-04-04T10:49:17.001Z</time></trkpt><trkpt lat="44.290562159407564" lon="8.39019824975971"><ele>58.0</ele><time>2026-04-04T10:49:18.001Z</time></trkpt><trkpt lat="44.29060090938613" lon="8.390358216673194"><ele>58.0</ele><time>2026-04-04T10:49:19.001Z</time></trkpt><trkpt lat="44.290637162309125" lon="8.390511232126704"><ele>58.0</ele><time>2026-04-04T10:49:20.001Z</time></trkpt><trkpt lat="44.29067118192411" lon="8.390671771793876"><ele>57.25</ele><time>2026-04-04T10:49:21.001Z</time></trkpt><trkpt lat="44.29068750828394" lon="8.390836137966957"><ele>56.5</ele><time>2026-04-04T10:49:22.001Z</time></trkpt><trkpt lat="44.290680751673946" lon="8.390993825642944"><ele>55.75</ele><time>2026-04-04T10:49:23.001Z</time></trkpt><trkpt lat="44.290658419030564" lon="8.391152478707586"><ele>55.0</ele><time>2026-04-04T10:49:24.001Z</time></trkpt><trkpt lat="44.29062131639416" lon="8.391314629258293"><ele>55.25</ele><time>2026-04-04T10:49:25.001Z</time></trkpt><trkpt lat="44.29056946519601" lon="8.391476848042066"><ele>55.5</ele><time>2026-04-04T10:49:26.001Z</time></trkpt><trkpt lat="44.29050670078144" lon="8.3916300276092"><ele>55.75</ele><time>2026-04-04T10:49:27.001Z</time></trkpt><trkpt lat="44.29044278810438" lon="8.391788035166082"><ele>56.0</ele><time>2026-04-04T10:49:28.001Z</time></trkpt><trkpt lat="44.290377075253765" lon="8.39195346010211"><ele>56.0</ele><time>2026-04-04T10:49:29.001Z</time></trkpt><trkpt lat="44.290311615258375" lon="8.392117700079632"><ele>56.0</ele><time>2026-04-04T10:49:30.001Z</time></trkpt><trkpt lat="44.29024881935407" lon="8.39226743213326"><ele>56.0</ele><time>2026-04-04T10:49:31.001Z</time></trkpt><trkpt lat="44.290193921208804" lon="8.39242049011545"><ele>56.0</ele><time>2026-04-04T10:49:32.001Z</time></trkpt><trkpt lat="44.290139516430884" lon="8.392576037080817"><ele>55.0</ele><time>2026-04-04T10:49:33.001Z</time></trkpt><trkpt lat="44.2900852310535" lon="8.392723285324973"><ele>54.0</ele><time>2026-04-04T10:49:34.001Z</time></trkpt><trkpt lat="44.29002869874931" lon="8.392868497708848"><ele>53.0</ele><time>2026-04-04T10:49:35.001Z</time></trkpt><trkpt lat="44.2899771003585" lon="8.393023092068978"><ele>52.0</ele><time>2026-04-04T10:49:36.001Z</time></trkpt><trkpt lat="44.28993078612189" lon="8.393196313821822"><ele>52.0</ele><time>2026-04-04T10:49:37.001Z</time></trkpt><trkpt lat="44.28989683863945" lon="8.393368719053043"><ele>52.0</ele><time>2026-04-04T10:49:38.001Z</time></trkpt><trkpt lat="44.28987478581441" lon="8.393522633083556"><ele>52.0</ele><time>2026-04-04T10:49:39.001Z</time></trkpt><trkpt lat="44.28985649614487" lon="8.393678044766046"><ele>52.0</ele><time>2026-04-04T10:49:40.001Z</time></trkpt><trkpt lat="44.28984354585809" lon="8.393835509873531"><ele>51.6</ele><time>2026-04-04T10:49:41.001Z</time></trkpt><trkpt lat="44.28983454285545" lon="8.39398343168423"><ele>51.2</ele><time>2026-04-04T10:49:42.001Z</time></trkpt><trkpt lat="44.289829933520195" lon="8.394124518330711"><ele>50.8</ele><time>2026-04-04T10:49:43.001Z</time></trkpt><trkpt lat="44.28983946140359" lon="8.394274628363071"><ele>50.4</ele><time>2026-04-04T10:49:44.001Z</time></trkpt><trkpt lat="44.28987232801431" lon="8.394425367769225"><ele>50.0</ele><time>2026-04-04T10:49:45.001Z</time></trkpt><trkpt lat="44.28993084941829" lon="8.394579637725508"><ele>48.66666666666667</ele><time>2026-04-04T10:49:46.001Z</time></trkpt><trkpt lat="44.29001847388336" lon="8.394731928131733"><ele>47.333333333333336</ele><time>2026-04-04T10:49:47.001Z</time></trkpt><trkpt lat="44.29009232084954" lon="8.394918325662008"><ele>46.0</ele><time>2026-04-04T10:49:48.001Z</time></trkpt><trkpt lat="44.29018175497096" lon="8.395103512312083"><ele>46.0</ele><time>2026-04-04T10:49:49.001Z</time></trkpt><trkpt lat="44.29027013908772" lon="8.395284808107823"><ele>46.0</ele><time>2026-04-04T10:49:50.001Z</time></trkpt><trkpt lat="44.2903634091158" lon="8.395433099018842"><ele>46.0</ele><time>2026-04-04T10:49:51.001Z</time></trkpt><trkpt lat="44.29043242989137" lon="8.395578135947686"><ele>46.0</ele><time>2026-04-04T10:49:52.001Z</time></trkpt><trkpt lat="44.290501384196446" lon="8.395720633292287"><ele>45.4</ele><time>2026-04-04T10:49:53.001Z</time></trkpt><trkpt lat="44.29055283729044" lon="8.395846102620792"><ele>44.8</ele><time>2026-04-04T10:49:54.001Z</time></trkpt><trkpt lat="44.2905980711179" lon="8.395979017733417"><ele>44.199999999999996</ele><time>2026-04-04T10:49:55.001Z</time></trkpt><trkpt lat="44.290635023526875" lon="8.396112280516387"><ele>43.599999999999994</ele><time>2026-04-04T10:49:56.001Z</time></trkpt><trkpt lat="44.29066887874675" lon="8.39625526541417"><ele>43.0</ele><time>2026-04-04T10:49:57.001Z</time></trkpt><trkpt lat="44.29068639221097" lon="8.396416171881022"><ele>43.5</ele><time>2026-04-04T10:49:58.001Z</time></trkpt><trkpt lat="44.29067692326863" lon="8.396590998490884"><ele>44.0</ele><time>2026-04-04T10:49:59.001Z</time></trkpt><trkpt lat="44.29064757714889" lon="8.396758819359757"><ele>44.5</ele><time>2026-04-04T10:50:00.001Z</time></trkpt><trkpt lat="44.29061374215105" lon="8.396917110166333"><ele>45.0</ele><time>2026-04-04T10:50:01.001Z</time></trkpt><trkpt lat="44.290587979714736" lon="8.397067397454375"><ele>45.6</ele><time>2026-04-04T10:50:02.001Z</time></trkpt><trkpt lat="44.29056029347396" lon="8.397220354932163"><ele>46.2</ele><time>2026-04-04T10:50:03.001Z</time></trkpt><trkpt lat="44.29052701906428" lon="8.397352091689356"><ele>46.8</ele><time>2026-04-04T10:50:04.001Z</time></trkpt><trkpt lat="44.290494653674926" lon="8.397473803023352"><ele>47.4</ele><time>2026-04-04T10:50:05.001Z</time></trkpt><trkpt lat="44.29048374267919" lon="8.397607370247876"><ele>48.0</ele><time>2026-04-04T10:50:06.001Z</time></trkpt><trkpt lat="44.29049613139509" lon="8.397742727511147"><ele>48.0</ele><time>2026-04-04T10:50:07.001Z</time></trkpt><trkpt lat="44.290523080143394" lon="8.397878385249891"><ele>48.0</ele><time>2026-04-04T10:50:08.001Z</time></trkpt><trkpt lat="44.29055443357669" lon="8.3980197113287"><ele>48.0</ele><time>2026-04-04T10:50:09.001Z</time></trkpt><trkpt lat="44.29059547585013" lon="8.398173132380485"><ele>48.0</ele><time>2026-04-04T10:50:10.001Z</time></trkpt><trkpt lat="44.29065265232169" lon="8.398327097721317"><ele>48.0</ele><time>2026-04-04T10:50:11.001Z</time></trkpt><trkpt lat="44.29073911324731" lon="8.39848242332802"><ele>48.33333333333333</ele><time>2026-04-04T10:50:12.001Z</time></trkpt><trkpt lat="44.29082824413934" lon="8.398672625995056"><ele>48.666666666666664</ele><time>2026-04-04T10:50:13.001Z</time></trkpt><trkpt lat="44.29094474361321" lon="8.398857115290923"><ele>49.0</ele><time>2026-04-04T10:50:14.001Z</time></trkpt><trkpt lat="44.2910692775732" lon="8.399038329408546"><ele>46.666666666666664</ele><time>2026-04-04T10:50:15.001Z</time></trkpt><trkpt lat="44.29116753999267" lon="8.39923863751748"><ele>44.33333333333333</ele><time>2026-04-04T10:50:16.001Z</time></trkpt><trkpt lat="44.291258870172676" lon="8.399420225246748"><ele>42.0</ele><time>2026-04-04T10:50:17.001Z</time></trkpt><trkpt lat="44.291351026980045" lon="8.399610455233399"><ele>40.333333333333336</ele><time>2026-04-04T10:50:18.001Z</time></trkpt><trkpt lat="44.29143676933083" lon="8.399791302286825"><ele>38.66666666666667</ele><time>2026-04-04T10:50:19.001Z</time></trkpt><trkpt lat="44.291532385907466" lon="8.399957412947124"><ele>37.0</ele><time>2026-04-04T10:50:20.001Z</time></trkpt><trkpt lat="44.291650274214575" lon="8.40011162554992"><ele>37.0</ele><time>2026-04-04T10:50:21.001Z</time></trkpt><trkpt lat="44.29178198049758" lon="8.400253230383216"><ele>37.0</ele><time>2026-04-04T10:50:22.001Z</time></trkpt><trkpt lat="44.291916576162066" lon="8.40038766259193"><ele>37.0</ele><time>2026-04-04T10:50:23.001Z</time></trkpt><trkpt lat="44.29204667102183" lon="8.400523805270511"><ele>37.0</ele><time>2026-04-04T10:50:24.001Z</time></trkpt><trkpt lat="44.29217173919087" lon="8.40065857440855"><ele>37.0</ele><time>2026-04-04T10:50:25.001Z</time></trkpt><trkpt lat="44.292297705747714" lon="8.400795537358876"><ele>37.0</ele><time>2026-04-04T10:50:26.001Z</time></trkpt><trkpt lat="44.292413481600164" lon="8.400923818677574"><ele>37.25</ele><time>2026-04-04T10:50:27.001Z</time></trkpt><trkpt lat="44.292524499489225" lon="8.401047973256565"><ele>37.5</ele><time>2026-04-04T10:50:28Z</time></trkpt><trkpt lat="44.29263771179621" lon="8.401171662667965"><ele>37.75</ele><time>2026-04-04T10:50:29Z</time></trkpt><trkpt lat="44.29275084702033" lon="8.401283568800613"><ele>38.0</ele><time>2026-04-04T10:50:30Z</time></trkpt><trkpt lat="44.292850028161794" lon="8.40138512085914"><ele>38.0</ele><time>2026-04-04T10:50:31Z</time></trkpt><trkpt lat="44.29293970372795" lon="8.401479547726028"><ele>38.0</ele><time>2026-04-04T10:50:32Z</time></trkpt><trkpt lat="44.29301749809957" lon="8.401578666520125"><ele>38.0</ele><time>2026-04-04T10:50:33Z</time></trkpt><trkpt lat="44.29307663599731" lon="8.401675992572214"><ele>38.0</ele><time>2026-04-04T10:50:34Z</time></trkpt><trkpt lat="44.29313287368578" lon="8.401779441618947"><ele>38.0</ele><time>2026-04-04T10:50:35Z</time></trkpt><trkpt lat="44.29318566063395" lon="8.401892097883875"><ele>37.6</ele><time>2026-04-04T10:50:36Z</time></trkpt><trkpt lat="44.29321577113644" lon="8.402003979760506"><ele>37.199999999999996</ele><time>2026-04-04T10:50:37Z</time></trkpt><trkpt lat="44.293251905327956" lon="8.402112937651925"><ele>36.8</ele><time>2026-04-04T10:50:38Z</time></trkpt><trkpt lat="44.2932905884664" lon="8.40222665974425"><ele>36.4</ele><time>2026-04-04T10:50:39Z</time></trkpt><trkpt lat="44.293323652514516" lon="8.402326170037329"><ele>36.0</ele><time>2026-04-04T10:50:40Z</time></trkpt><trkpt lat="44.29336493455569" lon="8.402479466869364"><ele>35.833333333333336</ele><time>2026-04-04T10:50:42Z</time></trkpt><trkpt lat="44.29339796419981" lon="8.402577048452027"><ele>35.666666666666664</ele><time>2026-04-04T10:50:44Z</time></trkpt><trkpt lat="44.293422327809374" lon="8.40270262655611"><ele>35.5</ele><time>2026-04-04T10:50:46Z</time></trkpt><trkpt lat="44.2934427428387" lon="8.402788107918209"><ele>35.33333333333333</ele><time>2026-04-04T10:50:47Z</time></trkpt><trkpt lat="44.29345774376304" lon="8.402885428363565"><ele>35.166666666666664</ele><time>2026-04-04T10:50:48Z</time></trkpt><trkpt lat="44.29346712157296" lon="8.402996286036078"><ele>35.0</ele><time>2026-04-04T10:50:49Z</time></trkpt><trkpt lat="44.293470873134936" lon="8.403111615059293"><ele>34.5</ele><time>2026-04-04T10:50:50Z</time></trkpt><trkpt lat="44.29346983036785" lon="8.403214682190303"><ele>34.0</ele><time>2026-04-04T10:50:51Z</time></trkpt><trkpt lat="44.29347126268152" lon="8.403305982102538"><ele>33.5</ele><time>2026-04-04T10:50:52Z</time></trkpt><trkpt lat="44.29348026821967" lon="8.403396819580204"><ele>33.0</ele><time>2026-04-04T10:50:53Z</time></trkpt><trkpt lat="44.293491205615275" lon="8.403544451053973"><ele>32.5</ele><time>2026-04-04T10:50:55Z</time></trkpt><trkpt lat="44.29350113792889" lon="8.403693716261204"><ele>32.0</ele><time>2026-04-04T10:50:57Z</time></trkpt><trkpt lat="44.29352553054379" lon="8.403832475793838"><ele>31.8</ele><time>2026-04-04T10:50:59Z</time></trkpt><trkpt lat="44.29355169313535" lon="8.403993744719795"><ele>31.6</ele><time>2026-04-04T10:51:01Z</time></trkpt><trkpt lat="44.29355615452255" lon="8.404086133912504"><ele>31.400000000000002</ele><time>2026-04-04T10:51:02Z</time></trkpt><trkpt lat="44.293528455903065" lon="8.404257508855459"><ele>31.200000000000003</ele><time>2026-04-04T10:51:04Z</time></trkpt><trkpt lat="44.293515741542826" lon="8.404358230545913"><ele>31.0</ele><time>2026-04-04T10:51:05Z</time></trkpt><trkpt lat="44.293490073444175" lon="8.404486860696133"><ele>31.000000000000004</ele><time>2026-04-04T10:51:06Z</time></trkpt><trkpt lat="44.293473748494264" lon="8.404596872643708"><ele>31.0</ele><time>2026-04-04T10:51:07Z</time></trkpt><trkpt lat="44.29346863285353" lon="8.404707890924879"><ele>31.0</ele><time>2026-04-04T10:51:08Z</time></trkpt><trkpt lat="44.293458117734566" lon="8.40480145959658"><ele>31.0</ele><time>2026-04-04T10:51:09Z</time></trkpt><trkpt lat="44.29345024051531" lon="8.404964844772863"><ele>31.000000000000004</ele><time>2026-04-04T10:51:11Z</time></trkpt><trkpt lat="44.29343136200651" lon="8.405057736710152"><ele>31.0</ele><time>2026-04-04T10:51:12Z</time></trkpt><trkpt lat="44.29342329604223" lon="8.40515251585333"><ele>30.857142857142858</ele><time>2026-04-04T10:51:13Z</time></trkpt><trkpt lat="44.29341533150522" lon="8.405256176221059"><ele>30.714285714285715</ele><time>2026-04-04T10:51:14.001Z</time></trkpt><trkpt lat="44.29340725514376" lon="8.405358006600816"><ele>30.571428571428573</ele><time>2026-04-04T10:51:15.001Z</time></trkpt><trkpt lat="44.293394729045026" lon="8.405456562629794"><ele>30.42857142857143</ele><time>2026-04-04T10:51:16.001Z</time></trkpt><trkpt lat="44.293378252129656" lon="8.405550170732466"><ele>30.285714285714285</ele><time>2026-04-04T10:51:17.001Z</time></trkpt><trkpt lat="44.29336023774583" lon="8.405650157270935"><ele>30.142857142857146</ele><time>2026-04-04T10:51:18.001Z</time></trkpt><trkpt lat="44.29334124055365" lon="8.405740304755723"><ele>30.0</ele><time>2026-04-04T10:51:19.001Z</time></trkpt><trkpt lat="44.2933186325335" lon="8.40583716648361"><ele>30.166666666666668</ele><time>2026-04-04T10:51:20.001Z</time></trkpt><trkpt lat="44.2932930473911" lon="8.405934149225082"><ele>30.333333333333336</ele><time>2026-04-04T10:51:21.001Z</time></trkpt><trkpt lat="44.293245089356006" lon="8.406014258509856"><ele>30.5</ele><time>2026-04-04T10:51:22.001Z</time></trkpt><trkpt lat="44.29322409921597" lon="8.406119990438926"><ele>30.666666666666668</ele><time>2026-04-04T10:51:23.001Z</time></trkpt><trkpt lat="44.29320116259339" lon="8.406226714379137"><ele>30.833333333333336</ele><time>2026-04-04T10:51:24.001Z</time></trkpt><trkpt lat="44.29318835521681" lon="8.406346782500561"><ele>31.0</ele><time>2026-04-04T10:51:25.001Z</time></trkpt><trkpt lat="44.29316092326005" lon="8.406450027108063"><ele>31.0</ele><time>2026-04-04T10:51:26.001Z</time></trkpt><trkpt lat="44.29311206232118" lon="8.406550542437857"><ele>31.0</ele><time>2026-04-04T10:51:27.001Z</time></trkpt><trkpt lat="44.29307597176192" lon="8.406659806441455"><ele>31.0</ele><time>2026-04-04T10:51:28.001Z</time></trkpt><trkpt lat="44.29303190159689" lon="8.40679322698412"><ele>31.0</ele><time>2026-04-04T10:51:29.001Z</time></trkpt><trkpt lat="44.29299420773602" lon="8.406902668121875"><ele>31.0</ele><time>2026-04-04T10:51:30.001Z</time></trkpt><trkpt lat="44.29295564357008" lon="8.407011063956212"><ele>30.500000000000004</ele><time>2026-04-04T10:51:31.001Z</time></trkpt><trkpt lat="44.29291904936989" lon="8.407111490059988"><ele>30.0</ele><time>2026-04-04T10:51:32.001Z</time></trkpt><trkpt lat="44.292888994927594" lon="8.407203094951136"><ele>29.5</ele><time>2026-04-04T10:51:33.001Z</time></trkpt><trkpt lat="44.292860857850926" lon="8.407291902458546"><ele>29.0</ele><time>2026-04-04T10:51:34.001Z</time></trkpt><trkpt lat="44.2928231510646" lon="8.407454778909303"><ele>28.500000000000004</ele><time>2026-04-04T10:51:36.001Z</time></trkpt><trkpt lat="44.29283145276955" lon="8.40755310150546"><ele>28.0</ele><time>2026-04-04T10:51:37.001Z</time></trkpt><trkpt lat="44.2928304320973" lon="8.407646754243244"><ele>27.833333333333336</ele><time>2026-04-04T10:51:38.001Z</time></trkpt><trkpt lat="44.29282992460084" lon="8.407790950561681"><ele>27.666666666666668</ele><time>2026-04-04T10:51:40.001Z</time></trkpt><trkpt lat="44.29277180361243" lon="8.407930284911128"><ele>27.5</ele><time>2026-04-04T10:51:42.001Z</time></trkpt><trkpt lat="44.29273972185749" lon="8.408014502414527"><ele>27.333333333333336</ele><time>2026-04-04T10:51:43.001Z</time></trkpt><trkpt lat="44.292704322976654" lon="8.40810002593922"><ele>27.166666666666668</ele><time>2026-04-04T10:51:44.001Z</time></trkpt><trkpt lat="44.29266735370668" lon="8.408186851216785"><ele>27.0</ele><time>2026-04-04T10:51:45.001Z</time></trkpt><trkpt lat="44.292641119413744" lon="8.408285574525948"><ele>27.0</ele><time>2026-04-04T10:51:46.001Z</time></trkpt><trkpt lat="44.29259245587124" lon="8.408345478134285"><ele>27.000000000000004</ele><time>2026-04-04T10:51:47.001Z</time></trkpt><trkpt lat="44.2925339885267" lon="8.40849242565229"><ele>27.000000000000004</ele><time>2026-04-04T10:51:49.001Z</time></trkpt><trkpt lat="44.29249866497992" lon="8.408605744504868"><ele>27.0</ele><time>2026-04-04T10:51:50.001Z</time></trkpt><trkpt lat="44.29245866428808" lon="8.40873592497417"><ele>27.0</ele><time>2026-04-04T10:51:51.001Z</time></trkpt><trkpt lat="44.29244926999657" lon="8.408920434671279"><ele>26.75</ele><time>2026-04-04T10:51:52.001Z</time></trkpt><trkpt lat="44.29240575512569" lon="8.409090914618925"><ele>26.5</ele><time>2026-04-04T10:51:53.001Z</time></trkpt><trkpt lat="44.29235718557698" lon="8.409246056154673"><ele>26.25</ele><time>2026-04-04T10:51:54.001Z</time></trkpt><trkpt lat="44.29231275565789" lon="8.409396985450606"><ele>26.0</ele><time>2026-04-04T10:51:55.001Z</time></trkpt><trkpt lat="44.292273137738675" lon="8.409551009248066"><ele>25.25</ele><time>2026-04-04T10:51:56.001Z</time></trkpt><trkpt lat="44.29223575138453" lon="8.409714214558013"><ele>24.5</ele><time>2026-04-04T10:51:57.001Z</time></trkpt><trkpt lat="44.292195947607816" lon="8.409880949182801"><ele>23.75</ele><time>2026-04-04T10:51:58.001Z</time></trkpt><trkpt lat="44.29215276411428" lon="8.410054705018853"><ele>23.0</ele><time>2026-04-04T10:51:59.001Z</time></trkpt><trkpt lat="44.29210939358541" lon="8.410230778595375"><ele>23.0</ele><time>2026-04-04T10:52:00.001Z</time></trkpt><trkpt lat="44.292067270923916" lon="8.410401711567282"><ele>23.0</ele><time>2026-04-04T10:52:01.001Z</time></trkpt><trkpt lat="44.29202403500264" lon="8.410573686352913"><ele>23.0</ele><time>2026-04-04T10:52:02.001Z</time></trkpt><trkpt lat="44.29198097627728" lon="8.410743279206306"><ele>23.0</ele><time>2026-04-04T10:52:03.001Z</time></trkpt><trkpt lat="44.291940171500706" lon="8.410924215850521"><ele>23.25</ele><time>2026-04-04T10:52:04.001Z</time></trkpt><trkpt lat="44.291899750761516" lon="8.411105072879307"><ele>23.5</ele><time>2026-04-04T10:52:05.001Z</time></trkpt><trkpt lat="44.29186647605506" lon="8.4112891837363"><ele>23.75</ele><time>2026-04-04T10:52:06.001Z</time></trkpt><trkpt lat="44.29184919171136" lon="8.411469554686395"><ele>24.0</ele><time>2026-04-04T10:52:07.001Z</time></trkpt><trkpt lat="44.29183885148415" lon="8.411648028722452"><ele>24.25</ele><time>2026-04-04T10:52:08.001Z</time></trkpt><trkpt lat="44.29182847501424" lon="8.41181901534137"><ele>24.5</ele><time>2026-04-04T10:52:09.001Z</time></trkpt><trkpt lat="44.29182261745745" lon="8.411983761583643"><ele>24.75</ele><time>2026-04-04T10:52:10.001Z</time></trkpt><trkpt lat="44.29181829673137" lon="8.412144823020906"><ele>25.0</ele><time>2026-04-04T10:52:11.001Z</time></trkpt><trkpt lat="44.29181614190012" lon="8.412305610591696"><ele>24.6</ele><time>2026-04-04T10:52:12.001Z</time></trkpt><trkpt lat="44.29180783141887" lon="8.412462254072633"><ele>24.2</ele><time>2026-04-04T10:52:13.001Z</time></trkpt><trkpt lat="44.29179704836591" lon="8.412604457551119"><ele>23.799999999999997</ele><time>2026-04-04T10:52:14.001Z</time></trkpt><trkpt lat="44.291792569796286" lon="8.412757020550915"><ele>23.4</ele><time>2026-04-04T10:52:15.001Z</time></trkpt><trkpt lat="44.291790837617626" lon="8.412923999318217"><ele>23.0</ele><time>2026-04-04T10:52:16.001Z</time></trkpt><trkpt lat="44.291791074177965" lon="8.413111521521882"><ele>23.0</ele><time>2026-04-04T10:52:17.001Z</time></trkpt><trkpt lat="44.291783186985064" lon="8.413304297441124"><ele>23.0</ele><time>2026-04-04T10:52:18.001Z</time></trkpt><trkpt lat="44.29176936271136" lon="8.41349873466988"><ele>23.0</ele><time>2026-04-04T10:52:19.001Z</time></trkpt><trkpt lat="44.29174735373982" lon="8.413691558348148"><ele>23.0</ele><time>2026-04-04T10:52:20.001Z</time></trkpt><trkpt lat="44.291734012612004" lon="8.41388218318661"><ele>23.0</ele><time>2026-04-04T10:52:21.001Z</time></trkpt><trkpt lat="44.29171839842354" lon="8.414072597530986"><ele>23.0</ele><time>2026-04-04T10:52:22.001Z</time></trkpt><trkpt lat="44.2917096433417" lon="8.414268207349183"><ele>23.0</ele><time>2026-04-04T10:52:23.001Z</time></trkpt><trkpt lat="44.29170690754649" lon="8.414436984743917"><ele>23.0</ele><time>2026-04-04T10:52:24.001Z</time></trkpt><trkpt lat="44.29170505991814" lon="8.414600853411022"><ele>23.25</ele><time>2026-04-04T10:52:25Z</time></trkpt><trkpt lat="44.291696092210096" lon="8.414770973565927"><ele>23.5</ele><time>2026-04-04T10:52:26Z</time></trkpt><trkpt lat="44.29168794352546" lon="8.414957606456932"><ele>23.75</ele><time>2026-04-04T10:52:27Z</time></trkpt><trkpt lat="44.29168640451251" lon="8.41513066995106"><ele>24.0</ele><time>2026-04-04T10:52:28Z</time></trkpt><trkpt lat="44.29168823100148" lon="8.415290549213175"><ele>24.0</ele><time>2026-04-04T10:52:29Z</time></trkpt><trkpt lat="44.29168695886242" lon="8.415441832331815"><ele>24.0</ele><time>2026-04-04T10:52:30Z</time></trkpt><trkpt lat="44.2916832863229" lon="8.415595517808084"><ele>24.0</ele><time>2026-04-04T10:52:31Z</time></trkpt><trkpt lat="44.29167945130645" lon="8.415755107012648"><ele>24.0</ele><time>2026-04-04T10:52:32Z</time></trkpt><trkpt lat="44.291678456491056" lon="8.415930451571498"><ele>23.5</ele><time>2026-04-04T10:52:33Z</time></trkpt><trkpt lat="44.29167605099011" lon="8.416116097042506"><ele>23.0</ele><time>2026-04-04T10:52:34Z</time></trkpt><trkpt lat="44.29167160544162" lon="8.416306975146618"><ele>22.5</ele><time>2026-04-04T10:52:35Z</time></trkpt><trkpt lat="44.29166619969944" lon="8.416498454173043"><ele>22.0</ele><time>2026-04-04T10:52:36Z</time></trkpt><trkpt lat="44.29163754934102" lon="8.416685170750002"><ele>22.0</ele><time>2026-04-04T10:52:37Z</time></trkpt><trkpt lat="44.29162723363108" lon="8.416878259168637"><ele>22.0</ele><time>2026-04-04T10:52:38Z</time></trkpt><trkpt lat="44.2915934697173" lon="8.417070877301322"><ele>22.0</ele><time>2026-04-04T10:52:39Z</time></trkpt><trkpt lat="44.29156309722509" lon="8.417260530646345"><ele>22.0</ele><time>2026-04-04T10:52:40Z</time></trkpt><trkpt lat="44.29151749153721" lon="8.417440569978089"><ele>21.25</ele><time>2026-04-04T10:52:41Z</time></trkpt><trkpt lat="44.291484491324525" lon="8.41762186611213"><ele>20.5</ele><time>2026-04-04T10:52:42Z</time></trkpt><trkpt lat="44.29144774883865" lon="8.417817078450483"><ele>19.75</ele><time>2026-04-04T10:52:43Z</time></trkpt><trkpt lat="44.2914036171787" lon="8.41802803084738"><ele>19.0</ele><time>2026-04-04T10:52:44Z</time></trkpt><trkpt lat="44.291346897015735" lon="8.418246943860199"><ele>18.0</ele><time>2026-04-04T10:52:45Z</time></trkpt><trkpt lat="44.29128058283172" lon="8.418465556126824"><ele>17.0</ele><time>2026-04-04T10:52:46Z</time></trkpt><trkpt lat="44.291201978424965" lon="8.418681454532571"><ele>16.0</ele><time>2026-04-04T10:52:47Z</time></trkpt><trkpt lat="44.2911060831455" lon="8.418890434780268"><ele>16.0</ele><time>2026-04-04T10:52:48Z</time></trkpt><trkpt lat="44.29101649745892" lon="8.419114089936738"><ele>16.0</ele><time>2026-04-04T10:52:49Z</time></trkpt><trkpt lat="44.2909060130246" lon="8.41931896590836"><ele>16.0</ele><time>2026-04-04T10:52:50Z</time></trkpt><trkpt lat="44.29079277922995" lon="8.419523557170145"><ele>16.666666666666664</ele><time>2026-04-04T10:52:51Z</time></trkpt><trkpt lat="44.29067981889257" lon="8.419728015437986"><ele>17.333333333333332</ele><time>2026-04-04T10:52:52Z</time></trkpt><trkpt lat="44.29056766508257" lon="8.419936975029309"><ele>18.0</ele><time>2026-04-04T10:52:53Z</time></trkpt><trkpt lat="44.290457603865576" lon="8.420152506915379"><ele>17.0</ele><time>2026-04-04T10:52:54Z</time></trkpt><trkpt lat="44.290358698613474" lon="8.420377046848971"><ele>16.0</ele><time>2026-04-04T10:52:55Z</time></trkpt><trkpt lat="44.290269945005406" lon="8.42060766229463"><ele>15.0</ele><time>2026-04-04T10:52:56Z</time></trkpt><trkpt lat="44.290190762541044" lon="8.420848558807652"><ele>15.0</ele><time>2026-04-04T10:52:57Z</time></trkpt><trkpt lat="44.290115114053265" lon="8.421088102047767"><ele>15.0</ele><time>2026-04-04T10:52:58Z</time></trkpt><trkpt lat="44.29004686489787" lon="8.42133153035445"><ele>15.0</ele><time>2026-04-04T10:52:59Z</time></trkpt><trkpt lat="44.28997301728723" lon="8.421578327053668"><ele>14.666666666666668</ele><time>2026-04-04T10:53:00Z</time></trkpt><trkpt lat="44.28989979448047" lon="8.421826534217523"><ele>14.333333333333334</ele><time>2026-04-04T10:53:01Z</time></trkpt><trkpt lat="44.28981906515275" lon="8.422069997692589"><ele>14.0</ele><time>2026-04-04T10:53:02Z</time></trkpt><trkpt lat="44.28973868933858" lon="8.422313333036898"><ele>14.0</ele><time>2026-04-04T10:53:03Z</time></trkpt><trkpt lat="44.28966006683872" lon="8.422560334539032"><ele>14.0</ele><time>2026-04-04T10:53:04Z</time></trkpt><trkpt lat="44.2895831060253" lon="8.422807678127334"><ele>14.0</ele><time>2026-04-04T10:53:05Z</time></trkpt><trkpt lat="44.28950479020889" lon="8.423061248431882"><ele>14.666666666666668</ele><time>2026-04-04T10:53:06Z</time></trkpt><trkpt lat="44.28942857435856" lon="8.423307821559717"><ele>15.333333333333332</ele><time>2026-04-04T10:53:07Z</time></trkpt><trkpt lat="44.28934870187257" lon="8.423550074460758"><ele>16.0</ele><time>2026-04-04T10:53:08Z</time></trkpt><trkpt lat="44.28927050825753" lon="8.423790069126738"><ele>16.0</ele><time>2026-04-04T10:53:09Z</time></trkpt><trkpt lat="44.28918851046619" lon="8.424024577834528"><ele>16.0</ele><time>2026-04-04T10:53:10Z</time></trkpt><trkpt lat="44.28909830881529" lon="8.424257127600976"><ele>16.0</ele><time>2026-04-04T10:53:11Z</time></trkpt><trkpt lat="44.289004782276564" lon="8.424480038189067"><ele>14.333333333333332</ele><time>2026-04-04T10:53:12Z</time></trkpt><trkpt lat="44.288913925872905" lon="8.424704693989018"><ele>12.666666666666666</ele><time>2026-04-04T10:53:13Z</time></trkpt><trkpt lat="44.28882881817484" lon="8.424934524354393"><ele>11.0</ele><time>2026-04-04T10:53:14Z</time></trkpt><trkpt lat="44.288747662709966" lon="8.42516177042563"><ele>11.0</ele><time>2026-04-04T10:53:15Z</time></trkpt><trkpt lat="44.2886659438396" lon="8.425387428764303"><ele>11.0</ele><time>2026-04-04T10:53:16Z</time></trkpt><trkpt lat="44.28860014436373" lon="8.42562068199555"><ele>11.0</ele><time>2026-04-04T10:53:17Z</time></trkpt><trkpt lat="44.288537984430505" lon="8.425855960110589"><ele>11.333333333333332</ele><time>2026-04-04T10:53:18Z</time></trkpt><trkpt lat="44.288478668664695" lon="8.426094827955593"><ele>11.666666666666666</ele><time>2026-04-04T10:53:19Z</time></trkpt><trkpt lat="44.288422106968525" lon="8.426332563764497"><ele>12.0</ele><time>2026-04-04T10:53:20Z</time></trkpt><trkpt lat="44.28835830549071" lon="8.426573085781936"><ele>12.0</ele><time>2026-04-04T10:53:21Z</time></trkpt><trkpt lat="44.28829637976055" lon="8.426814573517355"><ele>12.0</ele><time>2026-04-04T10:53:22Z</time></trkpt><trkpt lat="44.288231139697615" lon="8.427058841455771"><ele>12.0</ele><time>2026-04-04T10:53:23Z</time></trkpt><trkpt lat="44.28816702159744" lon="8.42730754384193"><ele>11.333333333333334</ele><time>2026-04-04T10:53:24Z</time></trkpt><trkpt lat="44.28810692589705" lon="8.427557111743996"><ele>10.666666666666668</ele><time>2026-04-04T10:53:25Z</time></trkpt><trkpt lat="44.2880474853525" lon="8.427800832685339"><ele>10.0</ele><time>2026-04-04T10:53:26Z</time></trkpt><trkpt lat="44.28796909717101" lon="8.428038126586054"><ele>9.666666666666668</ele><time>2026-04-04T10:53:27Z</time></trkpt><trkpt lat="44.28790801565757" lon="8.428274238503413"><ele>9.333333333333334</ele><time>2026-04-04T10:53:28Z</time></trkpt><trkpt lat="44.28785629058238" lon="8.428518534014449"><ele>9.0</ele><time>2026-04-04T10:53:29Z</time></trkpt><trkpt lat="44.287789833110466" lon="8.428751446731239"><ele>9.333333333333334</ele><time>2026-04-04T10:53:30Z</time></trkpt><trkpt lat="44.28772483581072" lon="8.428990242610297"><ele>9.666666666666668</ele><time>2026-04-04T10:53:31Z</time></trkpt><trkpt lat="44.287662082737185" lon="8.429235511615698"><ele>10.0</ele><time>2026-04-04T10:53:32Z</time></trkpt><trkpt lat="44.287598679553824" lon="8.429477238582223"><ele>10.0</ele><time>2026-04-04T10:53:33Z</time></trkpt><trkpt lat="44.28753558497496" lon="8.429717648137698"><ele>10.0</ele><time>2026-04-04T10:53:34Z</time></trkpt><trkpt lat="44.28747149788097" lon="8.429962446411206"><ele>10.0</ele><time>2026-04-04T10:53:35Z</time></trkpt><trkpt lat="44.287407401074006" lon="8.430205644253899"><ele>10.0</ele><time>2026-04-04T10:53:36Z</time></trkpt><trkpt lat="44.287344096676854" lon="8.430452664795167"><ele>10.0</ele><time>2026-04-04T10:53:37Z</time></trkpt><trkpt lat="44.28727976224942" lon="8.430697772744672"><ele>10.0</ele><time>2026-04-04T10:53:38Z</time></trkpt><trkpt lat="44.28721118175948" lon="8.430943012975105"><ele>9.666666666666668</ele><time>2026-04-04T10:53:39Z</time></trkpt><trkpt lat="44.28713064522326" lon="8.431181502185828"><ele>9.333333333333334</ele><time>2026-04-04T10:53:40Z</time></trkpt><trkpt lat="44.28703452856999" lon="8.43140915261129"><ele>9.0</ele><time>2026-04-04T10:53:41Z</time></trkpt><trkpt lat="44.28692809185071" lon="8.43161997395272"><ele>9.0</ele><time>2026-04-04T10:53:42Z</time></trkpt><trkpt lat="44.28681716622996" lon="8.431825441231013"><ele>9.0</ele><time>2026-04-04T10:53:43Z</time></trkpt><trkpt lat="44.28670703273238" lon="8.432024955415223"><ele>9.0</ele><time>2026-04-04T10:53:44.001Z</time></trkpt><trkpt lat="44.28660032555383" lon="8.432219847811151"><ele>9.0</ele><time>2026-04-04T10:53:45.001Z</time></trkpt><trkpt lat="44.28650440148315" lon="8.43239383286982"><ele>9.0</ele><time>2026-04-04T10:53:46.001Z</time></trkpt><trkpt lat="44.286416056676835" lon="8.432555046768279"><ele>9.0</ele><time>2026-04-04T10:53:47.001Z</time></trkpt><trkpt lat="44.2863376228619" lon="8.43269663303291"><ele>9.0</ele><time>2026-04-04T10:53:48.001Z</time></trkpt><trkpt lat="44.28626358874287" lon="8.43282427839292"><ele>8.8</ele><time>2026-04-04T10:53:49.001Z</time></trkpt><trkpt lat="44.286189330891276" lon="8.43291925637798"><ele>8.600000000000001</ele><time>2026-04-04T10:53:50.001Z</time></trkpt><trkpt lat="44.28610235235869" lon="8.432986960263573"><ele>8.4</ele><time>2026-04-04T10:53:51.001Z</time></trkpt><trkpt lat="44.28600801652371" lon="8.433073752022807"><ele>8.200000000000001</ele><time>2026-04-04T10:53:52.001Z</time></trkpt><trkpt lat="44.28592287900935" lon="8.433206451188205"><ele>8.0</ele><time>2026-04-04T10:53:53.001Z</time></trkpt><trkpt lat="44.2858311105957" lon="8.433349352542889"><ele>8.0</ele><time>2026-04-04T10:53:54.001Z</time></trkpt><trkpt lat="44.28571472494098" lon="8.433483512094918"><ele>8.0</ele><time>2026-04-04T10:53:55.001Z</time></trkpt><trkpt lat="44.28558530312915" lon="8.433605037595532"><ele>8.0</ele><time>2026-04-04T10:53:56.001Z</time></trkpt><trkpt lat="44.28544871480374" lon="8.433739907941463"><ele>8.333333333333332</ele><time>2026-04-04T10:53:57.001Z</time></trkpt><trkpt lat="44.28531665034305" lon="8.433891075511946"><ele>8.666666666666666</ele><time>2026-04-04T10:53:58.001Z</time></trkpt><trkpt lat="44.28518891782147" lon="8.434050956004763"><ele>9.0</ele><time>2026-04-04T10:53:59.001Z</time></trkpt><trkpt lat="44.28506738561534" lon="8.434215089373255"><ele>9.0</ele><time>2026-04-04T10:54:00.001Z</time></trkpt><trkpt lat="44.284961210006905" lon="8.434373398434383"><ele>9.0</ele><time>2026-04-04T10:54:01.001Z</time></trkpt><trkpt lat="44.28485420172519" lon="8.4345153114319"><ele>9.0</ele><time>2026-04-04T10:54:02.001Z</time></trkpt><trkpt lat="44.28477722460213" lon="8.43466456724579"><ele>9.0</ele><time>2026-04-04T10:54:03.001Z</time></trkpt><trkpt lat="44.28471441739259" lon="8.43480587063278"><ele>8.333333333333334</ele><time>2026-04-04T10:54:04.001Z</time></trkpt><trkpt lat="44.284675172257224" lon="8.434944608273677"><ele>7.666666666666667</ele><time>2026-04-04T10:54:05.001Z</time></trkpt><trkpt lat="44.28462353586918" lon="8.435048945215145"><ele>7.0</ele><time>2026-04-04T10:54:06.001Z</time></trkpt><trkpt lat="44.28458094528767" lon="8.435134321373347"><ele>6.333333333333334</ele><time>2026-04-04T10:54:07.001Z</time></trkpt><trkpt lat="44.28455162355752" lon="8.435214881942912"><ele>5.666666666666667</ele><time>2026-04-04T10:54:08.001Z</time></trkpt><trkpt lat="44.28459686625748" lon="8.435357812441548"><ele>5.0</ele><time>2026-04-04T10:54:10.001Z</time></trkpt><trkpt lat="44.284667090398266" lon="8.435403517436841"><ele>5.0</ele><time>2026-04-04T10:54:11.001Z</time></trkpt><trkpt lat="44.28475037721563" lon="8.435425399591415"><ele>5.0</ele><time>2026-04-04T10:54:12.001Z</time></trkpt><trkpt lat="44.28483212168561" lon="8.435472276146921"><ele>5.0</ele><time>2026-04-04T10:54:13.001Z</time></trkpt><trkpt lat="44.284919672477905" lon="8.435551245847236"><ele>5.0</ele><time>2026-04-04T10:54:14.001Z</time></trkpt><trkpt lat="44.285009696603574" lon="8.435634963778451"><ele>5.0</ele><time>2026-04-04T10:54:15.001Z</time></trkpt><trkpt lat="44.285101090385936" lon="8.435716886948017"><ele>6.0</ele><time>2026-04-04T10:54:16.001Z</time></trkpt><trkpt lat="44.28520290164608" lon="8.435802772355895"><ele>7.0</ele><time>2026-04-04T10:54:17.001Z</time></trkpt><trkpt lat="44.28530754116417" lon="8.435895135873922"><ele>8.0</ele><time>2026-04-04T10:54:18.001Z</time></trkpt><trkpt lat="44.285416334586536" lon="8.435996460361181"><ele>9.0</ele><time>2026-04-04T10:54:19.001Z</time></trkpt><trkpt lat="44.28552675697333" lon="8.436098482068388"><ele>9.5</ele><time>2026-04-04T10:54:20.001Z</time></trkpt><trkpt lat="44.28563778986887" lon="8.436210677164862"><ele>10.0</ele><time>2026-04-04T10:54:21.001Z</time></trkpt><trkpt lat="44.285746986647894" lon="8.436328902507"><ele>10.5</ele><time>2026-04-04T10:54:22.001Z</time></trkpt><trkpt lat="44.2858544886887" lon="8.436450468217139"><ele>11.0</ele><time>2026-04-04T10:54:23.001Z</time></trkpt><trkpt lat="44.2859613637568" lon="8.436579789082588"><ele>11.0</ele><time>2026-04-04T10:54:24.001Z</time></trkpt><trkpt lat="44.28606609285572" lon="8.436712139540187"><ele>11.0</ele><time>2026-04-04T10:54:25.001Z</time></trkpt><trkpt lat="44.286168055865076" lon="8.436845634978761"><ele>11.0</ele><time>2026-04-04T10:54:26.001Z</time></trkpt><trkpt lat="44.28627139908853" lon="8.436978717709552"><ele>11.0</ele><time>2026-04-04T10:54:27.001Z</time></trkpt><trkpt lat="44.28636956698349" lon="8.437121276181959"><ele>12.25</ele><time>2026-04-04T10:54:28.001Z</time></trkpt><trkpt lat="44.28646597813175" lon="8.437271006915156"><ele>13.5</ele><time>2026-04-04T10:54:29.001Z</time></trkpt><trkpt lat="44.28656015665768" lon="8.437422137606507"><ele>14.75</ele><time>2026-04-04T10:54:30.001Z</time></trkpt><trkpt lat="44.286650886136336" lon="8.437567067070118"><ele>16.0</ele><time>2026-04-04T10:54:31Z</time></trkpt><trkpt lat="44.28673696222172" lon="8.437709826240033"><ele>16.0</ele><time>2026-04-04T10:54:32Z</time></trkpt><trkpt lat="44.286815851861526" lon="8.437854681347442"><ele>16.0</ele><time>2026-04-04T10:54:33Z</time></trkpt><trkpt lat="44.28689010491715" lon="8.438001236720591"><ele>16.0</ele><time>2026-04-04T10:54:34Z</time></trkpt><trkpt lat="44.28695736883874" lon="8.438149761757748"><ele>16.0</ele><time>2026-04-04T10:54:35Z</time></trkpt><trkpt lat="44.28702330125908" lon="8.43829748608443"><ele>15.75</ele><time>2026-04-04T10:54:36Z</time></trkpt><trkpt lat="44.28708679375319" lon="8.438450993318822"><ele>15.5</ele><time>2026-04-04T10:54:37Z</time></trkpt><trkpt lat="44.28714819195736" lon="8.438607036561853"><ele>15.25</ele><time>2026-04-04T10:54:38Z</time></trkpt><trkpt lat="44.287209853733835" lon="8.43875790811278"><ele>15.0</ele><time>2026-04-04T10:54:39Z</time></trkpt><trkpt lat="44.28727449305508" lon="8.438908492050743"><ele>17.0</ele><time>2026-04-04T10:54:40Z</time></trkpt><trkpt lat="44.28733535043434" lon="8.43905784224995"><ele>19.0</ele><time>2026-04-04T10:54:41Z</time></trkpt><trkpt lat="44.28739545240104" lon="8.439206121826933"><ele>21.0</ele><time>2026-04-04T10:54:42Z</time></trkpt><trkpt lat="44.287459028901715" lon="8.439375440429194"><ele>23.0</ele><time>2026-04-04T10:54:43Z</time></trkpt><trkpt lat="44.287528228674724" lon="8.439535902280776"><ele>22.75</ele><time>2026-04-04T10:54:44Z</time></trkpt><trkpt lat="44.28759468827195" lon="8.43968768463466"><ele>22.5</ele><time>2026-04-04T10:54:45Z</time></trkpt><trkpt lat="44.28765744892335" lon="8.439849780293944"><ele>22.25</ele><time>2026-04-04T10:54:46Z</time></trkpt><trkpt lat="44.287713604053266" lon="8.44000555055899"><ele>22.0</ele><time>2026-04-04T10:54:47Z</time></trkpt><trkpt lat="44.28775828624805" lon="8.440162774333405"><ele>22.0</ele><time>2026-04-04T10:54:48Z</time></trkpt><trkpt lat="44.28781221073474" lon="8.440321028156243"><ele>22.0</ele><time>2026-04-04T10:54:49Z</time></trkpt><trkpt lat="44.287860910234926" lon="8.440480988973146"><ele>22.0</ele><time>2026-04-04T10:54:50Z</time></trkpt><trkpt lat="44.287916958720395" lon="8.440635223586197"><ele>22.0</ele><time>2026-04-04T10:54:51Z</time></trkpt><trkpt lat="44.28796864009311" lon="8.440803383633183"><ele>22.25</ele><time>2026-04-04T10:54:52Z</time></trkpt><trkpt lat="44.28802010157766" lon="8.440966491856447"><ele>22.5</ele><time>2026-04-04T10:54:53Z</time></trkpt><trkpt lat="44.288070061851705" lon="8.441130551768444"><ele>22.75</ele><time>2026-04-04T10:54:54Z</time></trkpt><trkpt lat="44.28812614710757" lon="8.441290755272442"><ele>23.0</ele><time>2026-04-04T10:54:55Z</time></trkpt><trkpt lat="44.28817779234857" lon="8.441450492822177"><ele>23.25</ele><time>2026-04-04T10:54:56Z</time></trkpt><trkpt lat="44.28823168719275" lon="8.441612167024447"><ele>23.5</ele><time>2026-04-04T10:54:57Z</time></trkpt><trkpt lat="44.28827915388257" lon="8.441779662185558"><ele>23.75</ele><time>2026-04-04T10:54:58Z</time></trkpt><trkpt lat="44.28832621744406" lon="8.441951069390198"><ele>24.0</ele><time>2026-04-04T10:54:59Z</time></trkpt><trkpt lat="44.28837014415268" lon="8.442125807751077"><ele>24.0</ele><time>2026-04-04T10:55:00Z</time></trkpt><trkpt lat="44.288408581918155" lon="8.442290626201492"><ele>24.0</ele><time>2026-04-04T10:55:01Z</time></trkpt><trkpt lat="44.288431728909835" lon="8.44247057827782"><ele>24.0</ele><time>2026-04-04T10:55:02Z</time></trkpt><trkpt lat="44.288426817302884" lon="8.442644868290161"><ele>24.0</ele><time>2026-04-04T10:55:03Z</time></trkpt><trkpt lat="44.28838860561231" lon="8.442819902615307"><ele>25.0</ele><time>2026-04-04T10:55:04Z</time></trkpt><trkpt lat="44.288321610966555" lon="8.442993289469223"><ele>26.0</ele><time>2026-04-04T10:55:05Z</time></trkpt><trkpt lat="44.28825170861142" lon="8.443173373395174"><ele>27.0</ele><time>2026-04-04T10:55:06Z</time></trkpt><trkpt lat="44.28817620366543" lon="8.443353030878331"><ele>28.0</ele><time>2026-04-04T10:55:07Z</time></trkpt><trkpt lat="44.28810054219795" lon="8.443539864113816"><ele>27.5</ele><time>2026-04-04T10:55:08Z</time></trkpt><trkpt lat="44.288026390550385" lon="8.44372715203897"><ele>27.0</ele><time>2026-04-04T10:55:09Z</time></trkpt><trkpt lat="44.287942924956255" lon="8.44389268547293"><ele>26.5</ele><time>2026-04-04T10:55:10Z</time></trkpt><trkpt lat="44.28784896493767" lon="8.444020539144283"><ele>26.0</ele><time>2026-04-04T10:55:11Z</time></trkpt><trkpt lat="44.28775404845638" lon="8.444109597062463"><ele>26.0</ele><time>2026-04-04T10:55:12Z</time></trkpt><trkpt lat="44.28765353987349" lon="8.44416067237862"><ele>26.0</ele><time>2026-04-04T10:55:13Z</time></trkpt><trkpt lat="44.2875450315115" lon="8.444155134947144"><ele>26.0</ele><time>2026-04-04T10:55:14Z</time></trkpt><trkpt lat="44.287446758954246" lon="8.444089155224535"><ele>26.0</ele><time>2026-04-04T10:55:15Z</time></trkpt><trkpt lat="44.28736464289695" lon="8.443978020224785"><ele>26.0</ele><time>2026-04-04T10:55:16Z</time></trkpt><trkpt lat="44.28729313469661" lon="8.443848731506737"><ele>26.0</ele><time>2026-04-04T10:55:17Z</time></trkpt><trkpt lat="44.2872424746677" lon="8.443717605161298"><ele>26.0</ele><time>2026-04-04T10:55:18Z</time></trkpt><trkpt lat="44.287204632318115" lon="8.443579921428464"><ele>26.0</ele><time>2026-04-04T10:55:19Z</time></trkpt><trkpt lat="44.287164685220134" lon="8.443444254594507"><ele>26.0</ele><time>2026-04-04T10:55:20Z</time></trkpt><trkpt lat="44.2871291503539" lon="8.443308207440907"><ele>26.0</ele><time>2026-04-04T10:55:21Z</time></trkpt><trkpt lat="44.28709920438845" lon="8.443160494580534"><ele>26.0</ele><time>2026-04-04T10:55:22Z</time></trkpt><trkpt lat="44.287084044829584" lon="8.443002451354122"><ele>26.0</ele><time>2026-04-04T10:55:23Z</time></trkpt><trkpt lat="44.287069535400754" lon="8.442832716089322"><ele>26.0</ele><time>2026-04-04T10:55:24Z</time></trkpt><trkpt lat="44.28705471459608" lon="8.442655005938583"><ele>26.0</ele><time>2026-04-04T10:55:25Z</time></trkpt><trkpt lat="44.28700220408047" lon="8.442482840113186"><ele>25.8</ele><time>2026-04-04T10:55:26Z</time></trkpt><trkpt lat="44.28699340477548" lon="8.442314164925381"><ele>25.6</ele><time>2026-04-04T10:55:27Z</time></trkpt><trkpt lat="44.286985493083456" lon="8.442161005455649"><ele>25.4</ele><time>2026-04-04T10:55:28Z</time></trkpt><trkpt lat="44.28702218046244" lon="8.442020397169145"><ele>25.2</ele><time>2026-04-04T10:55:29Z</time></trkpt><trkpt lat="44.28702187141631" lon="8.441902327988606"><ele>25.0</ele><time>2026-04-04T10:55:30Z</time></trkpt><trkpt lat="44.287023963108176" lon="8.441797194712445"><ele>24.4</ele><time>2026-04-04T10:55:31Z</time></trkpt><trkpt lat="44.28702172950726" lon="8.441699832794503"><ele>23.8</ele><time>2026-04-04T10:55:32Z</time></trkpt><trkpt lat="44.287003355227384" lon="8.441537799579994"><ele>23.200000000000003</ele><time>2026-04-04T10:55:34Z</time></trkpt><trkpt lat="44.28699442091968" lon="8.441434636330627"><ele>22.6</ele><time>2026-04-04T10:55:36Z</time></trkpt><trkpt lat="44.286992214433305" lon="8.441331375551803"><ele>22.0</ele><time>2026-04-04T10:55:47Z</time></trkpt><trkpt lat="44.286852372569655" lon="8.441242852717052"><ele>21.400000000000002</ele><time>2026-04-04T10:55:48Z</time></trkpt><trkpt lat="44.28684857769186" lon="8.441124749270314"><ele>20.8</ele><time>2026-04-04T10:55:49Z</time></trkpt><trkpt lat="44.28684529867553" lon="8.440981541212295"><ele>20.2</ele><time>2026-04-04T10:55:50Z</time></trkpt><trkpt lat="44.28684459788287" lon="8.440847788740323"><ele>19.6</ele><time>2026-04-04T10:55:51Z</time></trkpt><trkpt lat="44.286844597884446" lon="8.440701980113094"><ele>19.0</ele><time>2026-04-04T10:55:52Z</time></trkpt><trkpt lat="44.28685314792858" lon="8.440520752992775"><ele>18.75</ele><time>2026-04-04T10:55:53Z</time></trkpt><trkpt lat="44.28687288690233" lon="8.440346946592863"><ele>18.5</ele><time>2026-04-04T10:55:54Z</time></trkpt><trkpt lat="44.28696050293118" lon="8.440214112125643"><ele>18.25</ele><time>2026-04-04T10:55:55Z</time></trkpt><trkpt lat="44.28701715741826" lon="8.440090564876213"><ele>18.0</ele><time>2026-04-04T10:55:56Z</time></trkpt><trkpt lat="44.287083630241526" lon="8.439989833947967"><ele>18.0</ele><time>2026-04-04T10:55:57Z</time></trkpt><trkpt lat="44.287149917055025" lon="8.439907409609715"><ele>18.0</ele><time>2026-04-04T10:55:58Z</time></trkpt><trkpt lat="44.28724152950096" lon="8.439831478600766"><ele>18.0</ele><time>2026-04-04T10:55:59.001Z</time></trkpt><trkpt lat="44.28735396061964" lon="8.439786720061033"><ele>18.0</ele><time>2026-04-04T10:56:00.001Z</time></trkpt><trkpt lat="44.28747964630462" lon="8.439774562066482"><ele>18.0</ele><time>2026-04-04T10:56:01.001Z</time></trkpt><trkpt lat="44.28761147033578" lon="8.439798666835573"><ele>19.0</ele><time>2026-04-04T10:56:02.001Z</time></trkpt><trkpt lat="44.28773411157693" lon="8.43986025927569"><ele>20.0</ele><time>2026-04-04T10:56:03.001Z</time></trkpt><trkpt lat="44.28785235703181" lon="8.439966125650699"><ele>21.0</ele><time>2026-04-04T10:56:04.001Z</time></trkpt><trkpt lat="44.287964717048595" lon="8.44010623456933"><ele>22.0</ele><time>2026-04-04T10:56:05.001Z</time></trkpt><trkpt lat="44.28806097539814" lon="8.440273175803654"><ele>22.333333333333332</ele><time>2026-04-04T10:56:06.001Z</time></trkpt><trkpt lat="44.28814309657629" lon="8.440466251409212"><ele>22.666666666666668</ele><time>2026-04-04T10:56:07.001Z</time></trkpt><trkpt lat="44.28822757735707" lon="8.440671394656027"><ele>23.0</ele><time>2026-04-04T10:56:08.001Z</time></trkpt><trkpt lat="44.28831271893439" lon="8.440887913261308"><ele>23.0</ele><time>2026-04-04T10:56:09.001Z</time></trkpt><trkpt lat="44.2883987080697" lon="8.44110763817807"><ele>23.0</ele><time>2026-04-04T10:56:10.001Z</time></trkpt><trkpt lat="44.28848881987476" lon="8.441330761925535"><ele>23.0</ele><time>2026-04-04T10:56:11.001Z</time></trkpt><trkpt lat="44.288580841156694" lon="8.441551902457478"><ele>23.333333333333336</ele><time>2026-04-04T10:56:12.001Z</time></trkpt><trkpt lat="44.28867659728917" lon="8.44177790420922"><ele>23.666666666666668</ele><time>2026-04-04T10:56:13.001Z</time></trkpt><trkpt lat="44.288778256109445" lon="8.442001417874362"><ele>24.0</ele><time>2026-04-04T10:56:14.001Z</time></trkpt><trkpt lat="44.28887870137437" lon="8.442228809245478"><ele>26.0</ele><time>2026-04-04T10:56:15.001Z</time></trkpt><trkpt lat="44.288976171174696" lon="8.442461761538874"><ele>28.0</ele><time>2026-04-04T10:56:16.001Z</time></trkpt><trkpt lat="44.28906899748994" lon="8.44269873748128"><ele>30.0</ele><time>2026-04-04T10:56:17.001Z</time></trkpt><trkpt lat="44.289161881482606" lon="8.442938916633182"><ele>31.666666666666664</ele><time>2026-04-04T10:56:18.001Z</time></trkpt><trkpt lat="44.2892572122975" lon="8.443177633114285"><ele>33.33333333333333</ele><time>2026-04-04T10:56:19.001Z</time></trkpt><trkpt lat="44.28935240705749" lon="8.443422793835065"><ele>35.0</ele><time>2026-04-04T10:56:20.001Z</time></trkpt><trkpt lat="44.2894520288805" lon="8.443670765811873"><ele>37.0</ele><time>2026-04-04T10:56:21.001Z</time></trkpt><trkpt lat="44.289555522279436" lon="8.443920771199734"><ele>39.0</ele><time>2026-04-04T10:56:22.001Z</time></trkpt><trkpt lat="44.2896737296477" lon="8.444157938412282"><ele>41.0</ele><time>2026-04-04T10:56:23.001Z</time></trkpt><trkpt lat="44.28979767846264" lon="8.444382192420251"><ele>41.0</ele><time>2026-04-04T10:56:24.001Z</time></trkpt><trkpt lat="44.289926175934205" lon="8.444603452813283"><ele>41.0</ele><time>2026-04-04T10:56:25.001Z</time></trkpt><trkpt lat="44.29006286728031" lon="8.444817208480295"><ele>41.0</ele><time>2026-04-04T10:56:26.001Z</time></trkpt><trkpt lat="44.29022103721441" lon="8.445023683287197"><ele>41.33333333333333</ele><time>2026-04-04T10:56:27.001Z</time></trkpt><trkpt lat="44.29038510452997" lon="8.445206221882039"><ele>41.666666666666664</ele><time>2026-04-04T10:56:28.001Z</time></trkpt><trkpt lat="44.290549993048685" lon="8.44536882365199"><ele>42.0</ele><time>2026-04-04T10:56:29.001Z</time></trkpt><trkpt lat="44.29073062306982" lon="8.445537241517012"><ele>41.0</ele><time>2026-04-04T10:56:30.001Z</time></trkpt><trkpt lat="44.290913448204705" lon="8.445692598968725"><ele>40.0</ele><time>2026-04-04T10:56:31.001Z</time></trkpt><trkpt lat="44.29111075015214" lon="8.445833948299194"><ele>39.0</ele><time>2026-04-04T10:56:32.001Z</time></trkpt><trkpt lat="44.29131199406057" lon="8.445964496277636"><ele>40.0</ele><time>2026-04-04T10:56:33.001Z</time></trkpt><trkpt lat="44.29152020398963" lon="8.446070577737354"><ele>41.0</ele><time>2026-04-04T10:56:34.001Z</time></trkpt><trkpt lat="44.29173298827964" lon="8.446167947054512"><ele>42.0</ele><time>2026-04-04T10:56:35.001Z</time></trkpt><trkpt lat="44.29194961629356" lon="8.446252029268024"><ele>42.5</ele><time>2026-04-04T10:56:36.001Z</time></trkpt><trkpt lat="44.29217225497332" lon="8.446330320971517"><ele>43.0</ele><time>2026-04-04T10:56:37Z</time></trkpt><trkpt lat="44.29239189816994" lon="8.446391818605909"><ele>40.5</ele><time>2026-04-04T10:56:38Z</time></trkpt><trkpt lat="44.292614263744795" lon="8.446444225262569"><ele>38.0</ele><time>2026-04-04T10:56:39Z</time></trkpt><trkpt lat="44.29284489150766" lon="8.446477716555654"><ele>38.0</ele><time>2026-04-04T10:56:40Z</time></trkpt><trkpt lat="44.293078101264676" lon="8.446501510849263"><ele>38.0</ele><time>2026-04-04T10:56:41Z</time></trkpt><trkpt lat="44.293308379416395" lon="8.446510225355935"><ele>40.0</ele><time>2026-04-04T10:56:42Z</time></trkpt><trkpt lat="44.29353652584918" lon="8.446510782416915"><ele>42.0</ele><time>2026-04-04T10:56:43Z</time></trkpt><trkpt lat="44.29376809234891" lon="8.44650525967066"><ele>40.5</ele><time>2026-04-04T10:56:44Z</time></trkpt><trkpt lat="44.294002756634114" lon="8.446499747733537"><ele>39.0</ele><time>2026-04-04T10:56:45Z</time></trkpt><trkpt lat="44.2942379961514" lon="8.446496282090088"><ele>39.0</ele><time>2026-04-04T10:56:46Z</time></trkpt><trkpt lat="44.29447467041864" lon="8.446491344103805"><ele>39.0</ele><time>2026-04-04T10:56:47Z</time></trkpt><trkpt lat="44.29470848939466" lon="8.44648215246172"><ele>36.0</ele><time>2026-04-04T10:56:48Z</time></trkpt><trkpt lat="44.29494600635179" lon="8.446473644660777"><ele>33.0</ele><time>2026-04-04T10:56:49Z</time></trkpt><trkpt lat="44.29517862248568" lon="8.446469127850579"><ele>33.0</ele><time>2026-04-04T10:56:50Z</time></trkpt><trkpt lat="44.29541142100854" lon="8.446460529069723"><ele>33.0</ele><time>2026-04-04T10:56:51Z</time></trkpt><trkpt lat="44.295644487056435" lon="8.44645292351565"><ele>29.5</ele><time>2026-04-04T10:56:52Z</time></trkpt><trkpt lat="44.29587112889156" lon="8.446444587423265"><ele>26.0</ele><time>2026-04-04T10:56:53Z</time></trkpt><trkpt lat="44.29610163444573" lon="8.446442086413253"><ele>26.0</ele><time>2026-04-04T10:56:54Z</time></trkpt><trkpt lat="44.296331550424114" lon="8.446441729117424"><ele>26.0</ele><time>2026-04-04T10:56:55Z</time></trkpt><trkpt lat="44.296559177022885" lon="8.446438255006958"><ele>28.5</ele><time>2026-04-04T10:56:56Z</time></trkpt><trkpt lat="44.2967840585435" lon="8.44643584982785"><ele>31.0</ele><time>2026-04-04T10:56:57Z</time></trkpt><trkpt lat="44.297009959855274" lon="8.4464317407992"><ele>31.0</ele><time>2026-04-04T10:56:58Z</time></trkpt><trkpt lat="44.29723667426699" lon="8.446429027667694"><ele>31.0</ele><time>2026-04-04T10:56:59Z</time></trkpt><trkpt lat="44.29746251393763" lon="8.446424886945683"><ele>37.0</ele><time>2026-04-04T10:57:00Z</time></trkpt><trkpt lat="44.297686788714586" lon="8.446419927018093"><ele>43.0</ele><time>2026-04-04T10:57:01Z</time></trkpt><trkpt lat="44.297915572858734" lon="8.446417578717949"><ele>44.0</ele><time>2026-04-04T10:57:02Z</time></trkpt><trkpt lat="44.29814248474859" lon="8.446412993369975"><ele>45.0</ele><time>2026-04-04T10:57:03Z</time></trkpt><trkpt lat="44.29837340541152" lon="8.446409860492768"><ele>45.0</ele><time>2026-04-04T10:57:04.012Z</time></trkpt><trkpt lat="44.298602950754486" lon="8.446410837881427"><ele>45.0</ele><time>2026-04-04T10:57:05.011Z</time></trkpt><trkpt lat="44.29883011887059" lon="8.446420913312213"><ele>43.333333333333336</ele><time>2026-04-04T10:57:06Z</time></trkpt><trkpt lat="44.29903474388957" lon="8.446456051109285"><ele>41.66666666666667</ele><time>2026-04-04T10:57:07Z</time></trkpt><trkpt lat="44.29925192308036" lon="8.446492200166666"><ele>40.0</ele><time>2026-04-04T10:57:08Z</time></trkpt><trkpt lat="44.2994748309164" lon="8.446547237135347"><ele>40.0</ele><time>2026-04-04T10:57:09Z</time></trkpt><trkpt lat="44.299688089913374" lon="8.446608344596246"><ele>40.0</ele><time>2026-04-04T10:57:10Z</time></trkpt><trkpt lat="44.299897357332355" lon="8.446683576919126"><ele>40.0</ele><time>2026-04-04T10:57:11Z</time></trkpt><trkpt lat="44.300106644321794" lon="8.446767966642362"><ele>38.66666666666667</ele><time>2026-04-04T10:57:12Z</time></trkpt><trkpt lat="44.300311382377515" lon="8.44686474636957"><ele>37.333333333333336</ele><time>2026-04-04T10:57:13Z</time></trkpt><trkpt lat="44.30051113260882" lon="8.446974261220245"><ele>36.0</ele><time>2026-04-04T10:57:14Z</time></trkpt><trkpt lat="44.30070911567192" lon="8.44709771903373"><ele>37.666666666666664</ele><time>2026-04-04T10:57:15Z</time></trkpt><trkpt lat="44.30090281486843" lon="8.447227466815246"><ele>39.33333333333333</ele><time>2026-04-04T10:57:16Z</time></trkpt><trkpt lat="44.30109014498101" lon="8.447370990738527"><ele>41.0</ele><time>2026-04-04T10:57:17Z</time></trkpt><trkpt lat="44.30128056346498" lon="8.447521172713014"><ele>42.666666666666664</ele><time>2026-04-04T10:57:18Z</time></trkpt><trkpt lat="44.30146638627507" lon="8.44767995047225"><ele>44.333333333333336</ele><time>2026-04-04T10:57:19Z</time></trkpt><trkpt lat="44.30165002194772" lon="8.447846715063784"><ele>46.0</ele><time>2026-04-04T10:57:20Z</time></trkpt><trkpt lat="44.30182782974405" lon="8.448021439459641"><ele>41.66666666666667</ele><time>2026-04-04T10:57:21Z</time></trkpt><trkpt lat="44.30199939485713" lon="8.448207441768519"><ele>37.333333333333336</ele><time>2026-04-04T10:57:22Z</time></trkpt><trkpt lat="44.30216724933858" lon="8.44840564652304"><ele>33.0</ele><time>2026-04-04T10:57:23Z</time></trkpt><trkpt lat="44.30234278976366" lon="8.448599621848125"><ele>30.0</ele><time>2026-04-04T10:57:24Z</time></trkpt><trkpt lat="44.30249428688607" lon="8.448821466651646"><ele>27.0</ele><time>2026-04-04T10:57:25Z</time></trkpt><trkpt lat="44.30264752124928" lon="8.44904613009529"><ele>24.0</ele><time>2026-04-04T10:57:26Z</time></trkpt><trkpt lat="44.30278815822691" lon="8.449280445383653"><ele>24.0</ele><time>2026-04-04T10:57:27Z</time></trkpt><trkpt lat="44.302925198739565" lon="8.44952298598217"><ele>24.0</ele><time>2026-04-04T10:57:28Z</time></trkpt><trkpt lat="44.303058818757606" lon="8.44976947394193"><ele>24.0</ele><time>2026-04-04T10:57:29Z</time></trkpt><trkpt lat="44.30318685233055" lon="8.450017634977387"><ele>25.0</ele><time>2026-04-04T10:57:30Z</time></trkpt><trkpt lat="44.303306890185745" lon="8.450277699445849"><ele>26.0</ele><time>2026-04-04T10:57:31Z</time></trkpt><trkpt lat="44.30341920332371" lon="8.450550111438389"><ele>27.0</ele><time>2026-04-04T10:57:32Z</time></trkpt><trkpt lat="44.303520162276776" lon="8.450825642483595"><ele>27.0</ele><time>2026-04-04T10:57:33Z</time></trkpt><trkpt lat="44.303615122429854" lon="8.45110315584121"><ele>27.0</ele><time>2026-04-04T10:57:34Z</time></trkpt><trkpt lat="44.30369836693942" lon="8.451390315673088"><ele>27.0</ele><time>2026-04-04T10:57:35Z</time></trkpt><trkpt lat="44.303778971079765" lon="8.451679221106579"><ele>27.0</ele><time>2026-04-04T10:57:36Z</time></trkpt><trkpt lat="44.30385388903274" lon="8.451968336223395"><ele>27.0</ele><time>2026-04-04T10:57:37Z</time></trkpt><trkpt lat="44.30391719354405" lon="8.452257678996864"><ele>27.0</ele><time>2026-04-04T10:57:38Z</time></trkpt><trkpt lat="44.30397411389077" lon="8.452551565730793"><ele>30.0</ele><time>2026-04-04T10:57:39Z</time></trkpt><trkpt lat="44.30401933283565" lon="8.452848921922085"><ele>33.0</ele><time>2026-04-04T10:57:40Z</time></trkpt><trkpt lat="44.30405990634137" lon="8.453148322115734"><ele>36.0</ele><time>2026-04-04T10:57:41Z</time></trkpt><trkpt lat="44.304094180177024" lon="8.453451111185142"><ele>36.666666666666664</ele><time>2026-04-04T10:57:42Z</time></trkpt><trkpt lat="44.30412846328547" lon="8.453758926245902"><ele>37.33333333333333</ele><time>2026-04-04T10:57:43Z</time></trkpt><trkpt lat="44.30416106538858" lon="8.454065054134874"><ele>38.0</ele><time>2026-04-04T10:57:44Z</time></trkpt><trkpt lat="44.30419514336854" lon="8.45436791561897"><ele>39.0</ele><time>2026-04-04T10:57:45Z</time></trkpt><trkpt lat="44.3042286898845" lon="8.454673667045936"><ele>40.0</ele><time>2026-04-04T10:57:46Z</time></trkpt><trkpt lat="44.30426405328722" lon="8.454982894685383"><ele>41.0</ele><time>2026-04-04T10:57:47Z</time></trkpt><trkpt lat="44.30430249102608" lon="8.455298117820146"><ele>41.666666666666664</ele><time>2026-04-04T10:57:48Z</time></trkpt><trkpt lat="44.3043403373046" lon="8.455606299877454"><ele>42.333333333333336</ele><time>2026-04-04T10:57:49Z</time></trkpt><trkpt lat="44.30436932799329" lon="8.455909615369768"><ele>43.0</ele><time>2026-04-04T10:57:50Z</time></trkpt><trkpt lat="44.30439891683374" lon="8.456214330442883"><ele>42.333333333333336</ele><time>2026-04-04T10:57:51Z</time></trkpt><trkpt lat="44.304433528559294" lon="8.45651813658427"><ele>41.666666666666664</ele><time>2026-04-04T10:57:52Z</time></trkpt><trkpt lat="44.304465554695696" lon="8.45682018515056"><ele>41.0</ele><time>2026-04-04T10:57:53Z</time></trkpt><trkpt lat="44.30450180478496" lon="8.457123779894049"><ele>41.0</ele><time>2026-04-04T10:57:54Z</time></trkpt><trkpt lat="44.30454465316719" lon="8.457420804964116"><ele>41.0</ele><time>2026-04-04T10:57:55Z</time></trkpt><trkpt lat="44.30458830078637" lon="8.457717134806654"><ele>41.0</ele><time>2026-04-04T10:57:56Z</time></trkpt><trkpt lat="44.304640229367884" lon="8.458013464369907"><ele>42.0</ele><time>2026-04-04T10:57:57Z</time></trkpt><trkpt lat="44.30469375029593" lon="8.458307814255997"><ele>43.0</ele><time>2026-04-04T10:57:58Z</time></trkpt><trkpt lat="44.304752155505824" lon="8.458600857617753"><ele>44.0</ele><time>2026-04-04T10:57:59Z</time></trkpt><trkpt lat="44.304819718580106" lon="8.45889133926136"><ele>48.33333333333333</ele><time>2026-04-04T10:58:00Z</time></trkpt><trkpt lat="44.30489207863915" lon="8.459180727097653"><ele>52.666666666666664</ele><time>2026-04-04T10:58:01Z</time></trkpt><trkpt lat="44.30496655703259" lon="8.459470963129352"><ele>57.0</ele><time>2026-04-04T10:58:02Z</time></trkpt><trkpt lat="44.305049047799066" lon="8.459761787622039"><ele>57.5</ele><time>2026-04-04T10:58:03Z</time></trkpt><trkpt lat="44.305139804154095" lon="8.460048623686962"><ele>58.0</ele><time>2026-04-04T10:58:04Z</time></trkpt><trkpt lat="44.30523519463978" lon="8.460334717916663"><ele>56.0</ele><time>2026-04-04T10:58:05Z</time></trkpt><trkpt lat="44.305337024213735" lon="8.460616062347437"><ele>54.0</ele><time>2026-04-04T10:58:06Z</time></trkpt><trkpt lat="44.305436949956544" lon="8.460898073795617"><ele>54.0</ele><time>2026-04-04T10:58:07Z</time></trkpt><trkpt lat="44.30553881780537" lon="8.461177648060085"><ele>54.0</ele><time>2026-04-04T10:58:08Z</time></trkpt><trkpt lat="44.30564683319475" lon="8.461453210866617"><ele>54.0</ele><time>2026-04-04T10:58:09Z</time></trkpt><trkpt lat="44.305768901431925" lon="8.461720347721148"><ele>55.0</ele><time>2026-04-04T10:58:10Z</time></trkpt><trkpt lat="44.305894551200915" lon="8.461983906582422"><ele>56.0</ele><time>2026-04-04T10:58:11Z</time></trkpt><trkpt lat="44.3060268165303" lon="8.462244326359489"><ele>56.0</ele><time>2026-04-04T10:58:12.001Z</time></trkpt><trkpt lat="44.30616232830505" lon="8.462500610038656"><ele>56.0</ele><time>2026-04-04T10:58:13.001Z</time></trkpt><trkpt lat="44.306297604373135" lon="8.46275749050453"><ele>58.0</ele><time>2026-04-04T10:58:14.001Z</time></trkpt><trkpt lat="44.30644195710145" lon="8.463005802138667"><ele>60.0</ele><time>2026-04-04T10:58:15.001Z</time></trkpt><trkpt lat="44.3065908650974" lon="8.463246791735639"><ele>60.0</ele><time>2026-04-04T10:58:16.001Z</time></trkpt><trkpt lat="44.306749682862815" lon="8.46347518798631"><ele>60.0</ele><time>2026-04-04T10:58:17.001Z</time></trkpt><trkpt lat="44.30691092820939" lon="8.463704622950228"><ele>57.5</ele><time>2026-04-04T10:58:18.001Z</time></trkpt><trkpt lat="44.307071087373075" lon="8.463936335224483"><ele>55.0</ele><time>2026-04-04T10:58:19.001Z</time></trkpt><trkpt lat="44.30723869353615" lon="8.464163753948668"><ele>58.0</ele><time>2026-04-04T10:58:20.001Z</time></trkpt><trkpt lat="44.30741234558511" lon="8.46438649399164"><ele>61.0</ele><time>2026-04-04T10:58:21.001Z</time></trkpt><trkpt lat="44.307589470166654" lon="8.464605588904073"><ele>59.5</ele><time>2026-04-04T10:58:22.001Z</time></trkpt><trkpt lat="44.30777306409391" lon="8.464814977680339"><ele>58.0</ele><time>2026-04-04T10:58:23.001Z</time></trkpt><trkpt lat="44.30796268763811" lon="8.465018674300593"><ele>59.0</ele><time>2026-04-04T10:58:24.001Z</time></trkpt><trkpt lat="44.30815262158653" lon="8.465219004445458"><ele>60.0</ele><time>2026-04-04T10:58:25.001Z</time></trkpt><trkpt lat="44.308350006104945" lon="8.465417359124524"><ele>56.0</ele><time>2026-04-04T10:58:26.001Z</time></trkpt><trkpt lat="44.30855012105507" lon="8.465598022686192"><ele>52.0</ele><time>2026-04-04T10:58:27.001Z</time></trkpt><trkpt lat="44.30875372944762" lon="8.46577151252826"><ele>57.0</ele><time>2026-04-04T10:58:28.001Z</time></trkpt><trkpt lat="44.308958538565506" lon="8.46593535422465"><ele>62.0</ele><time>2026-04-04T10:58:29.001Z</time></trkpt><trkpt lat="44.30916601481649" lon="8.466089892080207"><ele>62.0</ele><time>2026-04-04T10:58:30.001Z</time></trkpt><trkpt lat="44.30937628242277" lon="8.466238643954537"><ele>62.0</ele><time>2026-04-04T10:58:31.001Z</time></trkpt><trkpt lat="44.30958976755816" lon="8.466383158591116"><ele>60.0</ele><time>2026-04-04T10:58:32.001Z</time></trkpt><trkpt lat="44.30980502307482" lon="8.466517345940836"><ele>58.0</ele><time>2026-04-04T10:58:33.001Z</time></trkpt><trkpt lat="44.31002408631299" lon="8.46664634157073"><ele>58.0</ele><time>2026-04-04T10:58:34.001Z</time></trkpt><trkpt lat="44.31024347571898" lon="8.466769390033523"><ele>58.0</ele><time>2026-04-04T10:58:35.001Z</time></trkpt><trkpt lat="44.31045939505928" lon="8.466895961556954"><ele>58.5</ele><time>2026-04-04T10:58:36.001Z</time></trkpt><trkpt lat="44.310674129777574" lon="8.467021540948428"><ele>59.0</ele><time>2026-04-04T10:58:37.001Z</time></trkpt><trkpt lat="44.31088532378776" lon="8.46715330325333"><ele>51.0</ele><time>2026-04-04T10:58:38.001Z</time></trkpt><trkpt lat="44.31112251798375" lon="8.467275893641073"><ele>43.0</ele><time>2026-04-04T10:58:39.001Z</time></trkpt><trkpt lat="44.311342930366976" lon="8.467400825012275"><ele>44.5</ele><time>2026-04-04T10:58:40.001Z</time></trkpt><trkpt lat="44.31156534660267" lon="8.467525956942696"><ele>46.0</ele><time>2026-04-04T10:58:41.001Z</time></trkpt><trkpt lat="44.311785990566975" lon="8.467649388105638"><ele>46.0</ele><time>2026-04-04T10:58:42.001Z</time></trkpt><trkpt lat="44.31200470133281" lon="8.467772912248252"><ele>46.0</ele><time>2026-04-04T10:58:43Z</time></trkpt><trkpt lat="44.312218430801614" lon="8.467891486121784"><ele>44.5</ele><time>2026-04-04T10:58:44Z</time></trkpt><trkpt lat="44.31243554827205" lon="8.468018127058919"><ele>43.0</ele><time>2026-04-04T10:58:45Z</time></trkpt><trkpt lat="44.31265059304727" lon="8.468143050375772"><ele>43.0</ele><time>2026-04-04T10:58:46Z</time></trkpt><trkpt lat="44.312866367254514" lon="8.468265166606894"><ele>43.0</ele><time>2026-04-04T10:58:47Z</time></trkpt><trkpt lat="44.31308388368424" lon="8.468386981889306"><ele>52.0</ele><time>2026-04-04T10:58:48Z</time></trkpt><trkpt lat="44.31329726528922" lon="8.468513492234424"><ele>61.0</ele><time>2026-04-04T10:58:49Z</time></trkpt><trkpt lat="44.31351139445492" lon="8.468637576336025"><ele>61.0</ele><time>2026-04-04T10:58:50Z</time></trkpt><trkpt lat="44.31371967420338" lon="8.468767130642444"><ele>61.0</ele><time>2026-04-04T10:58:51Z</time></trkpt><trkpt lat="44.313938037416165" lon="8.468894616831948"><ele>64.5</ele><time>2026-04-04T10:58:52Z</time></trkpt><trkpt lat="44.31415211757704" lon="8.469021881554863"><ele>68.0</ele><time>2026-04-04T10:58:53Z</time></trkpt><trkpt lat="44.31437110779215" lon="8.46915011795797"><ele>68.0</ele><time>2026-04-04T10:58:54.013Z</time></trkpt><trkpt lat="44.3145862371342" lon="8.469275515891052"><ele>68.0</ele><time>2026-04-04T10:58:55.01Z</time></trkpt><trkpt lat="44.31480022818238" lon="8.469403561147775"><ele>70.0</ele><time>2026-04-04T10:58:56.014Z</time></trkpt><trkpt lat="44.315013401016415" lon="8.469531688587349"><ele>72.0</ele><time>2026-04-04T10:58:57.014Z</time></trkpt><trkpt lat="44.315225125033045" lon="8.469658514804795"><ele>62.0</ele><time>2026-04-04T10:58:58.01Z</time></trkpt><trkpt lat="44.31543993933355" lon="8.46978013800159"><ele>52.0</ele><time>2026-04-04T10:58:59.013Z</time></trkpt><trkpt lat="44.31565112992021" lon="8.469904782085893"><ele>47.5</ele><time>2026-04-04T10:59:00.014Z</time></trkpt><trkpt lat="44.31585905159269" lon="8.470026012839291"><ele>43.0</ele><time>2026-04-04T10:59:01Z</time></trkpt><trkpt lat="44.31630126501851" lon="8.470196223220993"><ele>33.0</ele><time>2026-04-04T10:59:02Z</time></trkpt><trkpt lat="44.31650805344836" lon="8.470350676294004"><ele>23.0</ele><time>2026-04-04T10:59:04Z</time></trkpt><trkpt lat="44.31669422345337" lon="8.47050517661467"><ele>21.5</ele><time>2026-04-04T10:59:05Z</time></trkpt><trkpt lat="44.31689516154699" lon="8.470668856961911"><ele>20.0</ele><time>2026-04-04T10:59:06Z</time></trkpt><trkpt lat="44.31708736701595" lon="8.470851336831993"><ele>18.0</ele><time>2026-04-04T10:59:07Z</time></trkpt><trkpt lat="44.31726255782682" lon="8.471057756684596"><ele>16.0</ele><time>2026-04-04T10:59:08Z</time></trkpt><trkpt lat="44.3174423371991" lon="8.471271625437861"><ele>19.5</ele><time>2026-04-04T10:59:09Z</time></trkpt><trkpt lat="44.31763384366065" lon="8.471469074721588"><ele>23.0</ele><time>2026-04-04T10:59:10Z</time></trkpt><trkpt lat="44.31777028450018" lon="8.471766113016546"><ele>23.0</ele><time>2026-04-04T10:59:11Z</time></trkpt><trkpt lat="44.317910280763414" lon="8.47199999041582"><ele>23.0</ele><time>2026-04-04T10:59:12Z</time></trkpt><trkpt lat="44.31803673854748" lon="8.472273552226605"><ele>27.0</ele><time>2026-04-04T10:59:13Z</time></trkpt><trkpt lat="44.31814830972295" lon="8.472560087244041"><ele>31.0</ele><time>2026-04-04T10:59:14Z</time></trkpt><trkpt lat="44.31824663916053" lon="8.47285557801127"><ele>37.5</ele><time>2026-04-04T10:59:15Z</time></trkpt><trkpt lat="44.31833157593597" lon="8.473162029628536"><ele>44.0</ele><time>2026-04-04T10:59:16Z</time></trkpt><trkpt lat="44.31840215245811" lon="8.473471807819168"><ele>48.0</ele><time>2026-04-04T10:59:17Z</time></trkpt><trkpt lat="44.31845781682313" lon="8.473788810075138"><ele>52.0</ele><time>2026-04-04T10:59:18Z</time></trkpt><trkpt lat="44.31849767502756" lon="8.474110264800002"><ele>52.0</ele><time>2026-04-04T10:59:19Z</time></trkpt><trkpt lat="44.318519772820274" lon="8.474427895625828"><ele>52.0</ele><time>2026-04-04T10:59:20Z</time></trkpt><trkpt lat="44.31853577788045" lon="8.4747492364154"><ele>52.5</ele><time>2026-04-04T10:59:21Z</time></trkpt><trkpt lat="44.318573939964644" lon="8.475077953903174"><ele>53.0</ele><time>2026-04-04T10:59:22Z</time></trkpt><trkpt lat="44.31858598035123" lon="8.475390663559379"><ele>51.5</ele><time>2026-04-04T10:59:23Z</time></trkpt><trkpt lat="44.31860280779466" lon="8.475708467203935"><ele>50.0</ele><time>2026-04-04T10:59:24Z</time></trkpt><trkpt lat="44.31861998942383" lon="8.476020371322182"><ele>53.5</ele><time>2026-04-04T10:59:25Z</time></trkpt><trkpt lat="44.31863980707609" lon="8.47633576926273"><ele>57.0</ele><time>2026-04-04T10:59:26Z</time></trkpt><trkpt lat="44.318653401470826" lon="8.476650030803418"><ele>57.0</ele><time>2026-04-04T10:59:27Z</time></trkpt><trkpt lat="44.31867492228365" lon="8.47696322614876"><ele>57.0</ele><time>2026-04-04T10:59:28Z</time></trkpt><trkpt lat="44.318698875531915" lon="8.477277086316361"><ele>56.66666666666667</ele><time>2026-04-04T10:59:29Z</time></trkpt><trkpt lat="44.31872151707113" lon="8.477584767305265"><ele>56.333333333333336</ele><time>2026-04-04T10:59:30Z</time></trkpt><trkpt lat="44.31874947736244" lon="8.477888708676772"><ele>56.0</ele><time>2026-04-04T10:59:31Z</time></trkpt><trkpt lat="44.31878806662064" lon="8.478194820793135"><ele>57.66666666666667</ele><time>2026-04-04T10:59:32Z</time></trkpt><trkpt lat="44.31883738731243" lon="8.478490427342376"><ele>59.33333333333333</ele><time>2026-04-04T10:59:33Z</time></trkpt><trkpt lat="44.31891127369842" lon="8.478784198006165"><ele>61.0</ele><time>2026-04-04T10:59:34Z</time></trkpt><trkpt lat="44.31900735728717" lon="8.479065676756244"><ele>61.0</ele><time>2026-04-04T10:59:35Z</time></trkpt><trkpt lat="44.319094586684976" lon="8.479335191361477"><ele>61.0</ele><time>2026-04-04T10:59:36Z</time></trkpt><trkpt lat="44.3191951478093" lon="8.479622238507039"><ele>61.0</ele><time>2026-04-04T10:59:37Z</time></trkpt><trkpt lat="44.31931293896235" lon="8.479880069457609"><ele>59.666666666666664</ele><time>2026-04-04T10:59:38Z</time></trkpt><trkpt lat="44.31943841057374" lon="8.480130452444971"><ele>58.33333333333333</ele><time>2026-04-04T10:59:39Z</time></trkpt><trkpt lat="44.319575960288205" lon="8.480368139179001"><ele>57.0</ele><time>2026-04-04T10:59:40Z</time></trkpt><trkpt lat="44.31972005731669" lon="8.480593618143901"><ele>58.0</ele><time>2026-04-04T10:59:41Z</time></trkpt><trkpt lat="44.319877658329226" lon="8.48081535508379"><ele>59.0</ele><time>2026-04-04T10:59:42Z</time></trkpt><trkpt lat="44.320039362005545" lon="8.481031783847213"><ele>60.0</ele><time>2026-04-04T10:59:43Z</time></trkpt><trkpt lat="44.320200421382374" lon="8.481252663852718"><ele>61.33333333333333</ele><time>2026-04-04T10:59:44Z</time></trkpt><trkpt lat="44.32036189223838" lon="8.481466055675995"><ele>62.666666666666664</ele><time>2026-04-04T10:59:45Z</time></trkpt><trkpt lat="44.3205210112309" lon="8.481682580254988"><ele>64.0</ele><time>2026-04-04T10:59:46Z</time></trkpt><trkpt lat="44.320685280560824" lon="8.48190511200331"><ele>66.33333333333333</ele><time>2026-04-04T10:59:47Z</time></trkpt><trkpt lat="44.32084187398028" lon="8.482126805553776"><ele>68.66666666666667</ele><time>2026-04-04T10:59:48Z</time></trkpt><trkpt lat="44.320997120745126" lon="8.482355150707908"><ele>71.0</ele><time>2026-04-04T10:59:49Z</time></trkpt><trkpt lat="44.321145384739715" lon="8.4825870593453"><ele>71.0</ele><time>2026-04-04T10:59:50Z</time></trkpt><trkpt lat="44.32128977804665" lon="8.482829121775463"><ele>71.0</ele><time>2026-04-04T10:59:51Z</time></trkpt><trkpt lat="44.3214259247791" lon="8.483075553670435"><ele>71.0</ele><time>2026-04-04T10:59:52Z</time></trkpt><trkpt lat="44.321558867929866" lon="8.48332576549947"><ele>74.0</ele><time>2026-04-04T10:59:53Z</time></trkpt><trkpt lat="44.32168952956186" lon="8.483581966114714"><ele>77.0</ele><time>2026-04-04T10:59:54Z</time></trkpt><trkpt lat="44.321814794387805" lon="8.483850510678465"><ele>86.0</ele><time>2026-04-04T10:59:55Z</time></trkpt><trkpt lat="44.321936125547374" lon="8.484128898731651"><ele>95.0</ele><time>2026-04-04T10:59:56Z</time></trkpt><trkpt lat="44.322053252068336" lon="8.484412789454504"><ele>101.5</ele><time>2026-04-04T10:59:57Z</time></trkpt><trkpt lat="44.32216726090489" lon="8.484706747728834"><ele>108.0</ele><time>2026-04-04T10:59:58.015Z</time></trkpt><trkpt lat="44.322272733819524" lon="8.48499865506373"><ele>108.5</ele><time>2026-04-04T10:59:59.014Z</time></trkpt><trkpt lat="44.32237456312931" lon="8.485287633905488"><ele>109.0</ele><time>2026-04-04T11:00:00.012Z</time></trkpt><trkpt lat="44.32246462950244" lon="8.485581155754112"><ele>99.0</ele><time>2026-04-04T11:00:01.01Z</time></trkpt><trkpt lat="44.322546698730896" lon="8.485880030381784"><ele>89.0</ele><time>2026-04-04T11:00:02.011Z</time></trkpt><trkpt lat="44.32263367474206" lon="8.486173874025024"><ele>85.66666666666667</ele><time>2026-04-04T11:00:03.013Z</time></trkpt><trkpt lat="44.3227095786767" lon="8.48647194608824"><ele>82.33333333333333</ele><time>2026-04-04T11:00:04.011Z</time></trkpt><trkpt lat="44.3227947681442" lon="8.486758350688163"><ele>79.0</ele><time>2026-04-04T11:00:05Z</time></trkpt><trkpt lat="44.32285933062478" lon="8.487074037813095"><ele>80.0</ele><time>2026-04-04T11:00:06Z</time></trkpt><trkpt lat="44.32296399886924" lon="8.487428294964683"><ele>81.0</ele><time>2026-04-04T11:00:07Z</time></trkpt><trkpt lat="44.32304063338492" lon="8.487720174795221"><ele>76.0</ele><time>2026-04-04T11:00:08Z</time></trkpt><trkpt lat="44.32311493806763" lon="8.488018892842595"><ele>71.0</ele><time>2026-04-04T11:00:09Z</time></trkpt><trkpt lat="44.32319445223424" lon="8.48832192175665"><ele>71.0</ele><time>2026-04-04T11:00:10Z</time></trkpt><trkpt lat="44.32327024844356" lon="8.488616358057586"><ele>71.0</ele><time>2026-04-04T11:00:11Z</time></trkpt><trkpt lat="44.323350878750105" lon="8.488915013467215"><ele>68.5</ele><time>2026-04-04T11:00:12Z</time></trkpt><trkpt lat="44.32343700469198" lon="8.489210349953263"><ele>66.0</ele><time>2026-04-04T11:00:13Z</time></trkpt><trkpt lat="44.32353193860012" lon="8.489496728030225"><ele>65.0</ele><time>2026-04-04T11:00:14Z</time></trkpt><trkpt lat="44.32364040929415" lon="8.489779982720524"><ele>64.0</ele><time>2026-04-04T11:00:15Z</time></trkpt><trkpt lat="44.32375558358374" lon="8.490058162738617"><ele>64.0</ele><time>2026-04-04T11:00:16Z</time></trkpt><trkpt lat="44.32388091536031" lon="8.490324440620325"><ele>64.0</ele><time>2026-04-04T11:00:17Z</time></trkpt><trkpt lat="44.32401867822909" lon="8.490582241696668"><ele>64.0</ele><time>2026-04-04T11:00:18Z</time></trkpt><trkpt lat="44.32416815888192" lon="8.49082736981389"><ele>64.0</ele><time>2026-04-04T11:00:19Z</time></trkpt><trkpt lat="44.324321402338036" lon="8.491065407878537"><ele>64.0</ele><time>2026-04-04T11:00:20Z</time></trkpt><trkpt lat="44.32448516735905" lon="8.491300851970873"><ele>64.0</ele><time>2026-04-04T11:00:21Z</time></trkpt><trkpt lat="44.324660447181635" lon="8.491528849484254"><ele>80.5</ele><time>2026-04-04T11:00:22Z</time></trkpt><trkpt lat="44.324846062496015" lon="8.491751992317802"><ele>97.0</ele><time>2026-04-04T11:00:23.014Z</time></trkpt><trkpt lat="44.32502923311896" lon="8.491976284848954"><ele>90.5</ele><time>2026-04-04T11:00:24.014Z</time></trkpt><trkpt lat="44.325210418994395" lon="8.492204690515504"><ele>84.0</ele><time>2026-04-04T11:00:25.01Z</time></trkpt><trkpt lat="44.32539428620998" lon="8.492432522292374"><ele>29.0</ele><time>2026-04-04T11:00:26.01Z</time></trkpt><trkpt lat="44.330643390832776" lon="8.498902869121531"><ele>29.0</ele><time>2026-04-04T11:00:55.001Z</time></trkpt><trkpt lat="44.33077568057427" lon="8.499038115158209"><ele>29.0</ele><time>2026-04-04T11:00:56.001Z</time></trkpt><trkpt lat="44.3309934292264" lon="8.499208903765366"><ele>29.0</ele><time>2026-04-04T11:00:57.001Z</time></trkpt><trkpt lat="44.33118928879177" lon="8.499366307561946"><ele>29.0</ele><time>2026-04-04T11:00:58.001Z</time></trkpt><trkpt lat="44.33138673000039" lon="8.499519731298276"><ele>29.0</ele><time>2026-04-04T11:00:59.001Z</time></trkpt><trkpt lat="44.331591806713924" lon="8.499662768343308"><ele>40.5</ele><time>2026-04-04T11:01:00Z</time></trkpt><trkpt lat="44.33180070636916" lon="8.499799071581146"><ele>52.0</ele><time>2026-04-04T11:01:01Z</time></trkpt><trkpt lat="44.332015519891385" lon="8.499926754287642"><ele>57.5</ele><time>2026-04-04T11:01:02.014Z</time></trkpt><trkpt lat="44.3322291299031" lon="8.500052639303055"><ele>63.0</ele><time>2026-04-04T11:01:03.012Z</time></trkpt><trkpt lat="44.33244493768549" lon="8.500181425810972"><ele>63.0</ele><time>2026-04-04T11:01:04.013Z</time></trkpt><trkpt lat="44.332660248688974" lon="8.500312709879564"><ele>63.0</ele><time>2026-04-04T11:01:05.013Z</time></trkpt><trkpt lat="44.33360089552061" lon="8.50127840415435"><ele>45.0</ele><time>2026-04-04T11:01:10Z</time></trkpt><trkpt lat="44.33379915454409" lon="8.50143488327272"><ele>27.0</ele><time>2026-04-04T11:01:11Z</time></trkpt><trkpt lat="44.33411990644042" lon="8.501555468780289"><ele>24.0</ele><time>2026-04-04T11:01:12Z</time></trkpt><trkpt lat="44.33427261405141" lon="8.501796151910666"><ele>21.0</ele><time>2026-04-04T11:01:13Z</time></trkpt><trkpt lat="44.334400191610726" lon="8.502047433456323"><ele>18.666666666666668</ele><time>2026-04-04T11:01:14Z</time></trkpt><trkpt lat="44.33450671171157" lon="8.502315739044473"><ele>16.333333333333336</ele><time>2026-04-04T11:01:15Z</time></trkpt><trkpt lat="44.33456848446203" lon="8.502565927257509"><ele>14.0</ele><time>2026-04-04T11:01:16Z</time></trkpt><trkpt lat="44.33466713784789" lon="8.502843070135667"><ele>12.0</ele><time>2026-04-04T11:01:17Z</time></trkpt><trkpt lat="44.33475711378925" lon="8.503136709944133"><ele>10.0</ele><time>2026-04-04T11:01:18Z</time></trkpt><trkpt lat="44.33483436275932" lon="8.503436890637948"><ele>10.0</ele><time>2026-04-04T11:01:19Z</time></trkpt><trkpt lat="44.334894554632704" lon="8.503745362298728"><ele>10.0</ele><time>2026-04-04T11:01:20Z</time></trkpt><trkpt lat="44.33494382400595" lon="8.50405787190291"><ele>8.5</ele><time>2026-04-04T11:01:21Z</time></trkpt><trkpt lat="44.33497824108542" lon="8.504373263351956"><ele>7.0</ele><time>2026-04-04T11:01:22Z</time></trkpt><trkpt lat="44.33499309500759" lon="8.50468667828362"><ele>6.0</ele><time>2026-04-04T11:01:23Z</time></trkpt><trkpt lat="44.33499324471712" lon="8.505006372606728"><ele>5.0</ele><time>2026-04-04T11:01:24Z</time></trkpt><trkpt lat="44.33498224273035" lon="8.505319005480914"><ele>4.666666666666667</ele><time>2026-04-04T11:01:25Z</time></trkpt><trkpt lat="44.33496870527776" lon="8.505626775236234"><ele>4.333333333333333</ele><time>2026-04-04T11:01:26Z</time></trkpt><trkpt lat="44.334954193229834" lon="8.50593289991049"><ele>4.0</ele><time>2026-04-04T11:01:27Z</time></trkpt><trkpt lat="44.33493164972302" lon="8.50623155899173"><ele>4.666666666666666</ele><time>2026-04-04T11:01:28Z</time></trkpt><trkpt lat="44.33490893918906" lon="8.50652407279764"><ele>5.333333333333333</ele><time>2026-04-04T11:01:29Z</time></trkpt><trkpt lat="44.334890809029076" lon="8.506797905575601"><ele>6.0</ele><time>2026-04-04T11:01:30Z</time></trkpt><trkpt lat="44.33487640167258" lon="8.507046926159031"><ele>6.333333333333334</ele><time>2026-04-04T11:01:31Z</time></trkpt><trkpt lat="44.334861482681504" lon="8.507278197314381"><ele>6.666666666666667</ele><time>2026-04-04T11:01:32Z</time></trkpt><trkpt lat="44.33485040774246" lon="8.50750045270381"><ele>7.0</ele><time>2026-04-04T11:01:33Z</time></trkpt><trkpt lat="44.334840189385176" lon="8.507698982917201"><ele>7.0</ele><time>2026-04-04T11:01:34Z</time></trkpt><trkpt lat="44.33482941143097" lon="8.507883902036488"><ele>6.999999999999999</ele><time>2026-04-04T11:01:35Z</time></trkpt><trkpt lat="44.334809252873384" lon="8.508043014832872"><ele>6.999999999999999</ele><time>2026-04-04T11:01:36Z</time></trkpt><trkpt lat="44.33476633128013" lon="8.508179734519068"><ele>7.0</ele><time>2026-04-04T11:01:37Z</time></trkpt><trkpt lat="44.33478555674005" lon="8.508303451942078"><ele>7.0</ele><time>2026-04-04T11:01:38Z</time></trkpt><trkpt lat="44.334587037221276" lon="8.508339410043158"><ele>6.8</ele><time>2026-04-04T11:01:39Z</time></trkpt><trkpt lat="44.33448471564987" lon="8.508359694762724"><ele>6.6</ele><time>2026-04-04T11:01:40Z</time></trkpt><trkpt lat="44.33438472944135" lon="8.508332557052176"><ele>6.3999999999999995</ele><time>2026-04-04T11:01:41Z</time></trkpt><trkpt lat="44.334286978996644" lon="8.50827890522041"><ele>6.199999999999999</ele><time>2026-04-04T11:01:42Z</time></trkpt><trkpt lat="44.33423193581919" lon="8.508144103899317"><ele>6.0</ele><time>2026-04-04T11:01:43Z</time></trkpt><trkpt lat="44.33417665527572" lon="8.508023350206573"><ele>6.0</ele><time>2026-04-04T11:01:44Z</time></trkpt><trkpt lat="44.334191540037054" lon="8.507859276174969"><ele>6.0</ele><time>2026-04-04T11:01:45Z</time></trkpt><trkpt lat="44.33423471442802" lon="8.507713134810052"><ele>6.0</ele><time>2026-04-04T11:01:46Z</time></trkpt><trkpt lat="44.334318636264754" lon="8.507597048571467"><ele>6.0</ele><time>2026-04-04T11:01:47Z</time></trkpt><trkpt lat="44.33442788895314" lon="8.507539974087809"><ele>6.0</ele><time>2026-04-04T11:01:48Z</time></trkpt><trkpt lat="44.334547391942195" lon="8.507541169417662"><ele>6.0</ele><time>2026-04-04T11:01:49Z</time></trkpt><trkpt lat="44.33466719769694" lon="8.507595070750286"><ele>6.0</ele><time>2026-04-04T11:01:50Z</time></trkpt><trkpt lat="44.334775185460316" lon="8.507699273811397"><ele>6.0</ele><time>2026-04-04T11:01:51Z</time></trkpt><trkpt lat="44.33488223905941" lon="8.507809916219982"><ele>6.25</ele><time>2026-04-04T11:01:52Z</time></trkpt><trkpt lat="44.335006172175866" lon="8.507903860826055"><ele>6.5</ele><time>2026-04-04T11:01:53Z</time></trkpt><trkpt lat="44.33512870023311" lon="8.508005288313095"><ele>6.75</ele><time>2026-04-04T11:01:54Z</time></trkpt><trkpt lat="44.33524779442709" lon="8.508111021665018"><ele>7.0</ele><time>2026-04-04T11:01:55Z</time></trkpt><trkpt lat="44.335357539129255" lon="8.508218438869859"><ele>7.0</ele><time>2026-04-04T11:01:56Z</time></trkpt><trkpt lat="44.33547250655032" lon="8.50832190442431"><ele>7.0</ele><time>2026-04-04T11:01:57Z</time></trkpt><trkpt lat="44.33557864746382" lon="8.508416479833095"><ele>7.0</ele><time>2026-04-04T11:01:58Z</time></trkpt><trkpt lat="44.335664987188856" lon="8.508499534478652"><ele>7.0</ele><time>2026-04-04T11:01:59Z</time></trkpt><trkpt lat="44.335731234945754" lon="8.508573193490065"><ele>7.000000000000001</ele><time>2026-04-04T11:02:00Z</time></trkpt><trkpt lat="44.335776538692" lon="8.508635685999751"><ele>7.0</ele><time>2026-04-04T11:02:01Z</time></trkpt><trkpt lat="44.33582804925102" lon="8.508728039039472"><ele>7.0</ele><time>2026-04-04T11:02:03Z</time></trkpt><trkpt lat="44.33587063540351" lon="8.508794559616844"><ele>7.0</ele><time>2026-04-04T11:02:05Z</time></trkpt><trkpt lat="44.33589978103543" lon="8.508888275984097"><ele>7.000000000000001</ele><time>2026-04-04T11:02:26Z</time></trkpt><trkpt lat="44.33592917794496" lon="8.508969344766935"><ele>7.0</ele><time>2026-04-04T11:02:32Z</time></trkpt><trkpt lat="44.33600893181267" lon="8.509148903864554"><ele>7.0</ele><time>2026-04-04T11:08:46Z</time></trkpt><trkpt lat="44.335980185573966" lon="8.509284556219026"><ele>6.999999999999999</ele><time>2026-04-04T11:13:35Z</time></trkpt><trkpt lat="44.33602832119926" lon="8.509348604569386"><ele>6.999999999999999</ele><time>2026-04-04T11:13:44Z</time></trkpt><trkpt lat="44.33610177398388" lon="8.509574692833121"><ele>7.0</ele><time>2026-04-04T11:13:50Z</time></trkpt><trkpt lat="44.33612953423666" lon="8.50967190050264"><ele>7.0</ele><time>2026-04-04T11:13:51Z</time></trkpt><trkpt lat="44.33616258672855" lon="8.509775870353776"><ele>7.199999999999999</ele><time>2026-04-04T11:13:52Z</time></trkpt><trkpt lat="44.33619312249617" lon="8.509883678096609"><ele>7.3999999999999995</ele><time>2026-04-04T11:13:53Z</time></trkpt><trkpt lat="44.336240651683845" lon="8.509951430445986"><ele>7.6000000000000005</ele><time>2026-04-04T11:13:55Z</time></trkpt><trkpt lat="44.33642775527136" lon="8.50998234150807"><ele>7.800000000000001</ele><time>2026-04-04T11:14:05Z</time></trkpt><trkpt lat="44.33648172839306" lon="8.50992946857342"><ele>8.0</ele><time>2026-04-04T11:14:06Z</time></trkpt><trkpt lat="44.33656882498927" lon="8.509879834361808"><ele>8.333333333333332</ele><time>2026-04-04T11:14:07Z</time></trkpt><trkpt lat="44.33666129046176" lon="8.50983419603816"><ele>8.666666666666666</ele><time>2026-04-04T11:14:08Z</time></trkpt><trkpt lat="44.33674871680546" lon="8.509773965889147"><ele>9.0</ele><time>2026-04-04T11:14:09Z</time></trkpt><trkpt lat="44.33683131458306" lon="8.50971413148923"><ele>9.333333333333334</ele><time>2026-04-04T11:14:10Z</time></trkpt><trkpt lat="44.33691189582518" lon="8.50967027223731"><ele>9.666666666666668</ele><time>2026-04-04T11:14:11Z</time></trkpt><trkpt lat="44.33697759649004" lon="8.509631695774745"><ele>10.0</ele><time>2026-04-04T11:14:12Z</time></trkpt><trkpt lat="44.33706963904823" lon="8.509586705907887"><ele>9.833333333333334</ele><time>2026-04-04T11:14:14Z</time></trkpt><trkpt lat="44.33713864794067" lon="8.509568371261084"><ele>9.666666666666668</ele><time>2026-04-04T11:14:16Z</time></trkpt><trkpt lat="44.337210492499175" lon="8.509569516079704"><ele>9.5</ele><time>2026-04-04T11:14:17Z</time></trkpt><trkpt lat="44.337289487632" lon="8.50957578877875"><ele>9.333333333333334</ele><time>2026-04-04T11:14:18Z</time></trkpt><trkpt lat="44.33735468679641" lon="8.509554615677702"><ele>9.166666666666666</ele><time>2026-04-04T11:14:19Z</time></trkpt><trkpt lat="44.33747724299667" lon="8.509527723480984"><ele>9.0</ele><time>2026-04-04T11:14:21Z</time></trkpt><trkpt lat="44.33754227471125" lon="8.50955095568942"><ele>8.833333333333334</ele><time>2026-04-04T11:14:22Z</time></trkpt><trkpt lat="44.33763740714675" lon="8.50961730141764"><ele>8.666666666666666</ele><time>2026-04-04T11:14:24Z</time></trkpt><trkpt lat="44.33774329665602" lon="8.50967092162885"><ele>8.5</ele><time>2026-04-04T11:14:26Z</time></trkpt><trkpt lat="44.337805277757056" lon="8.509704205519997"><ele>8.333333333333332</ele><time>2026-04-04T11:14:27Z</time></trkpt><trkpt lat="44.337877254294305" lon="8.509753883243116"><ele>8.166666666666666</ele><time>2026-04-04T11:14:28Z</time></trkpt><trkpt lat="44.3379486259238" lon="8.50979647692848"><ele>8.0</ele><time>2026-04-04T11:14:29Z</time></trkpt><trkpt lat="44.33802527976843" lon="8.509838959433248"><ele>8.285714285714285</ele><time>2026-04-04T11:14:30Z</time></trkpt><trkpt lat="44.33810306596498" lon="8.50988187742304"><ele>8.571428571428571</ele><time>2026-04-04T11:14:31Z</time></trkpt><trkpt lat="44.33817272938222" lon="8.509917799658247"><ele>8.857142857142858</ele><time>2026-04-04T11:14:32Z</time></trkpt><trkpt lat="44.33823364490347" lon="8.509956230425294"><ele>9.142857142857142</ele><time>2026-04-04T11:14:33Z</time></trkpt><trkpt lat="44.33830074737081" lon="8.509993802358087"><ele>9.428571428571429</ele><time>2026-04-04T11:14:34Z</time></trkpt><trkpt lat="44.33837308141805" lon="8.510029679601415"><ele>9.714285714285714</ele><time>2026-04-04T11:14:35Z</time></trkpt><trkpt lat="44.3384346124996" lon="8.510065088019669"><ele>10.0</ele><time>2026-04-04T11:14:36Z</time></trkpt><trkpt lat="44.33849869161619" lon="8.510095636513041"><ele>10.0</ele><time>2026-04-04T11:14:37Z</time></trkpt><trkpt lat="44.33860231444105" lon="8.510153621947286"><ele>10.0</ele><time>2026-04-04T11:14:39Z</time></trkpt><trkpt lat="44.338655598143006" lon="8.510219858642541"><ele>10.0</ele><time>2026-04-04T11:14:40Z</time></trkpt><trkpt lat="44.338734983761306" lon="8.510245556136715"><ele>10.0</ele><time>2026-04-04T11:14:42Z</time></trkpt><trkpt lat="44.33881276662582" lon="8.510313848579692"><ele>10.0</ele><time>2026-04-04T11:14:44Z</time></trkpt><trkpt lat="44.338869913707484" lon="8.51037675653764"><ele>10.0</ele><time>2026-04-04T11:14:45Z</time></trkpt><trkpt lat="44.338950565882904" lon="8.510446506989586"><ele>10.5</ele><time>2026-04-04T11:14:46Z</time></trkpt><trkpt lat="44.339052327254734" lon="8.510522496947722"><ele>11.0</ele><time>2026-04-04T11:14:47Z</time></trkpt><trkpt lat="44.33914866182809" lon="8.510605504854837"><ele>11.5</ele><time>2026-04-04T11:14:48Z</time></trkpt><trkpt lat="44.33925000896" lon="8.510699097352246"><ele>12.0</ele><time>2026-04-04T11:14:49Z</time></trkpt><trkpt lat="44.33935651907747" lon="8.510793480881969"><ele>12.0</ele><time>2026-04-04T11:14:50Z</time></trkpt><trkpt lat="44.33946712118197" lon="8.510887846975665"><ele>12.0</ele><time>2026-04-04T11:14:51Z</time></trkpt><trkpt lat="44.33957817192354" lon="8.510983549661832"><ele>12.0</ele><time>2026-04-04T11:14:52Z</time></trkpt><trkpt lat="44.339669920929396" lon="8.51110797219263"><ele>12.0</ele><time>2026-04-04T11:14:53Z</time></trkpt><trkpt lat="44.33978683265616" lon="8.5111960847303"><ele>12.25</ele><time>2026-04-04T11:14:54Z</time></trkpt><trkpt lat="44.339932389292855" lon="8.511225833686664"><ele>12.5</ele><time>2026-04-04T11:14:55Z</time></trkpt><trkpt lat="44.34006299126182" lon="8.511272938033256"><ele>12.75</ele><time>2026-04-04T11:14:56Z</time></trkpt><trkpt lat="44.34019238181619" lon="8.511311785088694"><ele>13.0</ele><time>2026-04-04T11:14:57Z</time></trkpt><trkpt lat="44.340328359695924" lon="8.511326098212173"><ele>13.0</ele><time>2026-04-04T11:14:58Z</time></trkpt><trkpt lat="44.34045985620151" lon="8.511300363434161"><ele>13.0</ele><time>2026-04-04T11:14:59Z</time></trkpt><trkpt lat="44.340591232351905" lon="8.511258082165032"><ele>13.0</ele><time>2026-04-04T11:15:00Z</time></trkpt><trkpt lat="44.34072600354224" lon="8.511221262080849"><ele>13.0</ele><time>2026-04-04T11:15:01Z</time></trkpt><trkpt lat="44.34086250448555" lon="8.511183612245611"><ele>13.25</ele><time>2026-04-04T11:15:02Z</time></trkpt><trkpt lat="44.340982899110045" lon="8.511153351239114"><ele>13.5</ele><time>2026-04-04T11:15:03Z</time></trkpt><trkpt lat="44.34108646040521" lon="8.511123875485284"><ele>13.75</ele><time>2026-04-04T11:15:04Z</time></trkpt><trkpt lat="44.34119542683351" lon="8.511097681197857"><ele>14.0</ele><time>2026-04-04T11:15:05Z</time></trkpt><trkpt lat="44.34131058615865" lon="8.511060415586941"><ele>14.5</ele><time>2026-04-04T11:15:06Z</time></trkpt><trkpt lat="44.341437483295145" lon="8.511024257489595"><ele>15.0</ele><time>2026-04-04T11:15:07Z</time></trkpt><trkpt lat="44.341563664703216" lon="8.510981225560348"><ele>15.5</ele><time>2026-04-04T11:15:08Z</time></trkpt><trkpt lat="44.34168501826627" lon="8.510942389349998"><ele>16.0</ele><time>2026-04-04T11:15:09Z</time></trkpt><trkpt lat="44.341789964546145" lon="8.510907524644365"><ele>16.0</ele><time>2026-04-04T11:15:10Z</time></trkpt><trkpt lat="44.34187415869371" lon="8.510882162264636"><ele>16.0</ele><time>2026-04-04T11:15:11Z</time></trkpt><trkpt lat="44.34196693812515" lon="8.510858619569625"><ele>16.0</ele><time>2026-04-04T11:15:13Z</time></trkpt><trkpt lat="44.34202716337452" lon="8.51082614410962"><ele>16.0</ele><time>2026-04-04T11:15:15Z</time></trkpt><trkpt lat="44.34199500143322" lon="8.510726461387218"><ele>16.0</ele><time>2026-04-04T11:15:17Z</time></trkpt><trkpt lat="44.341857597895114" lon="8.5107321653397"><ele>16.0</ele><time>2026-04-04T11:15:19Z</time></trkpt><trkpt lat="44.34179512979493" lon="8.510751201903458"><ele>16.0</ele><time>2026-04-04T11:15:20Z</time></trkpt><trkpt lat="44.34169874926513" lon="8.510748804702185"><ele>16.0</ele><time>2026-04-04T11:15:22Z</time></trkpt><trkpt lat="44.341632938449074" lon="8.51073115403307"><ele>16.0</ele><time>2026-04-04T11:15:24Z</time></trkpt></trkseg></trk></gpx>